ECMWFFLT1_con_mucape_000.txt.gz
CAPE
952 1622 1779 1886 2206 2626 2743 2754 2752 2807 2968 2970 3008 2969 2878 2900 3088 3028 2909 3015 2957 2741 2470 2206 1970 1793 1701 994 0 0 0 0 0 0 0 0 8 188 6 0 0 0 0 0 11 137 164 168 87 119 394 532 232 258 304 446 556 736 690 645 749 829 787
772 1552 1774 1808 2036 2418 2656 2820 2795 2842 2924 3001 3008 2916 2820 2874 2957 2978 2912 2837 2712 2540 2298 2113 1995 1832 1594 160 1 0 0 0 3 77 0 99 144 0 1 0 0 0 12 0 6 0 149 126 140 140 522 451 168 116 184 202 224 167 283 374 560 650 663
531 1332 1755 1834 1930 2220 2504 2756 2933 2964 2883 2927 2956 2856 2757 2814 2852 2864 2790 2686 2538 2297 2107 1928 1777 1598 1232 9 3 0 0 0 8 0 0 2 0 0 0 0 0 0 0 0 0 0 216 105 64 62 143 76 42 33 59 92 165 265 336 379 614 647 633
396 919 1505 1773 1845 2130 2561 2827 3015 3068 2889 2834 2855 2824 2721 2750 2783 2706 2597 2472 2375 2186 1976 1756 1556 1428 871 222 0 0 0 0 0 0 0 0 0 0 0 0 0 0 0 0 6 92 112 106 40 85 754 134 90 128 148 228 243 180 158 244 567 618 652
426 728 1145 1633 1842 2036 2586 2866 3032 3086 2960 2835 2810 2799 2680 2657 2688 2586 2440 2284 2163 2032 1840 1698 1488 1189 601 80 0 0 0 0 0 0 0 0 0 0 0 0 0 0 0 0 2 120 125 129 2 2 60 207 160 139 437 307 148 235 362 555 594 546 616
601 774 996 1382 1778 2030 2520 2858 3020 3056 2987 2878 2785 2742 2672 2614 2596 2453 2299 2166 2019 1832 1686 1540 1368 983 589 268 6 0 0 0 0 0 0 0 0 0 0 0 0 0 0 0 69 73 12 0 67 142 115 72 92 70 14 16 32 76 174 212 184 196 337
769 891 1031 1196 1546 1972 2457 2850 3020 3074 2976 2852 2743 2632 2578 2546 2515 2346 2124 1960 1836 1654 1506 1362 1246 816 612 548 76 28 6 5 0 0 0 0 0 0 0 0 1 0 0 1 24 98 91 109 109 64 38 23 94 104 380 22 179 444 366 263 284 181 185
754 910 1090 1168 1389 1792 2199 2633 2986 3013 2938 2816 2726 2573 2459 2462 2444 2266 2053 1858 1675 1488 1372 1234 1074 755 394 571 483 89 34 25 12 4 7 5 0 0 0 0 0 0 0 0 0 9 22 4 0 14 17 79 108 80 84 104 458 401 97 144 119 143 408
674 870 1087 1192 1216 1495 2081 2360 2634 2886 2871 2725 2651 2552 2390 2394 2339 2180 2002 1794 1582 1375 1297 1150 930 437 706 591 471 410 419 342 253 272 172 39 12 1 0 0 4 14 25 14 1 0 0 2 8 12 33 36 41 52 63 149 6 6 35 88 345 485 588
820 889 991 1097 1188 1217 1576 2126 2384 2538 2662 2592 2500 2464 2343 2330 2282 2114 1944 1775 1575 1379 1197 1000 638 661 791 708 601 551 534 253 287 366 309 39 33 52 26 55 44 107 62 28 2 1 55 71 40 51 52 52 347 398 356 0 0 4 11 50 198 395 581
783 808 960 1063 1133 1143 1330 1817 2187 2338 2439 2428 2341 2330 2279 2235 2184 2065 1905 1753 1582 1359 1216 1034 790 701 792 853 779 698 561 316 254 325 378 138 88 94 252 361 350 275 366 384 80 50 37 112 129 87 72 85 326 135 0 0 0 1 14 185 468 611 632
638 762 823 851 963 1090 1200 1535 1898 2157 2324 2336 2288 2217 2213 2130 2098 2006 1873 1744 1616 1430 1227 1053 838 845 854 834 784 710 555 328 504 485 449 108 186 258 402 418 438 458 483 473 484 498 458 31 17 80 4 0 0 0 4 6 0 0 6 316 518 600 634
792 1045 1058 968 947 1029 1200 1460 1894 2194 2291 2300 2265 2198 2159 2066 2007 1930 1814 1686 1546 1334 1114 954 903 996 913 877 805 734 672 605 598 621 506 430 268 426 550 583 630 666 709 744 616 423 131 114 0 0 0 1 1 0 0 0 0 304 333 372 407 497 606
1440 1314 1456 1253 1113 1116 1317 1632 2031 2295 2351 2320 2258 2196 2113 1981 1852 1722 1610 1513 1420 1284 1098 895 1011 1128 1001 906 898 872 855 723 666 525 371 437 530 619 721 756 750 758 752 700 0 0 0 0 0 0 3 0 0 0 23 172 272 186 190 351 452 533 588
1469 1540 1649 1746 1720 1476 1433 1650 1990 2264 2355 2340 2234 2154 2060 1911 1778 1604 1496 1407 1329 1140 962 860 1052 1184 1130 963 904 962 943 446 690 675 638 678 738 767 792 800 817 798 804 588 0 0 0 0 0 0 0 11 42 458 413 1 54 276 433 444 494 526 438
1593 1762 1840 1728 1575 1527 1496 1617 1906 2173 2329 2294 2218 2103 1998 1813 1634 1530 1428 1330 1188 998 906 835 1028 1170 1146 1054 1004 1010 901 777 887 899 794 815 850 874 816 807 755 689 592 331 30 30 48 4 6 17 47 102 442 492 456 36 158 382 354 270 255 168 244
1664 1968 2010 1916 1658 1362 1398 1590 1813 2079 2207 2242 2197 2126 2004 1853 1661 1506 1370 1284 1188 1032 918 812 907 1116 1127 1047 977 1072 934 418 770 913 810 775 757 693 631 592 562 548 568 513 74 82 90 178 63 84 158 367 556 650 434 273 305 235 156 96 121 202 136
859 2285 2353 2179 1980 1594 1227 1262 1437 1724 2090 2180 2166 2143 2082 2017 1895 1718 1587 1401 1188 904 838 765 790 967 1108 1122 969 1200 893 345 688 828 749 609 639 714 671 657 651 686 651 548 386 120 188 293 430 464 498 599 696 664 523 294 103 75 53 26 6 38 36
822 1341 1288 1425 2053 1996 1736 1436 1339 1352 1662 2006 2120 2091 2046 2020 1946 1797 1619 1407 1134 856 802 677 729 906 1022 883 814 783 644 234 601 743 709 636 705 742 782 761 731 623 538 489 172 252 420 485 515 581 642 701 788 799 622 434 208 0 0 0 12 24 0
682 854 1106 1281 1454 1731 1872 1753 1580 1386 1366 1650 2021 2135 2047 1973 1892 1691 1524 1310 993 757 637 686 745 848 946 950 805 629 530 542 662 974 799 632 673 737 759 734 580 464 291 237 337 461 510 578 644 661 706 765 819 835 687 504 219 20 0 19 28 0 0
497 408 884 1409 1478 1604 1741 1739 1775 1609 1533 1500 1725 1986 2013 1935 1839 1730 1489 1212 782 912 1007 1058 1156 1136 1247 1106 921 688 720 527 924 1184 976 776 700 692 671 658 607 542 380 301 501 546 613 650 678 722 728 815 763 746 823 628 328 121 118 62 0 0 0
522 505 437 614 1086 1575 1639 1719 1850 1913 1912 1830 1758 1826 2009 1995 1768 1496 1238 972 920 933 818 876 1087 1086 958 1128 1258 926 422 532 1577 1788 1323 938 826 738 738 735 737 642 563 509 471 477 548 663 731 814 865 752 646 640 394 642 407 313 29 0 0 0 0
576 499 744 717 524 548 1524 1777 1909 1961 2010 2079 2014 1932 1808 1716 1721 1601 1556 1652 1245 1080 1164 1118 992 1074 1184 974 1038 490 233 744 1386 1570 1288 1079 888 853 812 819 762 610 502 458 446 479 571 676 803 825 716 468 232 332 639 590 322 90 0 0 0 0 0
828 872 1102 1224 1392 1278 974 1456 1852 1951 2025 2094 2288 2294 2244 2217 2234 2270 2022 1579 1410 1335 1356 1410 1325 1144 1274 1266 853 435 310 1106 1381 1086 862 992 922 871 814 685 604 571 538 523 560 667 858 860 696 577 464 489 609 778 708 481 251 103 0 0 0 0 0
1026 1096 1396 1524 2012 2884 3298 2946 2586 2398 2057 2098 2156 2264 2293 2173 2052 1903 1721 1544 1373 1255 1261 1446 1528 1317 1237 1229 763 477 821 722 504 553 833 834 776 740 650 617 635 636 666 685 691 777 874 718 658 502 118 138 516 540 538 336 112 48 0 0 0 0 0
774 1076 1174 1184 1802 2382 2610 2787 2458 2330 2244 2166 2198 2172 2267 2332 2287 2068 1844 1710 1499 1316 1135 1205 1296 1102 1445 957 658 389 740 142 122 306 600 700 675 661 682 700 706 736 774 789 858 871 778 814 979 807 645 508 426 424 334 134 65 33 0 0 0 0 0
808 1362 1373 1383 1846 1712 1413 1449 1642 1894 1996 2127 2290 2258 2256 2230 2242 2248 2108 1880 1700 1587 1400 1220 1073 936 789 632 612 286 815 296 36 396 759 888 776 748 786 805 814 843 958 1057 1059 1091 954 483 327 480 569 673 428 107 98 1 0 4 0 0 0 0 0
414 687 1884 1913 1873 1387 1266 1365 1384 1792 1937 1981 2032 2021 2024 1998 1985 1997 1920 1767 1687 1659 1546 1315 992 846 954 1027 724 426 397 67 438 758 1002 1089 870 756 730 765 1147 1319 1288 1024 876 650 350 238 169 46 459 369 249 0 4 43 34 0 0 0 0 0 0
370 236 1480 1790 1820 1562 1400 1482 1492 1613 1916 1939 1872 1820 1847 1848 1941 1987 1973 1919 1800 1586 1391 1190 892 778 969 766 456 534 546 570 911 1115 1173 1025 838 754 786 914 967 825 704 549 392 177 47 164 416 565 428 217 0 0 0 0 6 0 0 0 0 0 0
828 1757 1976 1994 2043 1710 1503 1351 1456 1557 1626 1714 1793 1877 1852 1794 1841 1834 1825 1776 1596 1443 1226 965 812 1136 1142 774 525 1272 827 902 1127 1070 977 892 862 818 786 717 691 563 421 218 166 178 178 391 793 518 106 0 0 0 0 0 0 0 0 0 0 0 0
906 1402 1954 2483 2435 2158 1801 1411 1440 1511 1576 1574 1656 1680 1652 1568 1609 1637 1586 1422 1289 1167 1018 901 823 871 991 763 537 484 561 810 772 802 884 894 854 802 672 502 343 232 28 160 260 220 181 593 347 0 0 0 0 0 0 0 0 0 0 0 0 0 0
586 1010 1472 2110 2671 2550 2259 1912 1773 1754 1585 1480 1433 1378 1337 1450 1484 1454 1234 1265 1140 924 1021 900 790 738 483 436 471 567 340 176 280 412 555 547 518 470 307 200 178 232 256 270 262 392 427 172 0 0 0 0 0 0 0 0 0 0 0 0 0 0 0
118 770 1232 1853 2355 2424 2426 2158 1737 1424 1249 1196 1103 1158 1126 1082 990 814 463 458 501 537 654 634 429 395 390 488 502 0 20 35 34 76 180 296 326 305 287 310 384 406 354 436 466 166 0 4 0 0 0 0 0 0 0 0 0 0 0 0 0 0 0
475 661 1172 1593 2084 2053 2015 1747 1360 1170 1039 947 888 763 793 875 918 233 177 263 122 66 144 1 8 124 156 236 16 2 46 346 793 68 85 260 374 400 421 401 357 299 183 192 0 0 4 2 6 0 0 0 0 0 1 0 0 0 0 0 0 0 0
556 776 1104 1600 1787 1563 1314 1236 1248 1168 1102 928 934 881 741 629 566 384 92 20 0 0 0 0 0 0 0 30 97 272 389 508 209 210 282 350 298 306 282 268 232 237 0 0 0 0 0 0 0 0 0 0 0 0 0 0 0 0 0 0 0 0 0
927 841 886 1225 1409 1410 1347 1255 1235 1260 1239 989 903 852 787 749 499 408 0 0 0 0 0 1 235 24 65 88 116 236 421 331 245 106 209 194 196 219 251 241 228 72 0 0 0 0 0 0 0 0 0 0 0 0 0 0 0 0 0 0 0 0 0
1027 892 810 899 1264 1474 1430 1346 1276 1262 1285 1191 980 791 585 454 17 0 0 3 162 249 30 4 36 47 6 92 92 168 329 358 234 204 167 184 227 274 232 162 0 0 0 0 0 0 0 0 0 0 0 0 0 0 0 0 0 0 0 0 0 0 0
1073 886 806 875 1126 1386 1484 1328 1346 1448 1340 1028 811 640 493 167 222 314 170 78 45 8 0 0 0 2 5 76 33 119 278 277 236 182 250 272 252 176 47 0 0 0 0 0 0 0 0 0 0 0 0 0 0 0 0 0 0 0 0 0 0 0 0

ECMWFFLT1_con_mucape_003.txt.gz
CAPE
938 1121 1196 1444 1636 1894 2152 2225 2277 2453 2563 2565 2540 2559 2602 2647 2711 2678 2651 2670 2674 2653 2577 2505 2517 2504 2333 2174 2104 1805 1374 891 689 411 0 0 0 0 0 0 1 0 0 0 0 68 20 52 4 7 14 53 6 47 38 134 289 507 384 312 314 342 372
828 1166 1324 1450 1625 1840 2185 2354 2356 2401 2529 2568 2527 2506 2556 2606 2673 2664 2613 2623 2702 2635 2462 2386 2410 2448 2323 2210 2094 1916 1350 1002 934 16 0 0 34 0 0 0 0 0 0 0 0 2 10 5 0 1 34 312 100 1 5 26 37 8 10 2 18 28 95
623 984 1346 1522 1650 1794 2130 2416 2459 2435 2486 2552 2539 2530 2596 2636 2643 2662 2596 2562 2664 2650 2379 2264 2302 2419 2244 2097 2108 1892 1399 1180 948 0 0 0 0 0 0 0 0 0 0 0 0 0 1 0 0 0 18 86 123 0 0 0 8 10 4 8 50 138 102
526 732 1164 1508 1675 1808 2082 2391 2510 2502 2490 2514 2545 2586 2644 2683 2663 2682 2646 2544 2548 2515 2253 2050 2150 2270 2143 2078 2104 1913 1515 1355 623 0 0 0 0 0 0 0 0 0 0 0 0 0 1 4 0 2 636 23 14 0 0 0 0 9 13 10 10 10 19
474 608 932 1335 1620 1803 2055 2352 2502 2560 2548 2554 2577 2636 2671 2710 2728 2718 2685 2574 2460 2370 2164 1949 2006 2142 2139 2125 2140 1912 1553 1515 416 0 0 0 0 0 0 0 0 0 0 0 0 2 9 12 0 0 6 25 2 0 2 1 7 5 0 0 21 19 53
439 560 750 1186 1460 1690 1938 2267 2466 2553 2597 2578 2595 2626 2688 2713 2731 2720 2678 2570 2422 2247 2047 1936 1937 1980 2083 2083 1984 1706 1568 1601 180 0 0 0 0 0 0 0 0 0 0 0 0 0 0 0 0 0 0 0 4 2 0 0 0 0 0 0 2 1 0
389 520 630 1058 1358 1536 1751 2114 2403 2515 2573 2608 2605 2614 2655 2710 2731 2724 2638 2487 2319 2146 1970 1854 1893 1930 1998 1920 1800 1578 1654 1524 63 0 0 0 0 0 0 0 0 0 0 0 0 0 0 0 0 0 0 0 4 0 0 0 0 0 0 112 96 0 0
363 458 556 868 1253 1442 1608 1927 2273 2506 2584 2595 2674 2664 2676 2704 2722 2713 2632 2448 2276 2104 1922 1856 1882 1932 1944 1829 1734 1618 1686 1262 0 0 0 0 0 0 0 0 0 0 0 0 0 0 0 0 0 2 0 0 0 0 0 0 0 0 0 0 0 0 0
366 248 462 641 1060 1387 1546 1796 2140 2414 2623 2716 2696 2689 2707 2712 2699 2672 2608 2436 2229 2043 1918 1766 1753 1828 1854 1798 1740 1561 1508 902 0 0 0 0 0 0 172 228 236 193 0 0 0 0 0 0 0 0 0 0 0 0 0 0 0 0 0 0 0 0 0
347 76 442 504 794 1185 1520 1714 2020 2346 2607 2750 2795 2764 2674 2678 2702 2669 2624 2461 2222 2027 1887 1746 1589 1640 1699 1687 1603 1422 1386 658 98 56 0 0 0 0 0 0 0 0 0 0 0 0 0 0 0 0 0 0 0 0 0 0 0 0 0 0 0 0 0
202 127 418 473 664 933 1268 1631 1982 2305 2568 2748 2833 2802 2719 2664 2690 2694 2650 2530 2304 2082 1936 1808 1728 1591 1488 1423 1456 1346 1230 624 280 248 227 46 239 0 0 0 0 0 0 0 0 0 0 0 0 0 0 0 0 0 0 0 0 0 0 0 0 0 0
392 399 413 501 615 747 997 1376 1806 2194 2501 2696 2824 2855 2780 2703 2687 2718 2690 2602 2416 2182 1991 1855 1805 1750 1600 1457 1364 1282 1182 576 308 284 259 147 267 126 0 1 1 1 28 0 0 0 0 0 0 12 0 0 0 0 0 0 0 0 0 0 0 0 0
446 460 502 570 666 762 838 1096 1547 1964 2350 2667 2790 2808 2822 2812 2760 2672 2641 2600 2469 2248 2042 1888 1820 1740 1559 1361 1196 1050 1049 622 473 381 366 254 309 212 20 355 60 72 56 100 33 19 6 0 0 14 6 0 0 0 0 0 0 0 0 0 0 0 0
452 506 564 668 738 790 869 961 1274 1729 2096 2394 2614 2740 2770 2779 2738 2688 2637 2601 2545 2377 2154 1966 1840 1727 1585 1391 1227 1064 1001 562 511 420 416 291 309 294 261 412 116 106 72 102 89 65 54 25 113 464 0 0 0 0 0 0 0 0 0 0 0 0 0
534 583 614 678 778 872 929 998 1076 1393 1802 2114 2407 2633 2732 2746 2740 2722 2686 2643 2562 2436 2262 2042 1894 1728 1575 1413 1238 1053 945 722 495 443 406 338 316 336 374 474 252 121 85 98 137 164 122 498 582 0 0 0 0 0 0 0 0 0 0 0 0 0 0
448 613 720 758 785 838 907 996 1084 1181 1543 1899 2194 2436 2597 2709 2744 2714 2706 2646 2561 2456 2298 2119 2003 1838 1674 1461 1314 1124 938 658 493 473 416 318 332 294 409 494 384 182 107 170 198 484 578 687 51 0 0 0 0 0 0 0 0 9 0 0 10 0 0
348 475 629 765 873 922 951 991 1030 1112 1300 1644 1944 2191 2401 2483 2564 2618 2646 2628 2589 2495 2360 2224 2062 1952 1815 1625 1348 1178 874 622 465 486 386 341 303 498 548 526 444 462 505 541 559 590 667 794 487 0 0 0 0 0 0 0 0 234 277 24 22 26 0
538 582 643 733 820 856 904 944 976 1079 1259 1517 1788 2037 2214 2351 2400 2458 2481 2499 2530 2461 2372 2252 2166 2047 1892 1716 1482 1288 1049 781 497 352 273 432 508 594 656 517 500 516 531 575 632 643 759 796 426 0 0 0 0 0 0 0 204 251 336 101 0 68 15
744 845 939 991 1054 1103 1100 1071 1074 1150 1296 1524 1788 1968 2060 2150 2266 2319 2353 2420 2392 2394 2298 2208 2173 2058 1932 1737 1556 1252 1019 686 390 104 0 28 221 1159 728 578 577 586 570 606 618 612 642 617 408 2 0 0 0 2 45 233 285 397 451 316 0 0 0
860 1062 1201 1286 1347 1433 1470 1484 1410 1377 1339 1544 1796 1960 2046 2095 2144 2213 2225 2315 2285 2139 2181 2132 2113 2024 1914 1735 1591 1428 1007 829 442 88 0 7 163 496 798 642 603 638 625 581 528 516 551 546 500 106 2 13 16 104 296 344 389 474 546 555 263 20 0
896 1121 1386 1609 1722 1747 1738 1649 1598 1522 1435 1491 1672 1893 2072 2156 2180 2192 2216 2220 2132 2152 2059 2048 1929 1978 1790 1666 1536 1282 1117 919 532 362 0 0 74 317 714 772 527 516 495 431 346 412 509 585 548 395 50 90 13 328 386 446 468 384 328 302 342 264 117
1008 1664 1920 1920 1786 1746 1712 1680 1464 1304 1262 1268 1372 1566 1866 2079 2159 2222 2285 2258 2087 1909 1938 1901 1900 1740 1601 1524 1411 1344 1189 1021 859 516 0 0 92 321 530 836 580 460 424 398 418 473 518 546 453 76 82 8 368 393 442 517 436 346 272 232 287 385 356
1027 1246 709 646 814 820 1200 1397 1390 1312 1235 1167 1115 1243 1531 1792 2025 2167 2229 2252 2246 2083 1876 1684 1540 1434 1400 1380 1326 1261 1132 1038 784 430 39 0 20 152 335 715 890 530 402 445 500 552 534 460 411 339 363 435 462 556 547 490 190 172 220 251 278 373 280
668 448 398 493 805 858 1025 1295 1410 1390 1364 1348 1278 1260 1383 1583 1848 2019 2112 2134 2052 1919 1716 1643 1611 1602 1564 1506 1360 1174 1118 826 506 39 57 0 26 222 360 585 807 848 554 529 578 572 546 495 438 404 498 620 550 398 170 237 277 331 566 588 504 294 0
509 512 464 550 670 574 909 1310 1473 1492 1580 1588 1543 1455 1462 1573 1735 1865 1956 1999 1982 1928 1863 1791 1782 1788 1648 1476 1330 1122 848 609 326 133 106 29 12 360 520 643 758 829 799 667 647 630 643 615 503 416 463 390 325 205 162 168 304 456 460 392 232 0 0
832 968 1188 2015 1677 778 1147 1707 1585 1672 1795 1754 1764 1709 1684 1684 1713 1728 1759 1844 1822 1746 1688 1598 1563 1558 1550 1504 1298 1084 844 404 347 419 126 12 210 529 641 830 984 913 776 713 700 734 713 674 517 483 509 476 404 241 65 226 338 321 262 49 0 0 0
1251 1308 1676 2400 2332 1908 1572 1673 1629 1601 1739 1768 1832 1842 1827 1768 1738 1709 1652 1645 1611 1510 1468 1453 1438 1408 1323 1332 1401 1258 658 146 62 55 0 29 263 495 675 861 1061 809 768 802 667 741 730 646 600 674 604 533 356 0 0 164 450 346 152 0 0 0 0
999 1364 1654 1776 1817 1742 1648 1551 1485 1586 1660 1752 1856 1820 1830 1821 1760 1651 1539 1468 1446 1339 1256 1288 1342 1320 1325 1365 1276 816 594 139 0 0 51 216 373 488 734 1130 1176 881 622 539 565 598 636 655 685 664 694 315 0 0 74 241 238 93 0 0 0 0 0
539 1092 1450 1579 1480 1264 1277 1276 1322 1256 1472 1585 1740 1806 1854 1794 1645 1533 1446 1356 1197 1030 894 872 948 1060 1114 1046 1075 449 282 162 6 43 36 52 124 191 271 334 416 406 448 574 484 479 626 692 734 494 274 122 2 92 196 8 0 0 0 0 0 0 0
1225 1467 1768 1712 1732 1403 1248 1186 1184 1248 1235 1384 1614 1781 1817 1746 1629 1551 1478 1416 1214 1076 1071 1076 1039 906 864 611 376 27 100 298 33 62 130 226 282 348 377 358 288 315 537 485 425 283 386 455 440 253 42 46 27 0 0 0 0 0 0 0 0 0 0
772 1214 1798 2009 1812 1640 1464 1370 1356 1321 1398 1452 1594 1719 1789 1799 1750 1634 1545 1416 1320 1279 1316 1318 1027 742 540 462 388 44 245 232 177 115 258 328 388 312 348 319 487 420 574 501 411 330 276 354 132 51 286 0 0 0 0 0 0 0 0 0 0 0 0
0 940 1431 1845 1935 1880 1640 1705 1675 1622 1569 1602 1654 1710 1683 1729 1704 1684 1658 1568 1495 1486 1388 965 783 627 502 93 104 370 280 168 8 236 55 83 140 188 296 454 514 387 520 485 404 362 328 0 10 332 294 121 0 0 0 0 0 0 0 0 0 0 0
136 234 604 1076 1633 1563 1400 1307 1467 1546 1648 1624 1626 1652 1713 1717 1710 1669 1611 1506 1482 1451 1323 994 916 853 610 4 60 0 57 0 0 0 1 47 194 189 248 399 443 440 329 246 258 122 103 116 256 253 0 0 0 0 0 0 0 0 0 0 0 0 0
75 74 209 861 1430 1540 1505 1488 1468 1624 1668 1654 1601 1614 1577 1471 1391 1312 1342 1379 1473 1469 1257 898 712 688 594 376 20 121 39 152 26 0 0 9 128 276 330 195 34 0 0 0 53 177 116 0 0 0 0 0 0 0 0 0 0 0 0 0 0 0 0
91 79 82 687 902 1127 1371 1260 1306 1363 1365 1356 1361 1352 1308 1248 1146 1054 1188 1205 1243 1052 586 194 0 0 0 0 0 3 17 0 0 0 0 0 0 2 2 0 0 0 0 0 0 0 0 0 0 0 0 0 0 0 0 0 0 0 0 0 0 0 0
84 66 68 194 925 1132 1074 1048 1059 1009 1030 1070 1070 1098 1016 922 773 701 785 866 848 632 10 0 0 0 0 0 0 0 0 1 0 0 0 0 0 0 0 1 0 0 0 0 0 0 0 0 0 0 0 0 0 0 0 0 0 0 0 0 0 0 0
234 708 746 592 846 904 920 859 893 921 931 928 932 935 913 824 722 651 635 677 650 459 0 0 0 0 0 0 0 0 0 0 0 0 0 0 0 0 0 0 0 0 0 0 0 0 0 0 0 0 0 0 0 0 0 0 0 0 0 0 0 0 0
1092 1407 1248 676 746 784 767 814 852 878 882 874 867 872 851 793 688 605 582 342 163 0 0 0 0 0 0 0 0 0 0 0 0 0 0 0 0 0 0 0 0 0 0 0 0 0 0 0 0 0 0 0 0 0 0 0 0 0 0 0 0 0 0

ECMWFFLT1_con_mucape_006.txt.gz
CAPE
228 257 441 633 818 1021 1210 1451 1618 1642 1663 1750 1826 1893 1924 1924 1926 1904 1928 1967 2055 2108 2210 2387 2458 2543 2697 2864 3088 3154 2826 2440 2417 2253 1754 1112 354 0 0 0 0 0 0 0 0 7 40 58 23 28 0 1 0 0 0 65 59 123 41 62 72 118 34
232 254 408 602 830 1031 1217 1433 1670 1758 1762 1811 1876 1946 2008 2034 2032 2008 2007 2016 2052 2091 2128 2249 2354 2398 2467 2583 2708 2566 2300 2376 2306 1922 1531 961 289 0 0 0 0 0 0 0 0 1 33 37 25 12 0 22 0 0 0 5 18 28 51 8 10 4 49
210 346 436 608 818 1034 1235 1409 1635 1834 1896 1907 1940 1981 2059 2125 2152 2161 2132 2114 2111 2134 2142 2175 2212 2216 2253 2368 2491 2361 2176 2252 2099 1799 1466 990 303 0 0 0 0 0 0 0 0 1 24 25 3 0 0 10 11 0 0 0 3 0 0 0 10 77 49
210 404 522 648 816 1026 1236 1422 1592 1809 1993 2036 2019 2038 2085 2166 2238 2277 2270 2229 2216 2214 2206 2166 2096 2084 2121 2249 2379 2220 2115 2137 2003 1833 1572 1110 627 0 0 0 0 0 0 0 0 3 14 2 0 0 242 3 28 12 0 0 0 0 0 0 7 8 15
197 390 584 717 858 1012 1214 1441 1606 1746 1936 2102 2138 2123 2122 2172 2263 2334 2374 2370 2311 2273 2234 2148 2015 1961 2046 2218 2236 2118 2074 2114 2034 1940 1718 1159 728 0 0 0 0 0 0 0 0 16 31 0 0 0 31 4 11 3 5 0 0 0 0 0 5 0 15
157 342 602 801 908 1025 1196 1428 1662 1801 1894 2048 2192 2238 2238 2240 2270 2345 2413 2432 2376 2247 2160 2071 1942 1880 1920 2037 2050 1989 2116 2187 2072 1930 1713 1195 880 91 0 0 0 0 0 0 0 0 1 3 0 0 0 1 2 2 0 0 0 1 10 0 0 2 5
158 286 508 796 970 1072 1212 1410 1678 1881 1950 2010 2138 2256 2314 2312 2321 2356 2381 2372 2298 2190 2082 2014 1940 1826 1792 1776 1753 1836 2072 2147 1967 1880 1696 1204 1068 49 0 0 0 0 0 0 0 0 0 0 0 0 0 0 7 4 0 0 1 0 0 0 0 0 0
148 250 388 673 954 1130 1245 1410 1658 1914 2049 2089 2121 2209 2304 2354 2367 2382 2358 2288 2261 2220 2115 1992 1910 1806 1707 1624 1588 1684 1959 2080 1900 1886 1624 1298 1188 0 0 0 0 0 0 0 0 0 0 0 0 0 0 0 0 0 0 0 0 0 0 0 0 0 0
152 222 338 506 829 1130 1312 1428 1642 1896 2099 2205 2227 2256 2294 2375 2390 2402 2391 2323 2296 2274 2213 2053 1910 1772 1671 1509 1459 1516 1690 1859 1895 1827 1667 1395 1244 286 0 0 0 0 0 0 0 0 0 0 0 0 0 0 0 0 0 0 0 0 0 0 0 0 0
174 228 320 428 658 1020 1302 1482 1657 1875 2096 2236 2307 2315 2332 2373 2410 2443 2428 2376 2342 2310 2295 2176 1933 1737 1596 1482 1321 1294 1394 1593 1837 1883 1729 1430 1212 50 0 0 0 0 0 0 0 0 0 0 0 1 1 2 11 0 0 0 0 0 0 0 0 0 0
201 253 308 387 548 861 1162 1426 1667 1885 2078 2232 2330 2381 2417 2430 2463 2495 2484 2460 2414 2388 2371 2270 2040 1758 1569 1407 1250 1164 1192 1328 1504 1806 1835 1526 1243 64 0 58 228 86 0 0 0 0 0 16 6 5 7 10 1 0 0 0 0 0 0 0 0 0 0
229 286 339 374 467 725 1041 1270 1535 1796 2024 2215 2333 2402 2455 2495 2508 2530 2546 2554 2524 2498 2432 2338 2132 1831 1572 1340 1180 1096 1052 1182 1291 1588 1677 1477 1261 0 0 0 187 61 0 0 0 0 0 0 4 14 4 0 0 0 0 0 0 0 0 0 0 0 0
250 280 332 396 447 566 868 1176 1387 1599 1850 2104 2299 2410 2477 2525 2550 2580 2596 2624 2618 2564 2497 2390 2218 1958 1652 1356 1176 1104 1022 1058 1174 1377 1557 1465 1720 152 0 0 0 0 150 0 0 0 0 0 0 38 16 2 0 0 0 0 0 0 0 0 0 0 0
306 351 376 432 464 488 655 978 1259 1491 1688 1899 2122 2323 2460 2526 2562 2594 2646 2678 2679 2652 2583 2518 2387 2184 1862 1510 1128 1007 1003 784 892 1178 1688 1783 1432 0 0 0 0 38 0 0 0 4 5 2 1 4 44 28 8 2 3 6 2 0 0 0 0 0 0
314 332 361 436 470 480 528 690 1010 1327 1558 1742 1945 2176 2358 2500 2572 2594 2650 2688 2689 2718 2663 2572 2492 2344 2151 1838 1402 1269 1124 877 863 1192 1325 1530 985 124 0 0 0 0 0 1 7 17 18 27 20 14 20 29 18 6 120 4 2 0 0 0 0 0 1
364 376 381 393 452 492 527 602 714 986 1296 1587 1839 2055 2269 2418 2526 2636 2693 2701 2717 2727 2728 2652 2596 2520 2422 2285 2009 1590 1422 1111 662 1230 1096 1302 596 400 59 0 0 0 0 192 27 38 58 49 44 46 40 26 324 205 0 0 0 16 0 1 27 22 38
424 435 408 414 446 476 512 579 644 730 939 1295 1634 1939 2170 2335 2481 2609 2710 2724 2741 2729 2708 2694 2672 2635 2586 2499 2367 2190 1971 1655 1232 757 686 925 12 13 36 0 0 0 60 205 163 104 132 158 58 71 50 232 465 0 0 0 0 0 0 0 0 37 182
474 459 448 441 482 510 539 569 612 667 790 1001 1368 1734 1990 2195 2388 2550 2672 2722 2740 2728 2706 2712 2705 2664 2615 2508 2416 2376 2224 2034 1856 1612 1354 989 850 339 152 42 0 0 7 154 177 120 144 165 166 194 266 449 540 0 0 0 0 0 0 0 0 8 157
514 487 476 478 505 575 605 612 628 687 796 896 1128 1434 1708 1936 2153 2346 2499 2608 2656 2669 2691 2721 2729 2726 2647 2582 2505 2376 2241 2239 2145 2031 2038 1922 1624 676 448 193 48 0 157 263 336 172 115 136 148 216 329 530 688 378 0 0 0 0 0 0 0 121 168
487 470 475 517 558 612 629 638 672 732 794 873 958 1127 1366 1675 1957 2137 2271 2390 2458 2530 2598 2631 2669 2668 2660 2582 2548 2462 2436 2393 2262 2134 2015 1640 1306 969 491 338 158 48 0 67 271 308 233 206 238 286 400 575 706 612 9 15 4 57 0 0 144 200 298
473 492 478 488 498 542 624 678 741 848 875 884 927 1048 1285 1554 1760 1957 2076 2169 2251 2317 2420 2491 2524 2531 2550 2567 2514 2435 2438 2312 2238 2057 1392 976 1026 698 461 370 100 173 34 89 232 295 243 202 209 295 443 548 644 522 390 290 61 62 0 189 244 314 374
332 425 496 539 578 682 702 761 851 898 986 980 1043 1132 1363 1564 1701 1854 1970 2014 2114 2183 2247 2311 2343 2334 2342 2378 2370 2370 2290 2208 2136 1871 1784 1596 1124 553 330 342 5 240 192 264 229 292 313 212 211 308 416 435 452 484 482 474 358 234 219 303 383 374 312
451 588 742 877 906 955 970 1046 1107 1108 1094 1078 1058 1175 1372 1566 1743 1875 1938 1988 2058 2105 2148 2170 2190 2210 2222 2224 2204 2150 2064 2007 1954 1889 1888 1369 778 705 654 484 314 72 144 267 284 318 434 350 295 330 377 417 428 457 522 545 414 316 398 312 129 73 124
649 816 1014 1134 1270 1300 1316 1282 1221 1168 1143 1072 1007 1045 1217 1479 1729 1868 1932 1960 2008 2018 2056 2039 2048 2026 2028 2030 1989 1941 1896 1836 1790 1700 1632 1538 1105 791 621 423 101 108 126 96 224 262 320 466 362 339 339 378 428 486 518 460 376 406 278 84 37 7 192
1119 1146 993 1089 772 642 1063 1270 1233 1177 1024 1086 1051 970 1053 1338 1614 1762 1837 1831 1803 1790 1762 1732 1700 1697 1729 1713 1674 1598 1524 1434 1383 1344 1298 993 654 477 2 18 12 0 16 100 221 351 460 618 690 569 395 399 443 443 411 414 426 378 267 110 0 0 298
1030 1302 1275 908 426 396 860 1135 1210 1126 1143 1076 1107 1078 998 1228 1468 1591 1632 1644 1666 1652 1594 1562 1596 1548 1524 1460 1391 1320 1263 1220 1166 1135 1037 1002 829 592 30 1 0 0 46 122 212 294 398 550 672 748 670 558 577 465 411 391 390 348 307 273 54 98 208
1664 1447 1204 1036 1114 1233 1212 1213 1242 1165 1221 1166 1209 1173 1233 1336 1406 1431 1466 1536 1525 1524 1498 1476 1444 1452 1422 1354 1284 1223 1128 1068 1020 1000 903 786 497 136 0 0 0 13 140 263 371 505 646 776 847 869 801 743 445 318 490 563 473 324 290 0 0 0 189
1140 1100 1016 974 1109 1172 1116 1143 1162 1111 1203 1227 1324 1367 1459 1468 1431 1429 1388 1446 1526 1563 1501 1496 1458 1388 1310 1229 1123 1011 940 896 878 848 804 685 415 300 44 0 0 30 236 438 570 513 428 534 667 748 406 328 315 304 409 352 278 0 0 0 120 172 96
977 1129 1092 978 897 884 914 928 954 912 1024 1044 1230 1453 1560 1541 1499 1487 1459 1396 1470 1456 1456 1400 1358 1223 1081 994 941 881 809 743 742 727 648 475 306 185 0 0 52 200 368 568 582 511 622 854 702 582 459 360 384 521 564 310 0 0 30 116 93 0 0
517 784 1044 978 953 895 932 944 954 1026 979 1115 1182 1278 1430 1513 1554 1549 1516 1476 1315 1252 1218 1136 1003 965 1082 1004 886 828 775 692 514 446 282 2 0 2 8 0 0 214 249 240 209 606 204 308 352 450 552 538 518 362 134 10 1 100 63 0 0 0 0
304 321 679 774 743 824 713 820 898 1046 1062 1148 1190 1254 1338 1460 1566 1537 1474 1340 1233 1190 1143 1093 1120 1176 1075 847 784 724 700 614 413 234 2 50 43 12 2 1 90 223 269 169 48 94 160 246 318 399 466 476 214 13 0 38 100 21 0 0 0 0 0
0 2 360 735 811 857 832 872 944 944 1021 1152 1270 1345 1440 1532 1612 1626 1579 1477 1384 1326 1208 1217 1178 1168 1078 775 675 658 578 527 412 184 18 12 57 113 305 273 279 188 96 84 112 159 215 212 213 325 408 233 9 0 128 93 0 0 0 0 0 0 0
0 0 128 473 789 982 894 889 888 912 922 1080 1288 1414 1546 1566 1602 1647 1614 1540 1431 1289 1125 1036 1062 1119 1106 922 696 618 539 462 395 2 0 0 0 149 157 30 27 40 92 138 228 317 334 349 384 316 123 44 7 138 0 0 0 0 0 0 0 0 0
41 96 211 249 495 714 704 722 806 744 686 767 898 995 1192 1437 1462 1530 1580 1518 1304 1067 935 960 1011 1078 993 850 726 541 451 413 385 256 317 194 43 4 0 0 0 0 46 20 8 33 64 227 187 77 23 0 141 53 0 0 0 0 0 0 0 0 0
10 316 305 298 115 568 688 647 623 558 452 510 542 578 730 1223 1363 1493 1270 1057 847 803 842 914 914 826 725 624 506 99 84 376 396 360 136 0 0 0 0 0 2 1 183 0 0 0 0 0 0 0 0 140 127 0 0 0 0 0 0 0 0 0 0
529 686 710 601 40 412 614 246 150 43 1 0 0 303 767 1020 1104 1060 859 626 586 622 665 646 563 469 201 4 10 6 2 0 0 0 0 0 0 0 0 7 6 27 64 62 0 0 0 0 0 2 90 159 0 0 0 0 0 0 0 0 0 0 0
773 856 1054 908 642 456 500 462 213 46 44 593 703 711 764 854 888 854 624 0 0 343 334 331 0 0 0 0 0 0 0 0 0 0 0 0 0 0 0 0 0 0 0 0 0 0 0 0 36 49 64 0 0 0 0 0 0 0 0 0 0 0 0
582 632 678 759 694 611 595 614 652 676 675 616 553 592 562 654 703 653 475 0 0 0 0 0 0 0 0 0 0 0 0 0 0 0 0 0 0 0 0 0 0 0 0 0 0 0 22 85 33 0 0 0 0 0 0 0 0 0 0 0 0 0 0

ECMWFFLT1_con_mucape_009.txt.gz
CAPE
698 716 873 1100 1193 1197 1248 1551 1525 1599 1839 1924 2019 2021 2197 2420 2513 2732 2802 2934 3111 3238 3493 3450 3475 3567 3592 3422 3191 2996 3267 3351 3390 3340 2880 2811 2896 2769 2340 2039 1796 1756 1506 1298 1232 1345 1265 1429 1507 1301 1107 738 492 583 578 511 417 315 511 762 794 568 529
599 628 740 1022 1158 1265 1431 1593 1726 1779 1881 1916 1970 2148 2167 2491 2718 2706 2734 2918 3146 3228 3444 3464 3391 3502 3542 3462 3277 3178 3204 3132 3023 2983 2794 2895 3007 2813 2311 1946 1524 1640 1574 1300 1412 1415 1478 1368 1267 1167 894 810 528 541 379 352 286 193 91 435 442 629 608
546 590 663 863 1030 1220 1558 1663 1834 1868 1972 1889 1950 2116 2297 2649 2808 2747 2795 2898 3077 3216 3357 3458 3416 3444 3406 3370 3268 3165 3022 2884 2958 2796 2706 2981 3086 2704 2226 1735 1255 1372 1313 1310 1322 1312 1294 1328 1283 1185 793 680 376 457 353 229 258 172 163 419 448 351 725
691 618 672 894 1167 1455 1638 1669 1806 1807 1921 1925 2009 2142 2476 2870 2888 2880 2924 2894 3009 3154 3275 3347 3417 3369 3410 3292 3224 3009 2836 2916 2639 2487 2720 3066 2996 2473 2090 1435 1104 1130 1247 1174 1022 1035 1102 1284 1275 1186 890 624 587 375 281 128 119 334 386 696 490 340 515
796 717 693 867 1036 1378 1412 1568 1764 1901 1870 1948 2155 2458 2744 2944 2894 2887 2993 2950 2805 3014 3078 3184 3190 3293 3324 3176 2891 2848 2891 2619 2426 2516 2724 3003 2766 2326 1924 1343 868 843 1004 1070 1030 1071 1115 1172 1082 1158 983 858 644 559 553 593 480 672 494 739 546 523 307
782 847 858 867 852 1052 1282 1474 1663 1787 1892 1990 2246 2586 2646 2682 2604 2644 2770 2935 2924 2880 3112 3117 3182 3234 3079 2914 2945 2884 2638 2380 2403 2460 2681 2776 2476 2254 1819 1380 987 780 846 980 934 990 1082 1065 1007 1056 882 637 378 312 337 486 445 514 593 739 634 440 285
815 894 966 936 935 1052 1203 1377 1501 1694 1944 2114 2322 2584 2465 2410 2527 2565 2635 2832 2876 2980 3032 3067 3142 3115 3126 3029 2972 2719 2412 2254 2234 2293 2381 2445 2269 2072 1763 1516 1267 742 761 972 890 931 1026 1077 1122 1166 965 579 526 446 495 757 514 757 864 944 928 1050 826
899 982 1173 1193 1047 1060 1138 1356 1521 1633 1916 2194 2385 2477 2435 2402 2492 2573 2671 2757 2856 2795 2917 2821 2979 3183 3130 3014 2754 2534 2345 2106 2063 2091 2190 2263 2137 1972 1849 1546 1364 702 782 733 856 936 898 1155 1058 1081 976 754 904 934 783 908 1001 706 966 1034 1004 926 938
710 1099 1112 1046 1153 1077 1184 1474 1684 1846 2238 2506 2583 2722 2619 2546 2559 2634 2715 2791 2874 2876 2934 2842 2938 3144 3190 2971 2734 2510 2237 1880 1850 1898 2065 2114 2037 1962 1900 1632 1475 618 566 471 481 661 715 882 794 998 989 817 915 1102 1023 1112 1033 1055 1144 1044 1004 730 510
684 1029 1265 1157 1157 1194 1437 1739 1935 2287 2667 2840 2850 2885 2758 2814 2799 2712 2740 2790 2838 2891 2968 2969 2929 3014 3095 2936 2658 2433 2188 1895 1768 1674 1996 2141 1976 2004 1992 1850 1496 482 532 502 372 398 548 674 803 889 939 845 946 1041 1014 1148 1194 1278 1164 1188 1059 899 742
810 1209 1372 1188 1388 1651 1914 1736 2138 2586 2644 2942 3026 2881 3025 2992 3008 2845 2882 2849 2819 2881 2917 3013 2993 2906 2894 2762 2504 2239 2074 1756 1546 1559 1878 1830 1754 1859 2022 1925 1668 864 231 350 337 418 487 542 705 792 821 758 891 1026 1162 1197 1316 1298 1082 1040 1068 1116 945
1036 1169 1374 1398 1658 1908 1838 2071 2422 2632 2802 2998 2868 2754 3072 3128 2987 2940 2989 3047 2915 2902 2960 2943 2974 2884 2791 2662 2453 2182 1848 1552 1407 1285 1456 1511 1526 1764 1986 1912 1777 1072 136 236 256 295 261 422 380 521 726 745 938 1166 1312 1407 1355 1257 1150 870 986 1250 1102
909 1152 1312 1153 1571 1793 2393 2525 2424 2606 2909 2876 2757 2922 3130 3023 2912 2907 3127 3192 3028 2979 3016 3093 3049 3051 2776 2590 2239 2142 1842 1568 1250 1038 920 931 1084 1404 1675 1740 1854 1512 60 67 52 40 62 205 400 428 585 903 1074 1121 1256 1233 1146 1096 1135 1121 1352 1408 1200
922 868 1009 1443 1602 1758 1942 2359 2697 2830 2903 2816 2934 3170 3133 3010 3001 3081 3228 3298 3146 3048 3047 3128 3210 3155 2944 2655 2226 2110 1878 1581 1366 1180 791 678 722 1212 1542 1751 1628 1537 646 73 27 20 42 78 210 313 412 758 819 944 942 1005 1020 1072 1136 1277 1351 1314 1302
622 655 964 1064 1465 1846 2125 2370 2689 2758 2828 2947 3015 3124 3132 3148 3190 3297 3434 3234 3252 3076 3133 3221 3318 3284 3038 2632 2344 2218 2053 1890 1722 1458 1090 679 754 967 1192 1522 1729 1623 494 146 68 10 8 3 30 156 370 524 566 667 742 782 883 979 1034 1102 1302 1410 1292
720 718 822 1056 1384 1522 1987 2244 2544 2790 2926 3088 3030 3188 3137 3255 3417 3403 3372 3253 3253 3361 3204 3272 3442 3408 3121 2756 2437 2357 2285 2175 2004 1799 1518 1201 194 336 592 1124 1710 1848 1053 219 39 4 0 0 0 94 237 396 474 537 609 630 724 565 222 324 1099 1498 1393
817 823 890 1149 1505 1521 1697 1960 2286 2534 2774 2891 3046 3187 3254 3352 3451 3342 3128 3135 3205 3311 3260 3282 3505 3394 3189 2832 2486 2446 2390 2312 2210 2029 1897 1756 1332 693 334 362 1426 1372 1086 202 16 1 10 112 77 44 61 102 231 350 412 518 528 237 223 309 302 598 1188
1102 1180 1124 1222 1429 1285 1573 1674 1970 2277 2512 2627 2861 3074 3208 3445 3411 3435 3194 3156 3155 3135 3168 3220 3269 3249 3339 3115 2570 2472 2428 2352 2279 2212 2061 1889 1815 950 813 653 604 614 1134 655 143 44 50 47 58 54 83 147 262 264 236 286 241 176 334 374 293 131 560
1378 1416 1380 1866 1680 1540 1344 1322 1542 2003 2115 2292 2502 2748 2898 3272 3120 3307 3333 3349 3339 3288 3208 3248 3307 3396 3466 3276 2892 2504 2434 2369 2321 2363 2329 2327 1708 785 602 622 554 489 511 758 206 230 79 110 62 56 94 142 188 161 163 216 214 348 446 340 194 0 57
1579 1564 1584 1476 1360 1245 1392 1506 1392 1609 1849 2249 2450 2458 2763 2841 2927 3178 3225 3380 3578 3454 3357 3352 3348 3410 3460 3384 2768 2486 2436 2404 2393 2366 2293 2245 2234 1813 1442 1135 951 763 708 595 342 255 248 220 175 129 118 136 134 144 164 214 235 438 500 290 133 126 125
1204 1199 1304 1345 1346 1134 1674 1778 1892 1778 1816 1624 1680 2023 2336 2696 2934 3431 3450 3519 3550 3526 3649 3484 3434 3320 3325 3109 2692 2510 2464 2445 2383 2345 2272 2202 2121 2067 1756 1436 846 872 791 464 246 227 276 28 45 89 84 81 68 87 180 306 217 421 647 638 282 174 190
885 784 884 1079 1493 1791 1966 1478 1541 1448 1692 1537 1920 2344 2380 2634 2714 2809 2863 3130 3377 3373 3403 3493 3400 3233 3124 2950 2588 2459 2396 2359 2314 2250 2214 2152 2056 1983 1914 1311 1266 893 787 301 44 316 266 57 56 59 130 85 166 242 259 293 339 469 676 742 497 283 277
591 678 794 1390 1198 1315 1696 1640 1726 1488 2286 2141 1941 2168 2100 2270 2450 2552 2721 2881 3084 3319 3200 3192 3274 3144 3021 2753 2587 2298 2255 2176 2124 2084 2012 1950 1884 1778 1655 1524 942 701 644 608 533 529 325 234 87 39 208 348 388 348 296 297 308 378 528 661 618 470 429
830 1164 1380 1281 1581 1752 2102 2096 2014 2254 1725 2137 2034 2143 2306 2338 2327 2749 2869 2901 3108 3096 3048 3049 3159 3115 2988 2783 2609 2182 2074 2035 1952 1908 1817 1736 1644 1491 1400 1319 1209 1103 660 506 317 314 248 44 26 360 348 414 490 384 366 496 538 493 568 589 633 580 611
902 1211 1504 1564 1520 1562 1617 1976 1893 1605 1929 1918 1852 1997 2278 2339 2500 2794 3057 3055 2732 2808 2934 2968 3089 3036 2856 2740 2519 2174 1924 1853 1782 1697 1604 1487 1326 1183 995 853 768 696 554 333 284 144 6 8 7 167 333 376 402 458 439 475 429 422 501 562 584 494 418
1715 1450 1352 1456 1722 1973 2048 2032 2022 1911 1787 1870 1932 1840 2424 2594 2824 3037 2989 2629 2416 2566 2701 2698 2753 2671 2546 2494 2258 1997 1710 1601 1528 1427 1330 1227 1104 1077 957 812 740 547 34 0 0 311 582 500 470 429 554 436 413 468 588 591 502 444 518 538 500 457 430
1681 1770 1776 1718 1702 1762 1936 1941 1992 1900 1887 2086 2000 1831 2044 2296 2566 2501 2310 2090 2112 2126 2003 2086 2127 2158 2248 2069 1846 1789 1573 1329 1250 1180 1102 1019 954 890 841 779 627 298 0 3 125 269 397 576 746 729 690 474 536 585 527 460 376 206 222 386 424 484 477
1278 1292 1379 1554 1688 1704 1802 1863 1881 1735 1695 1841 1927 1992 2150 2402 2383 2170 2054 2021 2115 1890 1571 1598 1786 1837 1862 1787 1642 1571 1254 1103 1035 991 966 929 886 824 758 718 587 216 0 22 68 107 233 836 967 675 304 363 407 327 451 480 189 140 213 224 332 390 354
1341 1314 1422 1442 1384 1483 1569 1568 1311 1154 1216 1374 1557 1786 1900 2089 2139 1922 1822 2042 1650 1414 1436 1528 1583 1678 1679 1611 1513 1286 979 934 896 878 854 822 803 778 722 670 468 0 52 24 64 271 679 1159 708 448 479 386 474 505 467 390 320 352 362 288 261 101 18
1440 1150 936 924 1056 1085 1124 1204 1159 1194 1264 1364 1564 1753 1860 2207 1984 1809 1882 1750 1353 1272 1350 1455 1584 1596 1529 1296 1158 892 868 828 798 788 763 694 682 625 660 570 366 235 207 188 636 916 1238 1110 761 494 392 265 258 216 203 298 413 458 388 321 125 52 10
1406 1164 974 1008 1007 1070 1009 1051 1015 1024 1074 1118 1236 1294 1681 1914 1904 1604 1658 1302 1191 1147 1283 1395 1424 1416 1272 1073 977 824 810 778 759 741 624 568 619 646 616 444 238 124 240 820 1235 1318 1081 663 628 208 192 126 190 229 217 309 357 333 97 29 56 0 0
1238 1477 1295 1222 1409 1420 1304 1289 1325 1313 1147 1090 1102 1112 1578 1954 1935 2062 1739 1230 1209 1125 1277 1286 1326 1216 1138 1018 882 776 762 756 737 654 562 490 464 338 9 1 9 38 344 916 1034 902 786 660 146 143 136 151 171 160 278 307 120 8 15 59 0 0 0
848 944 1182 1284 1245 1458 1608 1401 1262 1138 1248 1198 902 1073 1104 1482 1725 1976 1160 1016 1118 1153 1268 1289 1160 1022 861 858 699 690 711 715 676 556 488 408 47 10 0 0 142 400 1041 1084 972 1137 926 300 83 81 85 112 222 419 288 182 17 35 61 0 0 0 0
1150 1050 1020 979 1044 1278 1576 1632 1353 1468 1634 1915 1416 1319 1218 1204 1206 1132 893 909 1010 1122 1180 1169 1022 886 848 727 622 612 644 630 650 530 456 504 475 460 538 827 812 1038 1168 1128 1283 1041 583 202 225 181 208 268 381 409 241 96 87 63 11 0 0 0 0
1461 1492 1538 1192 910 1054 1463 1808 1928 1959 1952 1732 1170 1072 1042 947 851 910 878 1021 1097 1146 941 876 757 766 736 649 571 608 550 520 536 474 622 565 599 140 488 499 715 959 952 341 243 138 404 567 483 607 529 608 632 451 298 322 332 259 0 0 0 0 0
1409 1570 1540 1198 1181 1469 1324 1130 1352 1346 1268 1080 828 834 824 702 699 782 827 1021 1030 828 862 824 707 916 911 835 665 602 575 548 508 488 434 461 178 0 91 196 314 315 225 132 46 0 36 2 262 225 334 244 308 188 401 622 334 0 0 0 0 0 0
1272 1402 1414 1275 1372 1278 1429 1531 1228 1112 997 987 600 527 454 597 630 750 814 880 715 724 954 1038 1027 933 898 765 802 689 702 722 731 463 534 394 32 0 252 0 0 7 23 64 47 0 0 0 0 0 0 99 20 0 0 0 0 0 0 0 0 0 0
784 1032 996 903 1008 1203 1248 1221 1244 1106 1082 827 520 386 379 484 614 742 712 733 813 915 1207 1195 1057 1011 891 812 806 531 641 543 487 428 385 304 110 0 0 0 0 0 0 0 0 12 0 0 0 0 0 0 0 0 0 0 0 0 0 0 0 0 0

ECMWFFLT1_con_mucape_012.txt.gz
CAPE
1786 1732 1623 1688 1779 1836 1818 1850 2020 2037 2131 2441 2841 2790 2696 2957 2990 3073 3507 3922 4118 4314 4553 4834 4834 4711 4566 4488 4386 4230 3897 3506 3356 3358 3405 3658 3569 3564 3552 3479 3370 3244 2775 2441 2425 2252 2297 1969 1705 1468 1130 929 742 667 635 322 269 282 282 335 320 199 250
1639 1692 1713 1728 1884 1915 1954 2097 2184 2073 2165 2374 2636 2910 2778 2968 3276 3117 3512 3775 4221 4322 4475 4821 4907 4731 4770 4797 4496 4291 3865 3512 3411 3427 3468 3711 3841 4026 3864 3770 3644 3367 3219 2796 2463 2286 2214 1905 1746 1603 1186 924 822 825 625 308 268 256 154 342 330 302 208
1464 1579 1708 1876 1876 2076 2312 2249 2320 2258 2326 2229 2364 2640 2722 3052 3412 3430 3512 3808 4267 4453 4410 4816 5048 4846 4758 4787 4560 4385 3860 3611 3411 3258 3374 3602 3713 3762 3900 3811 3670 3336 3112 2829 2654 2377 2098 1869 1677 1495 1150 940 691 634 572 304 275 257 165 260 298 266 268
1494 1512 1667 1883 2069 2248 2369 2435 2462 2352 2311 2368 2426 2578 2833 3185 3443 3559 3605 3715 4213 4428 4502 4612 4920 4862 4802 4716 4526 4410 4019 3820 3602 3382 3314 3544 3711 3968 3869 4162 3832 3381 3036 2796 2481 2210 1865 1697 1550 1256 1011 840 610 615 545 301 279 176 98 146 160 122 246
1312 1409 1448 1754 1966 2272 2435 2530 2659 2677 2357 2235 2462 2772 3024 3180 3507 3638 3714 3792 3737 4326 4356 4438 4506 4728 4702 4715 4604 4307 4099 4005 3796 3743 3602 3562 3776 3944 3909 3956 3828 3473 3006 2798 2407 2063 1772 1446 1330 1083 1040 788 737 596 555 434 223 160 124 181 215 126 164
1320 1459 1466 1603 1834 2097 2460 2484 2487 2582 2374 2292 2552 2821 2936 3046 3158 3312 3589 3797 3742 3865 4364 4483 4522 4734 4690 4729 4623 4570 4429 4094 3815 3882 3588 3584 3713 3944 3866 3968 3589 3318 2671 2409 2052 1904 1716 1460 1214 1060 962 810 654 603 517 350 182 108 178 262 308 208 94
1219 1561 1514 1578 1728 1950 2298 2456 2333 2352 2466 2354 2481 2814 2830 2742 2902 2916 3077 3546 3670 3887 4084 4175 4344 4454 4870 4710 4708 4659 4651 4410 3942 3580 3439 3423 3894 3845 4142 3927 3382 3092 2435 2241 2004 1702 1616 1414 1040 887 941 824 754 639 591 468 308 150 175 272 375 318 237
1157 1602 1790 1758 1690 1725 1918 2214 2258 2276 2482 2487 2427 2617 2726 2524 2742 2754 2852 2949 3400 3290 3534 3470 3923 4462 4783 4849 4752 4732 4751 4407 3914 3716 3519 3748 3755 3747 4045 3656 3334 3084 2432 2372 2173 1736 1482 1426 936 769 824 791 864 798 631 544 548 275 117 270 444 406 314
1348 1920 1954 1672 1628 1520 1696 2054 2242 2239 2592 2740 2655 2723 2750 2706 2563 2698 2783 2761 3061 3170 3202 2903 3408 4137 4736 4882 4827 4818 4578 4301 3871 3773 3648 3339 3447 3696 3636 3500 3434 3072 2686 2276 2000 1756 1418 1182 846 826 997 956 1005 868 716 690 644 391 196 246 448 450 252
1414 2094 2205 1678 1384 1299 1474 1772 2220 2410 2634 2894 2924 2989 3058 2963 2899 2786 2768 2648 2764 3042 3045 2972 3004 3652 4582 4897 4759 4672 4470 4164 3956 3435 3207 3103 3372 3443 3286 3149 3247 2920 2543 1872 1472 1689 1399 948 930 974 1284 1032 819 980 844 740 651 462 172 290 554 542 340
1340 2108 2387 1936 1576 1511 1626 1881 2300 2600 2824 3175 3177 3057 3375 3325 3170 2872 2959 2847 2656 2758 3017 3160 3132 3299 4184 4518 4340 4424 4582 4120 3602 3441 3538 3428 3242 3200 3079 2766 2558 2302 2185 1946 1758 1662 1256 1044 1330 1370 1386 1317 1088 965 941 700 601 340 167 477 634 582 390
2018 2192 2580 2345 1971 1854 2096 2415 2696 2960 3128 3415 3417 3260 3560 3610 3359 3095 3062 3160 2838 2693 2987 3152 3227 3274 3670 4248 4224 4373 4325 4225 3831 3642 3376 3053 2948 2754 2491 1938 1908 1710 1963 1934 1844 1518 1052 1031 1324 1111 1179 1281 882 798 895 700 479 390 453 555 622 635 556
2097 2405 2637 2235 2368 2444 2660 2818 3087 3269 3428 3618 3440 3556 3787 3680 3421 3262 3437 3402 3093 2912 3136 3444 3413 3526 3485 4038 4073 4251 4286 4188 3974 3404 2896 2717 2807 2310 1850 1600 1504 1444 1698 1857 1874 1657 1264 848 976 864 1313 1166 798 765 754 550 748 1157 1218 909 762 814 791
1924 2252 2483 2444 2620 2816 3052 3305 3530 3628 3791 3802 3770 3744 3818 3851 3540 3450 3564 3631 3442 3223 3285 3451 3701 3820 3838 4021 4118 4267 4286 4157 4025 3238 2892 2583 1879 1558 1435 1309 1217 1345 1432 1695 1811 1723 1259 500 818 1053 1046 1052 896 751 693 914 1330 1477 1466 1389 1238 1082 970
2063 2078 2516 2382 2760 3073 3479 3562 3745 3870 3955 3913 3761 3788 3784 3732 3601 3683 3809 3789 3759 3406 3380 3642 3888 4036 4058 4178 4238 4304 4385 4177 3121 2674 2573 2045 1824 1741 1448 1217 1000 975 1152 1382 1576 1620 1344 470 726 761 786 1014 938 913 991 1350 1178 1088 1382 1382 1347 1182 1066
2004 2069 2197 2365 2775 3065 3458 3658 3941 3952 3970 3988 3689 3720 3658 3610 3758 3721 3892 3943 3868 3809 3552 3720 4013 4215 4221 4226 4333 4304 3870 3390 2946 2733 2434 2100 2041 1985 1952 1792 1323 992 944 1162 1323 1542 1432 890 633 693 547 827 774 716 679 444 378 524 714 927 1128 1178 1034
2198 2168 2142 2464 2895 3168 3466 3625 3940 3957 3922 3884 3670 3815 3761 3971 4073 3980 3728 3747 3796 4064 3752 3844 4262 4398 4317 4392 4306 4058 3831 3346 2942 2663 2257 2315 2402 2435 2464 2464 1982 1524 1046 1002 1068 1167 1316 1337 952 322 467 581 456 408 509 476 194 63 271 231 198 640 839
2153 2659 2406 2600 2786 3081 3335 3416 3851 3993 3965 3962 4002 4096 4158 4404 4300 4122 3678 3712 3737 3906 3860 3821 4102 4379 4600 4363 4244 4223 3984 3169 2996 2542 2388 2458 2453 2484 2468 2485 2313 1872 1536 1190 908 786 877 1187 1200 622 390 313 202 152 170 562 44 0 30 69 56 62 366
2404 2929 2784 2871 3023 3241 3123 3195 3702 4113 3815 3843 3952 3952 4264 4530 4339 4402 4014 3994 3992 3859 3914 3957 4154 4513 4753 4595 4432 4346 4202 3196 2996 2560 2460 2397 2406 2383 2352 2240 2129 1880 1438 1312 1170 958 732 823 942 901 405 374 404 269 310 594 1 0 41 46 36 33 79
2624 2723 2810 2757 3012 3049 3148 3470 3505 3810 3793 3897 4034 3962 4068 4289 4266 4539 4316 4018 4072 4004 4127 4216 4139 4471 4756 4829 4604 4194 4189 3230 2969 2479 2449 2412 2382 2368 2326 2270 2212 2013 1712 1294 1053 968 889 770 684 724 508 479 823 868 730 394 21 29 51 54 54 59 95
2483 2692 2844 3026 3017 2789 3325 3305 3156 3655 3605 3482 3512 3763 3910 4005 4157 4409 4267 4176 4178 4181 4232 4173 4360 4417 4693 4748 4452 4238 4040 3484 3152 2596 2388 2318 2247 2276 2195 2152 2035 1927 1711 1510 1267 1060 947 816 802 585 778 684 756 600 255 194 146 49 42 42 54 108 154
1311 1891 2340 2596 3273 3334 3231 2933 3032 3131 3457 3156 3402 3606 3659 4034 3956 3772 3481 3534 3921 4165 4266 4394 4555 4557 4645 4722 4514 4200 3894 3479 3245 2912 2565 2241 2164 2134 2102 2020 1932 1844 1726 1642 1478 1218 1115 1082 947 796 563 716 643 227 40 105 83 84 58 69 84 98 110
736 1121 1470 2164 2544 2809 3149 2814 2820 2846 3235 3112 3273 3600 3548 3337 2852 2873 3162 3368 3956 4478 4162 4328 4584 4610 4662 4586 4145 3708 3627 3477 3400 2975 2669 2236 1955 1964 1912 1944 1818 1639 1553 1466 1300 1141 993 936 865 844 628 444 337 277 242 168 130 45 63 96 136 133 83
803 1006 1272 1764 2338 2700 3134 2953 2730 2999 2508 2737 2628 2402 2303 2654 2758 3151 3512 3588 4017 4298 4080 4236 4622 4544 4554 4545 4360 4079 3644 3562 3427 2830 2752 2501 2224 1811 1766 1740 1713 1687 1508 1412 1332 1267 1198 1114 1025 860 648 462 288 168 173 144 491 67 97 95 82 78 160
887 1144 1239 1548 1739 2572 2576 2746 2542 2451 2150 2318 2007 2556 2736 2856 2949 3441 3906 3819 3482 3648 3944 4064 4484 4609 4727 4599 4396 3954 3321 3487 3392 2673 2732 2512 2338 2147 1911 1628 1496 1270 1199 1122 1068 1026 978 949 925 812 720 515 379 102 66 58 258 62 54 75 139 170 142
1788 2329 2274 2189 2206 2434 2538 2569 2644 2249 2586 2677 3361 3241 3315 3160 3512 4130 4273 3656 3294 3556 4070 4316 4660 4720 4576 4268 4266 3818 3204 2979 2670 2572 2588 2507 2308 2113 1821 1697 1184 1180 1127 982 838 756 726 668 558 500 436 421 274 437 472 362 821 49 81 131 120 106 175
2084 2164 2312 2465 2874 2882 3028 2964 2980 3102 3248 3808 3624 3331 3402 3760 4187 4094 3878 3674 3909 3886 4092 4424 4626 4499 4265 4279 3996 3768 3239 2825 2704 2609 2449 2398 2259 1882 1522 1219 980 952 947 911 831 700 558 446 364 290 257 108 294 593 884 1047 843 312 129 109 112 122 144
2448 2536 2612 2668 2588 2546 2721 3034 3392 3344 3218 3465 3550 3660 3886 4196 4173 4066 3850 3831 3982 3838 3965 4308 4176 4105 4054 3896 3620 3225 2787 2646 2566 2274 2073 1828 1618 1418 1068 1018 930 828 704 684 589 503 416 312 193 145 7 15 409 565 1188 946 538 1067 261 204 264 319 294
2630 2628 2741 2750 2750 2631 2604 2727 2774 2649 2628 2520 2716 3196 3392 3633 3693 3496 3514 3894 3714 3443 3613 3618 3594 3608 3590 3329 2848 2233 2016 2260 2186 1850 1310 1144 1098 957 820 824 778 649 560 467 367 277 201 153 125 112 74 154 404 1389 1137 771 431 352 288 231 286 421 354
2217 2087 1888 1850 2094 2502 2695 2797 2700 2630 2762 2898 3120 3188 3211 3518 3612 3685 3835 3384 2917 2939 3018 3152 3332 3257 3141 2737 2543 2049 1769 1687 1492 1472 870 668 729 642 605 564 500 499 445 374 307 358 332 174 276 87 106 217 996 833 433 262 346 365 350 336 261 244 273
1480 1754 2025 2170 2111 2396 2452 2558 2666 2718 2890 2892 2857 2939 3413 3567 3455 3193 2744 2481 2606 2722 2992 3222 3184 2956 2684 2325 2052 1693 1365 1274 1347 1153 826 592 524 422 508 448 414 414 356 344 367 311 258 144 206 114 90 470 1278 393 153 274 204 151 191 320 336 351 319
1779 1734 1821 2000 2244 2044 1868 2058 2218 2478 2566 2852 2764 2586 2766 2886 3257 3414 3264 2959 2880 3027 3222 3004 2772 2549 2304 2013 1584 1264 1160 1240 1087 907 656 516 430 329 290 276 282 233 414 328 235 173 85 170 230 64 294 1054 791 458 232 78 104 222 280 283 258 177 102
2440 2493 2518 2864 2500 2029 1980 1862 1977 2062 2184 2368 2472 2471 2522 3029 3429 3696 3247 2862 2763 2754 2836 2702 2602 2350 2010 1713 1388 1131 1118 1044 736 682 653 494 375 228 165 97 136 108 219 183 88 83 132 295 790 868 908 690 491 368 275 144 124 185 347 267 130 68 64
1974 1992 2252 2717 3052 2862 1647 1363 1509 1739 2192 2444 2317 2310 2442 2647 2652 2492 2252 2073 2187 2488 2621 2407 2190 1988 1650 1358 1281 1081 1060 952 714 581 466 428 270 320 234 220 180 227 248 256 294 449 619 820 1077 883 598 404 540 486 404 242 300 490 574 458 148 81 4
1542 1760 2005 2096 2534 3061 2776 2263 2490 2650 2815 2876 2760 2610 2461 2273 2062 2039 2096 1999 2326 2684 2572 2306 1962 1894 1514 1221 1106 807 848 674 649 616 478 517 692 469 154 559 344 262 478 781 666 853 985 1398 977 896 716 536 548 548 810 692 575 773 745 1216 402 1164 147
1608 1512 1546 1942 1998 1848 1929 2441 2498 2471 2332 2614 2616 2367 2165 1942 1875 1690 1501 1765 2235 2388 2387 2064 1938 1764 1405 1271 1114 891 844 716 713 739 564 620 804 206 0 0 0 0 0 74 247 707 660 656 804 563 491 629 952 806 784 434 506 755 490 260 0 0 0
2045 1822 1643 1508 1511 1909 2170 2004 1733 1774 1796 1884 1825 1677 1674 1693 1642 1632 1433 1811 2034 2140 2270 2033 1841 1520 1264 1116 1074 832 869 813 856 921 849 860 689 469 229 0 0 0 0 60 365 328 345 75 291 256 223 307 514 505 503 412 636 554 118 33 0 0 0
1444 1720 1560 1515 1800 2092 2083 2102 2214 2150 2070 1862 1552 1511 1524 1428 1661 1804 1748 1975 2057 2154 2231 2040 1698 1580 1319 1210 1089 920 957 832 793 784 947 826 532 466 558 410 142 0 0 389 462 408 90 0 0 1 2 67 583 16 0 60 345 117 0 0 0 0 0

ECMWFFLT1_con_mucape_015.txt.gz
CAPE
1009 944 891 1210 1848 1469 1402 1938 2136 2122 2113 2026 1935 1866 1624 1638 2064 2396 2548 3026 3435 3907 4230 4325 4027 3932 4026 3995 3934 3857 3790 3806 3702 3395 3346 3481 3147 2983 2959 2861 2767 2620 2329 2392 2376 2132 1948 1761 1355 1149 1010 1238 1132 658 348 282 322 284 389 421 319 308 124
178 148 754 921 1688 1707 1453 1816 2237 2172 2214 2183 2011 2046 1758 1655 1966 2216 2687 3100 3600 3774 4140 4378 4361 4174 4250 4137 4001 4020 3898 3823 3771 3548 3300 3380 3349 3343 3200 3177 2988 2929 2604 2387 2300 2266 2000 1820 1504 1317 824 791 657 692 533 533 516 496 414 422 276 327 141
1005 744 568 988 1444 1901 1784 1720 2302 2425 2391 2197 2164 1968 1823 2029 2137 2469 2776 3043 3409 3987 4350 4373 4489 4597 4496 4416 4191 4322 3994 3894 3837 3574 3338 3168 3333 3028 3210 3158 3088 2972 2543 2582 2292 2157 2013 1829 1672 1415 974 901 702 718 730 636 519 465 434 358 274 167 174
628 990 950 836 1703 2141 2040 1763 2134 2296 2270 2261 2242 2251 2181 2341 2339 2446 2497 2732 3400 4153 4418 4313 4530 4779 4645 4688 4587 4372 4312 4092 3914 3644 3353 3240 3264 3262 3258 3339 3193 2819 2418 2404 2260 2079 2120 1968 1478 1459 1163 987 946 820 709 670 468 537 390 325 313 201 256
183 808 642 946 1690 2060 2240 1956 2092 2425 2158 2026 2192 2767 2604 2208 2385 2551 2406 2579 3389 4191 4130 4089 4317 4646 4907 4781 4697 4582 4459 4332 4259 3911 3714 3505 3327 3529 3547 3258 3139 2830 2414 2262 2355 2573 2316 2070 1685 1353 1167 1128 1010 950 806 594 474 536 422 213 267 255 171
43 558 709 1125 1742 1975 2256 2283 2267 2305 2126 1988 2396 2786 2582 2298 2445 2508 2349 2716 3206 3723 3936 3796 3788 4428 4962 4885 4651 4502 4358 4493 4450 4274 3905 3513 3509 3478 3656 3881 3243 2970 1958 2132 2401 2719 2573 2232 1841 1344 1245 1036 932 542 585 639 475 403 374 222 176 139 93
7 432 1166 1173 1722 2064 2341 2496 2440 2452 2186 1807 1942 2530 2582 2240 2353 2469 2335 2597 2742 3134 3532 3439 3332 3657 4861 4843 4824 4754 4622 4481 4652 4485 3915 3605 3674 3819 3648 3654 3618 3027 2624 2740 2727 2796 2645 2441 1818 1607 1274 1114 868 600 760 853 724 557 536 328 247 301 329
0 204 1503 1652 1538 1848 2297 2612 2648 2562 2300 1616 1575 2173 2283 2061 2203 2334 2026 2044 2220 1951 2847 2818 2883 3391 4694 5074 4912 4804 4815 4492 4774 4580 4231 3943 3738 3768 3598 3630 3461 3591 3202 3106 3096 2923 2758 2420 1695 1617 1385 972 870 707 906 1052 624 294 269 370 404 326 244
108 1186 1743 1680 1479 1178 1819 2625 2726 2646 2594 2068 1588 2148 2342 1698 1427 1502 1468 1530 1923 1521 1947 2183 2276 2867 4343 5036 5050 5071 4934 4712 4803 4626 4345 3891 3648 3408 3419 3529 3417 3579 3272 3307 3284 2959 2700 2464 1746 1679 1606 1113 1028 975 902 1174 740 390 278 330 270 196 232
1582 1087 2016 1837 1383 834 1422 2358 2853 3174 3030 3017 2575 2730 2524 1430 1031 1025 1002 1169 1570 1511 1408 1572 1582 2380 4044 5109 4973 4970 5140 4945 4720 4420 4039 3819 3678 3354 3128 2480 3322 3137 3247 3328 3010 2694 2704 2498 2099 1682 1562 1190 982 1103 1003 880 635 551 362 359 254 298 354
34 20 1839 2141 1781 1514 1766 2046 2917 3568 3645 3866 3498 2248 2782 1921 966 832 929 978 1085 1454 1207 1278 1339 1882 3736 4893 4695 4692 5093 4943 4592 4486 4182 3756 3271 2994 2587 2696 2950 3353 3050 3150 2818 2791 2710 2497 2242 1862 1554 1240 1035 1047 1170 754 639 532 407 396 348 388 365
1241 1079 2882 2951 2293 1652 1864 2832 3583 4282 4179 4522 3388 2648 3605 2924 1136 740 912 1046 988 1180 1328 1220 1319 1466 2942 4491 4460 4645 4860 4918 4467 4356 4209 3552 2926 2885 2914 2737 2779 3153 3215 3200 2744 2880 2582 2359 1993 1674 1525 1292 1122 1192 1216 876 551 684 721 428 281 370 453
1982 2450 3189 2952 2506 2122 2718 3392 3729 3772 4086 3751 3292 3149 3272 2833 1939 902 1614 1478 1089 1066 1348 1561 1304 1841 2028 4062 4380 4504 4711 4816 4599 4522 4064 3621 3091 2976 3040 2776 2334 2325 3198 3007 2786 2763 2477 2185 1996 1720 1546 1353 1308 1380 1242 574 515 1011 898 669 276 276 568
3244 3081 3322 3162 2734 2630 2782 3150 3387 3739 3858 3807 3702 3711 3673 3302 2720 1953 1893 1542 1517 1184 1146 1498 2042 1990 1978 3162 4368 4634 4869 4796 4617 4648 4672 3822 3625 3572 3374 2952 2321 2244 3092 3176 2973 2521 2356 2288 2144 1839 1562 1604 1614 1479 958 783 863 997 945 724 228 491 636
1983 3155 3414 3280 3292 3204 3062 2918 3679 3904 3863 4077 4081 3988 3869 3778 3620 3456 2865 2397 2527 1572 1246 1985 2563 2858 2462 3000 4287 4875 5022 5066 5016 4990 4703 4266 4146 4106 3886 3259 2853 3307 3460 3189 2763 2345 2096 2142 1960 1783 1666 1657 1642 1347 1013 892 787 873 933 416 286 718 643
0 55 2123 3608 3731 3395 3582 3674 4084 4252 4160 4472 4194 4223 3979 4112 4150 3805 3641 3428 2990 2508 1666 2060 2912 3817 3344 3409 4386 4982 5252 5433 5268 4762 4736 4376 4267 4235 3941 3500 3530 3375 3287 3016 2688 2505 2233 2222 2032 1707 1636 1540 1538 1185 768 789 892 747 232 398 976 868 479
0 13 119 1334 3927 3781 3888 4122 4400 4549 4531 4474 4108 4262 4321 4521 4323 4089 3853 3636 3303 3206 2242 2089 3921 3789 4020 4262 4553 5200 5447 5316 4999 4900 4308 4054 4323 4428 4275 3831 3610 3494 3212 2935 2734 2580 2343 1843 1754 1678 1754 1449 1423 1133 729 705 1040 299 443 661 212 423 824
0 0 0 10 1582 4122 4398 4395 4674 4897 4666 4438 4227 4395 4583 4855 4556 4149 3637 3650 3583 3471 2755 2716 3830 4132 4773 4706 5124 5516 5283 4930 4830 4396 4336 4023 3864 3776 3622 3399 3287 3331 3097 2761 2299 2294 2283 2272 2047 1742 1660 1410 1430 1270 1022 1117 573 554 629 366 506 858 967
0 1 0 182 940 4230 4379 4331 4797 5232 4782 4610 4453 4742 4740 4916 4496 4506 3944 4148 3932 3849 3381 3547 4381 4962 5200 5204 5416 5411 5022 5023 4806 4325 4132 3594 3480 3308 3205 3168 3222 3436 3040 2776 2553 2301 2316 2346 2272 2090 1910 1512 1274 1065 1009 802 485 589 544 140 300 402 490
0 0 0 84 819 2116 4300 4424 4688 5214 5052 5092 4803 4641 4568 4648 4425 4344 3942 4073 4074 4053 3902 4167 4649 5174 5190 5278 5406 5044 5174 4777 4452 4295 4090 3706 3408 3150 3115 3105 3236 3330 2996 2722 2474 2207 2125 2008 1918 1878 1854 1744 1460 1250 978 605 514 620 410 271 229 153 176
40 31 21 824 1482 1157 2627 4679 4726 5333 5190 4815 4370 4345 4408 4316 4128 4404 3973 3998 4088 4427 4920 4364 4889 5310 5445 5354 5116 5008 5001 4286 4276 3972 3568 3236 3190 3430 3451 3425 3399 3254 2812 2443 2264 2144 2015 1858 1617 1520 1439 1288 1278 1217 1114 693 917 640 560 391 336 111 243
7 58 1006 1242 1686 2368 3865 4484 4596 4833 5059 4425 4222 4350 4073 4250 4316 4066 3597 3846 4233 4328 4465 4623 4972 5162 5142 4674 4897 4911 4921 4687 4284 3876 3576 3426 3100 3135 2946 3204 3400 3274 3084 2821 2633 2396 2121 2082 1874 1551 1293 1223 1182 1186 1080 1072 940 652 446 353 297 228 72
4 486 437 1060 2398 3520 4380 4237 4414 4609 5095 4377 4096 4293 4098 4218 4052 4116 3770 4134 4336 4613 4573 4826 5122 5215 5207 4707 4228 4898 4843 4453 3930 3759 3698 3410 3319 3027 2784 2961 2897 3092 3122 2898 2727 2558 2279 2039 1802 1376 1352 1446 1348 1236 985 992 936 666 503 360 316 298 272
88 62 0 646 2564 3110 4619 4544 4301 4596 4533 4206 3984 4059 4186 4028 4335 4345 4192 4671 4793 4864 4812 4973 5145 5180 5168 4742 4444 4929 4801 4508 3925 3717 3490 3219 3050 2921 2737 2420 2419 2448 2842 2835 2782 2499 2217 2144 1874 1324 1100 1198 1068 1098 1048 932 866 724 629 376 348 300 340
528 213 333 1139 2274 3374 4227 4110 3844 4449 4280 4137 3852 4031 4325 4252 4314 4324 4317 4427 4409 4395 4490 5062 5248 5126 5044 4571 4433 4217 3532 3802 3608 3468 3560 3543 3378 3198 2906 2684 2544 2422 2612 2660 2389 2287 2228 1698 1573 1475 1393 1456 1439 1355 1226 982 803 721 599 539 498 354 640
675 299 446 1116 1907 3325 3830 4078 4048 4214 3672 3670 4078 4278 4871 4230 3924 3824 4052 4354 4448 4392 4707 5084 5170 5110 4980 4488 4300 4042 3903 3624 3819 3812 3536 3578 3312 3052 2894 2763 2683 2513 2054 1924 1605 1490 1318 1298 1236 1274 1254 1146 998 883 765 685 584 635 570 454 380 186 844
1352 936 830 1120 2036 3123 3591 3633 3783 3618 3588 3946 4570 4023 3701 3136 3568 4215 4457 4564 4500 4698 4765 4765 4933 4862 4792 4124 3870 3559 3461 3697 3826 3597 3054 3043 3221 2983 2668 2698 2724 2474 2102 1576 1296 1187 1099 1094 1080 1009 910 807 734 648 558 434 363 468 390 154 7 0 330
2440 2343 2092 1846 3141 3585 3846 3346 3670 3326 3373 3663 3387 2867 3114 4007 4546 4466 4265 4137 4354 4456 4836 5082 4941 4688 4324 3877 3636 3437 3244 3091 2870 2764 2876 2752 2690 2851 2522 2298 2013 2177 1892 1221 1097 1014 954 956 910 867 760 562 433 359 275 194 444 8 6 0 0 0 0
2444 2390 3166 3735 3540 3365 3005 3210 2963 2599 2915 2896 2918 3188 4326 4645 4384 4063 3952 4087 4608 5034 5302 5140 4689 4292 4041 3784 3465 3398 3138 3009 2912 2445 2609 2580 2334 2494 2202 1832 1606 1381 1112 939 870 773 690 590 568 521 494 344 110 81 288 1101 831 170 7 0 0 0 0
3154 3593 3529 3178 2966 2910 2953 3159 3602 3900 3821 3574 4389 4646 4548 4892 4930 4945 4944 4967 5093 5030 4931 4914 4700 4270 3953 3628 3551 3354 3057 2713 2456 2184 1985 2227 2030 1798 1805 1424 1286 877 936 649 549 483 379 216 138 59 64 62 83 170 656 789 546 396 105 0 0 0 4
3383 3123 2750 2757 2937 3497 4039 4193 4003 3819 3997 3932 4258 4328 4480 4705 4923 4870 4815 4649 4618 4669 4705 4606 4449 4042 3584 3316 2976 2595 2297 2006 2054 1663 1681 1920 1785 1624 1394 1131 918 826 686 613 388 405 490 484 374 357 303 255 274 433 752 357 306 314 164 220 172 122 149
2989 2950 3080 3116 3168 3089 3117 3078 3585 3767 3995 4407 4613 4822 4928 5138 5133 4750 4456 4235 4040 3994 3931 3623 3482 3466 3303 2841 2172 1916 1766 1989 1527 1068 1234 1328 1183 1170 1102 890 671 755 753 573 523 626 642 679 434 506 390 276 484 330 354 382 467 466 239 66 215 232 232
2594 2420 2422 2312 2526 2701 2606 2258 2025 2213 2400 2677 2786 2901 3263 3595 3682 3608 3550 3856 3953 3839 3819 3624 3469 3149 2718 2337 1960 1738 1628 1349 1215 990 896 867 800 759 707 417 669 634 640 661 599 594 646 470 514 366 95 294 383 470 463 450 428 580 414 94 149 209 268
2926 1740 1864 1907 1781 1780 1753 1817 1825 1792 1944 2278 2295 2493 2867 3080 3110 3187 3166 3465 3810 3917 3756 3359 2926 2626 2418 2066 1797 1614 1504 1358 1118 927 774 710 512 528 511 531 562 640 664 686 615 546 317 386 316 297 188 134 266 472 592 720 908 848 560 361 235 272 318
2642 2944 3246 3447 3432 3174 2971 2949 2939 3000 2892 2772 2489 2331 2570 2624 2460 2641 3049 3201 3533 3547 3194 2706 2304 2234 1895 1656 1523 1300 1176 1116 994 864 785 548 655 458 283 428 418 325 527 448 750 850 284 555 390 421 267 136 219 545 966 964 820 710 598 1142 374 584 398
1220 1446 1733 2031 2340 2521 2571 2831 3103 3052 2896 2778 2663 2348 2118 2160 2338 2463 2712 3309 3236 3049 2798 2534 2324 2054 1726 1555 1412 1190 1030 876 867 749 560 677 582 259 1 0 0 400 594 0 156 166 0 270 682 179 627 178 986 880 814 800 472 722 394 466 306 207 72
1541 1552 1768 1913 1846 1901 1966 1926 2137 2343 2174 2013 1881 1712 1672 1694 1584 2028 2576 2982 3111 2884 2767 2569 2197 1819 1689 1483 1162 888 1065 999 852 774 826 728 628 370 258 34 0 0 150 0 0 0 0 0 280 28 80 1132 885 359 534 595 620 524 398 468 455 194 0
1294 1658 1902 2155 2510 2772 2816 2641 2200 1911 1804 1769 1672 1549 1576 1553 1880 2351 2650 3019 2978 2866 2750 2514 2158 1870 1589 1443 1140 1192 1273 1108 799 704 916 852 617 442 324 441 292 0 0 0 0 0 142 394 418 0 0 0 358 121 500 433 395 338 371 497 481 66 0

ECMWFFLT1_con_mucape_018.txt.gz
CAPE
1022 1129 927 1053 1209 1107 1220 1507 1893 1929 2277 2450 2339 2323 2113 2316 2635 3119 3075 3500 3651 4000 4192 4269 4204 4178 4212 4226 4313 4322 4179 4168 4133 4001 4124 4070 3662 3584 3575 3414 3353 3390 3007 2975 2642 2526 2222 2440 2184 2121 1923 1967 1821 1592 1630 1031 984 779 1032 723 837 1009 457
650 576 394 350 692 1214 1318 1510 1761 1965 2206 2555 2431 2391 2091 2226 2631 3074 3128 3552 3705 3986 4197 4342 4328 4276 4290 4331 4269 4338 4245 4204 4126 4008 4147 4227 3957 4044 3676 3534 3380 3349 3326 2865 2994 2864 2362 2307 2400 1918 1924 1897 1435 1459 1294 1218 974 724 661 1103 838 826 987
651 528 518 437 544 996 1536 1434 1732 2097 2117 2131 2276 2176 2176 2326 2592 3076 3183 3564 3889 4081 4256 4354 4323 4245 4297 4436 4322 4339 4306 4161 4171 4216 4072 4061 3995 3164 3460 3713 3515 3303 3208 3151 3287 2919 2657 2120 2232 2076 1926 1564 1281 1431 1116 988 1014 795 866 1000 871 802 866
678 390 471 537 839 1650 1746 1551 1758 1941 1888 1566 1994 2015 2314 2580 2647 2989 3145 3397 3851 4070 4359 4363 4363 4247 4239 4413 4325 4403 4300 4253 4246 3984 3683 3592 3811 3568 3600 3656 3552 3353 3268 3108 2989 2634 2182 2228 2107 2242 1946 1620 1379 1209 985 863 811 869 948 1096 746 723 721
517 466 413 709 743 1918 2015 1761 1881 2285 1870 1808 1703 2335 2493 2664 2579 2613 3099 3168 3262 3686 4054 4199 3854 3964 4135 4326 4248 4237 4276 4309 4284 4131 3732 3468 3748 3708 3516 3016 3451 3014 3109 2961 2796 2684 2556 2296 2040 1928 1688 1513 1281 1180 989 1076 878 902 841 998 747 632 591
935 731 632 544 523 1219 1827 1779 1642 1458 1829 2016 2080 2497 2368 2332 2114 1954 2380 2945 3052 3202 3899 4287 4195 4199 4196 4176 4052 4061 4294 4409 4311 4321 4045 3761 3789 3684 3430 3306 3152 2995 2852 2899 2650 2528 2567 2315 1973 1850 1543 1376 1236 1082 1071 1046 866 847 910 816 824 488 332
768 995 1031 931 792 710 1131 1132 943 1405 1798 2125 2141 2235 2134 2016 1858 1586 1708 2415 2544 3269 3360 4012 4241 4185 4222 4087 4156 4361 4530 4403 4423 4326 4107 3850 3694 3561 3481 3460 2723 2798 2719 2799 2334 2277 2536 2413 2161 1903 1620 1249 1229 1165 1031 1003 886 791 837 662 608 692 558
1216 997 1277 1224 790 632 722 1180 1543 1902 1751 2353 2133 2150 2143 1978 1836 1612 1855 2018 2587 2906 3358 3455 3724 4134 4160 4242 4269 4212 4496 4233 4208 4272 4020 3660 3612 3503 3516 3549 3385 2727 2596 2570 2198 2328 2485 2545 2368 2138 1809 1490 1476 1384 1263 1247 1009 862 812 671 550 638 542
447 942 1031 671 430 410 764 1145 1482 1750 1572 1998 2428 2613 2227 2091 1852 1609 1652 2042 2761 2981 3380 3637 3663 3729 4330 4255 4159 4143 4291 4366 4374 4255 4046 3569 3511 3054 2993 3393 3618 3549 2982 2624 2032 2427 2794 2799 2493 2386 2074 1672 1574 1436 1182 1332 1097 789 860 606 593 430 273
652 1119 1031 580 605 392 879 1782 2070 1860 1699 2046 2662 2943 2760 2233 1931 1701 1778 2126 2270 2333 3073 3213 3432 3611 4216 4326 4297 4124 4278 4541 4526 4090 3622 3092 3053 2986 2656 2758 3315 3536 3468 3061 2097 2323 2937 3088 2792 2612 2234 1825 1659 1386 1070 1196 1151 804 784 694 587 405 327
1249 1920 1689 1336 1323 1208 1344 1414 2137 2233 2015 2498 3072 2967 2993 2795 2411 1886 2098 1894 1713 1845 2594 3254 3024 2983 3721 3930 3573 3541 4266 4105 4148 4142 3789 3363 3136 2922 2826 2758 2852 3177 3210 3086 2574 2685 3031 3182 3101 2747 2334 1855 1704 1383 1107 1218 1124 797 617 718 604 442 357
1287 2442 2330 2137 2156 1736 1528 1731 2314 2872 3531 3920 3370 2963 3245 3207 2640 1914 1848 1857 1749 1569 2054 2604 2384 2355 3072 3580 3711 4238 4215 4079 3682 4097 3874 3401 3247 2959 3052 2793 2869 3171 3301 3384 3092 3090 3141 3225 3135 2749 2437 1990 1728 1408 1098 1366 1161 828 603 543 494 515 339
2538 3112 3160 2795 2925 2476 2269 2359 2464 3606 4543 4517 3668 2947 3047 3231 2778 2143 2258 2106 1718 1683 1651 1989 2009 2215 2429 3196 3795 4445 4102 4039 3994 4054 3922 3882 3543 3207 3054 2783 2506 2864 3221 3300 3149 3004 3049 3244 3186 2784 2550 2151 1719 1523 1219 1391 1279 987 766 564 495 561 446
2873 2681 3622 3554 3500 3604 3821 4865 4616 4567 4733 4637 3860 3148 2862 2944 2650 2455 2242 2003 1545 1457 1467 1477 1792 2189 2553 3274 4017 4388 4364 4490 4116 4164 4156 3945 3693 3397 3164 2774 2706 2916 3181 3337 3235 3180 3149 3175 3169 3000 2489 2140 1775 1554 1372 1323 1219 1073 1007 713 649 685 609
1615 2599 3856 3783 3851 3925 3796 4604 6345 5679 5059 4828 4344 3438 2979 2773 2688 2521 2043 1612 1400 1062 1419 1568 1684 1928 2477 3458 4251 4657 4514 4562 4575 4156 4148 4039 3844 3648 3492 3122 2984 2919 3380 3490 3223 3014 3039 3034 3077 2800 2331 2142 1856 1606 1355 1298 1127 1011 953 841 853 772 664
469 137 2790 3741 4125 4192 4349 4667 5894 6208 5509 5246 4515 3965 3070 2934 2969 2630 1974 1537 1355 1040 1115 1820 1825 1958 2224 3634 4474 4823 4818 4896 4831 4528 4303 4264 4155 3937 3727 3391 3197 3030 3407 3635 3530 3414 3279 3048 3212 2693 2422 2236 1969 1709 1535 1473 1267 927 654 692 893 456 294
117 262 1408 3936 4577 4034 4206 4491 4923 5988 5532 5276 4729 4376 3636 3282 3402 3139 1808 1226 873 1202 1099 2166 2222 2172 2090 3667 4745 5044 5070 5150 5179 5014 4798 4593 4468 4374 4016 3647 3503 3555 3498 3476 3602 3583 3502 3480 3172 2428 2256 1965 1724 1649 1610 1633 1263 692 620 734 959 763 401
23 67 2044 2999 4329 3856 4187 4277 4789 5296 5459 5084 4946 4838 4208 4115 4073 3614 2245 1533 840 676 916 1715 2578 2474 2320 3667 4982 5382 5363 5369 5569 5515 5352 5179 5058 4841 4655 4379 4207 3930 4030 4169 4177 4093 3656 3149 3036 2981 2565 2232 1898 1654 1830 1550 1262 1260 1345 1332 1247 882 585
244 246 479 3599 4477 4816 4104 3512 4087 5047 4765 4332 4458 4530 4445 4607 4195 3955 3551 2764 1668 1106 1001 1214 3094 3048 2880 3948 5176 5701 5683 5711 5919 5880 5754 5664 5460 5290 5098 4929 4407 4274 4542 4082 3986 3662 3434 3291 3097 3027 2840 2347 2079 1719 1718 1731 1765 1715 1504 1432 1278 644 518
201 45 52 50 2822 4371 4422 4300 4236 4686 4732 4763 4607 4122 3922 4228 4267 4321 3947 3592 3293 2246 1573 1576 3520 3721 3492 4261 5227 5954 6075 5981 6457 6073 5968 5789 5580 5371 5284 5080 4808 4487 4193 4032 3823 3590 3343 3110 2971 2823 2713 2526 2168 1974 1856 1868 1753 1534 1442 1327 1106 681 563
977 759 265 251 560 3978 5157 5172 5217 5389 5660 4570 4144 4392 4432 4444 4188 4526 4055 4166 4070 3932 3688 2871 4073 4520 4442 5039 5715 6277 6289 6320 6411 6062 5480 5183 4950 4787 4688 4532 4389 4133 3937 3891 3696 3504 3350 3032 2912 2796 2523 2218 2082 2080 1957 1788 1572 1423 1249 1266 1112 543 457
19 74 263 396 1524 2631 5556 5417 5236 4940 5450 4782 4762 4332 4078 3913 3798 3946 3902 3631 4124 4097 4371 4409 5376 5388 5221 5694 6190 6444 6401 6182 5704 5500 4960 4574 4428 4219 4025 3866 3942 3869 4071 3992 3754 3428 3212 3247 2858 2842 2651 2376 2239 1809 1726 1648 1517 1425 1300 987 934 938 519
0 0 0 75 1035 3786 5675 5366 5344 4551 5973 5500 4575 4124 3719 3759 4057 4259 4062 3720 3812 4216 4388 5510 5763 5575 5733 6196 6238 6345 5946 5662 5393 5081 4516 4311 4148 3985 3725 3819 3785 4075 4257 3969 3771 3428 3367 3168 2860 2622 2494 2328 1844 1596 1563 1523 1482 1442 1376 1158 832 802 740
0 0 0 18 265 3028 3916 4203 4955 5135 5531 5331 4912 4389 4270 4005 4189 4595 4328 3919 4328 4344 4094 6068 5792 5907 6123 6149 6146 5952 5613 5352 5103 4760 4445 4196 4076 3998 3881 3883 3901 3941 3939 3726 3529 3426 3225 3028 2980 2645 2420 1981 1566 1459 1476 1491 1453 1366 1296 1228 1088 760 518
0 0 0 0 1146 2822 3269 3979 4247 4560 5642 5537 4940 4707 4791 4562 4479 4230 4315 4484 4040 3947 4409 5939 5925 5965 6052 6034 5946 5689 5360 5087 4830 4483 4292 4070 3846 3623 3521 3408 3454 3536 3562 3502 3316 2930 2765 2506 2372 2339 2455 2086 1668 1413 1319 1344 1324 1234 1128 1027 899 709 614
170 0 0 0 2 1142 2571 5205 4990 4711 4967 5238 5429 4712 4918 4580 4471 4308 4350 4525 4164 4374 4985 5656 5810 5946 5657 5734 5911 5490 5218 4878 4520 4182 4018 3882 3702 3440 3345 3209 3040 2856 2984 2825 2637 2472 2471 2464 2289 2025 1845 1672 1570 1514 1460 1408 1292 1026 955 801 587 495 415
2094 1355 12 0 509 1746 5653 5784 5128 4622 4320 5042 5376 4789 4484 4206 4488 4404 4582 4630 4640 4621 4827 5777 5867 5716 5384 5642 5547 5307 4938 4630 4307 4000 3915 3878 3657 3435 3266 3129 2956 2802 2534 2331 2186 2090 2007 1956 1917 1799 1628 1426 1407 1373 1252 1114 848 736 622 508 454 384 268
1632 2490 74 269 2658 2127 4646 4287 5128 4561 4086 5229 5236 4758 4614 4669 5088 5072 5200 5112 5430 5544 5375 5878 5686 5375 5278 5258 4979 4534 4444 4223 4165 4085 3995 3947 3686 3471 3427 3303 2851 2810 2496 2162 1972 1894 1710 1382 1158 980 961 914 862 795 761 659 556 432 346 105 0 0 0
2697 2194 3258 1675 5128 2937 3903 4414 4534 3890 3931 4276 4283 4163 4508 5552 5462 5368 5364 5493 5585 5451 5758 5659 5373 5186 4822 4502 4218 4214 4303 4282 4124 3922 3808 3864 3636 3057 2864 2923 2723 2411 2275 2031 1892 1759 1572 1324 1101 930 834 750 660 582 515 393 82 0 0 0 0 0 0
3188 2174 3722 3144 3428 3910 3803 4214 4037 3789 3637 3275 4093 4650 4876 5751 5170 5278 5327 5678 5526 5555 5379 5262 5051 4674 4289 4044 4201 4184 4281 4065 3234 3248 3237 3255 3289 3001 2608 2336 2270 2210 2118 1918 1780 1625 1389 1145 956 741 628 546 472 322 110 661 246 14 0 0 0 0 0
2211 3754 3735 2469 3426 3743 3550 3781 4082 3549 4041 4799 5051 5115 5529 5460 5358 5307 5804 5693 5295 5041 5049 4868 4495 4129 3912 3842 3865 3765 3315 3045 3064 3106 3054 2889 2643 2402 2198 2129 2022 1936 1766 1612 1439 1357 1218 909 558 507 513 388 387 414 617 698 665 84 0 0 0 0 0
3442 3158 2750 2397 3315 3666 3665 3637 3582 3725 4233 5458 5730 5695 5712 5977 5604 5600 5683 5390 5037 4960 4661 4346 4046 3869 3946 3682 3224 2977 2658 2654 2565 2442 2220 2355 2137 2186 2076 1953 1754 1459 1252 1137 998 863 639 367 243 241 232 258 257 399 689 542 464 317 0 0 0 0 0
2045 2254 2887 2343 3332 4251 3592 2967 3370 4698 5032 5137 5200 5038 4995 5207 5233 5413 5472 5088 4626 4525 4366 4010 3786 3427 3273 3056 2656 2566 2457 2402 2153 2055 1950 1994 1800 1624 1494 1385 1316 1155 907 751 595 795 803 518 446 379 322 455 576 698 661 575 448 439 2 0 0 0 0
1932 1868 2062 2487 2781 3007 3130 4242 3894 4490 4872 4945 5060 5184 4578 4471 4482 4622 4595 4512 4307 4113 3844 3334 3109 2947 2825 2586 2551 2392 2092 1783 1532 1365 1152 1076 876 893 825 793 772 862 874 870 881 904 862 788 566 543 462 452 565 637 573 451 383 435 118 15 0 0 0
2685 2873 2966 3403 3558 4089 3158 3410 3638 4006 4003 4009 4140 4376 4276 4141 3882 4136 4148 3975 3927 3704 3348 2903 2538 2582 2292 1880 1741 1656 1551 1369 1016 780 885 692 601 615 619 635 1013 858 686 625 638 965 891 894 473 512 301 348 474 545 434 420 359 368 351 46 0 0 0
2274 2428 2578 2555 2799 2922 2999 3104 3348 3497 3397 3165 3259 3504 3522 3216 3096 3133 3188 3350 3439 3232 2955 2684 2307 1953 1752 1633 1508 1195 930 847 722 907 669 598 501 425 389 520 565 519 543 513 561 544 653 878 610 539 724 305 971 344 574 675 646 74 184 154 0 0 0
1841 2095 2390 2721 2637 2410 2392 2457 2539 2789 3085 3230 3044 2867 2973 3356 3233 3572 3252 3072 2966 2814 2830 2554 2156 1812 1730 1440 1225 1012 1063 872 914 1028 874 505 345 290 0 102 500 446 424 408 440 406 364 493 394 238 646 706 10 0 0 695 0 476 537 466 0 0 109
1057 1565 2000 2013 2239 2369 2285 2267 2326 2336 2410 2492 2551 2853 3198 3104 3172 3374 2842 2893 2728 2611 2548 2338 2088 1876 1524 1300 1239 1282 1195 950 922 872 777 600 481 247 135 2 32 78 0 156 109 289 198 236 154 90 0 0 0 0 0 0 0 0 0 332 215 39 0

ECMWFFLT1_con_mucape_021.txt.gz
CAPE
180 60 52 170 175 208 381 266 439 883 908 1350 1693 1683 1648 1568 1580 1827 2218 2516 2677 2668 2618 2607 2650 2774 2856 2784 2754 2806 2867 2906 2968 2925 2558 2489 2183 2351 2041 1829 2289 2030 2014 1933 1745 1873 1530 1386 1286 1326 1127 1110 1313 792 713 546 255 70 165 254 171 287 68
221 86 27 201 215 304 737 514 377 833 1012 1171 1625 1720 1669 1630 1557 1759 2134 2421 2590 2669 2701 2685 2758 2770 2811 2884 2858 2914 2973 2972 2972 2920 2706 2658 2228 2618 2208 1878 2443 2173 2033 2004 1858 1823 1798 1304 1302 1300 1272 1036 1295 985 616 503 144 114 43 168 166 434 174
188 74 44 62 158 248 756 992 740 749 1115 1195 1490 1736 1711 1657 1575 1739 2065 2403 2546 2627 2762 2781 2804 2835 2806 2874 2955 3006 3050 3048 2983 2882 2844 2788 2455 2663 2482 2184 2423 2353 2203 1976 1967 1852 1586 1325 1063 1172 1218 1081 1085 1029 614 393 189 118 155 136 160 136 318
169 133 309 317 235 238 285 1049 1098 937 1153 1366 1445 1679 1717 1677 1572 1783 2086 2416 2557 2641 2826 2858 2864 2874 2874 2886 2995 3098 3127 3079 3008 2866 2894 2928 2618 2620 2638 2425 2427 2419 2327 2122 1924 1975 1426 1355 1637 1266 1478 1127 938 889 555 432 196 98 248 204 150 119 216
216 308 561 613 498 420 420 544 1136 1148 1118 1402 1565 1624 1688 1664 1638 1878 2189 2490 2562 2684 2832 2926 2896 2899 2963 2943 3028 3167 3174 3124 3073 2910 2881 2951 2785 2643 2589 2531 2434 2429 2380 2218 1976 1893 1671 1198 1630 1357 1191 1089 874 927 624 442 190 121 244 196 154 180 137
312 508 674 790 789 768 715 684 806 1151 1185 1234 1568 1704 1704 1735 1760 1956 2270 2578 2668 2698 2865 2983 2982 2993 3030 3055 3087 3201 3224 3152 3107 2979 2896 2938 2942 2664 2627 2576 2430 2400 2375 2292 2210 1867 1884 1407 1267 1318 1322 1040 940 839 673 524 234 165 258 262 118 198 129
438 638 767 842 907 900 753 818 803 948 1188 1306 1636 1799 1763 1798 1831 1969 2290 2568 2716 2768 2891 3044 3075 3076 3094 3165 3170 3190 3255 3202 3118 3070 2938 2923 2996 2746 2652 2600 2527 2421 2247 2303 2272 2009 1795 1687 1272 1416 1322 1118 1011 866 739 514 362 211 244 354 157 126 150
288 590 636 619 616 254 361 867 1021 956 1016 1224 1740 1973 1879 1843 1847 1880 2206 2488 2746 2824 2901 3022 3121 3115 3134 3227 3235 3191 3240 3241 3134 3141 3009 2910 2924 2868 2650 2574 2544 2499 2312 2261 2236 2156 1860 1711 1553 1306 1380 1254 1038 959 815 586 240 216 222 321 218 144 170
224 368 482 502 361 257 581 869 1101 1154 1151 1270 1633 1994 1965 1892 1854 1877 2085 2353 2674 2865 2935 3024 3107 3124 3144 3204 3266 3214 3260 3277 3205 3162 3097 2914 2841 2874 2750 2592 2508 2501 2412 2348 2245 2212 2058 1857 1695 1505 1392 1298 1153 966 830 641 475 252 264 251 255 172 181
196 202 411 509 440 200 774 1125 1067 1119 1293 1332 1461 1889 1974 1946 1922 1875 1985 2219 2482 2764 2965 3045 3113 3149 3168 3184 3242 3246 3246 3295 3267 3208 3166 2977 2804 2830 2777 2647 2518 2515 2459 2434 2371 2267 2171 2029 1898 1785 1664 1468 1195 1021 901 740 583 416 335 258 229 198 148
222 153 185 199 169 184 708 1204 1242 1143 1431 1652 1672 1864 1939 1962 1931 1877 1771 2029 2276 2501 2821 2964 3072 3203 3259 3228 3192 3218 3231 3277 3305 3242 3214 3088 2879 2750 2740 2653 2560 2482 2475 2432 2403 2386 2290 2171 2032 1895 1772 1634 1480 1293 1120 920 706 510 436 395 280 156 140
218 176 193 286 231 413 702 1102 1311 1300 1416 1824 1932 2018 2023 1966 1872 1873 1860 1836 2027 2228 2462 2715 2891 3184 3345 3334 3231 3191 3206 3268 3294 3265 3237 3159 2972 2786 2653 2578 2535 2508 2402 2371 2360 2333 2285 2226 2129 2027 1859 1696 1580 1456 1309 1113 871 652 506 444 374 133 94
232 358 555 555 532 615 722 902 1018 1417 1588 1905 2104 2142 2136 2076 2055 2044 2035 2006 1902 1957 2175 2447 2722 3116 3395 3410 3276 3201 3213 3260 3282 3283 3249 3145 2998 2811 2660 2473 2391 2479 2522 2330 2185 2159 2123 2068 2042 2099 2015 1883 1726 1584 1425 1232 1012 776 560 467 410 161 68
895 690 678 652 571 601 776 1041 1212 1538 1711 1895 2126 2231 2356 2209 2200 2173 2156 2118 2003 1820 2301 2653 2846 3014 3291 3432 3306 3192 3176 3200 3265 3309 3253 3147 2994 2791 2645 2470 2296 2337 2499 2561 2466 2254 2008 1928 2046 2241 2201 2099 1941 1779 1594 1390 1159 924 684 488 409 347 74
859 778 701 606 573 532 1076 1298 1432 1520 1690 1911 2085 2200 2416 2367 2289 2241 2200 2136 2098 1959 2306 2660 2987 3106 3214 3334 3268 3129 3091 3106 3162 3264 3310 3215 3042 2784 2602 2492 2332 2278 2440 2586 2572 2536 2406 2180 2174 2352 2395 2310 2183 2017 1825 1604 1367 1109 880 670 503 382 329
921 916 743 698 977 1106 1246 1416 1595 1694 1754 1754 1711 1887 2176 2442 2366 2295 2245 2223 2172 2051 2053 2355 2806 3049 3128 3299 3240 3035 2954 2965 3019 3135 3311 3322 3167 2935 2722 2587 2462 2380 2472 2686 2674 2589 2510 2424 2594 2623 2572 2508 2428 2300 2128 1935 1696 1445 1169 944 766 610 778
1582 1560 1886 1886 1795 1627 1350 1254 1494 1826 2142 2338 2332 2032 2165 2463 2426 2323 2263 2225 2166 2095 1957 2019 2487 2811 2945 3060 3178 3054 2987 2982 3001 3057 3205 3372 3306 3120 2930 2753 2601 2510 2519 2749 2898 2814 2674 2628 2782 2854 2798 2715 2633 2528 2393 2237 2014 1738 1478 1298 1231 1164 994
2121 2052 2192 2708 2480 2452 2180 2049 2117 2073 2497 2859 2903 2652 2300 2444 2568 2424 2305 2246 2184 2089 1977 1836 2156 2513 2679 2745 2948 3134 3256 3252 3256 3211 3202 3332 3428 3346 3139 2936 2769 2637 2557 2722 3024 3011 2922 2796 2831 2934 2960 2911 2824 2704 2562 2406 2218 2081 1954 1764 1478 1511 1144
1988 2386 2313 2436 2467 2377 2351 2640 3560 3563 2969 3105 3241 3043 2706 2524 2573 2546 2396 2254 2189 2100 1994 1860 1803 2158 2340 2382 2609 3082 3448 3497 3496 3491 3383 3342 3422 3440 3337 3113 2876 2727 2710 2944 3043 3059 3038 2923 2918 2932 2956 2966 2929 2834 2738 2614 2441 2237 2026 1767 1768 1753 1719
0 194 2049 2133 2231 2515 2528 2517 3265 4417 4117 3587 3509 3385 2924 2610 2578 2615 2519 2341 2217 2148 2037 1838 1648 1807 2010 2111 2484 2987 3435 3602 3642 3701 3613 3469 3408 3430 3402 3235 2988 2993 3178 3259 3263 3146 3087 2952 2990 2929 2901 2884 2833 2722 2562 2424 2225 2024 2037 2012 1946 1889 1798
397 521 370 2024 2391 2634 2642 2458 2484 3728 4385 4172 3953 3684 3271 2839 2646 2553 2486 2387 2297 2158 2015 1828 1693 1426 1731 1938 2509 3033 3416 3644 3703 3777 3837 3679 3466 3512 3573 3364 3150 3476 3379 3300 3279 3274 3201 3123 3036 2944 2824 2710 2582 2449 2328 2230 2264 2215 2067 1968 1863 1766 1426
402 489 460 1699 2920 2935 2802 2718 2734 3272 3883 4058 4003 3858 3592 3191 2857 2688 2553 2400 2299 2181 2057 1897 1731 1496 1547 1685 2524 3201 3529 3731 3802 3923 4045 4032 3939 3886 3892 3675 3545 3504 3326 3189 3135 3092 3068 3018 2952 2898 2792 2697 2607 2528 2508 2447 2331 2115 2004 1880 1813 1726 1618
44 20 14 223 1440 2845 3098 3044 2873 3002 3374 3671 3712 3731 3679 3541 3190 3050 2743 2464 2318 2214 2128 1984 1790 1596 1574 1571 2466 3359 3738 3887 4042 4228 4444 4388 4273 4111 4013 3788 3601 3532 3383 3273 3215 3174 3108 3056 2988 2916 2843 2797 2734 2664 2579 2439 2204 1962 1889 1826 1716 1607 1535
0 0 0 0 522 2465 2999 3100 2944 2918 3266 3455 3540 3565 3587 3554 3478 3416 3199 2760 2408 2299 2187 2059 1823 1990 1803 1802 2630 3616 4017 4230 4454 4615 4591 4485 4353 4210 4047 3828 3686 3551 3459 3348 3247 3194 3146 3065 2871 2657 2560 2482 2387 2251 2213 2045 1928 1851 1772 1704 1659 1568 1493
0 0 374 335 141 2904 3386 3256 3153 3298 3690 3666 3534 3543 3544 3578 3597 3510 3435 3266 2970 2880 2564 2102 1815 2466 2230 2291 3290 4112 4486 4700 4707 4673 4608 4522 4430 4322 4180 4010 3825 3738 3596 3474 3367 3260 3069 2824 2754 2700 2616 2457 2319 2186 2016 1987 1891 1779 1691 1650 1599 1551 1425
905 1028 1160 1500 1448 1834 3842 3916 3829 4056 4142 3883 3602 3574 3613 3635 3619 3505 3484 3454 3270 3108 3109 2942 3022 3155 2844 3497 4501 4798 4857 4802 4732 4704 4593 4512 4467 4384 4302 4139 4023 3876 3750 3533 3244 2937 2857 2790 2731 2665 2554 2439 2295 2144 1973 1792 1593 1440 1453 1466 1442 1406 1302
944 1051 833 1233 1624 2016 3440 4339 4188 4263 4360 4146 3848 3658 3664 3616 3603 3486 3452 3467 3399 3240 3217 3666 4029 4061 4436 4846 4958 4928 4870 4823 4755 4657 4556 4483 4463 4415 4267 4152 4041 3913 3615 3181 3003 2902 2796 2740 2654 2520 2402 2256 2111 1912 1743 1664 1560 1506 1456 1350 1253 1176 1026
2408 1655 1410 2488 3317 2862 2037 3831 4301 4365 4461 4306 4043 3815 3699 3497 3432 3446 3514 3570 3458 3392 3357 4322 4577 4834 4982 4946 4898 4868 4810 4759 4672 4567 4505 4491 4486 4424 4338 4092 3871 3493 3025 2946 2862 2767 2696 2530 2350 2210 2050 1889 1702 1682 1527 1382 1187 1108 1058 969 843 784 725
2830 2764 2803 2336 2916 3036 3817 2777 3650 4130 4508 4448 4222 3918 3725 3459 3460 3539 3664 3667 3576 3465 4097 4780 4956 5013 4928 4835 4778 4720 4642 4579 4551 4530 4539 4546 4461 4266 3914 3599 3122 2771 2782 2689 2560 2415 2317 2161 1954 1689 1471 1283 1140 993 955 931 870 772 735 699 635 597 621
2902 2913 2617 2540 3220 3432 3687 4281 3761 3874 4274 4554 4469 4183 3886 3712 3586 3661 3768 3802 3659 4120 4913 4942 5038 4962 4812 4747 4660 4595 4510 4485 4478 4445 4344 4291 4174 3975 3713 3230 2399 2444 2482 2361 2209 2058 1904 1603 1367 1196 1056 827 761 768 805 712 638 475 406 445 536 575 491
2624 2797 2798 2400 2830 3232 3148 3211 3891 3701 3475 3928 4513 4316 4051 3952 3824 3794 3791 3840 4311 4758 4854 4880 4953 4841 4751 4639 4583 4561 4595 4610 4586 4432 4205 4035 3806 3544 3014 2389 2330 2157 2004 2002 1974 1802 1585 1432 1312 1173 827 649 633 618 589 499 416 99 0 96 101 0 0
2449 2773 2432 2236 2359 3013 3090 3237 3240 3162 2845 3014 3654 3517 3961 3930 3914 3810 3793 4475 4598 4706 4726 4771 4838 4790 4703 4589 4544 4587 4520 4148 4082 3912 3680 3421 3019 2648 2294 2107 1940 1934 1921 1865 1700 1577 1521 1441 1202 850 620 510 468 424 398 10 0 0 0 0 0 0 0
2288 2196 2137 2136 1975 2214 2810 3040 3251 3104 2974 2457 2646 3311 3781 4147 3885 3965 4550 4628 4586 4563 4592 4589 4657 4685 4654 4557 4524 4276 3766 3582 3483 3185 2995 2861 2688 2271 2246 2196 2160 1989 1773 1644 1583 1504 1403 1250 939 626 441 413 427 261 114 172 32 0 0 0 0 0 0
1864 1929 1958 1939 1976 1911 1814 2232 2476 2711 2748 2822 2879 3068 3680 3812 3761 4429 4526 4548 4430 4373 4379 4402 4446 4472 4455 4379 4351 3691 3410 3425 3204 3121 3015 2784 2472 2308 2271 2070 1909 1795 1667 1549 1425 1208 970 554 330 228 174 62 124 254 184 195 153 1 0 0 0 0 0
1794 1627 1643 1732 1825 1869 1928 2256 2974 3279 3269 3308 3383 3258 2802 3285 3691 4039 4060 4085 4064 3985 3971 3983 3913 4146 3901 3380 3461 3580 3223 3028 2980 2918 2778 2544 2487 2318 2095 1878 1748 1682 1568 1374 918 587 332 106 109 167 116 142 282 383 353 302 227 124 0 0 0 0 0
1465 1726 1636 1746 1802 1924 2050 1975 3175 3544 3076 2977 2938 3094 2748 2814 2894 3181 3332 3614 3556 3499 3373 3322 3393 3366 2932 3104 2919 2900 2829 2776 2771 2580 2409 2244 2127 1917 1774 1569 1535 1283 1017 548 480 490 458 373 312 236 144 211 361 357 341 298 206 9 0 0 0 0 0
1140 1102 1201 1441 1679 1796 1863 1994 2150 2948 2898 2503 2344 2734 2607 2242 1588 2085 2488 2535 2739 2603 2928 2734 2684 2814 3209 2914 2763 2764 2655 2481 2320 2257 2106 1905 1687 1606 1352 799 436 411 433 475 560 581 599 617 462 405 335 384 405 374 27 40 0 0 0 0 0 0 0
1108 1061 1090 1266 1385 1329 1188 1292 1494 1864 2140 2458 2137 1671 1694 1900 2176 1878 2113 2093 1885 1857 1707 1788 1864 2652 2654 2404 2556 2524 2437 2247 2090 1925 1666 1304 844 528 516 437 395 416 496 514 544 601 650 657 578 437 375 341 396 375 35 0 0 0 0 0 0 0 0

ECMWFFLT1_con_mucape_024.txt.gz
CAPE
0 0 0 0 0 0 20 188 265 264 344 757 1029 1090 1091 1109 1174 1338 1594 1738 1757 1736 1884 1992 1871 1722 1892 2035 2002 1921 1847 1800 1824 1954 2038 2060 2003 1986 1933 1866 1945 1995 2025 1957 1880 1809 1690 1608 1556 1432 1285 1190 1080 960 791 631 238 26 8 13 5 13 0
0 0 0 0 0 0 0 21 203 259 303 671 1021 1132 1122 1133 1184 1320 1571 1775 1852 1837 1915 2048 2101 1896 1771 1932 2086 2108 2025 1974 2009 2109 2130 2091 2050 2031 2015 1918 1906 1882 1744 1678 1615 1538 1573 1556 1306 1273 1248 1191 978 851 891 782 528 1 13 8 3 14 3
0 0 0 0 1 0 0 0 69 268 302 602 984 1132 1163 1175 1204 1300 1550 1791 1904 1912 1955 2034 2155 2136 1949 1817 1926 2134 2153 2129 2147 2225 2242 2170 2122 2088 2109 2058 1983 1910 1776 1605 1498 1401 1482 1488 1311 1125 1096 1005 801 679 742 632 251 278 21 8 12 21 0
21 3 4 13 12 4 0 0 22 220 298 537 946 1119 1199 1217 1231 1273 1534 1807 1954 1979 2017 2035 2122 2208 2151 1979 1863 1930 2103 2180 2197 2268 2324 2252 2180 2196 2185 2061 1897 1784 1692 1618 1534 1348 1346 1350 1227 1103 1052 918 811 662 465 480 480 373 7 4 7 22 0
68 39 9 13 25 18 12 11 16 127 296 454 894 1132 1213 1233 1256 1290 1510 1810 2006 2072 2079 2089 2117 2174 2230 2170 2026 1952 2006 2089 2171 2240 2320 2308 2241 2170 2065 1910 1789 1738 1651 1556 1453 1285 1360 1236 1136 1071 1035 943 869 804 558 436 447 369 0 0 0 6 6
47 110 47 27 29 48 62 53 36 76 274 413 746 1116 1222 1264 1281 1330 1518 1830 2053 2147 2147 2149 2159 2182 2226 2254 2210 2147 2098 2103 2150 2216 2292 2320 2273 2149 2026 1896 1787 1743 1652 1503 1455 1355 1320 1302 1214 1176 1143 1038 935 897 834 559 519 483 301 0 0 1 0
22 90 90 55 46 61 88 141 130 109 252 416 633 1081 1275 1307 1329 1376 1514 1772 2029 2183 2221 2230 2224 2232 2242 2284 2310 2288 2263 2234 2230 2272 2285 2318 2292 2184 2073 2003 1799 1692 1734 1602 1529 1486 1398 1343 1276 1222 1203 1172 1068 866 907 869 768 608 411 0 0 0 0
2 67 106 80 52 76 107 167 369 417 246 438 599 1043 1291 1352 1395 1438 1502 1720 1984 2148 2254 2294 2281 2276 2272 2293 2340 2371 2370 2349 2350 2352 2349 2329 2323 2267 2116 2070 1971 1762 1796 1769 1666 1594 1558 1447 1373 1336 1309 1272 1175 986 794 781 766 628 40 0 0 0 0
0 24 96 107 95 80 224 146 430 435 379 540 789 1062 1311 1398 1446 1475 1537 1720 1949 2104 2232 2303 2328 2315 2323 2328 2338 2387 2426 2435 2440 2440 2430 2360 2349 2349 2235 2101 2062 1917 1854 1871 1831 1735 1684 1620 1524 1382 1392 1250 1061 978 841 700 626 563 229 14 2 0 4
5 1 50 130 137 110 376 449 331 674 610 690 899 1087 1297 1418 1448 1497 1560 1695 1926 2075 2189 2299 2350 2353 2361 2368 2366 2390 2435 2478 2492 2495 2484 2435 2378 2376 2347 2181 2101 2070 1953 1939 1930 1914 1843 1794 1683 1488 1268 1193 1095 1019 942 837 735 699 620 400 352 300 26
37 9 31 112 162 254 439 227 142 697 853 808 1014 1180 1298 1417 1468 1505 1578 1696 1926 2056 2163 2284 2365 2388 2398 2416 2434 2429 2470 2510 2539 2535 2543 2506 2428 2374 2379 2311 2170 2124 2109 2050 2050 2047 2005 1924 1846 1720 1514 1354 1242 1157 1056 951 868 821 780 659 533 506 420
74 56 58 114 166 146 96 142 305 433 835 953 1070 1291 1348 1408 1499 1542 1599 1737 1958 2067 2156 2293 2406 2447 2445 2470 2496 2518 2515 2547 2578 2586 2591 2562 2505 2436 2412 2395 2263 2171 2166 2128 2074 2063 2058 2019 1944 1842 1705 1581 1423 1188 1096 1035 986 926 870 805 726 664 588
273 272 91 108 190 219 307 186 380 572 649 912 1090 1334 1432 1458 1519 1557 1611 1730 1947 2126 2232 2334 2461 2527 2529 2532 2564 2584 2577 2578 2607 2637 2636 2607 2580 2512 2445 2412 2362 2232 2190 2200 2155 2075 2064 2052 1985 1900 1835 1718 1608 1460 1296 1140 1043 994 965 931 893 837 752
313 332 334 84 140 59 517 520 580 738 797 821 997 1275 1467 1522 1575 1599 1634 1730 1907 2117 2284 2391 2503 2575 2602 2612 2622 2636 2637 2623 2641 2662 2660 2645 2624 2571 2477 2421 2399 2332 2227 2192 2208 2175 2099 2065 2027 1962 1873 1821 1738 1642 1564 1455 1370 1292 1226 1138 1050 973 894
80 286 360 401 55 558 563 601 610 729 867 892 924 1145 1476 1594 1603 1622 1647 1687 1848 2053 2276 2419 2505 2586 2622 2653 2656 2663 2672 2666 2664 2670 2675 2669 2646 2605 2528 2440 2395 2361 2288 2188 2188 2193 2182 2110 2052 2022 1967 1892 1841 1801 1748 1695 1646 1591 1481 1337 1211 1113 1004
107 156 311 402 468 522 575 621 771 771 884 1052 1050 1133 1424 1611 1681 1688 1676 1691 1799 1979 2211 2380 2490 2568 2630 2664 2667 2657 2668 2688 2688 2686 2689 2687 2655 2630 2576 2487 2384 2348 2312 2244 2188 2160 2151 2140 2122 2091 2071 2036 1997 1976 1943 1899 1850 1773 1645 1491 1339 1221 1126
142 248 290 324 317 375 452 604 863 891 946 1156 1257 1293 1455 1603 1718 1760 1766 1749 1789 1920 2080 2280 2434 2536 2616 2668 2678 2668 2655 2663 2684 2684 2689 2693 2668 2653 2604 2524 2419 2319 2265 2253 2226 2168 2122 2098 2123 2144 2144 2142 2130 2118 2078 2041 1982 1876 1755 1644 1527 1452 1383
233 258 300 315 325 369 418 543 801 926 1041 1226 1462 1507 1540 1627 1699 1768 1824 1816 1809 1853 1947 2123 2317 2459 2573 2650 2715 2731 2698 2673 2657 2666 2681 2687 2686 2676 2630 2583 2479 2370 2255 2178 2180 2181 2149 2101 2068 2085 2098 2114 2139 2153 2118 2060 1983 1910 1826 1755 1696 1636 1581
360 287 366 359 388 417 470 551 716 911 1120 1241 1480 1633 1715 1764 1741 1760 1803 1831 1836 1796 1841 1992 2148 2306 2448 2559 2693 2788 2768 2720 2670 2660 2659 2680 2696 2681 2660 2610 2540 2425 2305 2197 2104 2112 2182 2204 2145 2079 2007 1968 1976 2037 2042 1998 1977 1948 1917 1911 1889 1854 2060
660 649 536 517 515 488 534 713 829 955 1097 1240 1338 1553 1811 1922 1900 1886 1874 1880 1870 1839 1849 1876 2043 2178 2316 2438 2597 2768 2814 2781 2728 2681 2655 2664 2684 2682 2686 2637 2590 2484 2369 2266 2178 2114 2181 2255 2284 2254 2192 2137 2088 2087 2079 2084 2087 2085 2082 2104 2238 2407 2464
909 920 794 706 652 678 655 786 894 984 1100 1215 1284 1392 1621 1918 2061 2063 2019 1984 1947 1929 1936 1949 1964 2159 2307 2401 2499 2654 2785 2812 2767 2711 2676 2655 2666 2709 2719 2698 2636 2532 2429 2323 2264 2218 2283 2348 2368 2370 2386 2407 2398 2347 2315 2306 2324 2378 2477 2592 2680 2738 2622
1019 1001 1029 915 899 924 876 798 784 849 1025 1230 1454 1493 1492 1716 2018 2152 2116 2060 2037 2027 2037 2047 2020 2034 2283 2440 2512 2597 2706 2763 2769 2743 2692 2655 2647 2689 2749 2750 2723 2659 2574 2486 2413 2370 2367 2468 2469 2489 2501 2534 2564 2588 2597 2616 2682 2757 2827 2883 2862 2729 2558
730 1049 1102 1064 978 948 910 874 824 897 1089 1324 1629 1768 1698 1721 1928 2154 2211 2163 2112 2093 2084 2069 2034 2015 2150 2370 2501 2586 2702 2745 2737 2726 2675 2638 2616 2639 2737 2810 2815 2779 2731 2686 2631 2569 2508 2612 2644 2655 2701 2735 2762 2805 2831 2809 2911 2966 2973 2808 2658 2496 2457
404 1114 1328 1304 1424 1525 1620 1606 1310 1258 1635 1992 2031 2148 2112 1927 1848 2009 2152 2207 2186 2140 2095 2006 1979 1985 2028 2186 2380 2503 2628 2740 2769 2762 2720 2678 2634 2648 2728 2831 2865 2885 2900 2878 2858 2798 2735 2684 2752 2816 2888 2948 2991 3016 2986 2980 2989 2898 2737 2650 2632 2534 2193
791 0 182 498 1300 1705 1712 1903 1986 1886 2137 2702 2741 2523 2491 2419 2162 1978 1964 2031 2027 1988 1960 1912 1937 1995 2052 2088 2158 2316 2440 2625 2793 2856 2853 2838 2820 2781 2811 2886 2950 2979 3050 3076 3041 2980 2918 2838 2812 2888 2964 3037 3070 3033 2996 2971 2881 2796 2730 2656 2421 2045 1965
1987 2142 2170 2325 1646 961 1431 1792 2066 2115 2164 2570 2983 3101 2991 2799 2543 2295 2161 2133 2127 2064 2016 2018 2064 2080 2119 2134 2153 2154 2153 2409 2734 2918 2995 3040 3045 2998 2992 3045 3075 3125 3183 3215 3188 3151 3075 2954 2868 2985 3041 3094 3095 3034 2946 2876 2742 2630 2356 2015 1956 1913 1909
2052 2006 2097 2626 2722 2219 1877 2123 2270 2280 2302 2394 2771 3159 3301 3232 2997 2680 2412 2299 2236 2174 2127 2151 2178 2191 2188 2162 2146 2189 2205 2162 2633 2922 3118 3263 3313 3239 3221 3225 3246 3279 3302 3313 3319 3286 3202 3107 3062 3133 3109 3055 3006 2918 2839 2770 2678 2083 1795 1760 1789 1801 1786
2015 1870 1907 2401 2619 2760 2866 2817 2770 2678 2506 2422 2478 2726 2990 3167 3124 2949 2752 2537 2371 2290 2302 2317 2297 2280 2248 2163 2173 2209 2267 2285 2662 2966 3286 3510 3555 3461 3413 3413 3416 3421 3422 3413 3397 3367 3312 3236 3154 3099 3149 3092 3058 2995 2906 2767 2219 2050 1811 1699 1632 1618 1586
2181 2008 1957 1901 2131 2898 3278 3087 3315 3476 3268 3319 3335 3018 2858 2943 3094 3080 3012 2842 2660 2566 2492 2425 2420 2349 2279 2224 2188 2228 2240 2523 2950 3256 3564 3670 3690 3619 3588 3562 3549 3538 3531 3513 3468 3437 3394 3361 3338 3322 3282 3269 3204 3053 2666 2232 2118 1907 1670 1489 1420 1401 1363
2124 2150 1951 2017 2280 2488 2723 3401 3581 3272 3286 3487 3564 3463 3254 3207 3022 3088 3246 3187 3012 2857 2610 2470 2453 2377 2284 2212 2178 2124 2593 3151 3391 3591 3673 3732 3765 3710 3651 3687 3686 3652 3639 3626 3571 3552 3645 3667 3673 3651 3582 3344 2884 2365 2160 1990 1797 1585 1388 1334 1255 1143 1121
2016 2110 1984 1802 1950 2255 2481 2546 2846 3455 3472 3338 3604 3685 3649 3403 3170 3110 3117 3043 3062 3062 3294 3080 2767 2424 2300 2371 2688 2998 3382 3578 3665 3731 3740 3803 3835 3808 3789 3757 3772 3826 3791 3748 3742 3864 3826 3954 3938 3773 3230 2654 2114 1812 1624 1463 1315 1199 1068 1002 973 900 870
2044 1960 2125 1983 1838 1921 2104 2365 2560 2752 3039 3316 3449 3774 3857 3786 3595 3370 3234 3167 3106 3290 4007 4096 3880 3369 3101 3192 3379 3505 3654 3723 3784 3823 3821 3872 3928 3869 3813 3845 3893 3931 3884 3789 3728 3716 3803 4059 3564 2792 2431 2079 1786 1503 1110 923 832 793 737 739 745 718 678
1958 1791 1733 1741 1678 1677 2013 2211 2202 2355 2568 2826 3129 3658 4000 4098 4028 3830 3588 3391 3265 3275 3926 4264 4236 3841 3641 3586 3539 3618 3649 3742 3773 3871 3882 3914 3945 4003 3930 3937 4105 4148 4020 4042 3707 3584 3519 2790 2550 2417 2089 1422 1017 810 741 708 632 533 531 572 581 560 550
1529 1715 1680 1563 1559 1565 1876 2202 2314 2306 2224 2392 2664 2966 3344 3898 4036 3868 3572 3431 3409 3360 3334 3528 3744 3817 3756 3618 3542 3531 3616 3617 3677 3726 3778 3888 3982 4053 4032 4047 3953 3798 3884 3649 3568 3045 2521 2444 2211 1767 1243 987 748 630 682 560 432 411 429 442 446 461 454
1362 1429 1391 1440 1468 1533 1574 2037 2301 2290 2308 2267 2351 2461 2770 2904 3013 2936 2729 2772 2955 2947 3051 3351 3533 3718 3651 3564 3540 3408 3461 3467 3512 3562 3716 3911 4227 4122 4124 3864 3750 3725 3463 3596 2931 2294 2055 1826 1439 1236 1074 719 607 540 575 430 329 317 336 363 360 368 344
1358 1368 1346 1389 1446 1626 1729 1874 2203 2570 2624 2527 2381 2286 2213 2260 2314 2379 2683 2994 3080 3056 3142 3473 3585 3602 3441 3213 3309 3311 3339 3318 3366 3608 3860 4097 3960 3994 3931 3649 3110 2948 2513 2116 1903 1626 1415 1295 1202 1040 798 574 514 451 418 288 106 0 0 140 0 0 0
1290 1282 1262 1272 1340 1398 1614 1765 2039 2397 2746 2778 2780 2713 2456 2324 2297 2209 2311 2722 3308 3507 3452 3529 3620 3383 3138 2903 3031 3196 3360 3322 3529 3330 3626 3479 3320 3511 3326 2786 2164 1882 1646 1486 1336 1108 951 777 672 554 468 434 403 326 207 10 0 0 0 0 0 0 0
1382 1394 1338 1295 1280 1273 1400 1660 1861 2071 2202 2143 2306 2514 2653 2677 2587 2451 2448 2465 3121 3648 3764 3417 3458 2895 3071 2489 2225 2608 2768 2887 2370 2318 2663 2753 2774 2965 2291 1778 1548 1443 1273 1204 720 445 319 304 113 0 0 109 0 0 0 0 0 0 0 0 0 0 0

ECMWFFLT1_con_mucape_027.txt.gz
CAPE
0 0 0 26 83 118 153 175 168 193 286 375 404 420 434 502 743 858 890 903 907 958 1020 1237 1364 1389 1371 1300 1242 1236 1266 1253 1218 1216 1191 1138 1152 1158 1290 1455 1585 1733 1953 2068 2134 2186 2220 2256 2372 2581 2566 2222 1771 1341 964 666 124 402 597 122 0 0 0
0 0 0 0 12 52 90 148 161 174 216 342 427 497 471 530 671 842 939 954 947 968 1030 1183 1406 1438 1428 1364 1289 1270 1303 1310 1301 1299 1304 1300 1272 1214 1324 1470 1589 1678 1824 1974 2054 2124 2199 2270 2426 2579 2435 1964 1488 1317 1190 987 815 278 1 0 0 0 0
0 0 0 0 0 6 29 65 138 176 178 257 424 532 620 646 712 838 965 1012 1007 1002 1055 1142 1378 1483 1477 1444 1392 1378 1381 1383 1370 1364 1376 1389 1374 1346 1381 1487 1590 1653 1741 1880 1971 2045 2138 2279 2398 2446 2222 1747 1419 1322 1253 1189 1086 785 0 0 0 0 0
0 0 0 0 0 0 0 14 95 159 175 192 331 562 648 675 716 834 972 1095 1088 1057 1086 1180 1279 1455 1530 1518 1490 1474 1468 1462 1443 1425 1411 1402 1434 1452 1461 1508 1562 1652 1690 1769 1911 2006 2099 2252 2318 2240 1976 1603 1401 1322 1246 1170 1142 985 389 0 0 0 0
0 0 0 0 0 0 0 0 26 112 173 168 221 466 648 704 734 814 947 1102 1162 1150 1146 1251 1305 1369 1503 1561 1556 1538 1532 1535 1520 1489 1452 1418 1454 1525 1558 1583 1573 1581 1609 1623 1727 1885 2015 2104 2092 1959 1743 1517 1370 1261 1192 1138 1115 1026 715 419 369 89 0
0 0 0 0 0 0 0 0 1 38 126 158 176 331 574 714 778 836 922 1090 1230 1255 1238 1297 1398 1454 1439 1522 1576 1578 1570 1565 1558 1537 1511 1486 1522 1564 1612 1658 1672 1646 1614 1582 1620 1740 1844 1886 1822 1739 1608 1464 1364 1219 1117 1101 1123 1035 812 630 572 362 0
0 0 0 0 0 0 0 0 0 7 53 130 149 277 536 723 822 876 937 1039 1231 1340 1349 1369 1474 1544 1520 1482 1541 1579 1610 1626 1621 1616 1590 1596 1628 1630 1634 1659 1694 1714 1703 1659 1643 1682 1756 1802 1767 1640 1511 1429 1353 1232 1105 1092 1106 978 818 762 672 437 0
0 0 0 0 0 0 0 0 0 0 3 51 103 192 480 717 819 893 958 1046 1211 1368 1434 1450 1520 1629 1672 1611 1543 1550 1598 1661 1714 1711 1706 1721 1758 1763 1727 1698 1699 1701 1706 1695 1706 1716 1760 1800 1814 1686 1502 1394 1341 1249 1164 1094 1079 892 694 742 664 409 297
0 0 0 0 0 0 0 0 0 0 0 2 66 196 430 710 831 901 969 1047 1203 1376 1483 1528 1591 1670 1754 1767 1712 1630 1610 1648 1721 1791 1819 1818 1850 1880 1862 1816 1788 1771 1745 1737 1758 1791 1834 1827 1757 1639 1508 1414 1317 1248 1175 1120 1071 949 531 522 561 470 358
0 0 0 0 0 0 0 0 0 0 0 0 34 148 386 686 836 918 981 1062 1192 1382 1512 1588 1657 1716 1784 1846 1852 1810 1741 1699 1704 1768 1846 1882 1916 1951 1976 1944 1908 1870 1833 1806 1809 1821 1813 1760 1702 1597 1488 1406 1302 1201 1153 1118 1078 1016 706 354 337 362 373
0 0 0 2 0 0 0 0 0 0 0 0 21 124 365 671 842 946 1012 1076 1191 1380 1534 1646 1719 1761 1798 1860 1912 1928 1903 1843 1786 1778 1813 1878 1932 1984 2016 2034 1992 1944 1921 1870 1828 1809 1782 1733 1695 1602 1473 1385 1290 1221 1182 1163 1108 1063 931 596 434 447 528
0 0 0 2 2 0 0 0 0 0 0 0 16 128 345 639 860 968 1038 1108 1212 1370 1560 1707 1790 1825 1842 1874 1926 1973 1989 1981 1932 1888 1881 1897 1931 1979 2018 2043 2027 1990 1972 1922 1874 1846 1815 1772 1704 1610 1520 1407 1338 1296 1294 1301 1213 1147 1103 934 703 674 680
0 0 0 0 0 8 12 1 0 1 8 11 30 135 364 661 890 1009 1067 1144 1238 1378 1574 1760 1875 1903 1903 1922 1955 1994 2032 2050 2051 2022 2003 1998 2012 2016 2024 2045 2053 2023 2012 1994 1957 1889 1841 1813 1753 1658 1567 1506 1442 1424 1442 1450 1376 1266 1248 1182 969 801 774
0 0 0 0 1 2 12 225 88 92 62 90 87 190 396 692 906 1028 1110 1180 1268 1411 1612 1810 1932 1971 1990 2004 2018 2030 2064 2092 2122 2132 2113 2109 2112 2104 2095 2087 2090 2092 2062 2036 2018 1976 1927 1890 1829 1760 1679 1616 1590 1584 1587 1606 1543 1404 1360 1296 1183 1021 877
0 0 0 0 0 0 0 26 264 281 282 206 210 270 472 735 923 1050 1147 1212 1296 1449 1656 1831 1949 2041 2077 2080 2094 2097 2110 2135 2163 2196 2202 2203 2200 2203 2183 2160 2154 2154 2126 2084 2072 2038 2010 1964 1913 1876 1814 1766 1728 1723 1723 1743 1698 1553 1424 1340 1269 1180 1061
0 0 0 0 0 0 0 12 255 307 329 348 384 449 608 792 965 1093 1188 1270 1342 1496 1678 1835 1958 2063 2129 2165 2169 2179 2178 2191 2208 2239 2268 2278 2280 2288 2272 2250 2223 2212 2207 2175 2116 2091 2070 2047 2023 1980 1944 1921 1909 1914 1924 1902 1824 1734 1648 1559 1490 1387 1247
0 0 0 0 0 0 2 16 75 292 304 373 555 631 734 883 1033 1153 1229 1297 1394 1534 1708 1855 1978 2054 2160 2218 2234 2246 2254 2273 2288 2294 2318 2344 2339 2351 2340 2322 2288 2266 2260 2251 2204 2175 2169 2146 2113 2083 2076 2077 2056 2039 2024 1990 1944 1905 1838 1807 1749 1657 1564
0 0 0 0 0 2 2 15 75 144 304 338 560 748 854 1006 1122 1211 1287 1344 1430 1569 1724 1888 1987 2072 2166 2233 2267 2289 2320 2344 2358 2363 2381 2388 2411 2406 2410 2393 2366 2325 2310 2309 2296 2277 2254 2240 2191 2163 2150 2148 2141 2123 2082 2043 2000 1960 1949 1910 1870 1796 1756
0 0 0 0 0 12 10 36 108 221 420 442 458 740 949 1124 1229 1282 1341 1393 1462 1552 1737 1931 2028 2095 2174 2246 2302 2340 2376 2400 2417 2446 2442 2449 2456 2466 2472 2460 2443 2399 2358 2370 2373 2350 2343 2302 2264 2258 2235 2216 2203 2188 2177 2151 2088 2038 2016 1994 1952 1934 1894
0 0 0 0 0 33 56 65 387 434 531 589 593 674 916 1158 1300 1370 1404 1440 1481 1558 1749 1970 2095 2149 2205 2278 2342 2406 2438 2463 2498 2529 2536 2509 2508 2520 2534 2511 2503 2485 2448 2412 2378 2372 2371 2350 2313 2292 2278 2276 2269 2264 2230 2217 2192 2168 2140 2105 2071 2059 2051
29 0 0 0 0 10 45 410 498 532 620 700 753 784 835 1070 1302 1420 1472 1491 1519 1593 1758 1941 2102 2193 2254 2304 2394 2458 2522 2568 2578 2596 2599 2589 2577 2577 2564 2556 2550 2539 2507 2443 2396 2385 2378 2361 2350 2325 2308 2300 2304 2304 2295 2296 2284 2270 2275 2269 2258 2251 2237
0 104 62 0 3 44 66 430 496 577 656 746 860 966 954 1038 1235 1430 1525 1568 1600 1647 1735 1883 2041 2198 2280 2349 2428 2514 2590 2636 2657 2652 2656 2653 2649 2621 2611 2606 2604 2584 2551 2496 2438 2376 2344 2344 2337 2357 2346 2339 2339 2321 2338 2331 2327 2335 2352 2372 2383 2364 2326
370 528 589 16 82 55 146 173 396 537 647 822 938 1081 1127 1161 1260 1413 1528 1605 1645 1679 1737 1810 1935 2095 2243 2356 2441 2533 2622 2672 2697 2702 2698 2685 2681 2665 2643 2650 2637 2618 2582 2546 2479 2414 2360 2319 2324 2344 2370 2402 2398 2402 2400 2379 2363 2362 2376 2390 2382 2342 2286
1460 1333 826 122 564 546 609 511 486 482 680 889 1001 1088 1212 1288 1379 1466 1549 1619 1680 1735 1763 1785 1860 1980 2132 2280 2398 2509 2608 2676 2711 2717 2706 2690 2678 2682 2664 2681 2680 2659 2612 2582 2518 2460 2396 2340 2321 2350 2365 2413 2438 2458 2463 2444 2445 2431 2433 2412 2399 2376 2710
1668 1633 1511 1570 1386 1122 944 896 789 644 730 846 999 1138 1238 1357 1540 1649 1680 1695 1752 1794 1822 1818 1852 1932 2039 2164 2286 2418 2538 2631 2702 2738 2723 2704 2696 2664 2679 2675 2682 2678 2655 2623 2571 2504 2446 2406 2400 2417 2406 2410 2445 2500 2504 2512 2538 2552 2566 2593 2606 2730 2950
1485 1602 1713 1695 1706 1718 1742 1458 1138 1227 1039 910 935 1064 1240 1322 1463 1737 1832 1826 1815 1842 1847 1851 1879 1929 2010 2093 2187 2300 2442 2559 2673 2740 2745 2742 2708 2698 2700 2687 2681 2681 2656 2658 2619 2589 2519 2497 2474 2445 2455 2476 2501 2515 2550 2591 2636 2669 2704 2740 2752 2996 3132
1636 1633 1639 1735 1972 2074 2052 2220 1862 1305 1438 1210 1312 1344 1368 1488 1470 1580 1836 1959 1958 1937 1927 1933 1933 1963 2006 2018 2086 2220 2353 2462 2588 2694 2732 2739 2744 2747 2737 2722 2702 2682 2691 2708 2684 2678 2634 2563 2538 2518 2533 2548 2568 2600 2630 2666 2733 2774 2829 2874 3079 3228 3180
1424 1623 1879 1986 2190 2337 2517 2582 2713 2471 1925 1808 2033 2245 2097 1809 1742 1676 1693 1881 2022 2055 2055 2052 2046 2054 2058 2050 2074 2132 2288 2412 2518 2627 2677 2712 2755 2777 2766 2747 2716 2704 2725 2749 2748 2733 2713 2681 2647 2631 2649 2665 2701 2728 2785 2842 2908 3045 3101 3218 3290 3238 3096
1608 1572 1415 1386 1765 2222 2602 2893 2838 3031 3076 3008 2811 2588 2588 2565 2180 1948 1826 1770 1892 2038 2114 2087 2120 2147 2136 2100 2096 2139 2199 2383 2500 2586 2644 2662 2705 2753 2760 2743 2735 2747 2745 2774 2796 2796 2775 2778 2753 2755 2784 2811 2851 2937 3006 3102 3162 3268 3329 3328 3246 3090 2911
1738 1700 1632 1499 1652 1990 2290 2714 3082 3220 3269 3371 3373 3145 2871 2780 2834 2714 2480 2303 2124 2264 2247 2173 2253 2251 2224 2225 2213 2225 2231 2270 2424 2555 2645 2661 2694 2738 2782 2767 2763 2777 2766 2784 2817 2814 2810 2814 2848 2851 2906 2962 3042 3134 3225 3235 3204 3328 3315 3199 3064 2959 2934
1426 1534 1619 1521 1517 1780 2003 2246 2612 3007 3309 3478 3537 3580 3481 3216 2946 2944 3012 2947 2896 2866 2742 2531 2276 2242 2306 2356 2340 2308 2276 2276 2236 2435 2605 2701 2706 2770 2842 2852 2829 2806 2782 2791 2790 2790 2782 2813 2832 2922 3000 3135 3180 3232 3283 3248 3246 3298 3229 3127 3106 3086 2462
1602 1595 1593 1614 1669 1682 1924 2024 2108 2643 2935 3201 3426 3646 3674 3634 3476 3235 3074 3081 3161 3122 3041 2971 2742 2491 2331 2250 2191 2195 2202 2160 2109 2197 2447 2678 2819 2869 2874 2918 2897 2825 2793 2776 2784 2775 2751 2746 2837 2928 3037 3020 2847 2937 3142 3255 3272 3306 3309 3322 3317 2850 1726
1186 1251 1273 1320 1402 1574 1840 2015 2006 2014 2099 2583 2988 3280 3522 3628 3696 3668 3553 3368 3185 3379 3220 3142 3099 2980 2787 2636 2486 2356 2264 2216 2205 2190 2470 2750 2892 2959 2943 2907 2878 2834 2781 2735 2722 2727 2739 2763 2882 3059 3070 2912 2925 2976 3037 3222 3354 3492 3492 3519 2728 1705 1554
1119 1090 1074 1059 1310 1510 1753 1930 2085 2139 2104 2143 2206 2490 3018 3384 3593 3703 3716 3780 3743 3644 3560 3358 3240 3250 3196 3099 2962 2784 2649 2580 2551 2524 2622 2796 2906 2959 2950 2892 2872 2842 2763 2649 2599 2628 2762 2890 3066 3172 3016 2760 2822 2916 2976 3183 3405 3698 3620 2076 1682 1527 1351
1135 1089 1009 1037 1181 1494 1722 1902 2045 2154 2356 2280 2189 2166 2226 2391 2810 3287 3586 3862 3848 3899 3897 3840 3690 3489 3298 3224 3150 3088 2912 2720 2595 2600 2608 2806 2933 2934 2915 2896 2858 2834 2712 2605 2535 2590 2782 3072 3184 3114 2816 2680 2730 2757 2924 3216 3710 3410 1550 1538 1388 1277 1104
1077 981 988 1020 1096 1386 1660 1840 2000 2092 2238 2326 2424 2579 2548 2541 2410 2268 2299 2618 2874 3107 3341 3566 3610 3608 3530 3559 3406 3120 3002 2964 2862 2736 2630 2610 2718 2816 2813 2764 2737 2778 2740 2522 2470 2666 2930 3196 2954 2848 2896 2776 2656 2764 3122 3378 1925 1421 1264 1190 1050 930 781
1182 1121 1081 1011 1070 1213 1398 1583 1852 2007 2122 2184 2171 2284 2359 2438 2438 2522 2532 2566 2514 2650 2771 2905 3122 3368 3515 3521 3474 3419 3339 3242 3152 2937 2749 2623 2515 2532 2603 2627 2695 2771 2776 2620 2586 2758 3090 2687 2333 2644 2780 2650 2811 2784 2032 1416 1174 995 867 786 710 654 557
1306 1188 1107 1039 1058 1155 1370 1594 1769 1881 1946 1847 1917 2038 2134 2202 2182 2117 2167 2236 2346 2453 2526 2637 2744 2955 3154 3299 3336 3384 3348 3292 3258 3076 2906 2805 2616 2454 2410 2480 2531 2711 2738 2848 2648 2673 2735 2441 2433 2482 2545 2248 1904 1364 1013 769 651 629 568 524 505 444 384

ECMWFFLT1_con_mucape_030.txt.gz
CAPE
22 50 76 289 296 152 182 190 166 163 194 256 323 547 576 628 734 833 914 975 1028 1037 1034 1036 1050 1079 1160 1207 1232 1237 1250 1226 1146 1096 1056 1067 1073 1080 1110 1169 1233 1290 1392 1604 1741 1901 2080 2119 2176 2234 2294 2356 2387 2425 2424 2475 2608 2316 1575 1287 834 116 63
0 6 24 38 61 94 114 130 104 112 142 188 257 327 439 572 628 730 835 915 988 1015 1015 1014 1020 1056 1140 1191 1197 1200 1216 1228 1194 1171 1128 1101 1096 1071 1061 1096 1141 1205 1265 1472 1649 1811 1965 2079 2164 2207 2269 2283 2358 2406 2416 2529 2637 2126 1284 910 526 45 44
0 0 0 8 32 59 94 81 70 75 98 143 216 266 324 429 572 631 744 828 897 952 975 996 1013 1037 1112 1166 1167 1174 1180 1206 1207 1190 1168 1156 1136 1104 1080 1075 1116 1186 1234 1377 1620 1793 1925 2011 2104 2161 2228 2268 2290 2331 2439 2585 2561 1876 1207 631 233 49 17
0 0 0 0 6 32 55 68 86 62 66 97 172 248 293 356 394 562 660 741 819 863 936 977 998 1012 1076 1147 1174 1177 1168 1181 1203 1205 1200 1182 1157 1135 1112 1118 1120 1240 1284 1371 1599 1786 1916 1962 2041 2111 2191 2220 2226 2257 2444 2590 2351 1747 1167 585 479 441 416
0 0 0 0 0 0 5 34 58 60 61 66 106 240 278 312 337 425 570 679 752 817 875 940 961 996 1105 1125 1180 1189 1187 1183 1194 1205 1209 1198 1177 1150 1133 1137 1142 1280 1350 1390 1583 1792 1830 1928 1997 2045 2155 2180 2203 2266 2472 2515 2183 1632 1090 769 680 587 474
0 0 0 0 0 0 0 3 27 42 54 55 69 136 216 264 299 361 500 671 716 768 819 874 931 1069 1125 1146 1184 1212 1196 1194 1190 1197 1207 1208 1187 1181 1156 1159 1193 1298 1326 1412 1562 1685 1765 1850 1920 1993 2082 2086 2194 2319 2453 2430 1996 1520 1099 956 900 838 655
0 0 0 0 0 0 0 0 1 17 32 48 46 82 189 231 299 354 447 580 716 762 789 841 893 947 1131 1168 1206 1281 1242 1224 1217 1220 1213 1222 1209 1196 1201 1231 1266 1302 1355 1379 1477 1569 1688 1782 1835 1903 1966 2019 2068 2225 2407 2326 1839 1447 1178 1091 1045 986 868
0 0 0 0 0 0 0 0 0 0 5 16 19 30 113 213 288 333 441 532 680 781 813 827 869 911 1016 1224 1240 1268 1294 1281 1264 1256 1242 1235 1236 1234 1269 1324 1359 1387 1408 1404 1402 1487 1615 1699 1793 1847 1886 1935 2020 2146 2258 2176 1794 1390 1224 1169 1129 1077 1007
0 0 0 0 0 0 0 0 0 0 0 0 13 36 56 186 298 370 431 518 642 778 859 871 898 935 1038 1184 1302 1349 1342 1342 1332 1323 1311 1299 1291 1292 1320 1367 1416 1442 1449 1428 1384 1446 1526 1630 1708 1782 1817 1850 1898 1983 2036 1989 1777 1450 1205 1152 1118 1072 1088
0 0 0 0 0 0 0 0 0 0 0 0 1 26 50 146 297 381 445 519 630 771 877 920 937 983 1072 1133 1264 1331 1391 1411 1424 1416 1415 1396 1375 1371 1378 1407 1442 1472 1488 1478 1441 1442 1496 1567 1627 1674 1703 1736 1772 1826 1854 1834 1732 1553 1338 1170 1103 1088 1098
0 0 0 0 0 0 0 0 0 0 0 0 0 5 41 101 235 366 469 542 636 757 868 964 1004 1031 1102 1182 1243 1304 1386 1458 1490 1509 1509 1500 1481 1472 1458 1467 1487 1504 1520 1543 1554 1525 1537 1563 1597 1621 1634 1661 1691 1727 1762 1780 1754 1641 1464 1330 1208 1133 1122
0 0 0 0 0 0 0 0 0 0 0 0 0 0 27 88 193 323 457 585 670 753 845 989 1076 1119 1176 1255 1322 1395 1383 1448 1500 1544 1572 1578 1573 1563 1546 1552 1565 1563 1570 1576 1600 1625 1617 1617 1626 1637 1649 1639 1630 1654 1703 1741 1734 1666 1528 1418 1304 1204 1153
0 0 0 0 0 0 0 0 0 0 0 0 0 0 1 46 145 284 467 601 688 762 852 1000 1138 1231 1262 1327 1402 1501 1465 1462 1488 1544 1592 1628 1650 1632 1622 1636 1663 1660 1660 1642 1657 1660 1648 1628 1626 1625 1621 1619 1615 1636 1706 1744 1708 1628 1528 1453 1358 1254 1180
0 0 0 0 0 0 0 0 0 0 0 0 0 0 0 23 122 276 454 598 706 798 880 1015 1202 1296 1354 1420 1519 1577 1580 1579 1548 1554 1582 1637 1686 1705 1706 1728 1739 1754 1753 1753 1738 1735 1694 1662 1644 1652 1636 1623 1622 1655 1690 1717 1690 1626 1538 1460 1387 1292 1233
0 0 0 0 0 0 0 0 0 0 0 0 0 0 0 17 109 271 458 598 724 828 934 1092 1219 1373 1452 1498 1592 1644 1695 1742 1741 1640 1634 1732 1685 1738 1780 1798 1816 1824 1832 1837 1834 1807 1785 1717 1708 1684 1675 1668 1656 1661 1654 1668 1667 1639 1569 1476 1395 1328 1302
0 0 0 0 0 0 0 0 0 0 0 0 0 0 0 14 124 286 485 632 766 880 975 1100 1286 1420 1521 1582 1628 1683 1739 1809 1862 1874 1850 1820 1800 1763 1790 1833 1850 1870 1888 1898 1894 1878 1850 1788 1749 1724 1687 1654 1652 1641 1650 1657 1652 1634 1580 1497 1418 1375 1376
0 0 0 0 0 0 0 0 0 0 0 0 0 0 2 24 113 283 469 636 788 918 1024 1153 1352 1444 1553 1676 1691 1726 1785 1848 1912 1962 1970 1950 1835 1807 1808 1829 1861 1886 1921 1922 1923 1898 1884 1828 1792 1733 1714 1680 1637 1628 1614 1635 1638 1623 1606 1535 1466 1440 1463
0 0 0 0 0 0 0 0 0 0 0 0 6 16 24 69 141 308 471 653 811 944 1038 1174 1361 1479 1621 1710 1754 1787 1846 1895 1948 2004 2044 2020 1958 1931 1897 1891 1897 1914 1929 1942 1928 1908 1887 1854 1806 1769 1736 1712 1670 1660 1609 1591 1617 1643 1612 1567 1538 1537 1566
0 0 0 0 0 0 0 0 0 0 5 9 28 64 86 148 204 354 540 733 854 1002 1094 1214 1386 1547 1674 1750 1816 1869 1911 1947 1990 2034 2075 2021 2020 2017 2010 1996 1986 1975 1971 1962 1944 1920 1893 1860 1832 1811 1785 1754 1744 1725 1689 1668 1639 1647 1638 1611 1606 1627 1660
0 0 0 0 0 0 0 0 0 0 1 38 76 132 181 232 264 402 573 756 896 1028 1178 1307 1437 1591 1703 1812 1880 1944 1979 2017 2043 2075 2099 2080 2050 2068 2088 2089 2088 2069 2047 2015 1976 1937 1910 1884 1863 1854 1836 1828 1810 1785 1760 1753 1741 1707 1683 1670 1680 1712 1754
0 0 0 0 0 0 0 0 0 0 0 21 76 156 260 302 363 533 633 816 954 1094 1270 1356 1488 1589 1736 1844 1932 1998 2058 2104 2124 2131 2125 2143 2121 2104 2136 2159 2163 2148 2123 2072 2022 1982 1953 1936 1923 1918 1911 1891 1865 1846 1828 1807 1793 1778 1769 1777 1798 1832 1871
884 930 279 0 0 0 0 0 0 0 10 98 186 203 281 451 521 617 740 855 1010 1107 1245 1413 1510 1606 1732 1859 1954 2043 2111 2160 2184 2150 2142 2122 2154 2148 2178 2209 2228 2217 2184 2129 2082 2040 2014 2002 1972 1961 1946 1934 1924 1912 1916 1879 1854 1850 1865 1894 1911 1928 1947
1032 1186 1080 944 492 0 0 0 0 0 45 199 255 277 326 522 661 765 852 924 1031 1163 1262 1408 1536 1628 1742 1881 1982 2093 2163 2222 2264 2232 2215 2195 2196 2216 2239 2260 2278 2264 2228 2185 2138 2095 2074 2055 2035 2019 2006 1997 1981 1986 1982 1940 1922 1925 1937 1968 1979 1999 2014
1023 1111 1092 1020 1036 974 845 332 0 16 53 179 324 397 513 556 780 970 995 1064 1131 1211 1324 1414 1572 1668 1784 1888 1956 2109 2252 2301 2330 2352 2361 2290 2288 2311 2312 2320 2318 2316 2283 2248 2200 2162 2134 2106 2099 2088 2054 2033 2038 2044 2036 2010 1988 1995 2009 2021 2049 2056 2088
1233 1352 1515 1512 1326 1277 1261 1148 789 233 140 158 340 518 636 651 806 1033 1135 1208 1232 1299 1379 1456 1579 1684 1780 1939 1989 2134 2254 2328 2370 2407 2421 2408 2382 2372 2370 2362 2371 2364 2336 2303 2258 2222 2196 2173 2156 2132 2113 2098 2082 2091 2060 2041 2030 2034 2057 2080 2093 2119 2143
1442 1729 1926 2033 1965 1890 1690 1237 865 826 765 704 631 524 746 813 868 1046 1208 1305 1352 1372 1415 1484 1586 1669 1829 1965 2078 2176 2285 2362 2412 2448 2405 2416 2416 2414 2435 2422 2400 2393 2372 2358 2319 2288 2254 2262 2221 2200 2162 2152 2137 2135 2118 2096 2067 2066 2080 2100 2128 2147 2165
1302 1589 1933 2302 2491 2374 2306 1933 1508 1205 1289 1268 939 893 813 978 983 1015 1133 1277 1369 1440 1502 1532 1543 1616 1768 1944 2060 2208 2304 2327 2412 2487 2516 2502 2482 2492 2500 2494 2468 2436 2384 2400 2384 2355 2334 2335 2296 2267 2259 2236 2187 2177 2170 2140 2129 2125 2096 2102 2130 2144 2178
1338 1369 1529 1954 2469 2878 2845 2650 2386 2150 2058 1980 1609 1146 1097 1048 1120 1137 1224 1268 1338 1476 1555 1567 1591 1648 1732 1797 1978 2166 2290 2347 2432 2500 2515 2517 2510 2520 2548 2552 2536 2497 2463 2434 2431 2422 2432 2419 2386 2374 2336 2305 2255 2218 2208 2196 2184 2192 2166 2162 2176 2182 2230
1120 1086 1202 1404 1718 2066 2659 3088 3029 2815 2611 2326 2152 1783 1396 1242 1227 1233 1368 1452 1502 1516 1530 1575 1646 1683 1711 1760 1855 2040 2204 2311 2377 2437 2514 2550 2547 2539 2558 2576 2576 2566 2548 2518 2505 2516 2505 2473 2437 2415 2392 2345 2322 2286 2248 2228 2228 2233 2244 2261 2268 2268 2308
1153 1104 1132 1342 1495 1676 1940 2316 2788 3204 3207 2928 2603 2375 2174 1899 1756 1488 1345 1530 1607 1624 1614 1642 1694 1730 1751 1769 1811 1900 2073 2238 2360 2434 2506 2578 2604 2596 2607 2602 2596 2591 2579 2581 2576 2596 2561 2513 2510 2454 2417 2394 2402 2374 2324 2297 2282 2302 2324 2349 2352 2368 2447
948 952 1000 1123 1273 1398 1590 1787 1964 2244 2814 3328 3397 3092 2746 2670 2424 2268 2140 2038 1960 1896 1811 1778 1845 1837 1844 1866 1889 1907 1955 2063 2208 2344 2462 2574 2630 2665 2676 2671 2659 2641 2600 2578 2563 2566 2569 2560 2553 2518 2483 2444 2448 2430 2380 2348 2374 2396 2414 2416 2437 2502 2734
504 648 864 965 998 1223 1262 1532 1646 1796 1862 2083 2511 3222 3497 3422 3264 3004 2851 2719 2736 2672 2512 2398 2318 2247 2113 2098 1995 2018 1969 1989 2086 2222 2352 2491 2604 2666 2686 2664 2666 2669 2691 2650 2570 2543 2547 2556 2536 2526 2510 2474 2426 2441 2432 2415 2444 2460 2484 2528 2598 2785 2922
570 593 642 658 1025 1063 1234 1238 1491 1581 1617 1605 1929 1975 2121 2588 3194 3594 3522 3430 3287 3220 3094 2954 2876 2851 2833 2805 2803 2653 2566 2496 2364 2221 2278 2379 2480 2591 2639 2640 2622 2648 2600 2618 2652 2644 2614 2548 2511 2501 2508 2462 2436 2418 2431 2488 2488 2533 2618 2647 2900 3010 3048
616 712 676 698 796 924 1002 1168 1403 1697 1958 1893 2037 2064 2044 2019 2152 2232 2538 3066 3519 3642 3484 3403 3236 3247 3190 3184 3157 3105 3054 2987 2939 2844 2740 2618 2463 2570 2571 2630 2662 2648 2630 2612 2641 2626 2614 2646 2600 2559 2473 2429 2414 2408 2432 2479 2555 2632 2749 2956 3051 3090 3102
668 676 713 750 791 844 954 1054 1168 1617 2032 2005 2184 2226 2126 2125 2165 2156 2230 2220 2248 2494 3110 3561 3674 3706 3619 3508 3465 3510 3446 3360 3356 3249 3107 3047 2912 2788 2631 2485 2600 2605 2627 2650 2642 2590 2595 2577 2598 2624 2621 2602 2420 2346 2433 2501 2686 2854 2890 3064 3080 3079 3021
830 758 780 802 921 1003 1000 1020 1176 1690 1887 1805 1791 1827 1893 1962 1934 1928 1869 2011 2185 2290 2456 2681 3013 3258 3448 3511 3548 3566 3552 3496 3504 3455 3376 3362 3306 3229 3077 2915 2755 2554 2586 2622 2623 2595 2546 2498 2454 2355 2368 2479 2504 2470 2384 2614 2749 2804 2982 3009 3050 3053 3092
924 940 893 912 1058 1184 1203 1119 1146 1243 1252 1345 1425 1618 1746 1808 1828 1701 1537 1451 1458 1639 1944 2313 2575 2710 2934 3266 3438 3498 3470 3445 3429 3341 3255 3178 3059 2962 2900 2925 2946 2890 2873 2716 2575 2561 2550 2548 2393 2359 2334 2325 2228 2168 2152 2472 2475 2601 2653 2784 2899 3130 3090
1068 1101 1179 1250 1297 1384 1443 1402 1386 1416 1420 1447 1532 1488 1534 1624 1576 1507 1389 1293 1370 1515 1719 1896 2112 2315 2456 2623 2800 3019 3203 3286 3299 3297 3286 3167 2961 2764 2604 2560 2618 2603 2668 2778 2724 2636 2469 2425 2396 2414 2316 2361 2125 2084 2226 2351 2438 2431 2454 2516 2116 2381 2341

ECMWFFLT1_con_mucape_033.txt.gz
CAPE
969 1067 1140 1187 1222 1240 1300 1463 1497 1399 1386 1464 1474 1386 1334 1464 1600 1806 1954 2101 2160 2254 2394 2298 2283 2272 2360 2491 2516 2589 2590 2575 2503 2354 2310 2319 2266 2379 2429 2418 2522 2764 2677 2952 3110 3286 3514 3546 3428 3347 3201 2894 2751 2770 2838 2821 2843 2755 2809 2645 2492 2369 2189
864 866 975 1090 1170 1183 1272 1472 1517 1411 1391 1311 1327 1394 1279 1376 1709 1801 1818 2116 2206 2210 2338 2261 2200 2231 2294 2383 2456 2527 2551 2504 2462 2338 2321 2302 2342 2453 2400 2448 2434 2735 2842 2844 3093 3407 3576 3608 3453 3481 3379 3106 2688 2552 2548 2749 2800 2794 2562 2556 2452 2268 2016
720 761 868 976 1030 1092 1228 1302 1479 1366 1348 1248 1220 1244 1287 1497 1742 1707 1942 1983 2104 2176 2232 2227 2230 2210 2212 2349 2411 2465 2472 2449 2407 2333 2254 2195 2196 1913 2171 2344 2441 2509 2570 2697 2989 3195 3268 3338 3404 3434 3327 3080 2748 2444 2656 2573 2719 2740 2685 2491 2327 2267 1960
514 607 716 850 1004 1128 1224 1194 1247 1214 1205 1165 1142 1145 1243 1556 1562 1812 1966 1748 1962 2184 2176 2161 2142 2050 2144 2304 2368 2414 2403 2405 2396 2233 2085 2086 2115 2036 2176 2305 2316 2242 2426 2508 2580 2750 2844 3062 3248 3382 3213 3138 3008 2770 2561 2313 2238 2563 2627 2487 2309 2270 1868
266 428 553 738 896 1058 1004 1039 1112 1122 1028 1028 1073 1192 1404 1514 1375 1525 1585 1718 1717 1934 1970 2066 1907 1917 2080 2168 2196 2258 2343 2366 2376 2237 2187 2139 2212 2234 2200 1990 2104 2093 2209 2328 2448 2752 2932 3046 3004 3178 3112 3024 2930 2806 2591 2607 2277 2386 2492 2431 2340 2246 1795
48 196 364 550 640 738 885 924 906 920 948 916 965 1082 1151 1126 1146 1131 1286 1575 1635 1684 1966 1961 1918 1944 2056 2070 2042 2110 2292 2356 2372 2364 2298 2264 2333 2226 2100 2035 1992 2052 2010 2284 2350 2454 2812 2862 2856 3062 2898 2782 2734 2818 2784 2588 2328 2223 2370 2302 2276 2228 1689
18 43 118 257 420 603 734 794 794 800 845 845 841 943 948 925 1032 1048 1110 1335 1461 1702 1822 1833 1825 1878 2081 1936 1978 2188 2306 2283 2337 2316 2228 2254 2275 2202 2121 2120 2130 2057 2087 2330 2292 2318 2581 2788 2861 3066 2997 2769 2876 2960 2966 2864 2592 2230 2268 2247 2298 2172 1711
28 36 44 102 172 370 530 690 728 718 760 788 737 768 795 787 900 973 1010 1131 1299 1398 1562 1586 1738 1974 1974 1972 2003 2096 2176 2065 2081 2155 2144 2104 2122 2212 2163 2191 2207 2184 2226 2327 2390 2406 2473 2802 2826 3021 3054 2904 3060 3084 3121 3049 2848 2359 2266 2228 2257 2173 1654
11 115 36 0 16 37 182 470 664 698 838 897 778 798 717 732 778 892 964 1044 1177 1252 1387 1431 1531 1759 2120 2116 2192 2171 2075 2046 2139 2176 2182 2085 2039 2008 1998 2095 2150 2150 2275 2138 2108 2398 2406 2678 2702 3036 3126 2970 3112 3266 3250 3188 2881 2585 2566 2410 2227 2155 1634
26 186 269 14 0 0 29 254 632 845 1107 1275 1106 1061 771 774 850 832 902 994 1064 1168 1254 1335 1450 1725 2076 2055 2043 2078 2148 2227 2190 2049 1989 1966 1959 1905 1861 1882 2031 2174 2168 2068 2010 2305 2474 2622 2744 3053 3189 3027 3118 3248 3222 3207 3076 2889 2670 2588 2401 2149 2012
97 452 607 215 122 8 14 15 425 714 962 1088 1165 1000 969 957 912 818 905 950 969 1117 1191 1336 1438 1565 1790 1869 1872 1930 2097 2082 2088 2070 2011 1918 1880 1901 1841 1836 1880 2021 2030 2052 2017 2216 2450 2596 2785 3003 3071 2891 2999 3096 3108 3052 2950 2816 2607 2578 2506 2360 2158
255 295 861 832 785 351 74 168 538 600 805 1015 1261 1036 1178 1130 883 792 902 1020 993 1062 1202 1284 1374 1459 1667 1703 1740 1969 2060 2136 2006 2011 2005 1922 1899 1896 1880 1884 1906 2011 2062 2063 2096 2196 2272 2526 2610 2713 2906 2862 2869 2990 3056 3026 2900 2773 2681 2497 2422 2340 2173
172 591 744 440 1011 762 828 742 482 498 734 892 771 996 1071 928 883 828 1135 1151 988 1034 1168 1316 1428 1632 1591 1649 1659 2003 2076 2096 2077 2111 2027 2080 1981 2004 2000 1946 1956 1998 2103 2080 2104 2143 2207 2286 2528 2586 2769 2871 2850 2852 2998 3006 2884 2767 2707 2596 2471 2338 2198
32 9 86 367 582 911 976 599 548 606 692 804 832 1081 879 960 911 981 1208 1212 1098 1045 1185 1390 1618 1768 1778 1742 1781 2035 2118 2095 2208 2287 2277 2190 2260 2230 2141 2064 2048 2143 2214 2231 2164 2153 2179 2212 2376 2551 2543 2745 2802 2802 2871 2917 2814 2740 2712 2636 2495 2326 2184
17 38 320 280 946 1256 1111 941 985 899 866 852 560 712 826 946 959 1217 1381 1176 1240 1100 1192 1626 1782 1948 1870 1936 2041 2251 2315 2260 2334 2531 2504 2457 2523 2484 2385 2276 2284 2316 2372 2415 2302 2205 2228 2236 2291 2473 2491 2552 2692 2703 2664 2655 2616 2582 2598 2596 2531 2351 2136
0 0 0 102 510 668 1267 1160 1180 1249 1012 863 592 804 677 968 1061 1047 1054 1190 1349 1287 1269 1512 1972 2187 1863 1950 2300 2602 2490 2577 2576 2756 2807 2637 2752 2792 2689 2472 2462 2386 2514 2636 2438 2400 2371 2384 2395 2420 2508 2508 2596 2620 2576 2482 2490 2094 1798 1914 2441 2374 2125
287 224 90 194 564 417 880 1140 1210 1344 1210 1219 898 879 802 912 902 1043 887 994 1060 1379 1362 1545 2120 1938 1914 2058 2322 2451 2565 2708 2711 2808 2792 2810 2838 2805 2832 2606 2620 2641 2770 2748 2652 2488 2548 2533 2497 2405 2448 2498 2531 2549 2468 2408 2308 1735 1574 1518 1549 2106 2191
192 444 582 258 391 237 480 636 1021 1226 1108 778 753 786 781 803 914 912 806 924 1044 1181 1309 1429 1622 1678 2166 2421 2678 2758 2744 2577 2823 2823 2836 2830 2833 2931 2886 2740 2690 2707 2793 2820 2765 2711 2693 2630 2594 2622 2466 2484 2518 2474 2460 2424 1912 1642 1562 1513 1484 1453 2050
138 319 454 571 284 367 100 98 423 1175 948 647 685 626 544 683 653 938 1009 1112 1208 1230 1252 1412 1619 2063 2360 2436 2505 2776 2879 2875 2989 2902 2928 2908 2820 2907 2911 2897 2885 2927 2965 2911 2917 2908 2894 2765 2639 2649 2599 2521 2601 2490 2450 2400 1871 1637 1579 1560 1526 1513 1585
90 144 204 170 88 61 84 160 166 232 675 1039 810 602 494 499 565 941 907 1063 1316 1322 1547 1806 1783 2166 2188 2602 2878 2952 2983 3058 2934 2935 3010 2989 2940 2958 2961 2926 2920 2859 2835 2838 2910 2956 2929 2756 2730 2700 2742 2597 2564 2590 2551 2508 1966 1688 1620 1586 1571 1557 1537
1344 1346 1469 1657 1490 1082 804 525 434 451 546 525 514 518 542 576 595 755 816 1073 1278 1558 1849 2009 2104 2236 2470 2726 2694 2874 3080 3138 3090 3106 3128 3158 3085 3019 2937 2916 2916 2907 2849 2842 2926 2950 2872 2857 2665 2541 2575 2443 2520 2527 2567 2532 1979 1750 1689 1651 1610 1571 1547
1976 2015 1996 2242 2093 1966 1741 1085 632 380 430 460 526 543 576 604 498 485 563 740 1092 1320 1564 2057 2291 2167 2392 2791 2822 2942 3083 3091 3190 3159 3184 3148 3127 3066 2999 2992 3034 3021 2989 2932 2978 2931 2892 2987 2738 2548 2601 2418 2410 2298 2274 2545 1988 1814 1727 1686 1662 1616 1571
1790 1984 1918 2002 2000 2009 2071 1957 1358 718 506 566 405 417 506 480 505 516 584 740 952 1607 1558 1799 2212 2314 2713 2598 2700 2916 3067 3137 3206 3248 3176 3170 3148 3113 3084 3115 3161 3147 3085 3018 3023 3018 2926 2738 2583 2632 2773 2713 2454 2356 2460 2653 2331 1897 1775 1707 1679 1650 1629
1378 1506 1707 1761 1948 1999 2272 2442 2390 1720 568 396 580 452 599 636 694 784 1020 1116 1290 1558 1430 1776 2375 2780 2904 2873 3184 3263 3239 3258 3074 3295 3238 3254 3215 3213 3168 3232 3247 3240 3062 2980 2927 2929 2842 2827 2728 2590 2545 2444 2589 2587 2566 2588 2445 1998 1844 1762 1701 1672 1659
1467 1542 1714 1818 1940 2164 2279 2523 2597 2414 1005 645 626 789 976 858 869 1040 1598 1759 1169 1412 1822 2389 2772 2894 2876 2964 3108 3269 3237 3134 3013 2833 3331 3354 3312 3233 3282 3416 3447 3267 3239 3095 3095 3023 3004 2806 2634 2576 2604 2782 2746 2388 2374 2746 2664 2176 1950 1840 1792 1750 1726
1716 1731 1890 1966 2120 2110 2366 2684 2396 1581 940 725 1196 1344 1352 995 1310 1464 1974 1691 1379 1588 2216 2483 2328 2968 2875 2801 3118 3052 3370 3396 3226 3076 3099 3163 3306 3344 3436 3436 3270 3323 3162 2968 2960 3038 3088 2907 2702 2672 2907 2762 2543 2493 2420 2602 2835 2308 2086 1934 1884 1850 1808
1804 2000 2218 2177 1977 1990 2515 2518 2710 2527 2351 2702 2399 1542 1183 1132 1675 2172 2213 2338 2148 2028 1914 2315 2785 3121 3109 3131 2884 3158 3398 3341 3341 3130 3190 3295 3407 3460 3486 3564 3372 3204 3102 2948 2882 2940 2976 2944 2826 2760 2823 2673 2656 2884 2594 2507 2941 2336 2236 2047 1954 1906 1842
2016 2339 2618 2470 2094 1918 2430 2305 2400 2382 2277 2206 2125 1721 1697 2080 2413 2843 2865 2680 2512 2568 2314 2906 3206 3159 3132 3284 3252 3211 3405 3500 3479 3450 3372 3497 3614 3620 3517 3345 3210 3195 3264 3050 3100 3018 3126 3062 2924 2894 2698 2986 2926 2901 2813 2562 2321 2454 2269 2158 2056 1972 1891
1794 2248 2789 2874 2690 2394 2101 2164 1915 1803 1808 1873 2010 2265 2302 1954 2596 2757 2971 2942 3026 2806 2854 3106 3192 3376 3478 3520 3335 3503 3546 3604 3674 3334 3298 3432 3464 3354 3367 3476 3415 3366 3336 3265 3222 3182 3098 3182 3162 2909 2920 2923 2750 2823 2701 2836 2421 2216 2275 2230 2163 2081 1993
1163 1390 1827 2298 2762 3012 2908 2668 2384 2309 2298 2092 1732 2021 2594 3287 2776 2928 2927 3548 3092 3019 2837 3188 3548 3630 3546 3485 3488 3518 3549 3721 3295 3215 3259 3444 3551 3576 3638 3695 3546 3456 3426 3509 3380 3208 3196 3228 3357 3254 2922 2919 2918 2972 2845 2891 3039 2426 2303 2266 2234 2194 2113
995 964 1197 1545 1958 2426 2842 3177 3236 3042 2861 2653 2542 2308 1991 2468 3504 3320 3133 2730 3165 3964 3034 3174 3494 3410 3378 3137 3251 3470 3601 3512 3412 3488 3511 3577 3620 3632 3710 3742 3681 3589 3614 3581 3401 3351 3296 3013 2896 3057 3148 3180 3076 3190 3001 2942 2907 2490 2402 2396 2350 2320 2236
805 726 720 1010 1284 1557 1710 2068 2467 2830 3168 3366 3360 3170 2958 2644 2218 2114 2109 2248 2608 3540 3886 3470 3334 3479 3518 3532 3542 3431 3328 3569 3624 3703 3604 3670 3526 3612 3761 3608 3610 3566 3666 3620 3559 3490 3343 3487 3357 3222 3178 3366 3282 3208 3091 2916 2839 2438 2368 2406 2432 2418 2326
536 545 636 729 920 1133 1200 1205 1387 1474 1641 2024 2283 2819 3221 3401 3379 3074 2916 2998 2900 3060 3669 3886 3374 3496 3504 3464 3285 3372 3352 3336 3213 3284 3324 3536 3528 3591 3699 3650 3747 3682 3767 3752 3614 3481 3345 3142 3303 3249 3092 2896 2890 2765 2810 2701 2565 2516 2421 2448 2491 2376 2324
538 670 695 882 915 1004 1153 1323 1384 1405 1462 1595 1949 1964 2054 2161 2321 2723 3135 3392 3522 3475 3559 4014 4146 3537 3452 3444 3532 3399 3310 3328 3051 3069 3312 3648 3744 3685 3736 3766 3676 3673 3672 3568 3579 3496 3326 3258 3050 2896 2833 2884 2898 3001 2674 2532 2506 2466 2455 2474 2456 2456 2300
522 648 751 881 1030 1053 1129 1102 1061 1054 1170 1334 1518 1528 1512 1504 1557 1767 2019 2153 2376 2893 3423 3608 3568 3688 3930 4010 3780 3514 3086 3068 3007 3214 3258 3567 3695 3643 3837 3861 3661 3603 3637 3614 3737 3663 3566 3393 3070 2985 2917 2836 2964 3050 2657 2558 2454 2419 2493 2431 2416 2308 2393
747 839 862 844 923 964 1068 1148 1122 1098 1091 1138 1278 1321 1250 1335 1326 1225 1281 1429 1708 2214 2459 2707 3083 3294 3399 3470 3516 3509 3504 3467 3373 3334 3281 3128 3169 3023 3158 2981 2914 3406 3568 3543 3286 3130 3052 3068 3312 3566 3560 3702 3722 3165 2510 2468 2440 2450 2364 2436 2442 2343 2242
879 963 860 808 825 838 861 900 954 988 1025 1156 1128 1151 1238 1197 1120 1016 969 995 1180 1490 1738 2100 2381 2592 2717 2934 3070 3239 3329 3412 3449 3481 3450 3413 3406 3332 3237 3144 3014 2928 2854 2734 2793 2825 2792 2698 2671 2709 2824 2860 3315 3220 2463 2538 2462 2430 2305 2260 2292 2370 2189
584 624 720 736 714 710 740 748 876 942 972 1013 1120 1181 1240 1262 1112 958 970 936 896 892 1082 1301 1421 1447 1862 2062 2344 2383 2542 2616 2728 2819 2954 3085 3146 3185 3168 3202 3216 3154 2820 2635 2632 2650 2579 2504 2513 2574 2570 2540 2535 2764 2618 2546 2604 2632 2505 2416 2276 2208 2212

ECMWFFLT1_con_mucape_036.txt.gz
CAPE
1150 1468 1801 2031 2241 2345 2420 2637 2819 2791 2786 2864 2872 2937 2839 2830 2880 3175 3287 3539 3703 3880 3670 3506 3426 3155 2844 2718 2792 3012 3164 3216 3282 3358 3626 3537 3122 3060 3252 3189 3254 3250 3010 3012 3161 2958 3302 3408 3404 3652 3834 3904 3612 3479 3325 3113 3069 3034 2976 3232 3153 3099 3104
858 1168 1549 1853 2146 2324 2496 2706 2820 2814 2883 2883 2872 2944 2932 2881 2996 3091 3253 3503 3727 3918 4003 3875 3681 3300 3055 2910 2796 3098 3111 3029 3204 3420 3405 3548 3447 3222 3291 3449 3353 3529 3429 3040 3010 3316 3298 3801 3668 3879 3974 4075 3868 3635 3133 2975 2996 2799 2720 3221 3134 3166 3052
869 1052 1445 1820 2023 2304 2550 2552 2857 2848 2875 2872 2848 2863 2858 3080 3090 3202 3326 3376 3684 3828 3928 3850 3784 3254 2876 2922 3174 3086 3088 3203 3182 3209 3299 3387 3555 3098 3301 3520 3508 3422 3479 3227 3141 3395 3542 3835 4011 4006 4063 3860 3550 3701 3492 3025 2836 2729 2840 3067 3123 2906 3144
1027 1069 1261 1721 2107 2371 2560 2573 2741 2790 2762 2757 2880 2846 2901 3110 3248 3239 3236 3278 3638 3720 3803 3765 3657 3211 3277 3311 3233 3349 3290 3192 3204 3084 3233 3578 3649 3393 3280 3447 3559 3309 3405 3338 3076 3067 3360 3690 4190 4322 4182 3904 3724 3338 3462 3139 2837 2810 2783 3134 3080 3052 3122
902 1060 1172 1637 2004 2389 2516 2509 2589 2825 2625 2666 2724 2935 3042 3168 3068 3084 3104 3087 3230 3577 3538 3632 3533 3562 3566 3413 3234 3156 3070 3011 3131 3200 3187 3513 3648 3650 3481 3311 3404 3317 3177 3250 3179 3189 3380 3757 3930 4067 4221 4082 3849 3596 3528 3551 3132 3010 2913 3071 3063 2806 2897
675 1164 1251 1491 1852 2074 2344 2440 2521 2624 2580 2481 2643 2906 2931 2906 2859 2795 2978 3074 3136 3332 3498 3433 3498 3545 3486 3406 3348 3302 3409 3566 3386 3290 3351 3552 3704 3573 3517 3468 3280 3345 2974 3048 3090 3174 3420 3595 3459 3798 3925 3994 3413 3267 3315 3574 3393 3259 3111 2966 2950 2708 2141
264 1170 1407 1468 1605 1878 2226 2392 2286 2394 2550 2339 2361 2694 2747 2733 2724 2599 2632 2928 3083 3248 3223 3182 3263 3359 3464 3308 3375 3525 3594 3541 3569 3573 3693 3833 3696 3582 3566 3513 3243 3166 3056 3136 3191 3227 3346 3567 3564 3540 3883 3646 3682 3314 3255 3623 3538 3230 3158 3090 3002 2823 2843
28 880 1563 1625 1488 1677 1919 2211 2202 2145 2410 2371 2146 2357 2511 2424 2462 2452 2573 2742 2742 2640 2932 2877 3060 3251 3426 3394 3304 3252 3548 3553 3710 3809 3737 3597 3543 3515 3404 3395 3403 3368 3327 3000 3290 3225 3243 3678 3672 3542 3761 3631 3743 3669 3481 3756 3784 3382 3312 3334 3250 3136 2911
332 968 1300 1282 1364 1286 1591 1977 2130 2041 2116 2326 2200 2192 2265 2286 2242 2396 2480 2485 2605 2497 2490 2551 2824 2995 3362 3375 3316 3353 3494 3439 3553 3638 3637 3444 3436 3234 3241 3313 3396 3261 3229 2975 2986 3308 3295 3488 3539 3756 3818 3809 3700 3889 3675 3846 3779 3540 3491 3491 3422 3314 3108
14 808 1225 848 675 684 995 1278 1741 1982 1979 2277 2385 2326 2202 2202 2147 2156 2233 2218 2249 2337 2367 2352 2540 2807 3201 3300 3213 3354 3389 3441 3416 3315 3451 3318 3213 3111 3122 3144 3265 3290 3186 3071 2773 3120 3400 3337 3488 3770 3987 4066 3878 4008 4005 4076 3861 3541 3450 3632 3624 3559 3571
802 1434 1726 1026 605 510 637 831 1526 2103 2108 2611 2601 2222 2310 2178 2152 2085 2159 2067 1995 2111 2183 2394 2506 2687 2948 3159 3103 3070 3227 3183 3223 3146 3243 3110 3006 2989 2988 2968 2982 3123 3134 3062 2868 2843 3330 3386 3490 3767 4113 4105 4050 4077 4170 4123 4026 3700 3409 3596 3629 3775 3932
1752 1278 1728 1609 1221 745 584 885 1447 2234 2304 2530 2405 2178 2312 2284 2111 1926 1933 2012 1843 1946 2163 2218 2346 2509 2808 3008 2983 3045 3129 3165 3041 2967 3022 3051 2923 2840 2842 2740 2737 2830 3090 3108 2968 2899 2909 3426 3443 3554 3985 4216 4207 4173 4326 4323 4230 3939 3739 3602 3637 3828 3756
521 1383 1302 980 1511 1374 1140 1084 1428 2177 2603 2374 2133 2036 2101 1970 1962 1848 1970 1992 1915 1878 1964 2206 2295 2558 2613 2897 2948 3103 3006 3003 3084 3003 2834 2955 2852 2731 2688 2625 2628 2601 2841 3034 3035 2964 2796 2988 3489 3536 3785 4210 4267 4161 4316 4399 4337 4379 4277 3897 3755 3936 3910
818 795 1436 1538 1936 2018 1864 1809 1747 2158 2784 2322 2051 2003 1870 1915 1811 1844 1909 1904 1901 1785 1839 2057 2295 2424 2538 2760 2962 3111 3005 2998 3148 3199 3102 2960 3072 2996 2896 2835 2694 2818 2831 2994 3047 2920 2810 2805 3196 3573 3643 4083 4232 4182 4248 4392 4333 4414 4475 4358 3943 3819 4041
0 332 1068 1441 2376 2874 2883 2611 2665 2233 2097 2237 1663 1640 1805 1781 1761 1792 1851 1880 1910 1701 1754 2012 2190 2377 2455 2690 3105 3259 3204 3182 3173 3213 3301 3184 3345 3321 3166 2971 3035 2943 2924 3055 3103 3031 2895 2858 2930 3455 3730 3875 4102 4112 4090 4126 4228 4215 4358 4378 4159 3794 3785
0 0 0 349 1814 2256 3397 3261 3102 3037 2336 2226 1622 1496 1512 1749 1979 1847 1855 1895 1846 1884 1726 1873 2162 2489 2484 2658 3063 3272 3312 3396 3309 3454 3509 3436 3465 3507 3402 3151 3129 2941 3014 3063 3171 3261 3122 3090 3085 3161 3598 3821 3990 4131 3984 3955 4036 3813 3561 3626 4001 3966 3743
0 0 0 69 1614 1864 2384 3327 2721 3025 2797 2468 2158 1657 1645 1761 1986 1883 1704 1721 1696 1884 1745 1766 2238 2348 2586 2685 2961 3294 3404 3573 3559 3631 3696 3671 3644 3690 3631 3380 3273 3235 3288 3299 3346 3394 3377 3252 3151 3061 3275 3639 3818 3930 3883 3888 3884 3356 3182 3112 3136 3694 3972
0 0 2 0 49 1121 2484 2629 2864 2700 2919 2612 2367 2017 1757 2003 1926 1845 1554 1564 1688 1809 1804 1769 2047 2388 2840 2824 3175 3461 3651 3716 3908 3902 3990 3862 3811 3806 3793 3617 3358 3399 3493 3453 3453 3651 3467 3334 3275 3384 3181 3379 3688 3705 3866 3904 3328 3074 2938 2750 2637 2764 3584
0 0 0 0 0 1715 1124 732 1478 2834 2220 2001 1931 1796 1728 1917 1724 1821 1844 1730 1737 1840 1808 1713 1959 2553 3116 3137 3320 3686 4010 4066 4102 4146 4155 4146 3970 4015 3935 3888 3641 3565 3492 3481 3633 3679 3718 3626 3531 3467 3392 3393 3637 3700 3677 3800 3292 2922 2716 2542 2354 2242 2483
0 0 0 0 13 402 923 1263 1108 887 1651 2046 1814 1404 1471 1758 1538 1630 1815 1630 1636 1818 1916 1971 1988 2658 3315 3460 3562 4031 4356 4303 4234 4364 4305 4378 4222 4178 4046 4019 3836 3628 3526 3542 3707 3818 3944 3682 3661 3672 3705 3587 3627 3758 3805 3840 3266 2921 2579 2371 2202 2059 2011
0 4 75 202 385 438 1220 2378 2581 2382 1751 1179 1190 1364 1406 1424 1449 1465 1621 1673 1565 1819 2604 2199 2326 2479 3236 3654 3601 4074 4465 4375 4207 4388 4461 4475 4325 4295 4243 4185 3988 3812 3597 3528 3633 3885 3899 3759 3740 3730 3782 3802 3641 3715 3808 3767 3278 3041 2702 2359 2118 1954 1842
0 0 0 344 2139 3987 4673 3646 2990 2313 2050 1741 1298 1112 1313 1401 1372 1180 1213 1483 1533 1720 1911 2268 2542 2486 2966 3607 3774 4058 4265 4241 4266 4207 4151 4235 4294 4302 4242 4172 4158 4014 3810 3586 3609 3778 3830 3879 3803 3905 3753 3624 3484 3626 3506 3682 3131 2992 2800 2514 2228 1968 1812
14 498 2097 2942 2848 2706 3354 3971 3606 3074 2952 2327 1631 1151 1095 1212 1237 1166 1064 1302 1408 1776 1944 2165 2649 2816 3055 3489 3866 4193 4390 4272 4117 4039 4123 4159 4170 4079 4004 4068 4105 4033 3941 3792 3722 3758 3860 3722 3624 3589 3462 3440 3569 3258 3344 3620 3658 2937 2713 2559 2346 2110 1910
1447 2004 2040 2228 2992 3136 3387 3629 3637 3605 3588 2931 2293 1601 1310 1204 1228 1226 1246 1346 1484 1767 2073 2122 2744 3323 3636 3835 4057 4222 4340 4238 4116 4206 4282 4234 4235 4163 4054 4092 4092 4172 4036 4001 3909 3789 3917 3888 3708 3763 3781 3734 3474 3243 3431 3526 3504 3026 2656 2482 2342 2197 2031
2275 2217 2725 2951 2998 2957 3198 3899 4302 4204 3934 3980 2600 1767 1458 1316 1338 1249 1467 1567 1365 1713 2164 2376 2818 3518 3855 4091 4100 4417 4390 4235 4302 4455 4395 4420 4405 4257 4240 4138 4171 4162 4126 4013 3969 3910 3933 3862 3892 3892 3664 3372 3395 3134 3201 3521 3410 3065 2772 2545 2459 2300 2152
3038 3003 3021 2903 3160 3512 3504 3879 4006 4143 3217 2823 2601 1869 1768 1300 1352 1490 1592 1571 1392 1510 1987 2381 2765 3427 3803 3803 3990 4480 4439 4334 4428 4413 4351 4421 4498 4400 4397 4365 4247 4254 4171 4086 3870 3807 3824 3764 3745 3758 3609 3507 3246 3179 3176 3147 3725 3038 2922 2748 2558 2374 2205
2592 2648 2974 3113 3094 2797 3637 3670 3779 3648 3410 4068 3453 2894 1877 1389 1511 1689 1861 2019 1970 1718 1843 2347 2758 3611 3933 3919 4048 4430 4344 4161 4441 4469 4442 4472 4642 4546 4391 4394 4281 4215 4235 4048 3885 3863 3903 3958 3857 3707 3772 3622 3530 3362 3155 3143 3122 3230 2916 2902 2725 2492 2259
2616 2918 2852 2745 2958 3056 3510 3465 3610 3460 3120 2989 2943 2228 2133 1971 1928 2121 2284 2593 2483 2195 1932 2413 3219 4048 4132 4147 4109 4390 4430 4378 4593 4626 4451 4436 4471 4456 4424 4345 4268 4286 4359 4143 4106 4048 3995 3894 3732 3310 3215 3070 3354 3062 3167 3209 2876 3452 2777 2834 2845 2698 2432
2472 2484 2580 2627 2883 2930 2934 3664 3502 3330 3314 3109 3301 3242 2823 2209 2503 2786 2892 3115 2920 2348 2212 2611 3836 4350 4224 4242 4056 4230 4549 4567 4490 4308 4066 4023 4169 4530 4508 4438 4251 4244 4315 4404 4187 4068 3771 3579 3476 3531 3434 3315 3489 3363 3403 3577 3614 2834 2750 2757 2800 2806 2649
1789 1926 2186 2158 1893 2110 2567 3353 3257 3295 3303 3201 3488 3877 4084 3301 3232 3516 3495 3547 4572 3538 3167 3644 4146 4186 4158 4214 4143 4166 4329 4465 4222 4130 3705 3854 4068 4131 4162 4253 4108 4250 4420 4390 4102 3592 3606 3286 3536 3468 3167 3514 3330 3350 3488 3739 3706 3334 2922 2850 2799 2775 2808
1603 1762 1839 1995 1826 1791 2231 2505 2791 2560 2793 2834 3141 3410 4106 4611 4249 4480 4810 4560 4650 4030 3852 4010 4091 4102 3920 3921 4043 4148 4352 4356 4151 4123 3960 3799 3886 4160 4238 4371 4404 4428 4433 4320 4049 3721 3574 3689 3474 3422 3532 3508 3173 3599 3486 3450 3640 3587 3162 3062 2904 2779 2713
1418 1462 1608 1731 2080 2284 1813 2132 2392 2333 2311 2438 2656 2900 3287 3450 3630 3790 3827 3855 4095 4458 3942 3776 3846 3982 3916 3876 4040 4186 4072 4351 4185 4102 4076 4042 3992 4215 4392 4352 4429 4387 4335 4150 3796 3720 3726 3824 3163 3516 3610 3526 3633 3628 3185 3204 3676 3706 3705 3104 3145 2866 2745
1060 1262 1470 1413 1688 1946 1838 2213 2460 2660 2576 2382 2303 2750 2810 3022 3226 3397 3519 3649 3849 4248 4773 4446 3937 3905 3786 3735 3671 3968 3952 3992 3930 3822 3822 3999 3835 3972 4244 4317 4346 4368 4443 4232 3853 3816 3632 3240 3456 3481 3407 3558 3574 3572 3623 3640 3669 3741 3937 3382 3177 3038 2912
1328 1337 1414 1670 1832 1909 1646 1885 2333 2544 2733 2686 2574 2611 2568 2495 2818 3172 3430 3406 3939 4330 4666 4713 4267 4177 4057 3856 3822 3845 3946 3880 3730 3649 3649 3915 4120 4064 4171 4361 4254 4229 4270 4325 4048 3859 3758 3691 3613 3493 3526 3422 3469 3471 3574 3649 3748 3778 3921 3594 3271 3049 3027
954 1046 1245 1283 1552 1710 1824 1788 1670 1467 1752 1948 2061 1962 2188 2439 2574 2875 2981 3344 3931 4381 4815 4538 4360 4504 4529 4380 4302 4307 4167 4156 4011 3705 3646 3841 4034 3925 3960 4004 4093 4275 3998 3994 4064 3889 3602 3661 3354 3684 3614 3494 3512 3532 3589 3634 3694 3762 3273 3447 3295 3227 3095
809 1088 1145 1098 1010 1440 1520 1611 1679 1663 1638 1640 1684 1681 1714 1698 1622 1840 2028 2511 3017 3336 3544 3602 3704 3794 3778 3507 3495 3634 3710 3885 3601 3839 3758 3374 3432 3539 4114 3318 3711 3920 4050 4169 3961 3584 3560 3478 3589 3494 3455 3454 3928 4282 4215 3984 3979 3564 3392 3294 3178 3189 3078
573 908 930 1124 1048 1038 1273 1399 1508 1692 1675 1638 1653 1601 1626 1600 1643 1557 1770 1629 2004 2645 3032 3218 3364 3377 3196 3080 3105 3150 3321 3097 3224 3219 2828 2914 2963 3144 3362 3451 3340 2886 3046 3272 3440 3424 3402 3452 3454 3417 3387 3309 3234 3196 3193 3219 3295 3379 3583 3703 3440 3066 3080
570 903 929 823 722 945 1126 1126 1331 1425 1386 1532 1624 1652 1668 1649 1759 1851 1763 1738 1601 1725 2081 2495 2933 3016 2918 2874 3217 3278 3391 3334 3371 3390 3394 3571 3452 3699 3218 3093 3136 4039 3250 2952 2848 2783 2626 2549 2511 2402 2394 2366 2418 2439 2604 2835 2947 3041 3131 3186 3262 3257 3082

ECMWFFLT1_con_mucape_039.txt.gz
CAPE
320 504 667 1316 2228 2286 2490 2828 2877 2864 3012 3212 3337 3004 2865 2895 3150 3510 3885 4351 4428 4407 4370 4169 4156 4010 3827 3419 3169 3306 3307 3562 3486 3459 3208 3222 3071 2839 3243 3645 3782 3610 2888 2981 3230 2937 2778 2825 2270 2342 2656 3440 3641 3444 3500 3770 3858 3641 3500 3534 3444 3033 2905
193 0 166 886 1883 2378 2499 2910 3078 3114 3099 3232 3400 3324 3058 3187 3229 3450 3944 4493 4668 4754 4804 4345 4239 3884 3580 3432 3330 3297 3486 3662 3846 3912 3786 3733 3497 3381 3167 3670 3734 3714 3402 2612 2723 3142 2900 2986 2628 2612 2810 3175 3678 3606 3467 3697 3964 3972 3486 3691 3494 3554 3220
151 28 115 456 1085 2479 2683 2695 3200 3255 3264 3266 3222 3402 3216 3353 3404 3630 3982 4432 4815 5001 4875 4730 4347 3906 3601 3588 3369 3500 3602 3787 4005 4052 3820 3497 3601 3376 3364 3430 3597 3477 3520 3039 2714 2864 3044 3014 3292 3083 2872 3041 3326 3495 3263 3255 3592 3557 3150 3428 3377 3456 3462
374 58 58 482 1325 2537 2786 2781 3175 3304 3279 3288 3460 3553 3477 3677 3531 3708 4002 4415 4845 5007 4861 4676 4420 3807 3608 3582 3586 3715 3712 3870 3930 3771 3472 3410 3645 3787 3568 3500 3632 3459 3536 3446 2876 2588 2705 3019 3284 3426 3605 3430 3359 3264 3241 3131 3123 3393 3159 3312 3478 3237 3460
122 258 108 314 891 2288 2728 2828 3138 3405 3146 3236 3451 3773 3750 3606 3685 3789 4104 4188 4493 4726 4729 4595 4184 3794 3780 3762 3715 3659 3694 3834 3814 3636 3666 3632 3348 3736 3783 3429 3525 3575 3435 3386 3359 2991 2857 3098 3230 3716 3776 3730 3625 3367 3278 3261 3094 3316 3202 3192 3316 3336 3130
0 121 134 102 398 1268 2688 2769 2976 3162 3260 3227 3342 3622 3702 3669 3542 3665 3948 4157 4358 4508 4605 4521 4180 3921 3861 3734 3681 3624 3774 3817 3904 3858 3798 3491 3530 3608 3804 3888 3472 3657 3238 3318 3449 3313 3144 3128 3351 3564 3589 3892 3590 2930 2966 3291 2975 3094 3347 3256 3170 3014 2822
21 94 31 86 441 1071 2615 2874 2768 3043 3176 3208 3271 3590 3628 3638 3715 3660 3795 4009 4072 4386 4250 4286 4013 3996 4220 3916 3876 3880 3818 3753 3947 3733 3596 3461 3620 3785 4107 4143 3768 3566 3565 3300 3439 3353 3339 3321 3407 3460 3627 3539 3760 2970 2827 3396 3333 3056 3403 3550 3348 3130 2970
49 365 488 336 529 962 2308 2888 2815 2938 3111 3166 3148 3377 3411 3527 3530 3451 3622 3732 3602 3923 4039 4062 4074 4302 4280 4123 3914 3745 3848 3810 3929 3822 3717 3534 3609 3924 3932 3994 4093 3909 3845 3278 3487 3477 3430 3595 3514 3530 3533 3593 3842 3550 3043 3497 3607 3162 3323 3514 3631 3193 2995
10 326 502 663 893 957 1320 2650 2689 2718 3159 3196 3146 3374 3495 3492 3556 3504 3494 3567 3639 3508 3788 3710 3822 4050 4419 4161 4039 3889 4034 3805 4030 3932 3579 3515 3185 3615 3647 3859 4227 4153 3929 3578 3394 3637 3540 3550 3670 3830 3721 3720 3800 3990 3471 3600 3630 3536 3618 3720 3762 3472 3150
5 140 579 437 598 467 927 1642 2778 3015 3193 3389 3278 3362 3540 3473 3442 3338 3388 3338 3362 3170 3288 3120 3401 3774 4248 4324 4020 3928 4033 3911 3839 3305 3389 3321 3121 3432 3341 3130 3832 4258 3978 3868 3059 3256 3727 3546 3679 4050 4130 3732 3705 3894 3908 3661 3780 4006 3721 3795 3848 3786 3643
192 860 1227 1066 995 984 1295 1948 2887 3338 3269 4157 4041 3097 3504 3451 3382 3304 3252 3136 3097 3027 2964 3115 3011 3257 3993 4182 3903 3842 4015 3890 3516 3535 3417 3129 2956 2976 2896 2921 3303 3734 3862 3695 3106 2599 3460 3772 3784 4150 4247 3992 3774 3850 4072 4016 4067 4185 3874 3701 3806 3955 3865
739 751 1379 1057 670 701 1228 2606 3559 4029 3873 4226 3500 3080 3475 3821 3284 3151 3034 3129 3020 2935 2887 2965 2709 2970 3653 3967 3802 3882 3816 3892 3777 3655 3513 3242 2940 2811 2753 2792 2873 2992 3650 3630 3304 2861 2604 3609 3814 3843 4203 4344 4142 3932 4101 4287 4208 4403 4242 3627 3643 3897 3933
310 1441 1978 1422 1464 1140 1502 2144 2892 3499 3728 3313 3044 2955 3006 3077 3146 2923 3077 3103 2854 2873 2848 2947 2899 3032 3398 3862 3639 3853 3820 3871 3934 3753 3495 3564 3064 2832 2783 2648 2498 2539 3037 3666 3606 3164 2544 2876 3858 3872 4192 4485 4444 4224 4280 4309 4354 4567 4524 3947 3598 3760 3988
435 1290 1470 1670 1838 1883 1836 2118 2300 3114 3550 2934 2581 2721 2769 2829 2912 2990 2941 2925 2821 2723 2819 2896 3059 3123 3461 3853 3926 3990 3853 3806 3893 4127 3982 3788 4088 3486 2954 2698 2516 2659 2873 3514 3635 3392 3023 2405 3259 3929 4007 4425 4682 4530 4418 4468 4493 4576 4636 4368 3609 3455 3877
0 199 930 1083 1941 2512 2392 2197 2786 2793 3101 2928 2325 2414 2522 2490 2561 2980 2946 2704 2851 2614 2534 2780 2948 3115 3316 3740 4110 4291 4182 4281 4076 4295 4297 4236 4674 4314 3657 3157 3040 3052 3036 3303 3619 3472 3208 2707 2398 3649 4078 4209 4777 4855 4431 4336 4586 4601 4660 4622 4032 3534 3697
0 0 0 609 1552 2341 2910 2974 3053 3109 3183 3494 2677 2650 2491 2520 2684 2392 2622 2682 2564 2706 2484 2693 2984 3431 3376 3634 4102 4378 4419 4685 4691 4604 4645 4489 4811 4834 4373 3616 3431 3105 2987 3142 3319 3688 3554 3422 2888 2778 3800 4175 4630 4821 4658 4449 4444 4278 4061 4257 4555 3985 3613
0 0 50 158 769 1442 2748 3014 3669 3854 3739 3884 3446 2901 2742 2709 2540 2302 2162 2311 2431 2561 2418 2371 3260 3071 3293 3701 4079 4542 4673 4729 4752 4898 4895 4798 4661 4713 4738 4343 3829 3905 4133 3946 3705 3928 4420 3882 3290 2853 3160 4004 4392 4738 4860 4782 4537 4162 3935 4053 4161 4416 4162
0 0 0 0 0 58 982 2336 3220 4396 4228 3579 3553 3244 2822 2932 2553 2426 2076 2069 2170 2189 2232 2270 2646 2975 3720 3647 4469 4961 5032 4859 5036 5100 5124 5020 4809 4841 4834 4507 4123 4221 4283 3834 3611 4497 3908 3801 3757 3828 3172 3594 4156 4476 4728 4806 4283 4146 3965 3918 3988 4082 4332
0 0 0 0 2 2 0 22 1482 3600 2515 2141 2919 2886 2570 2444 2172 2482 2411 2352 2131 2116 2203 2199 2342 3505 4360 3605 3961 4883 5058 5138 5091 5161 5209 5271 5103 4977 4959 4800 4515 4280 4147 3896 3992 3952 4307 4540 4090 4035 3727 3618 4236 4301 4535 4731 4191 3918 3885 3798 3779 3760 3783
0 0 4 3 0 0 2 3 70 710 177 1191 1633 1973 2464 2294 1853 1988 2194 2068 2052 2115 2400 2511 2397 2775 3273 3832 4361 4839 5058 5322 5227 5196 5241 5389 5301 5060 5068 4993 4764 4298 4008 4044 4292 4243 4384 4190 4362 4335 4526 4166 4196 4491 4523 4716 4168 3948 3709 3616 3546 3517 3426
114 55 3 0 0 33 1368 2178 2692 2156 1923 666 299 977 1672 2275 2066 1965 1984 2134 2102 2406 3369 2672 2781 2826 3298 3941 4223 4494 4957 5363 5354 5278 5346 5520 5477 5259 5177 5129 5033 4562 4123 4011 4170 4245 4445 4434 4409 4383 4474 4224 3921 4040 4339 4495 4121 4080 3774 3436 3322 3237 3101
0 0 0 0 190 3016 3594 3123 2822 2213 2382 2739 1614 761 834 1158 1838 1874 1903 1994 2016 2139 2264 2767 3198 2866 3268 3908 3990 4214 4762 5246 5474 5465 5445 5589 5501 5302 5182 5230 5157 4860 4469 4223 4252 4284 4310 4575 4408 4358 4330 4405 4267 3844 3964 4200 3837 3937 3882 3573 3207 3076 2965
0 0 0 404 1143 1709 3560 4020 3494 3101 3201 2925 2178 800 555 564 935 1567 1724 1877 1840 2095 2117 2553 3131 2960 3373 3772 3927 4251 4751 5269 5493 5542 5578 5701 5505 5277 5164 5098 5202 5094 4760 4220 4145 4305 4376 4512 4538 4641 4434 4408 4502 4364 4083 4071 4105 3699 3749 3683 3400 3033 2840
0 271 1094 2151 3064 2888 2981 3071 3873 4284 4196 3583 2740 2405 1653 746 828 1290 1932 1905 1982 2154 2183 2357 3021 3478 3942 4024 4342 4632 5034 5517 5573 5580 5568 5610 5598 5360 5137 5109 5267 5198 4861 4530 4307 4214 4383 4446 4570 4641 4496 4383 4352 4324 4380 4077 4707 3671 3646 3572 3466 3206 2906
2565 2776 2651 2438 2528 2893 3794 4692 4744 4382 3631 3463 3418 3596 3063 2214 1422 1271 2035 2314 1867 2076 2244 2648 3242 3592 3942 4154 4494 5090 5226 5534 5576 5534 5573 5579 5665 5463 5335 5288 5282 5183 4999 4678 4519 4303 4421 4273 4386 4631 4564 4390 4497 3980 3866 4262 4181 3923 3656 3519 3417 3275 3131
2590 2333 2469 1907 2677 4149 3706 3693 4287 4664 4336 4082 3754 3451 3445 2921 2250 2359 2263 2121 1928 2003 2294 2674 3423 3944 3382 3568 4468 5030 5302 5414 5679 5616 5472 5569 5730 5659 5594 5466 5279 5278 5178 4915 4591 4372 4191 4108 4113 4466 4484 4374 4001 3983 3954 4177 4640 3710 3664 3666 3501 3308 3184
2490 2466 3094 3342 3349 3481 3406 3596 4414 4453 3873 4301 4493 4583 3686 2681 2327 2423 2715 2668 2602 2354 2250 2695 3359 3828 4252 4247 3856 4612 5462 5542 5591 5590 5599 5550 5561 5478 5363 5343 5295 5178 5100 4808 4532 4427 4374 4261 4135 4153 4466 4434 4582 4534 4348 4201 4206 3893 3644 3596 3445 3310 3207
2561 2640 2239 3170 3366 3513 3327 3549 4506 4153 4110 4256 3629 3398 2910 3149 3096 2796 2901 2826 2683 2566 2194 2934 4163 3709 3934 4620 4532 4762 5478 5813 5873 5765 5333 5262 5358 5400 5275 5274 5034 4876 4975 4663 4569 4650 4614 4644 4499 4344 4320 4330 4352 4439 4410 4141 3900 5124 3527 3528 3432 3453 3387
2830 2567 2706 2799 3167 3226 2596 3724 4185 4301 4100 3970 4237 4509 4402 3109 3110 3045 2873 2910 3024 2745 2616 2837 3394 4039 4339 4888 5021 5260 5662 6050 5771 5403 5008 4998 5168 5256 5222 5168 5031 4940 4982 4988 4840 4799 4675 4837 4662 4347 4100 4197 4055 3718 3945 4365 4507 3621 3366 3346 3366 3452 3424
2483 2575 2381 2768 2799 2811 2537 3800 4060 3938 4019 3693 3980 4721 5336 4895 3442 3384 3313 3367 3608 3378 3024 3036 3592 4144 4371 4841 5109 5098 5698 5874 5230 5070 4609 4696 4892 5106 5331 5276 5177 5120 5227 5256 4986 4740 4717 4619 4354 4231 3998 3896 3526 3522 3393 4626 4306 3872 3270 3317 3318 3228 3337
2080 2162 2234 2684 2551 2474 2737 3133 3228 3385 3405 3529 3871 4292 5228 5382 4144 3905 3915 5469 5232 4172 3577 3285 3654 4488 4775 4852 4882 4958 5204 5402 5116 4845 4697 4622 4888 5282 5460 5303 5177 5046 5050 5104 4741 4576 4472 4513 4008 3868 4086 4034 3847 3560 3198 3321 4660 3998 3563 3404 3335 3282 3224
1775 2046 2084 2122 2414 2373 2474 2794 2772 2821 3014 3173 3588 3766 4492 4812 5242 5301 5346 4906 5132 5059 4860 4656 4837 5203 5268 5148 5016 4800 4571 5056 5015 4861 4714 4603 4618 4976 5138 5045 4966 4871 4987 4884 4731 4740 4544 4315 3955 3887 3456 3442 3930 3877 3654 4236 3762 4300 3922 3571 3388 3313 3244
1996 1853 2017 2134 2297 2276 2482 2387 2633 2721 2880 3116 3306 3284 3825 4058 4056 4083 4053 4234 4285 4452 5205 4732 4847 4919 4970 4846 4708 4865 4791 4913 4783 4507 4408 4441 4157 4310 4548 4538 4630 4538 4684 4502 4342 4338 4362 4377 4041 3581 3137 3516 3631 3855 4028 3879 3784 3686 3528 4243 3673 3488 3366
1752 1957 2078 2166 2300 2324 2500 2599 2692 2831 3028 2981 3028 3223 3266 3168 3192 3643 3739 4256 4452 4899 4965 4901 4609 4670 4643 4616 4614 4837 4771 4753 4475 4249 4174 4408 4296 4199 4340 4448 3891 3929 4868 4550 4441 4467 4318 4138 3992 3572 3292 3133 3359 3648 3714 3555 3778 3790 3922 4040 3556 3527 3638
1510 1623 1814 2010 2046 2164 2426 2482 2554 2576 2600 2597 2576 2666 2839 2957 3050 3386 3822 4248 4718 5188 4989 5088 4542 4883 4817 4540 4477 4647 4638 4628 4520 4351 4503 4541 4627 4475 4042 3817 3291 4622 4040 4114 3919 4026 4041 4103 3632 3420 3274 3216 4015 4640 4734 4463 3632 3954 3449 3486 3458 3408 3550
1330 1454 1530 1577 1729 1970 2027 2206 2386 2339 2449 2430 2400 2419 2463 2638 2673 2512 3077 3766 4175 4520 4817 5083 4649 4730 4380 4720 4677 4565 4137 4571 4441 4123 4104 4140 3619 3705 4105 3423 4234 4557 4693 4023 3836 3687 3658 3566 3774 3904 3952 3777 3841 4258 3979 3830 3561 3444 3377 3488 3527 3535 3435
1318 1380 1322 1538 1563 1732 1878 2076 2208 2248 2307 2260 2117 1925 2105 2328 2337 2370 2150 2438 3865 4193 4346 4333 4258 4209 4386 4476 4613 4523 3888 3771 4006 4144 4226 3957 3725 3566 4713 3501 3360 3436 3632 3742 3776 3722 3603 3588 3461 3359 3286 3258 3287 3285 3223 3189 3155 3154 3136 3089 3102 3105 3066
1341 1189 1255 1306 1431 1502 1517 1642 1871 1917 1968 2179 2154 2190 2203 2100 2018 2040 1831 2071 2280 2767 4054 3907 3829 3868 3833 3737 3954 4823 4441 4221 4280 4096 4060 3689 3977 4623 4286 4112 4044 3206 3190 3299 3379 3385 3403 3404 3348 3280 3245 3226 3180 2996 2791 2691 2688 2684 2674 2687 2663 2599 2561

ECMWFFLT1_con_mucape_042.txt.gz
CAPE
69 785 939 1327 1369 1547 1654 1373 1348 1222 1360 1919 2535 2596 2362 2608 2855 3128 3248 3635 3815 3805 3632 3520 3499 3493 3359 3290 3143 3112 3279 3451 3660 3606 3196 2902 2755 2694 3398 3620 3593 3710 3376 3534 3469 3321 3320 3135 3073 2934 3615 3995 3868 3856 4272 4217 4420 4044 4036 4037 3882 4013 3525
139 724 690 1079 1302 1364 1514 1490 1436 1241 1336 2177 2960 2972 2747 2893 3168 3259 3460 3668 3729 3727 3584 3585 3672 3539 3544 3372 3127 3207 3265 3489 3713 3614 3327 3116 3047 3033 3164 3732 3864 4086 4085 3631 3731 3846 3729 3302 3270 3379 3469 3946 3829 3907 4065 4304 4417 4117 3692 4090 3997 4154 4023
32 0 1050 1289 1162 977 1224 1706 1678 1764 1801 1984 2653 2476 2851 3127 3316 3432 3734 3924 3921 3914 3746 3691 3640 3772 3613 3567 3319 3378 3292 3427 3579 3691 3402 3080 3266 2500 2930 3429 4085 4284 4133 3898 4013 4078 3777 3521 3252 3561 3320 3648 3534 4056 3920 4118 4467 4298 4143 4268 4114 4129 4074
513 182 84 628 878 1278 1809 1855 1676 1862 1836 2348 2087 2395 2992 3374 3429 3578 3822 3903 4084 4220 4112 3828 3601 3694 3811 3663 3572 3501 3423 3315 3349 3301 3047 3028 3065 2839 2801 3062 3748 3791 4082 3725 3369 3511 3236 3240 3478 3383 3636 3359 3643 3950 3968 3783 3949 4404 4317 4399 4171 4092 4198
492 286 156 588 1337 1311 1132 1340 1857 1985 1767 2295 2026 3040 3273 3475 3334 3524 3768 3893 4042 4219 3897 3784 3436 3738 3959 3680 3415 3395 3384 3335 3470 3233 3163 3153 3253 3008 2895 2594 3187 3425 3619 3810 3435 3084 3318 3585 3524 3454 3568 3664 3750 4141 4109 4052 3971 4310 4222 4152 4106 3727 4252
407 499 328 217 544 1206 957 777 1510 2199 2001 1381 2125 3380 2895 2813 2744 3103 3597 4184 4165 4142 4252 4110 3850 4076 3903 3786 3581 3456 3388 3345 3292 3432 3431 3529 3788 3714 3212 3110 2821 3069 3110 3722 3596 3325 3261 3843 3268 3540 3436 3484 3378 3410 3846 3943 3659 4055 4130 4013 3930 3498 3448
876 571 278 34 382 656 431 612 1008 1697 1849 1540 2078 2869 3159 2916 2863 2857 3234 4016 4197 4438 4321 4226 3871 3830 3858 3828 3715 3718 3517 3538 3604 3480 3686 3805 3774 3716 3518 3337 3177 3120 3225 3517 3644 3480 3105 3286 3340 3511 3609 3173 3108 3218 3451 3691 3548 3638 3836 3863 3772 3713 3632
503 238 168 247 438 701 1124 1140 1055 1284 1609 1795 1936 2626 3161 3013 2849 2891 3269 3864 4191 4221 4250 4000 3736 3964 3804 3975 3622 3472 3453 3369 3457 3567 3596 3573 3455 3421 3595 3753 3624 3428 3566 3477 3684 3712 3305 3126 3089 3532 3816 3656 3650 3595 3644 3849 3839 3650 3767 3801 3801 3607 3609
569 291 154 12 349 314 539 829 619 528 831 1135 1753 2493 3148 3120 3049 3032 3156 3506 3971 4240 4342 4091 3887 3805 4084 3963 3727 3540 3542 3539 3536 3581 3479 3142 3130 2943 2858 3459 3693 3543 3648 3334 3203 3676 3557 3435 2931 3195 3829 3811 4102 4110 3772 3959 3868 3490 3480 3772 3787 3576 3169
1123 465 310 139 538 378 996 813 1306 1667 1516 1663 1890 3614 3459 3268 3162 3139 3177 3431 3748 3980 4277 4098 3956 3739 3886 3816 3513 3341 3642 3632 3526 3396 3340 2985 3315 3057 2679 2802 2963 3522 3558 3331 3167 3449 3590 3681 3404 3578 3868 3954 4097 4308 3946 3859 3876 3587 3406 3749 3853 3751 3559
880 915 640 392 1260 1898 2139 2555 2663 2674 2735 3412 4062 3748 3896 3882 3362 3280 3191 3262 3612 3816 4047 4013 4013 3757 3572 3506 3380 3344 3484 3266 3417 3495 3312 3241 2934 3059 2586 2329 3076 3328 3292 3183 3019 3354 3570 3657 3831 3991 4098 3965 4097 4411 4215 3800 3822 3688 3376 3560 3825 3854 3730
920 1047 828 640 1766 1445 1742 2263 2340 2330 2932 4175 4141 3616 4039 4074 3438 3328 3322 3312 3417 3549 3734 3846 3920 3590 3702 3702 3766 3539 3469 3686 3062 3034 3362 3196 2689 2730 2358 2352 2728 3010 3738 3595 3450 3191 3265 3747 3703 3978 4252 4004 3901 4182 4360 4068 3908 3814 3615 3378 3579 3889 3813
2003 2342 1735 1180 1802 1126 1454 2317 2792 2481 3562 4292 3594 3409 3749 3842 3452 3361 3866 3730 3310 3426 3482 3897 3589 3880 3593 3829 3612 3637 3436 3421 3234 3348 3288 3295 2700 2515 2530 2589 2492 2663 3133 3416 3515 3116 2941 3531 3702 3654 4242 4282 4034 3923 4168 4246 4061 4009 3968 3736 3695 3997 3986
1210 893 1422 1657 2037 3274 2307 2719 4684 4663 4824 4233 3673 3509 3479 3323 3325 3683 3994 3734 3352 3194 3251 3701 3752 3797 4051 4340 4093 3967 3420 3665 3596 3478 3570 3193 3082 2880 2653 2598 2497 2692 3111 3846 3795 3425 2973 2809 3649 3702 3936 4375 4263 4131 4076 4254 4245 4217 4284 4182 4031 4054 4080
549 811 1301 1384 3429 2634 1507 3068 4904 5106 5021 4360 3766 3491 3415 3460 3365 3802 4042 3678 3715 3224 3198 3525 3692 3665 3826 4362 4425 4210 3956 3798 3826 3637 3538 3434 3386 3182 2920 2700 2762 2796 2817 3592 3743 3340 3139 2800 2523 3715 3815 4082 4444 4294 4067 4054 4166 4125 4275 4358 4276 4110 4031
207 401 609 1093 1978 2752 2422 3428 5590 5420 5019 4694 3878 3921 3177 3427 3878 3882 3804 3644 3093 3693 3303 3551 3577 3577 3427 4052 4508 4482 4316 4292 4149 3945 3773 3579 3704 3456 3190 2918 2860 2725 2824 3081 3629 3671 3662 3290 2773 2894 3887 3990 4413 4540 4296 4036 4022 3803 3819 3986 4195 4081 3720
172 79 141 421 2398 1639 3278 3620 4488 5310 5334 5080 4532 4173 3659 3474 3652 3512 3219 3023 2990 3620 3338 3350 3761 3685 3433 3604 4459 4725 4667 4632 4504 4404 4224 3945 3906 4013 3603 3222 3111 2975 3072 3134 3265 3590 4116 3988 3603 2770 3111 3991 4117 4523 4520 4287 4029 3772 3698 3732 3788 3943 3705
22 541 631 1170 1732 1507 3053 2953 3820 4536 4758 4496 4147 4117 3648 3817 3527 3116 3043 2937 2793 2772 2804 2948 3671 3635 3706 3734 4592 5030 4950 4799 4810 4769 4776 4506 4287 4366 4216 3697 3345 3327 3350 3299 3284 3635 4064 4144 3961 3553 2814 3440 3958 4122 4469 4458 4000 3826 3883 3791 3773 3694 3637
0 0 28 1698 2660 3857 3123 2696 2704 3853 3086 2706 2788 2731 2732 3540 2844 3026 2960 3085 3216 3042 2654 2841 3066 4004 4181 4088 4725 5162 5166 5077 5043 4980 4996 4969 4684 4609 4688 4393 3802 3604 3604 3507 3534 3692 4051 4240 4108 3939 3442 3098 4051 4251 4448 4699 4385 4094 4014 3926 3854 3770 3531
0 0 0 0 5 43 281 1724 4353 3952 3142 3769 3223 2313 2153 2620 2876 3076 2707 2525 3024 2906 2987 3093 3081 3829 4510 4324 4829 5297 5394 5356 5234 5136 5174 5307 5211 4991 4987 4816 4320 3852 3859 3832 3836 3817 3982 4143 4227 4068 3974 3574 3673 4203 4430 4676 4570 4330 4100 3971 3846 3734 3423
43 77 384 205 248 1440 3515 3642 2486 2317 1841 467 1188 3179 2828 2733 2417 3129 2818 2733 2620 2815 3594 3548 3290 3506 4618 4431 4813 5449 5616 5537 5361 5284 5340 5566 5539 5274 5160 5102 4750 4359 4113 4098 4148 3986 4120 4125 4212 4323 4170 4053 3773 3978 4363 4457 4514 4540 4368 4010 3864 3721 3513
7 1 0 29 3605 4919 4800 3616 2944 1898 2945 3178 1129 554 2579 2588 2163 2084 2356 2348 2396 2595 3003 3821 3614 3496 4947 4644 4688 5326 5696 5694 5558 5504 5438 5584 5674 5418 5161 5136 5090 4807 4458 4203 4197 4182 4195 4377 4217 4308 4395 4362 4198 3915 4191 4344 4186 4443 4489 4384 4047 3746 3615
2078 400 190 1182 2557 2574 3629 3894 2944 2744 2780 2818 1846 1025 600 862 2111 1844 1718 2078 2122 2672 2460 2819 3936 3494 4130 4909 4611 5018 5625 5764 5753 5795 5742 5756 5800 5561 5217 5163 5336 5182 4808 4408 4272 4319 4347 4433 4343 4309 4450 4602 4563 4276 3947 4090 3935 4080 4373 4441 4379 4060 3710
2632 2276 2117 2408 3509 3921 5114 5208 5080 4443 4613 4332 3597 2525 1929 1002 860 2327 2341 2165 2129 2377 2309 2489 3370 3909 3881 4801 4925 4936 5478 5782 5820 5877 5893 5977 6093 5920 5488 5363 5463 5380 5003 4594 4368 4387 4429 4466 4495 4454 4466 4455 4578 4427 4342 4201 3996 3678 3916 4241 4335 4255 4060
2446 2543 2812 3836 3991 3653 3455 3568 3639 3477 3386 2798 2284 2316 2954 2615 1929 1272 3437 3003 1879 1892 2289 2713 3191 3930 4060 4415 5177 5087 5366 5722 6012 6109 5989 5950 6071 6185 5897 5701 5614 5544 5287 4881 4573 4321 4534 4478 4479 4537 4583 4526 4561 4312 4267 4314 4093 3741 3669 3888 4167 4237 4176
2699 2737 2536 3027 3264 2632 2700 3440 3758 4719 4595 4002 5562 5518 4463 2800 2984 3412 5181 3476 2077 2022 2871 2870 3319 4174 4187 4370 5424 5385 5297 5490 5905 6198 6117 6048 6245 6310 6150 5889 5810 5754 5651 5145 4532 4223 4174 4350 4439 4660 4766 4522 4378 4416 4246 4290 4440 3942 3799 3668 3720 3985 4083
2174 2636 2214 2419 2604 3535 2968 2454 4024 4122 3638 4867 4813 3828 3889 4109 4059 4298 3993 4651 3990 2439 2328 3196 3823 4818 4801 4724 5118 5643 5570 5492 5916 6208 6370 6359 6305 6310 6069 5950 5795 5751 5563 5048 4484 4521 4356 4354 4305 4177 4638 4786 4983 4807 4617 4510 4509 4246 4197 4068 3885 3734 3790
2634 2595 2676 1932 2698 3267 2622 2732 4105 4302 4117 4270 3890 4605 5027 4642 4495 4936 5674 5004 4649 4859 3266 5006 4564 4972 5153 4876 5035 5748 5961 5876 6137 6407 6305 6430 6518 6444 6225 5983 5633 5495 5781 5174 5114 4883 4850 4714 4453 4477 4602 4754 4925 5059 5006 4751 4264 5013 4274 4184 4077 3925 3772
2296 2433 2259 2473 3001 2945 2324 2672 3856 3871 3955 3739 3890 3909 4655 5198 6425 4884 4902 4932 4904 4849 4478 4785 5426 5437 5379 5122 4989 5892 6311 6233 6364 6335 5750 5891 6269 6374 6309 6090 5860 5837 5809 5720 5483 5468 5242 5300 5037 4820 4743 4852 5003 4884 5034 5250 4847 4354 4227 4161 3991 3825 3847
2000 1930 2168 2341 2653 2664 2278 2772 3514 3602 3538 3557 3911 4167 4393 5759 6149 5412 3871 4258 4202 4362 4129 5110 7519 6274 5764 5448 5112 5526 6508 6570 6027 5819 5639 6015 6253 6401 6496 6312 6046 6061 6032 6006 5852 5682 5641 5462 5433 5096 4760 4642 4883 4704 4598 5137 5382 4908 4356 4198 4095 3974 3847
1969 2051 1964 2000 2279 2497 2280 2542 3075 2888 3076 3296 3918 4076 4657 5429 5834 4068 4338 6428 6385 4700 4348 4886 5208 6299 6178 5655 5770 5749 6510 6674 6230 6218 6229 6201 6123 6239 6332 6345 6168 6091 6075 6094 5917 5650 5422 5541 5290 5370 5077 4814 4635 4738 4669 4586 5374 5272 4499 4252 4111 4002 3937
1708 1704 1720 1792 2117 2043 2398 2478 2657 2664 2592 3294 3698 3992 4335 4603 5005 5554 5306 5397 5722 5489 5415 4936 4954 5944 5840 6023 6236 5993 5434 6613 6464 6488 5870 5770 5500 6005 6169 5784 5684 5679 6123 6034 5842 5645 5498 5497 5123 5058 5084 5100 4898 4769 4675 4900 4567 4711 4874 4027 3955 3849 3792
2026 2160 2122 2353 2116 2230 2492 2575 2740 2648 2648 3528 3389 3321 3297 3752 3916 4442 4514 4419 4627 4801 5720 5846 4881 6041 5869 6118 5689 5967 6050 5947 5709 5455 5098 5173 4358 5043 5562 5498 5440 5580 5961 5888 5721 5597 5369 5180 4901 4847 4666 4703 4754 4558 4683 4601 4433 4783 4259 3848 3651 3564 3551
1858 1930 2100 2277 2350 2296 2769 2782 2698 3056 3002 2984 2876 2968 2925 3042 3210 3643 4043 4628 5154 4857 5269 5210 5217 5577 5946 5496 5689 5504 5447 5749 5434 5374 5143 5347 5207 5009 5170 5070 5038 5242 5928 5365 5312 5162 5056 4894 4559 4256 3912 3953 4101 4169 4342 4315 4333 3664 3582 3462 3405 3393 3457
1630 1748 1817 1892 2024 2177 2405 2577 2779 2715 2630 2685 2686 2826 3049 2788 3024 3312 3908 4176 4901 5367 5278 5341 4630 5117 5214 5409 5570 6289 5724 5950 6202 5710 5354 5196 4943 4343 4087 4454 4049 4781 4694 4547 4578 4381 4565 4443 4179 4399 3927 4404 4732 4653 4642 4196 3784 3527 3403 3346 3432 3441 3411
1254 1585 1644 1758 1806 1975 2383 2294 2354 2381 2352 2526 2582 2738 2770 2768 2884 3115 3044 3990 4414 5148 5438 5456 5730 5189 5407 5178 5574 5499 5652 5479 4929 4825 5030 4684 4085 3911 4303 4497 4416 4055 3672 3979 4097 4040 4021 4482 4197 4102 4103 3892 3694 3584 3680 3743 3848 3768 3727 3647 3543 3555 3505
1239 1536 1763 1782 1997 1961 1905 2096 2269 2304 2305 2281 2368 2207 2329 2364 2395 2826 2872 3583 4406 4318 4510 4964 5290 5605 5295 5512 5603 6133 5296 4835 4733 4826 5866 5891 4319 3902 3973 4229 4484 4309 3902 3688 3730 3814 3873 3837 3791 3888 3927 3918 3885 3747 3588 3504 3435 3373 3320 3392 3451 3397 3375
1517 1544 1411 1385 1542 1714 1708 1729 1883 1850 2088 2235 2216 2008 2386 2181 2148 2465 2442 2810 3480 3764 4085 4300 4467 4728 4904 4795 4868 5093 4632 4853 5649 5538 5597 5327 4760 3798 3801 3714 3875 3970 3910 3904 3794 3604 3525 3568 3561 3539 3500 3545 3591 3603 3589 3541 3494 3430 3358 3287 3237 3186 3112

ECMWFFLT1_con_mucape_045.txt.gz
CAPE
677 841 1042 1162 1269 1266 1240 1145 1063 1018 1426 1636 1620 1636 1796 1819 2025 2244 2241 2211 2144 2094 2127 2149 2265 1879 1694 1681 1765 1782 1869 1908 1961 2098 2186 2084 2038 2387 2155 2120 1931 2287 2018 2505 2445 2409 2322 2170 2209 2387 2686 2936 2936 3167 3370 3337 3282 3143 2951 2974 2692 2766 2666
746 816 862 949 1064 1153 1262 1160 1052 990 1370 1757 1702 1646 1715 1887 2013 2222 2320 2274 2250 2162 2222 2215 2348 2202 1810 1762 1812 1914 1936 1969 1985 2094 2132 2073 2098 2361 2412 2280 2128 2126 2525 2158 2497 2606 2532 2493 2176 2278 2791 2991 2940 3018 3305 3133 3332 3307 2981 3020 2890 2752 2611
848 902 833 844 967 1008 1232 1248 1116 1026 1040 1638 1767 1667 1594 1730 1995 2236 2336 2363 2333 2246 2258 2237 2284 2341 2079 1871 1820 1966 2007 2002 2043 2062 2124 2061 2009 2081 2483 2452 2244 2154 2352 2663 2450 2582 2753 2623 2385 2190 2760 3009 2985 2922 3184 3172 3144 3388 3087 2838 2772 3046 2595
819 915 901 907 1028 1027 1113 1174 1256 1239 1213 1412 1585 1632 1639 1602 1877 2223 2496 2455 2432 2353 2354 2294 2223 2252 2198 2015 1909 1978 2064 2056 2056 2083 2148 2104 1997 1918 2042 2589 2538 2383 2393 2642 2821 2669 2705 2689 2461 2219 2825 2975 3002 2931 2934 3281 3173 3280 3088 2993 2811 2832 2906
685 732 758 919 1164 1166 1161 1154 1244 1322 1315 1325 1527 1591 1554 1614 2005 2229 2575 2708 2566 2488 2501 2444 2318 2192 2142 2106 2035 2033 2107 2141 2140 2157 2139 2156 2047 1928 1809 2034 2689 2697 2698 2706 2947 2973 2742 2692 2518 2514 2491 2761 2912 2922 2860 3031 3280 3285 3152 3176 2893 2896 3043
658 614 727 770 926 1032 1108 1118 1178 1271 1334 1364 1390 1508 1564 1704 2143 2306 2539 2837 2845 2740 2648 2621 2502 2361 2153 2092 2073 2060 2072 2088 2130 2209 2246 2219 2111 2027 1852 1794 2180 2819 2968 2970 2962 3157 2997 2723 2634 2388 2716 2719 2830 2903 2951 2918 3172 3367 3267 3352 3059 3027 3055
599 385 543 754 858 940 970 958 964 1010 1078 1238 1365 1426 1636 1924 2288 2412 2514 2744 2940 2955 2850 2761 2628 2470 2372 2248 2184 2095 2033 2015 2028 2154 2278 2303 2212 2128 2015 1835 1857 2365 2870 3150 3044 2953 3218 2960 2727 2461 2443 2742 2819 2930 3045 3000 3065 3380 3361 3381 3335 3086 3222
562 503 629 752 840 896 969 1008 1046 983 956 962 1196 1681 1848 1993 2422 2610 2637 2740 2911 3002 2970 2861 2718 2558 2521 2484 2363 2178 2067 2000 1970 2036 2186 2271 2237 2201 2159 2016 1887 1962 2368 2908 3179 2923 2768 3021 2911 2642 2306 2519 2720 2902 3101 3121 3082 3279 3408 3351 3345 3241 3124
220 618 625 697 750 848 930 1096 1183 1084 1088 1278 1506 1994 2272 2365 2548 2683 2808 2878 3018 3054 3014 2912 2790 2623 2559 2591 2538 2344 2167 2094 2020 2012 2108 2202 2224 2238 2244 2152 2021 1970 2144 2376 2937 3090 2787 2504 2721 2772 2490 2352 2525 2693 3038 3179 3118 3145 3334 3352 3269 3245 3083
113 81 597 578 753 784 890 1150 1252 1180 1186 1390 1548 1719 2165 2458 2607 2686 2822 2998 3151 3240 3226 3093 2933 2752 2632 2670 2661 2538 2348 2234 2145 2091 2122 2153 2171 2256 2334 2339 2170 2089 2158 2266 2492 3012 3033 2695 2365 2752 2792 2546 2432 2480 2729 3080 3134 3080 3149 3260 3226 3141 3042
181 135 672 679 918 902 957 1178 1276 1288 1333 1418 1621 1717 1919 2074 2308 2542 2628 2763 3328 3425 3488 3396 3214 2957 2791 2796 2819 2704 2539 2402 2264 2178 2149 2160 2153 2196 2336 2458 2458 2310 2282 2371 2411 2665 2976 2938 2573 2356 2809 2834 2616 2497 2508 2821 3041 3034 2997 3071 3110 3047 2934
248 185 725 870 930 932 975 1258 1432 1552 1545 1533 1732 1920 2057 2157 2210 2257 2283 2266 3097 3705 3694 3628 3492 3213 2920 2892 2908 2858 2725 2565 2396 2273 2198 2154 2162 2241 2338 2391 2529 2610 2483 2497 2552 2571 2775 2914 2813 2465 2383 2862 2912 2786 2618 2682 2903 2938 2900 2897 2974 2966 2872
442 208 60 834 966 929 887 1021 1446 1780 1847 1744 1767 1828 2027 2284 2363 2408 2515 2620 2892 3618 3954 3870 3732 3570 3276 3020 2910 2893 2840 2690 2517 2340 2288 2241 2154 2169 2289 2295 2328 2587 2678 2582 2595 2602 2704 2856 2891 2752 2441 2412 2847 3038 2992 2818 2854 2946 2895 2808 2839 2896 2846
667 254 259 599 819 798 782 827 1164 1460 1710 1851 1847 1805 1676 2121 2495 2730 2793 2796 2823 3340 3934 4034 3910 3763 3554 3278 2968 2818 2784 2724 2615 2468 2360 2278 2225 2180 2205 2183 2096 2225 2578 2644 2558 2524 2546 2797 2883 2892 2728 2432 2493 2804 3120 3150 2963 2916 2932 2809 2712 2834 2861
495 618 1066 766 890 897 866 893 1279 1516 1567 1714 1772 1750 1769 2185 2578 2949 3046 3006 2927 3118 3624 4048 4114 3974 3741 3498 3229 2873 2744 2661 2605 2551 2460 2398 2284 2212 2258 2281 2099 2006 2204 2498 2490 2390 2361 2531 2854 2864 2868 2834 2678 2620 2837 3193 3221 3009 2918 2863 2704 2698 2893
1228 1551 1348 1288 1378 1259 1184 1242 1387 1274 1558 1681 1532 1733 2174 2706 3053 3125 3151 3142 3064 3002 3340 3825 4104 4103 3964 3756 3494 3164 2804 2635 2555 2535 2520 2533 2417 2296 2226 2256 2190 1958 2044 2498 2531 2375 2324 2306 2566 2878 2866 2930 2997 2892 2832 2975 3254 3222 2986 2880 2783 2684 2777
1705 1849 1659 1488 1594 1634 1731 2084 2131 1972 2196 2441 2452 2611 3128 3403 3392 3395 3354 3268 3187 3151 3163 3629 3962 4051 4008 3895 3702 3423 3102 2738 2630 2575 2537 2590 2600 2476 2280 2153 2096 1983 1946 2305 2732 2696 2622 2517 2370 2643 2910 2869 3023 3156 3044 2949 3009 3248 3256 3041 2895 2776 2752
1000 1607 1686 1526 1428 2044 3620 4083 3452 2918 2744 3040 3192 3220 3314 3547 3618 3560 3495 3453 3426 3343 3240 3359 3691 3921 3950 3879 3769 3619 3406 3067 2876 2819 2643 2547 2654 2637 2409 2149 1994 1956 2014 2113 2619 2894 2844 2792 2624 2470 2796 2965 2947 3139 3256 3159 3008 3051 3282 3284 3120 2942 2874
524 1360 1702 1695 2112 2383 3970 4408 4463 4162 3815 3520 3568 3456 3296 3336 3579 3630 3578 3544 3584 3510 3385 3260 3434 3710 3820 3765 3730 3770 3668 3449 3092 3054 2925 2660 2619 2664 2569 2306 2069 1992 2020 2110 2346 2900 3059 3001 2902 2702 2526 2947 3108 3101 3262 3311 3227 3156 3199 3321 3304 3173 2993
532 1330 1775 1461 1452 1599 2238 3344 4075 4254 4352 4117 3888 3747 3527 3368 3281 3576 3586 3528 3542 3537 3519 3390 3274 3442 3652 3671 3646 3848 3812 3658 3412 3201 3167 2998 2730 2680 2679 2504 2225 2060 2071 2139 2184 2497 3011 3140 3072 2983 2779 2636 3036 3216 3230 3384 3436 3385 3291 3287 3337 3320 3184
13 187 134 1560 2452 2934 1939 1894 2548 3226 3465 3357 3600 3512 3403 3276 3248 3185 3431 3517 3515 3443 3413 3425 3359 3364 3458 3500 3476 3792 3906 3793 3601 3362 3334 3261 3052 2815 2779 2720 2498 2215 2130 2168 2229 2284 2538 2944 3136 3146 3114 2929 2704 3060 3329 3400 3541 3592 3500 3382 3343 3345 3325
3389 3524 3892 3995 3821 3382 2828 2692 2833 3008 2781 2594 2219 2522 2545 2707 2848 2881 2898 3099 3248 3316 3144 3067 3219 3279 3274 3379 3401 3607 3949 3903 3759 3605 3540 3522 3429 3171 2977 2951 2844 2551 2290 2224 2268 2336 2372 2506 2804 3126 3239 3220 3077 2844 2956 3396 3530 3678 3715 3629 3498 3389 3325
3780 3625 3368 3354 3573 3911 3903 3880 3795 3772 3353 2977 3018 1944 2108 2084 1936 2200 2540 2629 2641 2672 2862 2899 2917 2936 3466 3386 3276 3451 3942 4007 3906 3784 3734 3726 3742 3624 3349 3200 3188 3038 2725 2446 2352 2410 2502 2538 2595 2779 3070 3246 3267 3152 2936 2911 3398 3705 3789 3820 3746 3634 3477
3249 3546 2959 2762 2614 2651 3142 3290 3409 3877 3207 2670 2233 2190 2320 2651 2397 2299 1992 2326 2479 2475 2600 2651 2918 2975 3337 3675 3407 3512 3968 4113 4063 3961 3910 3910 3953 3910 3781 3575 3487 3482 3296 2939 2668 2590 2644 2698 2758 2826 2954 3137 3268 3274 3195 3010 2924 3409 3858 3967 3951 3859 3737
2418 2545 2820 2885 2860 2498 3180 3983 4108 4205 4374 4511 4172 4259 4238 3873 2438 2363 2228 2127 2132 2306 2300 2235 2306 2987 3125 3973 3778 3727 4169 4309 4233 4140 4061 4060 4073 4110 4096 3986 3864 3830 3798 3523 3175 2939 2940 3082 3079 3085 3126 3208 3306 3416 3407 3317 3190 3093 3304 3829 4101 4143 4084
2316 2211 2110 2885 2853 2372 2823 3910 3782 3142 3980 4491 4876 4557 4489 4724 4472 4203 4096 4139 2145 2209 2206 2140 2130 2533 3087 3996 4230 4048 4399 4584 4497 4365 4264 4207 4213 4292 4321 4276 4198 4169 4180 4032 3724 3431 3275 3391 3505 3508 3470 3466 3473 3518 3612 3608 3575 3510 3403 3342 3673 4092 4246
2052 1852 2572 2975 2866 2688 2728 3576 4042 4219 4082 4128 4053 4296 4172 4313 5287 5435 4694 4820 4050 3271 2221 2029 2054 2600 3272 3839 4503 4296 4519 4783 4742 4631 4530 4450 4438 4552 4644 4599 4473 4424 4438 4375 4175 3910 3670 3531 3587 3676 3755 3778 3769 3721 3709 3771 3828 3828 3798 3742 3629 3610 3910
1929 1979 2471 2914 2979 2481 2324 3462 3928 4002 4129 3921 3838 3892 4114 4163 4894 5652 5638 4940 4534 4955 4652 3560 2394 2828 3308 3537 4576 4487 4531 4824 4941 4862 4818 4840 4842 5000 5122 5042 4816 4689 4667 4562 4434 4241 4023 3809 3681 3633 3692 3825 3958 3974 3930 3924 3932 3989 3966 3957 3915 3844 3733
2057 2126 2185 2345 2564 2445 2515 3284 3645 3772 3410 3131 3588 3622 3789 4597 5152 5279 5520 5406 5492 5393 4712 6297 3369 3069 3390 3490 4465 4589 4540 4718 5006 5076 5187 5247 5220 5286 5370 5404 5196 5011 4908 4806 4684 4521 4315 4126 3937 3779 3688 3748 3930 4116 4256 4247 4197 4132 4098 4067 4052 4023 3952
1937 1943 1967 2143 2108 2088 2312 2914 2819 2996 2793 3215 3793 3913 4049 4736 4878 5660 5734 5075 5629 5395 5144 4520 5806 3717 3692 3505 4105 4688 4587 4653 4973 5193 5315 5465 5450 5436 5431 5512 5386 5232 5096 5001 4876 4725 4592 4412 4231 4030 3832 3673 3835 4196 4423 4588 4608 4530 4387 4297 4219 4125 4045
1776 1991 2143 2236 2339 2394 2466 2376 2756 2642 2955 3429 3442 3605 4072 4255 4547 4915 4752 4696 4783 5333 5334 5302 5776 4921 4359 3883 4156 4937 4830 4801 4998 5174 5315 5621 5617 5540 5520 5542 5452 5334 5198 5132 5005 4884 4744 4644 4507 4341 4149 3915 3859 4135 4435 4610 4769 4815 4732 4640 4535 4435 4325
1521 1735 2020 2168 2241 2205 2510 2650 2585 2838 3053 3043 3157 3231 3918 4159 4321 4552 4493 4552 4680 4867 5468 5149 5904 5765 5086 4494 4873 5512 5341 5175 5245 5284 5394 5667 5710 5640 5678 5658 5537 5373 5352 5284 5162 5048 4937 4867 4765 4594 4437 4366 4242 4205 4334 4413 4449 4490 4662 4779 4714 4594 4488
1022 1368 1642 1979 2274 2228 2356 2524 2890 2948 2965 2786 2578 2788 3160 3722 4047 4204 4304 4291 4624 5041 5245 5200 6346 5966 5653 5357 5465 6027 5734 5488 5569 5478 5533 5643 5676 5733 5836 5849 5737 5530 5514 5461 5387 5267 5118 5006 5043 4964 4875 4795 4680 4543 4409 4292 4293 4178 4123 4041 3873 3985 4095
938 1028 1215 1624 2065 2076 2220 2524 2729 2871 2751 2646 2666 2751 2742 2950 3735 3832 3986 4066 4351 4900 5256 5462 5422 5941 5624 5499 5586 6036 5982 5803 6676 5910 5605 5723 5707 5927 5896 5813 5833 5679 5578 5573 5532 5466 5316 5129 5050 5005 4980 4930 4863 4753 4616 4465 4348 4163 3942 3761 3644 3600 3633
883 990 1199 1760 1811 2074 2486 2447 2671 2678 2565 2533 2646 2528 2407 2311 2426 2964 3407 3750 4158 4676 4905 5316 5344 5891 5510 5588 5394 5347 5863 5956 6119 5842 5690 5574 5468 5498 5768 5766 5768 5688 5595 5511 5516 5481 5382 5221 5004 4811 4770 4696 4664 4639 4591 4474 4389 4186 3916 3706 3573 3526 3511
907 991 1312 1758 1807 2268 2378 2420 2657 2526 2499 2474 2611 2466 2387 2291 2126 2268 2743 3414 4048 4643 4662 4826 5397 5503 4874 4914 5780 5429 5186 5389 5501 5581 5470 5503 5488 5307 5120 5393 5413 5357 5358 5329 5274 5323 5228 5072 4932 4753 4619 4491 4348 4264 4285 4208 4143 3951 3810 3685 3629 3592 3487
1344 1439 1456 1610 1637 1935 2084 2130 2418 2388 2427 2415 2463 2286 2229 1939 1860 1964 2806 3121 3835 4581 4560 4710 4862 4994 4775 4616 5005 5452 4891 4956 5003 4884 4779 4724 4681 4577 4489 4811 4925 4953 4846 4721 4780 4936 4918 4803 4705 4546 4372 4264 4209 4029 3879 3776 3763 3681 3570 3510 3503 3500 3504
1146 1363 1688 1813 1909 1642 1654 1909 2189 2253 2390 2355 2367 2264 2156 1832 1642 1905 2595 3124 3595 4205 4399 4558 4748 4762 4577 4543 4716 4906 4932 5027 4722 4540 4644 4638 4571 4557 4428 4345 4447 4419 4414 4390 4394 4419 4470 4442 4333 4304 4291 4209 4117 3985 3902 3736 3563 3483 3463 3461 3428 3410 3384

ECMWFFLT1_con_mucape_048.txt.gz
CAPE
534 619 801 935 949 930 916 864 727 684 809 858 846 963 1036 1030 1000 897 958 979 1019 1129 1144 1252 1429 1464 1439 1363 1315 1283 1208 1043 959 1026 992 1169 1313 1045 902 1132 1255 1083 1205 1618 1818 1933 1973 1882 1898 2020 2078 2420 2638 2728 2885 3016 3126 3110 2956 2838 2927 2951 2804
564 594 746 923 963 984 983 943 802 732 802 873 894 959 1080 1097 1122 1047 1007 1063 1026 1047 1201 1224 1387 1446 1420 1349 1254 1223 1191 1097 946 1048 1103 1021 1236 1330 1009 1046 1310 1359 1183 1572 1796 1923 2007 1988 1937 1960 1985 2302 2575 2684 2857 2987 3054 3081 3037 2909 2873 2844 2794
578 663 743 900 986 990 1018 1013 899 833 875 904 936 966 1066 1141 1221 1211 1162 1190 1150 993 1130 1248 1352 1398 1410 1341 1237 1176 1142 1120 1000 1004 1156 1169 1122 1337 1376 1172 1209 1461 1489 1537 1826 1923 2014 2034 1946 1980 1963 2134 2450 2584 2804 2979 3064 3085 3065 3023 2918 2715 2755
614 654 744 897 1006 1054 1061 1043 1008 947 958 978 994 1012 1077 1164 1273 1349 1328 1321 1309 1217 1174 1263 1370 1384 1353 1333 1274 1200 1155 1148 1135 1090 1163 1261 1249 1238 1521 1490 1348 1295 1609 1695 1872 1963 2028 2028 1952 1926 2345 2099 2334 2506 2723 2938 3069 3150 3163 3105 2942 2745 2612
686 688 769 878 1017 1115 1118 1093 1055 1018 999 1039 1062 1092 1153 1215 1298 1419 1452 1454 1423 1387 1311 1323 1418 1493 1426 1325 1296 1253 1199 1182 1222 1215 1228 1331 1406 1390 1500 1668 1608 1461 1414 1728 1903 2087 2145 2100 2008 1892 2018 2214 2308 2440 2595 2830 2947 3100 3193 3168 2995 2756 2647
762 747 779 882 989 1095 1150 1142 1110 1059 1027 1103 1140 1159 1212 1282 1360 1509 1588 1655 1568 1519 1464 1444 1468 1618 1584 1444 1354 1314 1285 1251 1254 1298 1313 1372 1484 1531 1552 1736 1798 1691 1526 1585 1992 2103 2265 2231 2148 2007 1900 2197 2388 2464 2513 2684 2851 2922 3057 3066 2916 2783 2724
819 789 823 913 1000 1076 1137 1152 1133 1082 1059 1165 1263 1259 1330 1420 1488 1608 1711 1778 1754 1702 1637 1592 1574 1606 1680 1627 1486 1402 1382 1396 1381 1388 1394 1390 1442 1522 1562 1676 1932 1918 1771 1662 1909 2184 2263 2358 2269 2177 2020 2033 2371 2513 2547 2577 2745 2840 2884 2906 2849 2774 2778
846 824 839 927 984 1068 1156 1169 1127 1086 1057 1132 1345 1394 1381 1479 1599 1704 1820 1892 1912 1864 1799 1764 1729 1691 1740 1770 1704 1574 1499 1495 1522 1522 1499 1462 1448 1455 1468 1530 1768 2077 2028 1864 1849 2209 2307 2280 2371 2342 2253 2151 2194 2466 2574 2593 2628 2782 2830 2805 2764 2737 2714
823 834 867 929 953 1025 1135 1173 1151 1119 1084 1102 1320 1455 1482 1516 1643 1772 1922 2015 2058 2010 1973 1908 1868 1814 1799 1833 1841 1781 1666 1591 1612 1616 1591 1563 1526 1511 1466 1426 1447 1756 2187 2162 2038 2120 2360 2364 2254 2280 2350 2328 2292 2318 2488 2599 2605 2662 2811 2814 2774 2727 2660
799 838 854 876 918 982 1087 1178 1198 1147 1124 1100 1246 1459 1514 1497 1567 1746 1957 2124 2184 2154 2114 2037 1996 1932 1876 1841 1858 1874 1833 1743 1669 1656 1666 1643 1635 1599 1573 1485 1402 1371 1742 2253 2329 2269 2316 2461 2451 2322 2238 2232 2290 2326 2392 2507 2578 2579 2693 2793 2785 2764 2704
781 829 838 829 888 944 1018 1127 1217 1226 1168 1120 1177 1404 1542 1549 1561 1667 1847 2105 2300 2284 2225 2176 2122 2064 1981 1906 1873 1859 1874 1841 1759 1690 1675 1686 1689 1688 1653 1586 1501 1403 1396 1685 2229 2475 2437 2439 2556 2532 2410 2272 2202 2279 2391 2469 2545 2578 2606 2745 2794 2785 2755
744 822 796 809 930 977 995 1063 1134 1211 1249 1239 1220 1303 1472 1576 1597 1654 1814 2023 2288 2429 2392 2297 2234 2192 2114 2024 1942 1875 1852 1827 1778 1730 1692 1678 1683 1721 1727 1688 1603 1516 1462 1443 1674 2203 2550 2518 2475 2591 2626 2524 2411 2308 2324 2447 2570 2613 2625 2718 2837 2838 2808
683 748 765 801 924 1007 1011 1032 1062 1118 1218 1290 1304 1302 1376 1480 1536 1606 1842 2055 2234 2413 2528 2511 2438 2359 2289 2205 2089 1938 1857 1861 1806 1764 1722 1694 1684 1673 1706 1724 1712 1659 1583 1532 1521 1684 2190 2589 2554 2444 2557 2718 2717 2633 2512 2383 2514 2654 2679 2703 2808 2891 2878
747 649 696 755 848 960 993 1019 1076 1117 1181 1236 1301 1340 1384 1448 1503 1665 1934 2175 2310 2430 2554 2639 2632 2554 2473 2382 2290 2174 2051 2027 1939 1869 1802 1749 1703 1654 1637 1686 1732 1751 1720 1647 1604 1604 1729 2156 2544 2555 2419 2435 2601 2689 2628 2509 2398 2558 2698 2702 2730 2844 2904
618 615 643 700 778 882 929 969 1036 1074 1102 1144 1190 1288 1487 1651 1713 1830 2034 2266 2489 2622 2673 2709 2713 2685 2620 2544 2474 2385 2243 2235 2149 2055 1957 1875 1785 1709 1653 1635 1683 1755 1788 1768 1714 1681 1717 1817 2161 2486 2535 2402 2330 2455 2533 2484 2402 2352 2560 2692 2710 2729 2820
627 673 656 654 706 754 804 920 1062 1096 1079 1093 1164 1265 1485 1760 1928 2030 2153 2260 2489 2783 2924 2943 2901 2825 2736 2666 2597 2531 2442 2328 2297 2236 2140 2044 1938 1829 1737 1658 1657 1705 1797 1870 1852 1787 1775 1814 1939 2221 2456 2503 2435 2356 2432 2522 2470 2385 2362 2528 2638 2674 2698
595 678 670 630 620 648 711 902 1075 1141 1151 1169 1261 1365 1472 1690 1939 2115 2237 2333 2419 2693 3129 3179 3176 3067 2979 2861 2757 2681 2632 2542 2416 2377 2296 2203 2077 1964 1856 1757 1689 1703 1742 1836 1966 1950 1884 1896 1950 2094 2288 2437 2476 2418 2344 2416 2596 2598 2488 2458 2543 2583 2604
566 617 651 655 658 649 712 855 1063 1220 1276 1294 1349 1444 1553 1663 1813 2006 2199 2325 2421 2483 2767 3415 3438 3330 3254 3170 3057 2951 2863 2818 2743 2627 2468 2348 2234 2100 1982 1876 1763 1715 1738 1755 1872 2044 2064 2024 2032 2106 2255 2398 2475 2473 2408 2346 2379 2623 2743 2673 2597 2571 2556
500 547 604 660 650 716 772 851 1110 1318 1396 1418 1435 1500 1618 1747 1872 2023 2114 2204 2282 2406 2594 3188 3592 3621 3556 3468 3386 3276 3185 3166 3150 3094 2990 2810 2582 2305 2134 2004 1885 1768 1728 1749 1774 1918 2109 2157 2133 2128 2187 2353 2500 2554 2568 2511 2428 2426 2652 2858 2843 2752 2679
732 740 749 790 804 802 829 858 1032 1342 1495 1555 1565 1560 1619 1746 1930 2113 2294 2465 2584 2665 2724 2913 3422 3774 3794 3741 3675 3622 3569 3518 3478 3454 3389 3265 3071 2797 2446 2195 2028 1882 1796 1765 1739 1743 1922 2121 2187 2156 2119 2172 2342 2515 2603 2663 2661 2624 2567 2684 2900 2974 2929
1915 1697 1488 1524 1724 1934 2144 1914 1573 1530 1518 1600 1644 1694 1743 1861 2089 2221 2390 2630 2848 2916 2926 2932 3108 3516 3839 3907 3863 3826 3793 3763 3714 3659 3600 3513 3398 3202 2883 2479 2209 2048 1900 1836 1795 1747 1781 1986 2104 2148 2140 2109 2138 2290 2472 2578 2690 2795 2797 2745 2756 2928 3028
2555 2677 2786 2682 2594 3010 3213 2931 2731 2580 2460 2487 2881 2535 2274 2498 2708 2753 2783 2814 2965 3080 3116 3118 3085 3206 3602 3853 3946 3956 3926 3888 3842 3796 3736 3673 3584 3445 3233 2916 2478 2197 2052 1908 1841 1810 1778 1871 2066 2181 2204 2185 2114 2121 2268 2465 2602 2762 2893 2933 2897 2866 2958
2497 2665 2828 2907 2987 3130 3147 2968 2766 2643 2593 2713 2834 2981 2978 2955 3090 3228 3177 3164 3190 3212 3248 3252 3162 3232 3292 3664 3851 3916 3956 3946 3916 3877 3845 3783 3687 3551 3379 3176 2904 2488 2217 2085 1944 1840 1817 1828 1990 2234 2372 2416 2389 2301 2272 2400 2592 2751 2866 2987 3036 3010 2977
2703 3150 3291 3310 3455 3672 3848 3830 3760 3706 3699 3707 3834 4002 3845 3402 3331 3437 3600 3604 3593 3528 3473 3446 3494 3488 3487 3459 3678 3846 3914 3958 3950 3932 3887 3828 3732 3616 3468 3299 3102 2846 2460 2277 2132 1983 1864 1832 1878 2082 2348 2519 2593 2582 2522 2450 2530 2784 2956 3016 3107 3143 3107
2290 2924 3322 3503 3605 3699 3790 3877 3741 3531 3352 3234 3228 3483 4016 4591 4272 3603 3464 3512 3740 3724 3698 3658 3628 3584 3601 3588 3572 3633 3814 3916 3963 3944 3901 3835 3769 3648 3536 3402 3206 3002 2771 2517 2296 2168 2012 1904 1908 1969 2123 2364 2599 2753 2787 2752 2696 2688 2922 3138 3223 3258 3244
2342 2192 2703 3422 3539 3534 3530 3444 3410 3425 3408 3345 3340 3658 4012 4285 4759 5125 4886 4686 3677 3402 3675 3739 3700 3674 3650 3651 3681 3668 3635 3781 3877 3907 3907 3858 3756 3658 3571 3451 3304 3119 2955 2764 2557 2364 2223 2090 1998 2022 2094 2170 2328 2537 2763 2900 2955 2948 2916 3008 3239 3367 3403
2430 2241 2326 2761 3194 3380 3435 3434 3429 3340 3398 3441 3437 3704 3999 4237 4564 4720 4902 4756 4288 4412 3917 2672 2890 3081 3297 3403 3434 3458 3506 3520 3775 3862 3875 3858 3803 3697 3581 3497 3386 3242 3106 2962 2820 2668 2495 2265 2153 2107 2190 2278 2374 2460 2581 2748 2926 3059 3120 3112 3076 3275 3430
2063 2094 2165 2411 2806 2626 2700 2843 3069 3062 3149 3160 3187 3404 3805 4345 4752 4987 4729 4470 4379 4598 4905 4569 4503 3019 2447 2815 3304 3315 3323 3421 3655 3808 3858 3856 3824 3754 3659 3553 3456 3355 3245 3123 3018 2909 2780 2634 2477 2371 2317 2560 2687 2733 2761 2866 2964 3060 3146 3216 3228 3203 3283
1909 1911 1950 2116 2331 2437 2407 2578 2942 3049 3038 3192 3195 3318 3355 3761 4168 4379 4443 4276 4346 4409 4439 4600 4810 4055 2845 2562 3422 3542 3434 3455 3632 3792 3870 3888 3858 3813 3738 3671 3645 3576 3476 3360 3339 3311 3199 3064 2888 2763 2687 2890 3102 3212 3220 3204 3245 3278 3321 3365 3419 3417 3408
1603 1676 1785 1916 2247 2449 2591 2692 2823 2888 2966 3203 3272 3256 3498 3480 3772 4002 4169 4080 4256 4498 4548 4619 4742 4760 3601 2698 3148 3667 3703 3733 3828 3872 3942 3953 3930 3882 3827 3867 3933 3914 3842 3782 3743 3682 3638 3530 3421 3293 3198 3140 3209 3400 3600 3708 3740 3730 3707 3664 3620 3586 3711
1640 1626 1601 1664 1934 2291 2493 2585 2572 2539 2608 2770 2966 3024 3360 3552 3646 3866 3966 3988 4223 4312 4518 4670 4970 5538 4516 3317 2825 3525 3822 3988 4137 4141 4143 4118 4061 4023 4002 4157 4212 4190 4156 4108 4035 3993 3932 3896 3828 3742 3681 3602 3534 3427 3520 3862 3985 4029 4037 4013 3983 3953 3935
1418 1509 1504 1492 1590 1932 2276 2424 2429 2367 2297 2289 2316 2646 2732 3256 3574 3608 3863 3889 4092 4256 4325 4599 4903 5484 4870 4062 3225 3493 3934 4126 4376 4441 4430 4429 4336 4268 4309 4470 4497 4416 4420 4354 4306 4249 4197 4165 4143 4123 4070 4045 3996 3863 3860 3840 4122 4289 4289 4291 4271 4262 4234
1194 1373 1448 1524 1618 1932 2189 2341 2382 2333 2266 2249 2250 2255 2292 2327 3092 3521 3695 3881 3964 4157 4210 4496 4845 5252 5128 4541 3741 4026 4154 4216 4479 4686 4769 4820 4750 4663 4699 4752 4728 4670 4643 4608 4581 4530 4491 4438 4433 4398 4381 4327 4327 4310 4268 4222 4155 4119 4244 4404 4556 4602 4597
1110 1238 1397 1615 1854 2077 2136 2263 2302 2235 2132 2190 2161 2032 2023 2147 2201 2841 3468 3693 3878 4033 4133 4318 4723 5250 5293 4697 4531 4525 4420 4378 5415 5118 5123 5214 5160 5155 5142 5043 5063 4988 4916 4920 4901 4898 4859 4831 4797 4777 4744 4697 4629 4587 4516 4469 4393 4297 4205 4227 4303 4383 4445
1068 1191 1397 1683 1821 1844 2052 2086 2179 2161 2091 2095 2098 1963 1832 1802 1807 1839 2400 3092 3519 3957 4138 4209 4558 4914 5237 5048 5146 4942 4718 4754 5264 5099 5195 5284 5304 5280 5308 5395 5425 5286 5240 5198 5211 5164 5154 5100 5051 5028 4941 4847 4796 4727 4693 4647 4614 4488 4340 4255 4176 4108 4108
992 1142 1302 1488 1575 1581 1681 1890 2202 1998 1955 2038 2095 1954 1857 1758 1639 1540 1539 1777 2569 3627 4194 4271 4507 4727 5069 5418 5514 5298 5139 5239 5164 5119 5200 5280 5306 5290 5280 5324 5398 5503 5469 5442 5327 5328 5300 5203 5178 5099 5048 4993 4944 4910 4940 4909 4722 4583 4507 4480 4420 4338 4173
1105 1094 1219 1669 1708 1619 1781 1898 2074 1959 2060 2022 1971 1908 1794 1632 1402 1296 1212 1776 2536 3539 4263 4364 4556 4608 4836 5106 5678 5590 5456 5404 5214 5220 5230 5270 5264 5203 5177 5130 5275 5486 5522 5494 5520 5460 5463 5451 5401 5316 5208 5156 5128 4992 4862 4796 4605 4544 4514 4500 4408 4290 4158
1086 1171 1353 1725 1761 1792 1825 1905 1899 1888 1926 1953 1883 1708 1601 1413 1196 1075 1263 1762 2644 3460 4167 4458 4537 4597 4582 4741 5077 5674 5694 5556 5376 5292 5233 5223 5191 5131 5082 5019 5081 5239 5467 5568 5659 5637 5529 5399 5456 5449 5274 5107 4970 4900 4735 4526 4408 4315 4208 4136 4114 4039 3950

ECMWFFLT1_con_mucape_051.txt.gz
CAPE
87 190 508 576 642 650 612 550 509 450 377 384 386 380 527 536 655 737 834 911 948 991 1031 1121 1151 1163 1185 1185 1151 1142 1126 1087 1068 1028 986 964 952 904 851 781 452 417 945 1336 1558 1698 1744 1732 1759 1803 1796 1790 1900 2084 2233 2444 2623 2692 2741 2757 2808 2831 2785
16 76 245 433 600 663 670 604 537 510 439 430 429 522 580 578 589 696 769 855 937 986 1032 1134 1187 1200 1222 1200 1170 1163 1145 1130 1092 1068 1025 968 958 941 871 828 776 391 570 1093 1340 1548 1669 1694 1693 1772 1808 1814 1893 2025 2206 2384 2571 2694 2746 2803 2871 2896 2826
33 48 137 343 572 658 691 662 589 546 534 579 609 614 618 619 618 664 734 797 878 953 1011 1130 1236 1251 1262 1252 1205 1185 1180 1168 1135 1092 1047 981 951 994 956 892 876 813 451 841 1194 1416 1599 1688 1670 1694 1787 1828 1903 2051 2184 2311 2465 2612 2720 2815 2902 2948 2840
77 78 109 259 546 656 707 693 664 623 593 643 662 665 668 665 665 647 738 777 834 915 975 1071 1222 1280 1302 1295 1260 1242 1230 1198 1158 1128 1084 1026 948 961 1026 986 961 935 885 795 1066 1331 1583 1691 1710 1690 1919 1779 1878 2056 2208 2315 2425 2518 2629 2733 2812 2876 2838
132 121 127 209 480 639 701 726 691 673 664 636 712 737 732 713 710 705 705 775 795 864 929 1010 1152 1282 1314 1316 1298 1281 1270 1248 1213 1155 1081 1037 956 893 1046 1069 1016 1012 1029 984 1008 1322 1542 1688 1718 1722 1729 1753 1803 1979 2172 2324 2433 2523 2582 2634 2675 2725 2782
223 302 287 302 438 612 714 737 737 719 707 693 709 764 778 771 753 761 736 731 791 800 851 918 1041 1205 1301 1322 1312 1283 1253 1254 1224 1175 1102 1040 984 886 974 1147 1101 1010 980 1128 1144 1336 1497 1646 1688 1713 1731 1778 1802 1851 2032 2226 2382 2507 2584 2609 2604 2628 2698
216 408 396 401 481 624 723 758 764 755 750 732 715 774 808 850 855 820 802 785 777 817 846 885 940 1063 1199 1249 1274 1252 1223 1197 1187 1176 1126 1047 969 919 916 1038 1205 1163 1039 1071 1307 1428 1542 1625 1677 1709 1705 1767 1816 1819 1912 2068 2254 2413 2540 2620 2623 2640 2680
158 317 470 475 518 650 744 773 779 785 781 766 772 775 837 885 922 928 880 856 825 811 874 907 954 1017 1124 1176 1207 1220 1177 1149 1136 1147 1151 1114 1026 954 979 983 1105 1273 1262 1165 1247 1555 1644 1669 1706 1719 1708 1704 1771 1850 1884 1978 2116 2298 2452 2558 2630 2659 2690
145 222 435 509 545 650 771 820 825 826 816 826 830 809 860 914 993 1023 1010 947 908 896 915 917 981 1032 1112 1159 1194 1206 1197 1172 1144 1151 1145 1120 1075 1021 1042 1074 1098 1216 1376 1374 1286 1474 1722 1794 1806 1808 1775 1708 1700 1805 1918 1987 2046 2174 2339 2447 2516 2582 2616
124 174 236 372 559 624 770 851 873 875 876 884 892 864 844 963 1006 1074 1127 1119 1073 1048 1017 968 971 1044 1126 1186 1194 1211 1214 1213 1187 1168 1155 1149 1144 1111 1099 1140 1172 1285 1446 1504 1456 1411 1624 1779 1872 1923 1915 1850 1775 1745 1860 1990 2062 2106 2225 2357 2434 2487 2534
108 180 238 306 437 607 750 853 908 927 956 984 955 920 906 980 1027 1097 1191 1234 1251 1228 1186 1127 1083 1072 1143 1223 1255 1235 1221 1216 1220 1214 1201 1194 1190 1177 1158 1171 1213 1275 1477 1628 1655 1582 1560 1724 1835 1907 1954 1949 1898 1840 1814 1912 2052 2126 2170 2265 2372 2437 2470
145 191 241 302 366 590 746 880 952 981 1002 1008 1008 1014 1006 1050 1090 1144 1224 1312 1374 1396 1359 1306 1260 1208 1201 1270 1340 1354 1312 1285 1262 1264 1265 1262 1248 1238 1218 1219 1218 1253 1352 1573 1766 1806 1723 1704 1861 1939 1962 1983 1992 1958 1914 1900 2005 2149 2214 2251 2327 2413 2462
218 246 289 323 412 633 775 904 999 1023 1026 1047 1063 1081 1093 1117 1184 1236 1299 1390 1481 1534 1512 1476 1425 1395 1358 1370 1418 1462 1462 1410 1372 1341 1342 1352 1344 1324 1299 1273 1272 1262 1268 1344 1570 1812 1907 1888 1868 1966 2018 1995 1985 1999 2010 2009 2026 2096 2204 2273 2302 2366 2442
530 297 339 356 424 656 792 928 1025 1057 1075 1091 1113 1130 1174 1214 1254 1318 1397 1494 1586 1660 1680 1657 1615 1568 1541 1517 1516 1547 1574 1562 1519 1461 1440 1426 1436 1418 1392 1362 1340 1336 1302 1265 1294 1449 1770 1994 2025 2018 2044 2075 2035 1990 1942 1955 2015 2091 2163 2228 2274 2320 2382
417 432 443 352 608 705 836 941 1038 1084 1116 1139 1159 1157 1193 1323 1334 1372 1457 1570 1711 1802 1842 1846 1796 1755 1710 1676 1657 1649 1654 1671 1668 1638 1579 1541 1500 1494 1474 1453 1432 1418 1392 1344 1298 1265 1338 1615 1950 2082 2106 2110 2116 2106 2056 1971 1942 1983 2080 2182 2251 2285 2333
444 488 520 604 667 750 852 967 1062 1123 1139 1164 1181 1172 1228 1368 1425 1440 1493 1603 1770 1909 1984 2001 1977 1938 1892 1862 1817 1787 1768 1768 1780 1764 1747 1692 1637 1575 1535 1523 1516 1503 1472 1433 1385 1341 1298 1285 1455 1796 2034 2112 2129 2143 2168 2161 2083 2016 2027 2125 2239 2308 2332
438 501 556 631 702 781 873 967 1068 1128 1159 1204 1222 1210 1211 1355 1458 1498 1505 1577 1736 1944 2111 2156 2157 2099 2078 2035 1999 1976 1934 1913 1890 1869 1845 1817 1762 1711 1744 1637 1555 1539 1526 1510 1473 1437 1382 1332 1309 1374 1626 1951 2091 2123 2124 2204 2264 2250 2186 2185 2253 2315 2361
458 537 586 654 728 821 870 961 1041 1116 1188 1251 1276 1259 1240 1292 1411 1502 1560 1584 1689 1878 2100 2268 2306 2270 2238 2223 2197 2162 2132 2089 2047 2002 1965 1913 1872 1890 1937 1886 1732 1570 1537 1542 1535 1524 1490 1469 1428 1380 1388 1554 1854 2064 2118 2121 2171 2296 2375 2391 2379 2380 2381
479 538 587 657 734 809 885 962 1035 1091 1179 1277 1324 1322 1302 1295 1353 1474 1554 1597 1671 1882 2090 2261 2371 2408 2387 2369 2346 2324 2272 2243 2196 2148 2094 2048 2023 2133 2195 2177 2056 1886 1653 1532 1540 1556 1584 1594 1565 1539 1484 1478 1568 1778 2009 2109 2124 2154 2265 2379 2419 2426 2432
470 530 571 658 714 789 883 956 1014 1057 1122 1215 1306 1366 1369 1322 1378 1428 1500 1565 1688 1974 2203 2341 2422 2494 2540 2537 2511 2483 2442 2400 2355 2306 2281 2254 2288 2358 2385 2379 2339 2247 2084 1853 1572 1554 1586 1626 1648 1644 1618 1597 1584 1633 1763 1955 2073 2151 2188 2246 2320 2377 2390
477 499 559 651 715 779 862 940 1022 1058 1077 1137 1205 1280 1316 1372 1392 1492 1551 1714 1863 2032 2332 2569 2647 2656 2664 2676 2658 2635 2612 2575 2532 2515 2496 2492 2506 2565 2637 2716 2726 2660 2526 2332 2121 1819 1553 1630 1697 1738 1752 1731 1703 1699 1734 1828 1969 2120 2201 2224 2253 2328 2407
893 530 517 590 688 772 812 911 1034 1095 1125 1156 1188 1230 1293 1373 1463 1614 1774 1854 1961 2072 2242 2652 2918 2911 2884 2863 2833 2801 2753 2715 2691 2668 2666 2645 2716 2820 2900 2979 3044 3085 3027 2860 2618 2406 2164 1890 1673 1731 1808 1848 1860 1850 1825 1843 1944 2101 2205 2266 2305 2310 2321
2252 2206 2118 1962 1711 1505 1206 1085 1143 1461 1578 1276 1195 1233 1280 1338 1464 1623 1777 1921 2033 2151 2213 2359 2874 3173 3196 3146 3120 3078 3018 2935 2876 2843 2815 2894 2953 3031 3102 3172 3234 3289 3302 3260 3094 2854 2594 2320 2023 1784 1770 1869 1942 1949 1933 1918 1951 2066 2209 2328 2396 2415 2398
3063 3002 2938 2925 2892 2842 2778 2717 2741 2814 2492 2671 2733 2315 1486 1509 1598 1699 1803 1919 2041 2148 2255 2332 2415 2837 3314 3436 3401 3374 3321 3248 3179 3027 3053 3085 3130 3194 3284 3332 3380 3449 3471 3452 3335 3164 2948 2694 2416 2127 1874 1805 1882 1936 1975 1996 2010 2017 2075 2237 2396 2483 2514
3094 3029 3002 2969 2935 2901 2885 2927 3040 3198 3355 3520 3729 3836 3599 2018 1850 1884 1973 2069 2157 2274 2377 2235 2230 2372 2648 3362 3557 3572 3559 3508 3434 3358 3304 3232 3324 3388 3433 3466 3511 3540 3558 3567 3510 3411 3235 3000 2759 2484 2185 1927 1804 1847 1926 1981 2010 2034 2051 2082 2196 2334 2451
3098 3041 3020 3021 3010 2984 3039 3081 3139 3217 3364 3600 3885 4164 4173 3736 2583 2418 2220 2271 2316 2408 2511 2638 2727 2441 2749 2999 3320 3692 3723 3718 3673 3602 3570 3558 3556 3568 3584 3589 3608 3633 3641 3613 3569 3536 3425 3281 3091 2867 2601 2283 1962 1828 1894 1967 2012 2057 2074 2097 2096 2171 2286
3193 3064 2996 2925 2884 2864 2894 2901 2896 2961 3192 3528 3901 4207 4313 4190 4008 3950 3813 3412 3137 3460 3713 3545 3168 3256 3412 3409 3424 3408 3759 3811 3833 3818 3785 3747 3732 3714 3714 3698 3677 3678 3660 3644 3615 3572 3518 3434 3284 3082 2869 2644 2418 2164 1957 2011 2108 2195 2236 2267 2266 2250 2289
2993 2924 2843 2740 2762 2518 2559 2618 2710 2778 2873 3077 3419 3733 3921 3946 3896 3800 3758 3795 3865 4030 4176 4308 4290 4036 3581 3606 3580 3548 3544 3782 3864 3876 3864 3853 3849 3840 3808 3765 3738 3724 3704 3655 3624 3583 3530 3476 3385 3242 3061 2869 2708 2551 2376 2314 2201 2300 2396 2448 2475 2482 2487
2398 2388 2439 2420 2397 2335 2335 2402 2468 2555 2621 2756 2894 3118 3376 3566 3680 3678 3638 3728 3875 3994 4042 4146 4206 4778 4064 3631 3672 3694 3702 3695 3699 3712 3900 3897 3890 3884 3863 3822 3811 3790 3755 3724 3689 3638 3588 3518 3452 3353 3218 3057 2926 2810 2677 2626 2594 2534 2465 2477 2619 2690 2727
2133 2298 2340 2352 2378 2349 2286 2296 2335 2385 2420 2455 2590 2798 2940 3126 3248 3386 3388 3442 3669 3948 3898 3971 4204 4433 4762 3840 2900 2776 3143 3393 3536 3712 3836 3906 3927 3939 3904 3882 3856 3826 3803 3779 3744 3716 3667 3594 3514 3418 3330 3226 3101 2993 2891 2798 2813 2817 2812 2790 2766 2738 2678
1711 2033 2178 2152 2082 2063 2048 2064 2002 1960 1974 2012 2054 2210 2547 2722 2893 3117 2968 3154 3320 3719 3892 3871 4205 4295 4602 4743 3760 2996 2894 3096 3294 3474 3661 3825 3921 3973 3965 3944 3902 3880 3861 3841 3822 3788 3715 3657 3557 3481 3391 3280 3192 3114 3026 2971 3008 3034 3073 3122 3141 3156 3158
1606 1795 1970 2083 2089 2006 1925 1891 1859 1817 1786 1781 1778 1804 1893 2060 2322 2497 2645 2861 3170 3398 3770 3802 4020 4326 4426 4754 4761 3883 3110 3098 3170 3282 3462 3661 3812 3904 3937 3932 3926 3918 3914 3882 3862 3802 3765 3692 3616 3557 3470 3376 3288 3225 3176 3160 3247 3353 3441 3501 3539 3549 3532
1622 1676 1804 1960 1992 1992 1945 1886 1864 1832 1792 1766 1713 1681 1644 1606 1680 2011 2362 2678 2858 3183 3471 3736 3871 4195 4429 4618 4841 4553 3883 3313 3352 3359 3419 3566 3739 3840 3910 3935 3937 3929 3912 3910 3875 3844 3792 3732 3691 3638 3562 3484 3429 3402 3389 3466 3572 3706 3805 3875 3914 3919 3888
1457 1544 1585 1728 1904 1944 1901 1861 1887 1874 1820 1791 1757 1719 1629 1553 1483 1344 1240 1494 2083 2565 3046 3474 3822 4089 4386 4606 4897 4752 4311 3758 4235 3982 3745 3788 3846 3878 3922 3954 3961 3951 3951 3938 3920 3885 3855 3808 3774 3736 3700 3664 3635 3639 3702 3834 3982 4088 4172 4220 4201 4203 4152
1149 1413 1395 1454 1594 1703 1780 1781 1812 1816 1788 1773 1787 1704 1569 1434 1335 1184 1054 1142 1373 1854 2473 3240 3749 4067 4339 4623 4900 4869 4458 4021 4577 4226 4094 4070 4018 4029 4054 4119 4197 4142 4011 4000 4054 4009 4023 3979 3960 3942 3917 3898 3844 3969 4146 4284 4400 4486 4470 4462 4426 4408 4332
1136 1447 1542 1590 1672 1733 1773 1798 1816 1788 1761 1745 1659 1565 1432 1289 1163 1046 1169 1349 1542 2100 2688 3231 3694 4074 4342 4524 5058 5055 4668 4366 4544 4326 4261 4222 4189 4166 4170 4200 4263 4351 4367 4386 4284 4336 4334 4257 4191 4230 4340 4443 4479 4484 4625 4729 4753 4692 4637 4598 4532 4478 4373
1313 1492 1552 1580 1644 1664 1695 1723 1744 1713 1686 1577 1509 1394 1273 1159 1038 1186 1377 1483 1762 2407 2894 3479 3804 4087 4389 4386 5036 5308 5011 4594 4476 4400 4406 4372 4327 4253 4226 4203 4400 4525 4604 4640 4704 4647 4657 4654 4567 4651 4781 4871 4948 4903 4861 4904 4874 4828 4779 4694 4607 4510 4391
1241 1449 1587 1591 1667 1694 1710 1726 1693 1649 1613 1478 1339 1247 1168 1123 1100 1307 1484 1593 1930 2527 3065 3617 3987 4123 4318 4431 4949 5351 5405 5012 4613 4512 4495 4480 4437 4387 4350 4311 4334 4570 4794 4874 4970 5062 5098 5062 5089 5112 5137 5176 5138 5159 5222 5121 5031 4974 4885 4706 4615 4530 4402

ECMWFFLT1_con_mucape_054.txt.gz
CAPE
498 523 526 511 483 396 244 216 180 143 156 252 357 470 539 715 778 837 895 933 941 913 886 846 825 816 794 787 769 730 706 694 667 670 660 697 742 769 800 862 914 960 1007 1241 1395 1520 1617 1588 1661 1708 1708 1681 1788 1850 1876 2119 2277 2415 2459 2516 2518 2596 2595
403 479 513 525 507 479 259 242 210 182 143 160 235 372 471 612 733 784 852 898 920 928 920 911 912 904 903 883 854 800 745 746 780 869 719 730 752 788 819 859 884 922 934 1073 1270 1401 1506 1547 1614 1644 1669 1715 1770 1800 1897 2042 2212 2341 2435 2424 2490 2506 2502
298 402 446 475 502 509 474 248 220 218 191 164 185 248 381 531 665 742 800 848 881 908 905 929 958 986 967 967 915 877 844 834 818 794 756 765 786 822 860 874 882 886 902 892 1041 1260 1490 1497 1556 1607 1615 1621 1718 1740 1889 2030 2210 2295 2377 2403 2452 2514 2462
222 329 394 430 470 497 498 478 285 250 241 214 209 220 287 424 518 675 752 810 848 873 885 896 949 994 1020 1007 992 980 963 951 938 913 874 834 829 860 879 892 888 876 882 871 824 1118 1434 1457 1522 1583 1935 1603 1657 1755 1860 2044 2156 2295 2366 2395 2419 2455 2498
109 222 313 373 433 468 493 388 308 275 274 263 239 283 257 319 425 538 685 749 799 841 858 882 904 973 1006 1013 1037 1048 1051 1041 1032 1008 975 932 903 892 886 908 907 892 874 845 788 1098 1347 1436 1456 1517 1637 1663 1647 1714 1882 2001 2112 2252 2336 2363 2433 2394 2430
44 129 231 309 368 430 481 517 524 493 404 284 273 289 277 288 366 478 569 698 756 786 822 850 888 1049 1012 1024 1043 1063 1068 1074 1074 1063 1038 1002 980 941 925 918 924 927 894 852 789 888 1161 1373 1421 1443 1488 1603 1630 1690 1815 1990 2118 2203 2334 2363 2398 2426 2398
24 41 100 230 295 358 436 494 535 546 542 374 291 322 352 311 364 446 514 647 720 772 814 845 874 934 1007 1025 1046 1064 1076 1086 1092 1093 1066 1032 996 976 958 955 950 936 917 867 824 815 1060 1282 1394 1438 1472 1542 1619 1630 1711 1897 2073 2218 2353 2401 2428 2425 2419
18 36 51 156 218 279 358 450 514 556 558 542 283 321 373 362 373 430 502 574 683 743 801 844 878 938 1021 1039 1060 1079 1090 1081 1084 1096 1094 1060 1041 1010 1007 1000 968 952 920 877 863 842 1023 1187 1326 1420 1446 1500 1575 1629 1657 1785 1962 2131 2333 2419 2453 2440 2371
6 46 57 58 149 199 278 366 471 524 559 593 602 571 413 414 430 511 506 542 631 698 767 822 880 929 1018 1075 1090 1109 1112 1107 1103 1114 1111 1086 1064 1058 1053 1034 1018 979 920 888 869 1007 1058 1131 1221 1372 1428 1446 1522 1584 1633 1710 1849 2011 2236 2358 2437 2479 2449
0 15 46 60 58 65 118 235 387 474 526 584 606 592 493 475 495 502 544 591 635 687 728 774 834 903 990 1079 1128 1138 1144 1147 1146 1137 1133 1125 1106 1108 1085 1059 1029 1000 934 915 876 1025 1204 1199 1229 1320 1401 1421 1475 1495 1625 1694 1775 1897 2073 2266 2369 2425 2464
0 2 33 57 70 81 103 167 301 466 534 585 612 615 593 546 555 578 601 631 666 694 719 755 796 862 946 1042 1117 1155 1179 1188 1171 1164 1162 1157 1168 1160 1118 1082 1033 978 1008 1084 1026 974 1140 1339 1358 1373 1413 1446 1478 1488 1537 1660 1752 1868 1952 2127 2244 2338 2401
0 0 8 46 81 86 107 213 391 496 570 606 620 624 620 631 639 651 675 683 694 706 729 757 789 837 897 981 1072 1150 1190 1212 1199 1182 1169 1168 1175 1177 1140 1082 1030 988 982 1117 1193 1179 1139 1250 1409 1498 1526 1542 1563 1554 1535 1573 1686 1812 1921 2009 2136 2258 2333
0 0 0 13 58 92 154 279 413 518 603 648 664 659 659 672 705 760 768 769 760 762 765 782 800 827 858 915 994 1081 1142 1189 1194 1179 1159 1159 1152 1133 1110 1079 1039 997 987 1171 1188 1235 1259 1235 1327 1524 1600 1636 1666 1670 1657 1597 1613 1748 1872 1962 2097 2216 2310
0 0 0 4 29 70 174 345 476 559 634 679 695 691 696 714 764 826 857 867 851 839 835 835 837 836 861 908 954 1018 1084 1124 1141 1140 1132 1118 1116 1113 1091 1062 1046 1033 1018 1171 1235 1263 1302 1331 1315 1409 1568 1624 1645 1724 1745 1708 1683 1702 1812 1937 2041 2155 2217
0 0 0 0 5 42 186 403 538 622 683 730 733 727 737 760 798 848 926 945 951 940 932 915 896 894 898 942 990 1018 1054 1080 1092 1110 1106 1103 1108 1114 1100 1089 1078 1064 1056 1086 1220 1296 1362 1430 1475 1453 1480 1586 1667 1704 1730 1740 1756 1766 1799 1876 2008 2138 2208
0 0 0 0 0 34 200 414 599 691 738 773 789 794 796 803 845 915 987 1045 1084 1072 1032 990 983 970 963 979 1029 1066 1074 1099 1129 1124 1139 1154 1162 1160 1139 1123 1116 1111 1114 1110 1115 1218 1326 1417 1539 1614 1604 1641 1689 1744 1764 1778 1797 1759 1734 1757 1963 2048 2160
0 0 0 0 18 42 212 400 620 732 793 835 860 864 864 880 890 959 1019 1084 1153 1196 1198 1146 1101 1052 1050 1040 1030 1125 1206 1265 1296 1270 1192 1211 1203 1190 1188 1183 1178 1180 1180 1171 1170 1168 1179 1302 1323 1472 1650 1742 1770 1805 1840 1870 1854 1747 1755 1787 1814 1922 2113
0 0 0 4 26 75 224 429 646 768 861 916 941 942 945 944 957 984 1068 1119 1196 1274 1325 1320 1330 1256 1248 1216 1274 1303 1330 1362 1423 1437 1405 1269 1254 1243 1238 1242 1251 1267 1266 1260 1292 1272 1215 1201 1192 1264 1354 1516 1702 1818 1859 1924 1825 1832 1842 1827 1822 1832 1966
0 0 0 13 50 155 256 524 698 825 913 976 1008 1026 1031 1051 1065 1090 1144 1183 1241 1328 1495 1486 1503 1495 1492 1464 1466 1494 1482 1488 1533 1558 1551 1505 1373 1339 1334 1346 1359 1374 1389 1396 1417 1458 1472 1357 1260 1238 1210 1190 1375 1512 1730 1889 1788 1836 1893 1927 1926 1919 1907
0 0 3 31 81 193 321 584 725 858 939 1012 1069 1093 1095 1093 1156 1177 1178 1225 1354 1504 1637 1693 1705 1692 1677 1670 1672 1665 1641 1638 1632 1646 1648 1633 1530 1508 1492 1484 1495 1499 1515 1527 1542 1616 1636 1603 1451 1339 1318 1287 1246 1337 1407 1566 1635 1722 1814 1892 1949 1993 2006
0 0 0 17 84 201 340 632 777 886 972 1034 1092 1106 1085 1131 1184 1196 1240 1283 1454 1608 1790 1848 1889 1875 1891 1897 1878 1864 1848 1819 1794 1769 1754 1698 1661 1664 1662 1655 1647 1651 1667 1668 1722 1805 1848 1815 1737 1608 1456 1384 1338 1307 1269 1341 1319 1492 1668 1783 1864 1942 2002
0 0 0 3 81 184 324 692 822 945 1036 1086 1128 1142 1126 1190 1228 1287 1334 1334 1487 1654 1822 2002 2064 2054 2073 2104 2078 2068 2032 1992 1961 1934 1920 1811 1790 1803 1808 1807 1807 1821 1811 1925 2031 2087 2123 2113 2052 1961 1834 1668 1516 1425 1389 1486 1316 1318 1419 1592 1751 1851 1930
12 0 0 0 11 55 629 748 869 967 1059 1127 1160 1173 1183 1208 1257 1315 1382 1437 1500 1676 1842 2032 2167 2214 2267 2295 2255 2255 2220 2175 2136 2118 2089 1977 1958 1972 1976 1969 1970 1970 2104 2284 2365 2463 2458 2426 2400 2307 2212 2084 1926 1800 1587 1597 1514 1459 1427 1451 1564 1697 1826
1644 483 173 134 132 578 673 790 894 997 1088 1168 1201 1233 1240 1248 1267 1280 1416 1492 1576 1692 1869 2026 2194 2290 2375 2421 2426 2436 2397 2359 2326 2297 2274 2155 2153 2144 2130 2154 2307 2413 2540 2621 2719 2782 2787 2785 2794 2712 2567 2420 2275 2142 1977 1796 1632 1568 1558 1546 1550 1616 1700
2280 1857 1012 577 575 670 726 832 912 1014 1076 1165 1243 1283 1300 1295 1299 1311 1427 1542 1608 1700 1882 2115 2229 2322 2388 2484 2507 2550 2561 2527 2498 2460 2364 2301 2439 2531 2611 2702 2762 2812 2857 2902 2945 2990 3030 3083 3081 3028 2926 2787 2636 2451 2301 2151 1988 1804 1655 1649 1670 1693 1716
2434 2388 2312 2142 1732 1642 1886 2123 1888 1299 1113 1149 1222 1277 1327 1333 1346 1508 1531 1572 1630 1715 1842 2038 2312 2438 2469 2530 2619 2669 2710 2694 2698 2540 2635 2763 2872 2910 2983 3004 3022 3055 3083 3098 3117 3137 3178 3227 3260 3272 3245 3138 2983 2818 2657 2488 2332 2152 1967 1784 1774 1799 1810
2461 2418 2436 2533 2681 2866 2523 2489 2446 2517 2576 2727 2620 1495 1226 1299 1410 1753 1819 1718 1724 1811 1880 1967 2160 2421 2667 2824 2888 2906 2636 2620 2666 2708 2739 2793 2888 2954 3018 3084 3127 3153 3188 3230 3249 3269 3304 3339 3377 3398 3410 3395 3328 3194 3040 2861 2669 2468 2251 2039 1871 1860 1884
2432 2411 2466 2530 2638 2607 2656 2800 2922 3074 3224 3336 3224 2357 1770 1819 2278 2468 2371 2089 2321 3018 3395 3474 2950 2273 2530 2756 3042 3213 3234 3186 2843 2848 2860 2902 2960 2998 3100 3160 3217 3254 3304 3328 3351 3382 3413 3433 3450 3484 3500 3499 3492 3422 3338 3174 2988 2797 2606 2404 2199 2001 1920
2588 2589 2623 2698 2796 2936 3129 3182 3231 3210 3236 3199 2962 2770 2707 2741 2805 2804 2704 2727 3051 3423 3717 3932 3868 3436 2374 2447 2719 3048 3398 3425 3252 3265 3227 3216 3227 3260 3298 3326 3357 3388 3398 3408 3452 3478 3515 3547 3570 3579 3580 3568 3559 3528 3468 3373 3244 3058 2872 2696 2529 2369 2279
2677 2685 2654 2707 2869 3100 3284 3463 3552 3544 3383 3100 2859 2767 2770 2774 2895 2934 2992 3205 3563 3702 3854 3990 4099 4103 3680 3022 3214 3313 3336 3340 3569 3398 3413 3448 3347 3397 3439 3504 3529 3530 3534 3553 3550 3564 3587 3614 3640 3662 3673 3648 3627 3592 3533 3464 3374 3242 3088 2921 2777 2678 2644
2712 2743 2645 2640 2714 2816 2984 3177 3435 3574 3564 3431 3320 3205 3164 3205 3298 3303 3263 3462 3622 3727 3810 3986 4172 4395 4519 3940 3392 3374 3370 3369 3379 3562 3713 3735 3648 3543 3466 3427 3477 3532 3557 3604 3616 3650 3677 3705 3726 3740 3734 3701 3680 3641 3581 3501 3430 3353 3234 3090 2956 2887 2894
2664 2656 2647 2594 2588 2614 2685 2759 2900 3076 3271 3430 3462 3442 3394 3421 3451 3489 3420 3550 3708 3657 3692 3829 4031 4122 4331 4515 4307 3617 3229 3139 3147 3343 3554 3688 3702 3705 3678 3646 3632 3645 3673 3693 3728 3742 3756 3766 3771 3769 3754 3750 3713 3678 3631 3558 3499 3433 3321 3200 3058 3086 3141
2424 2477 2513 2551 2519 2583 2621 2693 2775 2829 2833 2814 2785 2948 3070 3161 3116 3074 3063 3161 3291 3386 3504 3688 3882 4046 4107 4286 4568 4394 3806 3334 3173 3198 3333 3480 3606 3719 3789 3795 3794 3778 3762 3775 3781 3791 3787 3791 3796 3781 3771 3764 3730 3706 3657 3609 3558 3496 3404 3318 3274 3338 3448
2248 2236 2121 2108 1947 2068 1988 1791 1691 1522 1354 1322 1310 1367 1538 1714 1895 1999 2228 2388 2529 2807 3072 3482 3729 3968 4090 4278 4541 4488 4322 3905 3236 3108 3066 3309 3491 3652 3770 3840 3875 3871 3868 3840 3821 3809 3805 3796 3772 3757 3741 3724 3719 3702 3672 3628 3590 3539 3492 3455 3529 3680 3788
1885 1794 1686 1499 1481 1568 1546 1520 1447 1355 1280 1200 1133 1043 1004 1151 1275 1338 1362 1596 1866 2150 2666 3210 3659 3958 4080 4303 4588 4696 4412 4157 3920 3464 3019 3015 3244 3473 3666 3814 3861 3903 3906 3866 3835 3786 3772 3712 3694 3698 3676 3666 3677 3681 3677 3656 3667 3707 3788 3926 4027 4105 4181
1495 1504 1332 1356 1468 1480 1454 1392 1293 1223 1122 1034 955 965 1092 1260 1358 1398 1531 1848 2170 2378 2833 3250 3623 3958 4116 4229 4611 4854 4662 4327 4064 3730 3443 3118 3144 3275 3410 3567 3739 3880 3907 3956 3873 3850 3849 3772 3786 3780 3764 3764 3825 3894 3991 4061 4138 4193 4266 4317 4319 4370 4401
1273 1349 1492 1499 1500 1442 1453 1398 1278 1103 1022 960 952 972 1140 1286 1421 1482 1745 2144 2448 2845 3214 3491 3786 3994 4188 4234 4745 4944 4882 4592 4288 3971 3697 3443 3328 3291 3346 3326 3445 3666 3828 3819 3893 3911 3874 3881 3895 3869 3866 3906 4074 4254 4327 4346 4352 4386 4470 4573 4613 4583 4566
1300 1483 1543 1506 1490 1471 1428 1385 1302 1189 995 951 930 996 1199 1382 1489 1646 1802 1964 2194 2718 3339 3664 3845 3979 4143 4291 4723 5035 5114 4994 4633 4266 3963 3743 3607 3532 3462 3458 3403 3428 3672 3840 3915 3874 3969 3987 3957 3979 4073 4263 4357 4428 4590 4646 4710 4718 4725 4731 4689 4665 4583

ECMWFFLT1_con_mucape_057.txt.gz
CAPE
956 920 850 775 734 664 663 731 848 944 1074 1234 1269 1224 1295 1242 1294 1337 1376 1468 1495 1604 1617 1620 1641 1637 1645 1641 1653 1733 1665 1652 1583 1474 1526 1637 1569 1748 1937 1848 2019 2338 2179 2407 2499 2757 3049 3177 3199 3239 3280 3344 3293 3336 3415 3423 3411 3339 3524 3586 3371 3306 3420
943 922 866 802 764 707 704 752 792 890 1119 1207 1234 1290 1245 1329 1442 1595 1522 1664 1645 1689 1666 1557 1620 1674 1659 1684 1677 1768 1739 1689 1641 1578 1529 1730 1885 2046 1907 2003 1996 2345 2498 2392 2611 2974 3105 3133 3043 3173 3196 3281 3169 3353 3314 3383 3410 3428 3266 3654 3475 3466 3236
934 919 916 852 778 750 813 742 803 794 933 1031 1166 1214 1265 1479 1688 1643 1641 1690 1679 1697 1667 1558 1653 1666 1649 1741 1715 1770 1722 1673 1658 1656 1548 1490 1573 1334 1680 1940 1991 2051 2102 2304 2655 2751 2802 2827 3014 3045 3140 3126 2971 3248 3376 3317 3452 3393 3507 3770 3620 3313 3445
882 913 936 920 898 885 888 859 792 679 771 918 1070 1233 1360 1681 1697 1749 1812 1650 1703 1759 1756 1627 1615 1553 1618 1731 1720 1726 1703 1702 1685 1516 1386 1400 1489 1474 1733 1901 1892 1756 1990 2059 2131 2334 2329 2588 2809 2973 3026 3148 3198 3197 3252 3166 3180 3420 3496 3724 3544 3425 3632
873 947 950 990 973 962 944 829 826 772 694 745 929 1185 1316 1573 1505 1608 1632 1560 1551 1651 1629 1622 1502 1534 1641 1664 1610 1628 1677 1713 1706 1574 1546 1508 1678 1745 1743 1501 1643 1628 1698 1780 2001 2380 2525 2659 2589 2742 2954 3079 3138 3256 3271 3296 3239 3461 3523 3620 3558 3449 3571
772 950 966 1027 1030 994 926 887 841 760 694 669 810 1064 1224 1338 1306 1394 1462 1633 1599 1610 1707 1690 1600 1664 1688 1615 1554 1553 1684 1761 1799 1801 1754 1726 1894 1744 1653 1580 1590 1623 1574 1772 1767 1925 2331 2408 2401 2560 2610 2688 2741 2669 2894 3122 3120 3257 3454 3570 3498 3430 3295
598 856 957 1026 1003 990 1005 927 842 811 774 704 713 925 1090 1085 1202 1260 1330 1459 1499 1630 1643 1635 1595 1650 1898 1709 1638 1781 1835 1759 1855 1807 1743 1782 1834 1724 1690 1730 1721 1617 1603 1833 1760 1739 1949 2226 2358 2528 2575 2414 2586 2520 2803 3190 3145 3212 3394 3581 3670 3656 3719
573 786 924 994 926 941 974 984 905 841 815 748 683 773 833 938 1078 1155 1282 1352 1448 1502 1607 1593 1598 1785 1883 1776 1759 1778 1829 1748 1739 1777 1741 1709 1730 1781 1762 1810 1848 1813 1811 1866 1876 1805 1750 2051 2144 2381 2475 2364 2573 2797 2848 3196 3421 3229 3247 3479 3621 3619 3609
438 738 794 818 910 902 943 1024 992 908 900 857 781 792 790 855 1024 1111 1218 1295 1393 1436 1498 1507 1564 1643 1933 1955 1981 1961 1864 1786 1875 1882 1878 1740 1748 1686 1647 1777 1835 1828 1857 1680 1682 1844 1723 1906 1924 2315 2598 2462 2574 2942 2920 3150 3153 3162 3231 3388 3607 3686 3522
364 675 811 746 774 789 921 1012 1105 1109 1061 1018 965 940 803 831 955 1051 1151 1254 1335 1373 1441 1434 1490 1600 1952 1961 1887 1878 1942 1980 1928 1804 1802 1712 1729 1703 1637 1640 1755 1863 1776 1663 1624 1773 1847 1883 1987 2328 2720 2604 2732 2894 2889 2964 3007 3063 3205 3414 3560 3653 3756
304 719 890 700 764 863 984 1043 1180 1369 1333 1370 1270 927 952 863 888 960 1158 1210 1280 1331 1385 1442 1496 1580 1767 1775 1763 1784 1909 1888 1870 1842 1812 1727 1688 1733 1680 1655 1670 1787 1735 1664 1608 1726 1888 2049 2116 2368 2695 2428 2580 2746 2843 2851 3000 3082 2936 3064 3246 3450 3458
199 676 999 828 843 887 928 1176 1424 1628 1687 1575 1178 972 1100 1124 950 918 1039 1185 1217 1307 1406 1429 1467 1537 1655 1673 1675 1804 1830 1902 1821 1792 1791 1750 1736 1733 1724 1700 1680 1726 1756 1708 1709 1749 1801 2024 2118 2189 2488 2466 2496 2668 2867 2925 3026 3102 3034 2843 2983 3262 3271
12 252 705 644 942 898 1062 1424 1641 1846 1892 1383 1115 999 1130 1029 964 910 1145 1204 1171 1279 1353 1445 1493 1630 1603 1617 1617 1830 1848 1854 1832 1855 1798 1847 1786 1788 1792 1739 1697 1672 1745 1735 1764 1779 1796 1852 2110 2220 2319 2571 2576 2545 2787 2926 2951 3083 3138 3042 3065 3210 3338
2 29 130 566 778 964 1181 1467 1684 1775 1803 1397 1130 1105 1075 1039 1012 1004 1197 1200 1160 1218 1339 1458 1561 1685 1729 1698 1753 1915 1894 1869 1892 1933 1934 1910 2005 1979 1844 1784 1739 1780 1766 1851 1841 1803 1806 1824 1918 2228 2287 2407 2548 2612 2722 2904 2892 3028 3129 3126 3077 3157 3244
0 0 66 255 871 1268 1242 1179 1556 1882 1662 1517 1237 1196 1146 1104 1102 1135 1357 1217 1190 1202 1342 1538 1592 1733 1725 1786 1877 2097 2074 2015 2000 2074 2107 2115 2234 2191 2065 1912 1876 1863 1882 1935 1926 1844 1865 1884 1878 2063 2264 2261 2489 2589 2617 2653 2735 2727 2936 3044 3109 3084 2997
0 0 0 31 470 790 1364 1170 1374 1815 1953 1838 1356 1354 1228 1261 1340 1318 1323 1230 1196 1283 1350 1555 1676 1834 1722 1764 1982 2235 2199 2238 2206 2260 2336 2320 2519 2443 2289 2030 1982 1887 1953 2003 2004 1992 1977 1994 2007 2011 2132 2281 2454 2594 2601 2594 2639 2571 2237 2426 2888 3115 2958
19 0 0 0 400 754 1105 1251 1374 1703 1870 1810 1612 1549 1364 1421 1413 1379 1247 1266 1284 1356 1326 1499 1774 1736 1668 1838 2033 2231 2244 2524 2551 2526 2478 2447 2458 2434 2415 2163 2092 2061 2130 2107 2091 2089 2176 2172 2096 2060 2069 2178 2273 2418 2456 2517 2526 2222 1981 1866 1892 2536 3086
776 6 0 0 0 365 994 1096 1432 1588 1641 1505 1462 1507 1432 1682 1414 1325 1226 1341 1298 1335 1363 1521 1639 1610 1747 1781 2064 2288 2401 2290 2395 2396 2498 2510 2452 2485 2397 2218 2152 2167 2239 2226 2178 2298 2239 2301 2196 2283 2136 2088 2188 2239 2354 2479 2209 2006 1830 1708 1657 1682 2502
1928 865 8 0 0 196 632 798 1180 1533 1329 1368 1324 1353 1394 1625 1438 1495 1420 1459 1339 1403 1466 1442 1521 1693 1982 1946 2208 2486 2389 2313 2520 2483 2452 2466 2433 2435 2442 2408 2334 2308 2323 2200 2195 2231 2370 2295 2200 2288 2315 2242 2393 2360 2309 2440 2169 1901 1738 1652 1588 1603 1729
2225 1821 621 9 0 0 160 965 1160 1419 1446 1508 1514 1379 1399 1452 1411 1499 1456 1546 1519 1464 1548 1580 1573 1726 1849 1966 2154 2376 2405 2564 2498 2457 2492 2526 2517 2518 2489 2460 2416 2268 2133 2141 2242 2329 2400 2223 2281 2363 2507 2463 2465 2564 2516 2444 2262 1980 1760 1638 1602 1610 1615
2170 2238 1018 40 0 0 401 1292 1462 1625 1620 1549 1434 1429 1427 1456 1507 1630 1606 1680 1708 1682 1947 1813 1807 1906 2002 2126 2376 2471 2437 2502 2489 2549 2586 2636 2576 2547 2522 2468 2440 2322 2210 2176 2271 2439 2462 2338 2312 2368 2444 2457 2359 2444 2510 2346 2140 2025 1825 1698 1648 1631 1668
2077 2214 1740 135 26 222 960 788 1250 1466 1627 1468 1445 1403 1501 1542 1524 1583 1617 1738 1732 1753 1974 2175 2113 2133 2162 2349 2239 2388 2476 2487 2588 2665 2725 2692 2602 2588 2583 2558 2592 2568 2462 2366 2346 2391 2371 2476 2369 2422 2493 2502 2419 2306 2296 2257 1769 1732 1709 1679 1657 1653 1662
1909 2290 1843 753 348 628 1351 1178 1473 1241 1764 1465 1448 1593 1483 1428 1485 1467 1574 1630 1779 1911 1955 1998 2364 2367 2327 2366 2294 2418 2522 2522 2609 2742 2773 2776 2697 2639 2602 2642 2689 2689 2650 2557 2467 2474 2493 2533 2501 2544 2583 2562 2488 2446 2397 2379 2032 1617 1482 1433 1462 1513 1548
2226 2277 1210 473 784 1283 1465 1418 1493 1938 1433 1609 1522 1485 1496 1581 1553 1583 1713 1708 1869 1911 1952 2143 2461 2410 2740 2650 2587 2663 2702 2721 2731 2804 2775 2813 2829 2771 2698 2712 2733 2722 2708 2626 2517 2491 2583 2602 2603 2613 2608 2532 2536 2479 2566 2478 2346 1877 1727 1627 1527 1386 1491
2260 2359 1494 1033 913 994 1078 1629 1537 1501 1683 1666 1545 1625 1795 1693 1639 1716 2020 2027 2015 2089 2129 2392 2642 2928 3062 2876 2829 3098 3056 3023 2998 2945 2919 3017 2954 2854 2885 2931 2922 2835 2893 2745 2644 2639 2758 2624 2648 2689 2712 2618 2526 2279 2307 2528 2391 2151 2104 2034 1938 1771 1759
2256 2372 2514 1194 1134 1242 1886 2303 2148 1651 1678 1541 1751 1840 1900 1758 1907 2144 2270 2161 2018 2069 2378 2580 2971 3084 2843 2759 3023 3234 3243 3094 3162 3100 2982 3106 3068 3029 3101 3134 3039 3064 3058 2847 2704 2733 2787 2766 2722 2754 2792 2645 2485 2522 2553 2529 2535 2489 2409 2343 2243 2091 1942
2177 2399 2562 2679 2416 1585 1974 2031 1845 1619 1502 1915 2184 1642 1761 1855 2007 2379 2565 2306 2328 2380 2546 2816 3253 3334 3259 3182 3191 3289 3351 3236 3274 3239 3186 3228 3295 3254 3256 3308 3237 3120 3056 2857 2759 2821 2932 2956 2787 2602 2665 2753 2810 2877 2882 2848 2803 3009 2707 2614 2504 2359 2216
2050 2257 2434 2722 2930 2933 1831 1609 1943 1740 1656 2306 1877 1716 1836 2140 2760 3098 3009 2621 2577 2743 2585 3052 3534 3394 3587 3751 3346 3340 3497 3524 3491 3379 3308 3391 3468 3521 3434 3328 3161 3135 3197 2960 2965 3048 3088 3128 2893 2926 2969 3015 3074 3067 3107 3096 3064 3058 2991 2904 2787 2652 2503
1872 1882 2064 2391 2542 2627 2936 2797 2259 1939 2020 1791 1722 1860 2016 2183 3046 3040 3148 2948 3026 2730 3191 3522 3393 3688 3724 3790 3710 3847 3854 3853 3811 3569 3351 3456 3562 3578 3569 3558 3381 3352 3417 3362 2985 3002 3049 3399 3153 3096 3126 3148 3167 3184 3202 3241 3236 3238 3234 3170 3087 2961 2819
1938 1849 1797 1968 1936 2217 2657 3009 3141 3136 2285 1758 2022 2301 2184 2671 3553 3490 3257 3448 4628 4097 4054 4123 4128 4115 3934 3874 3868 4013 3969 4008 3686 3462 3410 3583 3743 3732 3761 3810 3709 3665 3701 3683 3346 3525 3481 3175 3429 3221 3230 3254 3277 3294 3313 3325 3339 3374 3381 3365 3321 3229 3088
2155 2113 2086 2028 1962 2047 2154 2521 2760 2754 2889 3167 3527 3441 3816 3830 3776 3640 4119 4604 4551 4773 4552 4570 4366 4097 3947 3747 3931 4133 4084 4053 3803 3818 3806 3850 3938 4012 4025 4073 3982 3912 3992 3921 3772 3670 3594 3712 3451 3314 3344 3363 3393 3418 3443 3453 3477 3488 3502 3481 3432 3367 3265
2531 2477 2405 2332 2312 2150 2024 2160 2197 2426 2448 2506 2860 3586 4162 4090 3946 4173 4196 4013 4536 4923 5254 5014 4671 4407 4048 4021 4153 4138 4097 4293 4139 4164 4069 4122 4111 4100 4184 4024 4012 3953 4130 3991 3886 3919 3886 3866 3733 3606 3441 3459 3474 3494 3526 3563 3591 3600 3593 3554 3501 3420 3327
2497 2638 2761 2707 2525 2437 2371 2308 2227 2127 2045 2110 2137 2420 2799 3173 3483 3636 3574 3782 3882 4326 5010 5286 5315 5153 5055 4758 4074 4138 4104 4224 4191 4244 4198 4315 4169 4216 4333 4264 4338 4244 4331 4295 4098 4045 3966 3800 3835 3745 3660 3474 3501 3816 3843 3616 3634 3636 3617 3588 3536 3464 3372
2378 2582 2706 2734 2796 2838 2695 2556 2382 2285 2196 2176 2234 2330 2381 2414 2474 2783 3111 3241 3831 4502 4912 5197 5350 5343 5341 5022 4732 4392 4372 4330 4117 4236 4394 4695 4703 4642 4606 4559 4496 4487 4441 4346 4238 4282 4136 4080 3955 3830 3855 3847 3928 4010 4061 3881 3710 3634 3627 3611 3582 3518 3423
2272 2309 2470 2604 2848 3019 3099 2850 2725 2590 2483 2470 2539 2580 2614 2629 2827 3154 3392 3518 3630 4477 5210 5323 5017 5072 5438 5629 5499 4950 4321 4248 4373 4362 4458 4800 5186 4338 4300 4449 4791 4854 4605 4398 4627 4477 4368 4318 4070 4100 4027 4009 4110 4118 4183 4129 3928 3753 3580 3585 3553 3507 3447
2189 2284 2291 2408 2584 2837 3083 3106 3100 3027 2918 2804 2829 2904 2964 2919 2920 3108 3325 3478 3606 3941 5070 5166 5304 5362 5134 5327 5806 5467 4655 4393 4226 4242 4246 4295 3704 3663 3709 3780 3984 4123 4145 4413 4080 3908 3846 3828 4669 4861 4328 4216 4281 4498 4512 4530 4253 3553 3580 3583 3554 3510 3483
2286 2296 2338 2283 2486 2592 2750 2902 3070 3161 3203 3197 3188 3126 3235 3194 3238 3213 3306 3467 3564 3758 4570 5136 5147 5257 5280 5363 5477 5188 5101 4611 4584 4760 4512 3709 3284 3232 3354 3414 3530 3668 3800 3819 3912 3829 3728 3713 3723 3721 3751 4346 4462 3668 3629 3619 3643 3744 3777 3788 3765 3712 3686
2089 2193 2278 2340 2336 2471 2518 2581 2713 2696 2820 2769 2726 2893 2926 2989 3009 2977 2908 2924 3043 3428 3977 4520 5274 5439 5330 5313 5015 4543 4886 4991 4484 3947 3681 3460 3243 3150 3069 3133 3208 3244 3447 3611 3710 3709 3783 3818 3826 3809 3807 3806 3981 3706 3714 3768 3856 3907 3906 3897 3917 3952 3977

ECMWFFLT1_con_mucape_060.txt.gz
CAPE
1267 1394 1502 1612 1699 1757 1841 1967 2074 2036 2073 2074 2121 2009 1931 1959 2026 2226 2347 2671 2848 3088 3036 2969 2710 2582 2296 2108 2118 2390 2325 2265 2236 2222 2209 2082 1696 1556 1737 1608 1589 1866 1478 1656 2082 2109 2365 2554 2153 2546 2766 3022 3172 3162 3284 3353 3364 2969 2880 3028 2874 2747 2866
925 1150 1338 1458 1585 1695 1838 2003 2093 2017 2019 2006 2098 2116 1954 1972 2133 2213 2373 2611 2832 2963 2988 2959 2770 2657 2490 2309 2209 2360 2310 2242 2238 2162 2131 2187 2100 1907 1893 2006 1680 2129 2174 1536 1636 2356 2388 2874 2749 2714 3082 3088 3010 3115 3018 3294 3280 3034 2469 3012 3005 3010 3003
438 928 1256 1411 1501 1581 1813 1885 2054 2045 2033 1999 2056 2069 1997 2093 2163 2309 2353 2554 2800 2980 2938 2947 2933 2729 2611 2357 2391 2405 2380 2372 2369 2252 2113 2059 2222 1765 1904 2119 2061 1910 2140 1892 1819 2214 2791 2903 3302 3076 2963 2745 2304 2750 3152 3025 3254 2987 2785 2982 3074 2783 3199
174 572 1080 1403 1531 1683 1741 1843 1976 1986 1976 1931 1970 2066 2110 2193 2184 2240 2384 2522 2762 2869 2996 2903 2822 2710 2714 2726 2670 2808 2637 2589 2485 2346 2185 1938 2113 2018 1959 2216 2244 1704 1952 2016 1824 1868 1981 2628 3070 3344 3206 2821 2750 2564 2676 2733 2564 2953 2903 3124 2907 2795 3181
46 260 729 1313 1548 1655 1712 1694 1900 2014 1931 1860 2000 2174 2225 2248 2186 2198 2314 2390 2509 2716 2768 2771 2602 2610 2676 2752 2732 2764 2792 2757 2598 2482 2364 2121 2122 2290 2065 2104 2162 1873 1508 1828 1952 2243 2334 2538 2713 3060 3361 3286 2908 2948 2995 3114 2841 2905 2924 3006 2936 2614 2866
106 411 706 1128 1494 1590 1699 1701 1707 1817 1874 1908 1933 2049 2116 2143 2145 2085 2255 2327 2396 2491 2646 2681 2537 2580 2625 2618 2673 2690 2837 2773 2513 2568 2650 2416 2332 2346 2338 2180 2053 2200 1520 1968 2044 2200 2667 2631 2528 2548 2792 3094 2814 2153 2471 2732 2721 2496 2844 3020 2906 2470 2356
49 417 854 1126 1449 1567 1705 1689 1618 1693 1787 1770 1850 2076 2125 2037 2077 2072 2073 2291 2303 2386 2433 2488 2419 2406 2706 2636 2688 2739 2867 2911 2892 2859 2689 2531 2433 2439 2443 2329 2291 2321 2100 2070 2228 2194 2541 2921 2793 2530 2714 2738 2693 2335 2166 2703 2589 2361 2578 3067 3262 3061 2979
19 394 1093 1258 1438 1540 1676 1742 1649 1671 1718 1713 1744 1958 1958 1881 1953 1988 2108 2188 2206 2202 2310 2213 2345 2353 2588 2600 2551 2642 2846 2810 2862 2915 2723 2546 2456 2496 2491 2536 2611 2490 2471 2152 2415 2431 2462 2942 2838 2668 2678 2697 2781 2930 2672 2831 3353 2724 2421 2777 3216 3224 2769
16 438 1134 1237 1402 1427 1556 1717 1732 1626 1746 1733 1726 1844 1874 1936 1887 1956 2104 2113 2137 2023 2128 2036 2137 2220 2579 2635 2692 2742 2738 2726 2868 2847 2744 2538 2392 2390 2458 2675 2640 2488 2442 2287 2266 2678 2545 2655 2661 2801 2954 2905 2888 3163 3164 3218 3420 3352 2724 2791 3198 3447 2792
16 477 1334 1343 1297 1248 1463 1691 1860 1843 1849 1815 1726 1817 1938 1928 2018 2076 2077 2108 2072 1958 2005 2063 2089 2206 2527 2665 2659 2685 2697 2751 2746 2629 2661 2456 2373 2344 2441 2411 2462 2527 2497 2393 2202 2420 2734 2531 2587 2882 3229 3288 3204 3211 3432 3414 3361 3369 3045 3091 3289 3414 3434
0 496 1396 1378 1316 1347 1502 1677 1876 2006 1902 2020 1845 1669 1883 1916 1884 2032 2003 1984 1941 1943 1904 2091 2166 2224 2417 2596 2570 2580 2689 2704 2612 2692 2672 2518 2223 2256 2328 2209 2200 2451 2547 2439 2257 2201 2678 2726 2735 2945 3273 3351 3403 3372 3490 3577 3670 3493 2818 2798 3081 3244 3060
370 657 1573 1806 1497 1423 1504 1770 2092 2220 2194 2094 1806 1629 1853 2043 1982 1938 1962 1930 1888 1992 2053 2076 2086 2166 2382 2566 2588 2605 2602 2682 2593 2565 2620 2547 2294 2215 2184 2144 2079 2348 2578 2537 2384 2248 2327 2840 2824 2788 3249 3517 3519 3478 3654 3678 3676 3633 3188 2456 2578 3027 3030
15 480 1243 1698 1762 1492 1720 2083 2308 2340 2337 2053 1851 1706 1780 1882 1890 1803 1943 1944 1886 1949 1997 2068 2145 2311 2354 2572 2596 2653 2610 2648 2583 2522 2448 2576 2354 2218 2250 2172 2042 2090 2447 2594 2474 2326 2187 2438 2900 2953 3046 3541 3577 3360 3635 3814 3707 3745 3772 3210 2658 2827 3204
12 8 202 714 1349 1509 1679 2039 2338 2526 2427 2120 1884 1740 1720 1797 1831 1814 1935 2022 1953 1939 2007 2118 2249 2350 2457 2672 2657 2702 2564 2635 2648 2617 2627 2652 2750 2586 2356 2305 2119 2234 2370 2691 2631 2374 2157 2178 2523 2993 3044 3288 3494 3424 3446 3775 3837 3868 3938 3858 3201 2849 3159
0 0 2 182 1069 1609 1802 1841 2526 2746 2572 2313 2013 1830 1763 1786 1759 1836 1907 2022 2000 1896 1964 2151 2222 2342 2404 2635 2846 2882 2821 2769 2748 2766 2887 2923 3092 2934 2699 2517 2476 2433 2545 2789 2765 2435 2198 2153 2229 2710 3057 3111 3323 3350 3265 3369 3618 3632 3867 3914 3809 3284 2840
75 0 0 2 432 1278 2004 2082 2730 3148 3034 2689 2081 1965 1792 1812 1846 1779 1871 1912 1898 1951 1967 2122 2251 2376 2437 2650 2812 2898 2946 3016 2998 3039 3060 3102 3232 3258 3071 2769 2786 2606 2747 2846 2886 2747 2530 2441 2441 2476 2868 3134 3312 3390 3319 3249 3372 3385 3040 3332 3641 3644 2829
76 343 265 0 2 580 1485 1998 2326 3138 3139 2869 2341 2049 1898 1869 1844 1733 1703 1801 1920 1986 2016 2090 2335 2414 2412 2692 2857 2942 3049 3128 3160 3252 3348 3349 3402 3416 3346 3086 2910 2853 3040 3037 3084 3047 2986 2867 2737 2615 2599 2942 3276 3396 3321 3222 3156 2863 2697 2770 2896 3489 3816
1237 1851 1808 1536 1105 130 508 1548 1744 2443 2906 2688 2294 2084 1973 2011 1928 1844 1744 1788 1857 1888 1875 2082 2344 2450 2660 2690 2931 3154 3251 3236 3390 3432 3456 3499 3559 3663 3580 3275 3124 3127 3200 3167 3158 3298 3142 3090 3029 3010 2723 2765 3012 3112 3228 3280 2871 2652 2550 2430 2456 2672 3294
1859 1897 2161 2538 2711 2550 915 305 1179 1883 2362 2248 2116 1926 1978 2082 1954 1972 1865 1916 1900 1870 1929 2050 2256 2540 2873 2712 2937 3353 3490 3459 3568 3630 3671 3737 3731 3819 3728 3492 3336 3268 3215 3192 3265 3343 3444 3339 3272 3240 3101 2845 2952 2948 3012 3237 2770 2579 2422 2243 2100 2019 2210
1950 2136 2336 2402 2532 2602 2660 1699 521 1057 1887 2098 2142 1900 1968 2080 1996 2030 1875 1865 1972 1937 1998 2106 2344 2669 2821 2870 3151 3578 3675 3634 3691 3762 3831 3894 3919 3942 3870 3655 3501 3286 3194 3252 3372 3408 3572 3355 3334 3367 3450 3257 3104 3156 3121 3175 2706 2555 2363 2159 1973 1858 1780
2024 2238 2390 2553 2713 2883 3022 2752 1391 727 1349 1739 1765 1858 1904 2038 1952 2123 1950 2006 2055 2019 2178 2165 2440 2702 2882 2977 3324 3759 3802 3780 3854 3866 3929 3953 3950 3916 3865 3895 3699 3394 3246 3225 3299 3487 3596 3616 3466 3462 3598 3552 3321 3256 3152 3120 2586 2506 2409 2183 1947 1768 1631
1841 1996 2258 2446 2601 2778 2987 2825 1592 478 823 1862 1600 1573 1773 1983 2023 1980 2014 2042 2011 1952 2039 2317 2519 2644 2921 3011 3343 3765 3793 3786 3849 3877 3890 3989 3945 3869 3820 3802 3756 3676 3348 3200 3245 3415 3500 3626 3522 3594 3622 3619 3524 3269 3238 3074 2518 2504 2411 2279 2072 1832 1604
1768 2007 2120 2323 2464 2613 2774 2657 1635 416 667 1542 1430 1301 1674 1841 1942 1953 1939 1912 1995 2084 2089 2226 2573 2762 2982 3053 3187 3556 3638 3625 3784 3823 3818 3858 3833 3778 3771 3742 3812 3733 3589 3421 3321 3311 3392 3585 3485 3562 3492 3509 3633 3565 3529 3355 3220 2481 2334 2222 2116 1937 1875
1692 1895 2062 2244 2584 2726 2259 1471 966 493 680 1599 1500 1317 1601 1763 1899 1941 1993 1914 2039 2102 2090 2352 2658 2814 3127 3122 3291 3541 3693 3633 3624 3693 3706 3776 3822 3819 3638 3754 3785 3868 3657 3507 3433 3236 3341 3450 3579 3623 3496 3460 3573 3519 3607 3440 3229 2686 2330 2127 2014 1919 2236
1756 1856 2032 2190 2554 2589 1493 957 961 674 954 1596 1518 1390 1537 1792 1987 1914 2027 2175 2041 2159 2282 2484 2720 2924 3246 3278 3246 3548 3737 3606 3657 3704 3686 3786 3847 3718 3715 3755 3796 3822 3819 3668 3486 3295 3404 3376 3491 3569 3558 3405 3355 3111 3260 3548 3248 2792 2556 2232 1978 1842 2418
1840 1991 2074 2195 2506 2645 1583 1293 1458 972 1035 1788 1764 1329 1888 1882 1940 2095 2207 2262 2206 2258 2395 2648 2995 3197 3326 3275 3403 3680 3814 3630 3709 3705 3626 3769 3795 3795 3898 3890 3888 3902 3829 3676 3476 3390 3386 3331 3346 3446 3558 3449 3347 3395 3185 3182 3705 2964 2738 2447 2190 1941 2240
2101 1960 2174 2289 2471 2771 2058 1425 1592 1347 1578 1558 1615 1545 1797 1920 2043 2253 2611 2537 2554 2487 2571 2829 3182 3368 3507 3489 3484 3665 3852 3645 3738 3695 3649 3836 3935 3895 3826 3862 3857 3800 3758 3684 3454 3457 3579 3439 3386 3279 3446 3382 3591 3572 3396 3385 3429 3730 2905 2710 2430 2172 2120
2029 1704 2087 2420 2425 2436 2097 1894 1870 1565 1181 1484 1815 1950 2146 2099 2289 2655 2898 2670 2576 2650 2588 2885 3370 3540 3759 3686 3580 3753 3878 3848 3891 3816 3713 3713 3955 3986 3930 3945 3853 3863 3890 3554 3581 3689 3735 3773 3551 3533 3506 3570 3638 3746 3783 3557 3185 4163 3057 2783 2589 2390 2363
2055 2049 1676 2218 2681 2600 2502 1938 1646 1384 1567 1902 1921 1714 1857 2035 2694 2791 2987 2819 2929 2755 2793 3064 3650 3871 3959 3978 3840 4096 4166 4082 4014 3684 3450 3598 3917 4018 3997 4032 3928 3874 3948 3969 3814 3880 3883 4036 3969 3846 3802 3843 3956 3852 3974 4054 3951 3001 3167 2978 2750 2689 2708
1888 1751 1718 1894 2082 2523 2920 2744 1944 1734 1794 2089 1983 2160 2251 2508 3028 3331 3296 3164 3252 3017 3086 3452 4097 4355 4397 4110 4046 4336 4410 4281 3967 3871 3541 3706 3941 4090 4136 4123 4048 4000 4089 4165 4091 3920 3959 3884 3863 3853 3725 3704 3688 3636 3778 4056 4364 3660 3069 2880 2927 2976 2979
1653 1836 2020 2138 1853 2331 2726 2941 2916 1608 2090 2386 2337 2395 2693 3025 3799 3960 3664 3645 3644 3416 3478 4106 4596 4516 4485 4144 4037 4465 4560 4443 4121 4030 3780 3674 3918 4173 4316 4381 4276 4252 4293 4361 4216 4150 4118 4190 3983 3894 3765 3673 3638 3660 3816 3948 3973 4498 3793 3415 3193 3179 3179
1815 1716 1638 1647 2123 2158 2446 2446 3174 3528 3946 2510 2507 2772 3116 3640 4158 4284 3861 3890 3818 3610 4114 4788 4824 4712 4562 4451 4522 4579 4457 4609 4214 4105 3906 3839 3852 4209 4457 4364 4378 4365 4557 4450 4344 4338 4178 4174 4059 4001 3943 3834 4075 3684 4101 4200 4620 4721 4657 4016 3667 3388 3323
1878 1892 1792 1636 1640 2164 2455 2171 2626 3294 3745 3967 4089 3486 3144 3771 4008 4186 4150 4818 3951 4126 5041 4958 4883 4696 4645 4619 4379 4515 4384 4479 4078 4029 3978 4022 3953 4211 4478 4456 4572 4570 4743 4832 4752 4457 4276 4228 4308 4221 3957 4155 4129 4262 3894 4385 4485 4828 4942 4364 3954 3583 3475
1954 1977 1898 1770 1694 1583 1796 2258 2545 2678 2951 3358 3402 3950 4423 4597 4319 4883 5089 4600 4026 4115 5036 4938 4873 4793 4739 4534 4319 4419 4514 4523 4240 4071 4084 4270 4220 4307 4559 4717 4672 4746 4764 4890 4811 4811 4688 4547 4404 4185 3892 4045 4192 4328 4532 4728 4879 4860 5157 4528 4105 3665 3598
1865 2122 2007 2100 1967 1824 1594 1530 1923 2376 2609 2577 2731 3603 4016 4314 4318 4929 5006 4402 4208 4605 4915 4660 4629 4417 4616 4493 4446 4661 4598 4648 4529 4276 4242 4486 4613 4584 5962 6041 4942 4829 4792 4766 5138 4929 4940 4778 4335 4352 4364 4188 4396 4362 5008 4903 4948 5215 4598 5986 4455 5180 3862
1902 2262 2197 2235 2245 2191 1797 1583 1434 1811 2056 2294 2515 2668 3035 3537 3896 4284 4569 5042 5282 5286 5307 5466 5204 5004 4971 4749 4640 4625 4599 4625 4514 4388 4320 4545 4856 5342 4208 4057 4342 4312 4416 4512 4694 4526 4263 4298 4907 5192 5915 4717 4899 5094 5242 5304 4968 4682 4520 4355 4106 3894 3698
1898 2298 2407 2317 2401 2392 2191 1950 1726 1556 1708 2058 2386 2683 2872 3038 3313 3465 3868 4277 4697 4811 5102 5389 4954 4710 5156 5166 4942 4701 4841 4597 4564 4738 4706 4504 4816 5285 4422 4108 4136 4304 4266 4293 4453 4392 4263 4124 4088 4564 4607 4320 4949 5684 4361 4336 4604 4616 4406 4168 3863 3639 3544
1804 2137 2367 2450 2407 2485 2374 2308 2150 2022 1875 1948 2047 2178 2482 2722 2966 3036 3530 4176 4478 4890 5134 5163 5103 4800 4268 4722 4982 5786 5302 4930 4512 4682 4957 4904 4975 5174 4826 4299 4057 3999 4124 4225 4272 4325 4382 4305 4059 3968 4174 4221 4212 4344 4349 4208 4087 3885 3778 3674 3632 3587 3574

ECMWFFLT1_con_mucape_066.txt.gz
CAPE
1087 1068 1312 1036 1044 888 889 1091 1274 790 1052 1379 1724 1299 1112 1146 1812 2024 2092 2647 2975 3191 3217 3018 3055 2877 2346 1979 2180 1826 1462 1174 1042 1138 936 903 458 1016 2007 1670 1782 1944 1576 1960 2110 2138 2370 2101 2639 2295 2903 3459 3297 3406 4105 3820 3825 3407 3609 3210 3222 3491 3018
677 666 810 1405 1547 1531 1416 1457 1424 1306 1437 1898 1972 1892 1307 1355 1949 2060 2289 2814 3114 3211 3140 3132 3251 3039 2748 2136 2089 1945 1648 1429 1140 1202 980 1072 876 1124 1892 2083 1849 2150 1788 1189 2058 2238 2524 2258 2455 2744 2871 3362 3224 3680 3481 4094 3918 3859 3455 3907 3779 3810 3710
659 376 1034 1596 1327 1212 1718 1307 1536 1423 1336 1384 1209 1171 1378 1863 2003 2131 2530 2938 3217 3289 3193 3260 3344 3370 2904 2761 2361 2223 1922 1752 1405 1372 902 909 1026 249 1019 1998 2079 2025 1545 1130 1965 2246 2026 2341 2341 2696 2713 2621 2570 3657 3631 3765 4053 3783 3761 4075 3719 3625 3976
745 856 814 1000 1556 1573 1557 1497 1202 1039 1007 936 874 1285 1807 1948 1882 2321 2599 2786 3004 3194 3328 3255 3255 3201 3143 3121 2732 2585 2410 1968 1569 1069 609 473 751 370 564 1361 1937 1246 1531 1008 504 873 1028 1736 2603 2561 3077 2758 2974 3268 3017 3007 3200 3698 3669 3786 3559 3644 4101
461 446 539 991 871 856 1173 1434 1902 2273 2415 1398 1410 1901 2062 2212 1980 1924 2355 2177 2632 3054 2872 2821 2947 3129 3237 3080 2340 2600 2620 2150 2029 1308 906 692 790 550 536 418 1202 1105 1106 1218 842 630 1239 2258 2261 2545 2790 3053 2924 3115 3117 3290 3258 3800 3686 3708 3635 3335 3632
391 428 890 1013 1304 1678 1570 1301 1620 1957 1839 1543 1204 1822 2064 1851 1505 1637 1689 2459 2728 2819 2902 3070 3001 3065 3231 2888 2769 2994 2694 2529 2186 2070 1560 1372 1392 980 698 731 682 900 678 1272 1212 934 874 2425 1810 2418 2504 2481 2120 1960 2241 3010 2761 3318 3601 3630 3434 3129 2771
478 416 716 1213 1204 1051 1256 1910 1905 1603 1587 1432 2046 2501 2198 1964 1840 1982 1891 2458 2594 2896 3086 3180 2814 2530 3171 3355 3076 3046 2942 2599 2605 2045 2124 1534 1593 1461 1056 938 837 905 808 1058 1182 1163 891 1099 1690 2145 2575 2344 2252 1952 1950 2563 2802 2644 3169 3427 3768 3732 3487
687 701 684 1158 792 1085 1507 1581 1386 1427 1450 2060 1984 2068 1964 1700 2110 2154 1706 2148 2694 2657 2650 2923 2966 3187 3456 3411 2963 2759 2908 2701 2279 2164 2159 1668 1336 1379 1550 1245 1052 1083 1277 1148 1321 1432 1091 1052 1142 2037 2370 2536 2931 2686 2434 2819 3268 2700 2895 3479 3662 3628 2954
136 345 218 1502 1400 1148 1010 1139 1073 1499 2084 1943 1680 1646 1670 1627 1578 1670 1797 2280 2652 2746 2806 2894 3103 3051 3494 3228 2890 2956 3018 2682 2704 2427 2249 1921 1592 1094 1011 1352 1153 1158 1365 1016 821 1383 1325 1488 988 1303 2304 2430 2945 3209 2594 3130 3078 2767 2762 3134 3519 3458 3022
26 107 291 717 1082 870 1062 1354 1522 1902 2054 1894 1978 1870 1675 1583 1608 1562 1854 2196 2469 2861 2933 3034 3136 3076 3344 3156 2584 2660 3015 3094 2927 2364 2216 2003 1855 1546 1018 1089 954 1152 1124 1011 922 1033 1381 1666 1504 1728 2211 2624 2957 3352 2800 2858 2903 2700 2745 3183 3408 3445 3479
50 251 516 823 936 1103 1162 912 1506 2173 2153 2366 2170 1778 2145 2031 1962 1836 1866 2044 2037 2724 3048 3010 2955 3037 3114 2740 2513 2461 2966 2625 2310 2330 2236 2136 1842 1576 1098 1036 1157 1072 804 908 890 909 1178 1616 2152 2403 2674 2455 2693 3223 3183 2792 2820 2791 2459 2701 3066 3387 3367
87 480 517 689 987 839 798 967 1540 1854 1926 2218 2448 2283 2213 2104 1906 1760 1640 1550 1866 2392 2627 3073 3135 2970 3035 2766 2498 2664 2603 2370 2149 2440 2395 1978 1614 1213 1046 922 1217 1318 1438 1172 1280 1001 1024 1491 1723 2489 3009 2665 2535 2803 3128 3101 3049 3020 2760 2472 2563 3062 3045
312 652 770 663 1249 929 1000 1622 1876 2058 2399 2223 2027 1671 1992 2228 1971 1868 2117 1882 1797 1952 2359 2978 3014 3231 2802 2659 2513 2419 2388 2159 2388 2288 2126 1915 1701 1458 1305 941 880 1204 1466 1373 1507 1129 717 1158 1695 2054 3041 3230 2959 2697 2980 3278 3291 3390 3405 3128 2856 2890 2921
143 529 391 868 1136 1077 1666 1799 1971 2576 3177 2716 1776 1572 1699 1930 1685 1766 1822 1802 1922 1908 2083 2568 2818 3049 3050 2915 2567 2550 2345 2545 1902 2214 2449 2256 2074 1759 1606 1224 977 1267 1679 1882 1711 1277 669 770 1692 2222 2478 3273 3229 3004 3025 3431 3465 3645 3795 3579 3235 2992 2905
57 38 273 638 1465 2574 3129 3434 3470 3342 2930 2268 1715 1726 1682 1939 1957 2066 1977 1492 1489 1784 1817 2427 2902 2803 2896 3004 2869 2851 2686 2555 2488 2714 2925 2735 2501 2322 2008 1711 1482 1505 1826 2159 1744 1452 1161 925 1382 2076 2300 2756 3283 3222 3010 3174 3398 3475 3855 3738 3369 2872 2693
121 62 189 338 1116 2292 2929 2965 3463 3398 3010 2672 1868 1819 1733 2090 2533 2542 2424 2326 1698 1987 1714 2076 2763 2645 2618 2909 3000 3022 2856 2964 2883 2741 2931 2965 2916 2745 2448 1976 1893 1516 1838 2245 2131 2137 2041 1468 1310 1960 2369 2571 3275 3431 3127 2920 3073 3082 3205 3383 3416 3035 2145
237 135 80 418 1071 872 1596 1625 2193 3935 3191 2696 2307 1855 1604 2614 2468 2399 2335 1994 1900 1754 1486 1591 2611 2590 2615 2925 3019 3173 3091 3288 3238 3083 3050 3112 3242 3012 2813 2386 2068 1962 1958 2102 2392 2282 2520 2273 1700 1470 2192 2379 2676 3120 3040 2819 2590 2996 2980 3115 3202 3045 2497
89 178 140 300 379 454 574 712 1557 2237 2291 3081 2678 2440 2248 2622 2334 2116 1792 2056 2198 1811 1652 1408 2128 2197 2492 3013 3369 3523 3363 3294 3386 3235 3201 3377 3487 3250 3034 2657 2413 2270 2186 1936 2254 2512 2576 2462 2177 1736 1831 2419 2437 2521 3027 3210 2736 2848 2942 3050 3260 3103 2971
63 133 298 267 334 526 397 951 1208 2210 1239 1191 2306 1890 1790 2304 2476 1668 1984 2281 1970 2071 1890 1793 1872 2445 2742 3032 3503 3681 3533 3404 3504 3450 3324 3401 3572 3464 3168 2873 2727 2514 2307 2000 2046 2559 2660 2457 2311 2237 1903 2114 2733 2628 2913 3091 2672 2636 2892 2900 3066 3132 2934
178 228 1054 1191 609 350 170 696 1410 1826 2440 2533 1877 1191 985 1623 1260 989 1186 1376 1639 1768 1763 1908 1971 2418 2848 3046 3711 3816 3729 3628 3638 3595 3465 3449 3597 3594 3298 2888 2803 2536 2352 2186 2133 2692 2734 2545 2456 2410 2427 2222 2722 2857 2827 3015 2814 2559 2640 2842 2941 3042 2917
272 364 452 735 1170 1262 1482 1348 1761 1614 1401 1206 1418 1915 702 656 708 611 1677 1970 1710 1792 2698 2686 2894 2730 2881 3154 3844 4109 4009 3905 3807 3751 3689 3626 3683 3718 3481 3130 2852 2743 2232 2074 2154 2530 2992 2646 2454 2576 2636 2383 2345 3281 2871 2659 2859 2633 2510 2730 2876 2986 2910
94 133 236 375 668 1012 1355 953 1264 1481 1933 2673 2132 2212 1701 688 551 600 1023 1201 998 1452 1964 2457 3012 3038 3006 3312 4039 4226 4221 4063 3993 4011 3906 3814 3782 3801 3677 3410 3124 2991 2704 2259 2095 2266 3078 3063 2634 2910 2885 2812 2467 2399 2970 2259 2675 2702 2600 2598 2816 2932 2883
23 43 61 151 266 508 913 1302 1394 1295 1778 1828 1589 1824 1436 1392 540 580 639 906 792 1536 1452 1644 2186 3475 3362 3457 3950 4318 4326 4180 4120 4186 4086 4015 3891 3836 3761 3629 3382 3193 2935 2632 2424 2449 2764 3216 2965 3293 3193 2973 2946 2671 2612 2983 2523 2558 2568 2527 2498 2799 2816
0 0 4 40 119 354 743 947 1163 1356 1272 1424 1804 1830 1336 698 584 391 869 967 1175 1273 1376 1546 2178 3689 3787 3608 3820 4347 4384 4304 4318 4306 4217 4137 3994 3905 3844 3754 3528 3286 3136 2977 2880 2903 2776 3183 3407 3417 3144 2870 2882 3208 3167 2945 3547 2517 2485 2462 2466 2489 2764
0 0 0 1 46 228 598 1028 1695 1944 1798 1840 2086 2192 2526 1379 787 673 1219 1302 1056 1232 1473 1649 2255 3525 3964 3800 3844 4327 4534 4500 4470 4428 4342 4327 4143 4014 4053 4107 3854 3488 3376 3197 3162 3030 3262 3420 3531 3526 3342 2906 3102 2973 3215 2948 4158 2496 2507 2475 2478 2516 2793
0 0 262 255 613 681 646 808 1529 2121 1929 1814 2126 2002 2596 2603 1684 1025 796 1234 1058 1082 1016 1412 2516 3512 3893 3821 3984 4549 4853 4775 4736 4618 4419 4540 4514 4661 4910 4744 4329 3831 3560 3229 2902 2936 3238 3451 3441 3612 3652 3092 3039 3563 3436 3160 3891 2847 2482 2506 2489 2550 2807
0 0 0 107 623 976 1032 1098 1311 1758 1557 1855 2698 2390 2360 2308 1497 1682 1644 1589 1576 1458 1355 1456 2564 3633 4348 4065 3993 4703 5027 4869 4906 4856 4839 4957 4992 5020 4960 4874 4593 4266 3840 3196 2760 2845 3165 3449 3378 3363 3842 3422 3535 3411 3557 3439 3602 3338 2817 2529 2476 2502 2688
0 0 173 454 787 1017 1150 1096 1287 1757 1775 1952 1988 2207 2311 2748 2596 2427 2474 1739 1643 2074 1942 2369 3487 3732 4208 4290 4032 4536 5040 4982 5054 5002 4838 5157 5226 4967 4916 4805 4430 4300 4082 3044 3322 3441 3527 3372 3350 3470 3622 3766 3893 3534 3636 3690 3542 3393 3231 2923 2536 2444 2550
0 0 163 600 895 982 1045 1204 1418 1720 1900 1950 2042 2222 2453 2168 2392 2255 2827 2458 1957 2131 2398 3010 3750 3984 4296 4510 4279 4561 5086 5069 5122 4842 4357 4312 5070 4865 4799 4926 4751 4702 4566 4298 3917 3785 3741 3708 3602 3515 3655 3943 4015 3792 3966 4202 3804 3576 3355 3078 2877 2647 2506
0 31 282 654 1008 1245 1345 1428 1660 2015 2128 2301 2752 3201 3364 3131 2554 2220 2818 3858 3398 2914 3090 4172 4395 4316 4596 4418 4441 4737 5118 5151 4846 4681 4111 4594 4900 4941 4850 4916 4753 4817 4881 4674 4268 3992 3891 3899 3858 3643 3498 3615 3826 3649 3773 4373 4724 3721 3450 3339 3147 3015 2896
0 249 489 870 1168 1238 1308 1373 1836 2239 2325 2553 3134 4305 4967 4250 3165 3028 3827 4407 4013 3498 4238 4764 4650 4412 4601 4602 4602 4992 5350 5180 4851 4684 4599 4675 4711 4901 4984 4933 4756 4859 5018 4846 4533 4185 4041 4098 3964 3849 3561 3478 3624 3756 3968 4245 4547 4245 3482 3333 3311 3258 3174
139 236 602 960 1110 1182 1374 1324 1868 2330 2811 3568 4222 4775 5386 4816 3650 3953 5185 5010 4439 4030 5183 5027 4670 4489 4767 4655 4647 4914 5025 5088 4739 4656 4516 4577 4459 4749 4936 4734 4527 4660 5028 4858 4432 4324 4277 4280 3987 4086 3865 3892 3884 3997 3958 4051 4259 4410 3924 3654 3563 3421 3250
189 396 679 999 1124 1152 1090 1364 1988 2558 3153 3831 4093 4419 5120 5461 3740 5156 5930 5207 4678 4233 5720 5176 4751 4526 4754 4757 4544 4721 4865 4826 4266 4249 4213 4376 4265 4490 4661 4579 4681 4607 4803 4735 4500 4263 4460 4325 4060 4208 4035 3966 3683 3718 3830 3916 4184 4718 3997 3841 3769 3715 3563
333 563 808 952 1013 1046 1090 1219 1847 2521 3001 3320 3773 4216 4920 5493 5137 5298 5114 4573 3714 5005 5777 5189 4682 4743 4796 4659 4462 4446 4756 4790 4266 4218 4119 4180 4439 4197 4351 4654 4476 4610 4776 4574 4492 4299 4147 4167 4046 4078 4050 3892 3690 3834 3971 4059 4034 4175 4692 4044 3930 3882 3788
503 770 995 1085 1037 1066 1182 1313 1659 2398 2702 2897 3416 4028 4285 5290 5365 4538 4606 4580 3809 5755 5354 5133 4581 4783 4913 4647 4554 4688 4404 4746 4486 4409 4212 4080 4602 4721 6479 5162 4695 4462 4420 4346 4724 4270 3937 3794 3729 4016 3916 3872 3892 3936 4062 4042 4030 3963 4086 4172 3997 3917 3873
654 737 928 1122 1093 1184 1321 1403 1553 1926 2569 2878 3326 3518 3932 3998 5261 5484 4613 5295 4776 6134 5344 5155 4940 5005 5040 4742 4721 4759 4514 4692 4559 4491 3910 3734 3925 4138 4038 3992 4038 3928 5059 4541 4258 4144 3725 3696 4103 4182 4038 3946 4161 4070 4108 4082 4092 3790 3574 4084 4070 3920 3766
516 723 982 1043 1063 1135 1239 1424 1466 1673 2327 2854 2798 3155 3650 4116 4086 4434 4591 5486 5636 6039 5730 5560 5065 4867 4770 4581 4425 4326 4377 4441 4315 4234 4146 3864 3679 3961 4097 4094 4118 3966 4160 4307 4071 4060 3856 3650 3815 3910 4055 4627 4831 3814 3878 4268 4275 3956 3791 3970 4134 4167 4163
380 631 947 1092 1054 1160 1238 1353 1459 1725 1956 2396 2509 2481 3056 3380 3571 3668 3724 4168 4416 5705 6216 5652 5220 4902 4693 4608 4512 4188 4160 4501 4086 4060 4263 4404 4005 3863 4043 3963 3918 3944 3993 4192 4114 3939 3683 3622 3713 3742 3862 4046 5305 4355 3845 4172 4380 4278 4107 4014 4146 4246 4287

ECMWFFLT1_con_mucape_069.txt.gz
CAPE
677 911 938 1183 1313 1293 1132 926 610 545 557 827 785 793 1085 1063 1247 1196 1548 1357 1317 1401 1306 1664 1429 947 597 541 631 283 223 364 256 194 256 221 219 3 124 78 756 702 1302 1596 1870 1765 1702 1473 1527 2178 2164 2249 1987 2960 2556 2943 2720 2808 2332 2692 2648 3303 2653
870 811 758 1148 1312 1266 1109 896 683 616 558 756 885 846 1120 1127 1272 1320 1484 1633 1384 1495 1386 1527 1685 1174 733 581 672 487 224 231 333 302 105 160 527 81 154 107 229 1033 1146 1529 1230 1660 1579 1628 1417 1851 2104 2346 2089 2262 3081 2616 2663 2737 2745 2696 2375 2470 3054
777 650 764 1052 1305 1236 1172 967 787 669 548 863 1035 965 1118 1170 1223 1388 1540 1776 1605 1588 1515 1320 1773 1402 942 705 718 675 338 170 251 241 59 104 224 500 498 289 188 688 1079 1541 1478 1220 1531 1186 1790 1609 2108 2253 2182 2225 2810 2809 2665 2698 2678 2843 2787 2582 2684
992 982 1024 1253 1285 1206 1160 1109 857 753 915 971 1150 1080 1108 1161 1131 1362 1636 1894 1802 1828 1729 1369 1638 1599 1172 865 821 780 559 218 164 184 77 44 45 590 875 720 550 610 974 1204 1535 1332 1208 1339 942 2108 2762 2130 2210 2307 2637 2955 2728 2795 2846 2949 2600 3029 2716
1084 1236 1230 1258 1293 1180 1060 1001 974 807 916 1120 1230 1192 1090 1177 1129 1148 1669 1897 1974 1972 1959 1680 1599 1752 1451 1039 922 893 726 366 162 118 97 18 49 28 962 1080 871 879 913 971 1205 1394 1143 1312 1082 1427 2428 2051 2143 2460 2580 2810 2824 2792 2814 3110 2688 2677 2932
1090 1201 1178 1195 1312 1263 1034 904 875 916 979 894 1026 1259 1032 1029 1016 1241 1599 1976 2041 2088 2146 2058 1840 1934 1757 1297 967 936 808 502 250 145 80 26 50 2 112 1069 1136 1014 998 909 706 1242 1166 1114 1382 967 2187 2002 2092 2341 2506 2577 2745 2962 2725 2897 2760 2587 2930
1057 1124 1186 1232 1200 1266 1239 1108 1111 1138 1096 1011 933 1265 1310 1296 1384 1395 1581 1934 2112 2171 2243 2261 2134 2083 2070 1730 1185 960 845 608 376 184 71 29 33 23 0 99 933 1065 937 931 557 211 931 1137 1336 1130 1212 2031 2035 2408 2372 2330 2536 2834 2781 2719 2705 2511 2690
941 992 1154 1165 1288 1381 1279 1189 1056 1068 1073 1071 1257 1271 1352 1350 1428 1436 1588 1976 2203 2270 2305 2293 2255 2209 2273 2191 1715 1160 954 715 498 312 137 37 28 82 0 0 93 696 774 796 783 307 111 664 1358 1419 1176 1440 1814 2260 2322 2206 2156 2680 2737 2739 2658 2552 2641
908 966 919 1114 1395 1442 1422 1324 1249 1118 1036 1038 1160 1281 1331 1351 1377 1430 1596 1956 2211 2314 2376 2356 2326 2269 2346 2412 2242 1723 1326 1008 703 488 273 96 41 91 45 6 19 151 380 368 681 666 280 90 1000 1607 1455 1367 1475 1580 1974 2129 2128 2281 2608 2655 2621 2552 2607
927 868 884 1094 1192 1350 1274 1274 1295 1238 1104 1067 1216 1462 1348 1346 1340 1343 1383 1770 2190 2336 2401 2393 2380 2371 2472 2537 2473 2201 1758 1474 1098 764 490 262 130 132 116 45 27 120 251 277 306 733 686 226 165 1281 1651 1570 1556 1473 1498 1699 2031 2075 2177 2502 2542 2542 2560
855 757 814 878 1049 1138 1181 1196 1211 1242 1328 1243 1490 1816 1725 1662 1610 1616 1612 1683 2176 2407 2520 2537 2529 2460 2510 2615 2637 2419 2059 1828 1472 1109 838 534 321 283 269 175 104 130 222 308 301 419 766 687 230 295 1510 1715 1817 1766 1608 1775 1926 2052 2008 2245 2448 2523 2525
727 722 622 787 887 1090 1169 1265 1337 1413 1423 1346 1499 1744 1727 1726 1704 1642 1615 1686 2020 2337 2549 2602 2565 2578 2520 2530 2653 2600 2354 2097 1742 1383 1088 896 635 465 436 412 346 278 287 356 392 383 547 809 652 310 770 1611 1838 2096 1913 1798 1988 2020 1983 2040 2381 2476 2498
543 539 693 800 1001 1144 1237 1364 1578 1596 1502 1393 1476 1529 1664 1666 1639 1638 1582 1550 1737 1984 2247 2506 2655 2735 2677 2596 2660 2694 2573 2307 1926 1600 1289 1077 913 727 600 508 527 512 434 426 454 426 496 668 890 708 465 926 1591 2055 2233 1966 1879 2005 1951 1950 2197 2448 2481
978 439 973 1001 1007 1025 1145 1396 1565 1594 1561 1445 1451 1454 1494 1504 1570 1580 1549 1554 1635 1859 2048 2194 2413 2604 2780 2742 2731 2721 2638 2465 2174 1778 1479 1186 1052 963 835 649 564 620 575 506 440 435 442 633 805 1025 844 779 1032 1548 2123 2206 1913 1878 1914 1817 1906 2319 2452
768 770 998 1096 998 955 1191 1307 1359 1479 1589 1606 1528 1511 1445 1402 1411 1436 1491 1539 1579 1717 1920 2162 2384 2589 2719 2894 2898 2753 2591 2385 2249 2026 1756 1389 1268 1265 1203 911 704 700 692 627 485 464 434 536 739 1010 1295 1213 1136 1240 1599 2122 2111 1922 1905 1825 1745 1890 2323
871 880 994 1033 948 935 1042 1282 1544 1547 1691 1675 1638 1585 1528 1483 1485 1499 1506 1511 1584 1670 1956 2266 2453 2640 2792 2875 3007 2933 2678 2450 2245 2131 2007 1767 1532 1426 1332 1188 923 802 867 799 601 485 525 447 728 868 1262 1629 1624 1482 1548 1772 2100 2241 2096 1943 1888 1847 1986
534 961 982 982 988 942 1023 1234 1562 1991 2060 1721 1695 1720 1639 1521 1489 1601 1668 1740 1734 1743 1851 1999 2299 2576 2771 2860 2960 2962 2785 2516 2280 2152 2017 1948 1769 1525 1366 1234 1011 838 880 1036 917 738 750 658 532 881 1013 1495 1992 1946 1826 1830 1935 2116 2237 2192 2066 2054 2054
412 512 555 524 616 758 812 937 1090 1349 2158 2241 2385 2578 2272 2165 1701 1596 1670 1828 1943 1887 1819 1921 2104 2302 2519 2796 2960 2978 2881 2709 2488 2183 2006 1865 1827 1642 1399 1183 995 824 784 1075 1188 1035 985 935 665 897 1094 1238 1798 2188 2167 2053 2017 2110 2220 2334 2301 2224 2225
367 447 529 470 831 761 1005 1060 1210 1053 1207 2000 2223 2206 1887 2044 2170 1868 1862 1866 1926 1967 1899 1896 1973 2185 2396 2501 2603 2934 2996 2883 2667 2321 1945 1798 1828 1654 1396 1208 1075 898 814 990 1304 1283 1175 1129 884 799 1321 1380 1594 2127 2352 2305 2158 2194 2253 2326 2442 2430 2252
211 91 263 333 288 480 411 894 992 1200 891 1113 1286 1790 1732 1798 2011 2005 1900 2140 1938 2025 2044 2015 1989 2098 2114 2238 2353 2547 2876 2911 2732 2468 2013 2019 1966 1795 1526 1370 1279 1117 969 1016 1333 1434 1360 1296 1160 955 1283 1659 1671 1962 2349 2441 2370 2272 2303 2350 2449 2535 2462
274 210 131 198 195 90 0 43 304 690 1046 1321 1234 1196 1302 1546 1608 1959 1986 2030 2164 1937 1859 1844 1981 1944 1950 1886 1906 2280 2604 2771 2707 2466 2118 2194 2192 2064 1792 1559 1463 1350 1185 1135 1298 1550 1532 1488 1442 1319 1199 1637 1831 1891 2193 2445 2499 2406 2289 2304 2365 2484 2572
183 196 168 23 123 113 146 0 76 254 626 1008 1102 1373 1389 1196 1047 1204 1651 1950 2132 2271 2110 1969 1789 1627 1682 1882 1919 1902 2366 2719 2581 2424 2355 2309 2306 2298 2106 1802 1604 1542 1441 1318 1269 1528 1639 1626 1600 1562 1436 1451 1915 1956 2029 2281 2509 2476 2365 2306 2336 2395 2465
156 92 84 110 17 38 184 248 35 234 36 814 1304 1536 1451 1521 1527 1244 980 1104 1646 1803 2031 1928 1904 1783 1636 1591 1572 1569 2393 2731 2512 2424 2503 2442 2395 2416 2353 2097 1808 1651 1621 1540 1360 1377 1674 1739 1700 1648 1570 1437 1591 2080 2058 2150 2452 2562 2520 2477 2467 2501 2517
34 104 0 117 106 122 70 0 0 0 0 436 920 1535 1912 1935 1976 1600 1181 1465 1298 1224 1542 1675 1928 2008 1977 1814 1464 1362 2365 2849 2599 2552 2554 2540 2469 2479 2489 2351 2056 1786 1733 1683 1536 1379 1521 1756 1721 1665 1614 1522 1440 1558 2100 2181 2243 2518 2584 2526 2425 2404 2457
13 0 0 0 0 106 176 221 120 249 560 700 908 1268 1560 1608 1564 1829 1943 1223 1366 1360 1448 1510 1626 1655 1728 1667 1565 1476 2130 2889 2784 2632 2605 2607 2562 2504 2541 2516 2306 1976 1808 1753 1638 1503 1420 1729 1758 1711 1699 1622 1544 1488 1460 1838 2177 2279 2440 2488 2468 2434 2407
134 76 40 0 0 0 94 79 110 310 476 675 815 1139 1405 1533 1623 1893 2073 1994 1290 1337 1389 1512 1509 1515 1601 1502 1440 1631 2206 2921 2932 2743 2685 2679 2654 2595 2580 2591 2496 2238 1914 1814 1709 1585 1474 1715 1790 1806 1824 1855 1839 1758 1593 1455 1965 1864 2148 2379 2430 2427 2402
31 51 86 0 0 0 0 87 100 371 521 626 796 1137 1533 1768 1854 1921 1912 2010 2080 1664 1035 1502 1497 1578 1549 1558 1575 1830 2509 3071 3080 2919 2808 2762 2758 2720 2702 2664 2634 2446 2132 1922 1803 1706 1706 1745 1892 1929 1965 2051 2123 2076 1978 1765 1751 1833 1925 2051 2237 2362 2398
25 0 0 0 0 0 0 0 0 248 617 759 858 1120 1526 1894 2044 2074 2019 2146 2086 2200 1993 1328 1272 1576 1589 1658 1698 1926 2659 3236 3215 3069 2955 2909 2911 2890 2821 2804 2768 2623 2365 2100 1896 1786 1863 1964 2045 2115 2190 2264 2316 2262 2275 2174 1979 1911 1999 1993 2020 2134 2269
27 36 46 21 7 0 0 0 186 450 671 855 913 1021 1425 1764 2011 2165 2212 2436 2688 2754 2283 1847 1172 1325 1705 1637 1912 2532 2854 3284 3342 3249 3188 3128 3145 3056 2965 2967 2944 2813 2601 2331 2048 1857 1864 2130 2294 2331 2471 2603 2554 2462 2438 2454 2305 2116 2122 2113 2057 2042 2084
6 8 8 0 0 0 0 0 354 758 944 992 972 1279 1668 2136 2746 3428 3713 3728 3975 3810 3275 2392 1496 856 1278 1678 1677 2296 3253 3540 3533 3406 3366 3373 3364 3265 3158 3205 3190 3068 2857 2558 2256 2010 1897 2009 2375 2499 2583 2802 2840 2761 2590 2642 2686 2473 2323 2271 2205 2071 2031
0 29 23 0 0 0 0 32 254 511 808 928 929 1273 1732 2795 3617 3945 4298 4718 4844 4443 3547 2773 1769 1014 1009 1680 2635 2506 2855 3588 3706 3604 3528 3574 3608 3520 3408 3428 3468 3406 3198 2862 2490 2214 2008 1967 2208 2504 2604 2771 2986 3027 2911 2763 2892 2817 2695 2589 2472 2404 2279
0 0 0 0 0 0 0 165 311 512 737 864 863 1158 1734 2420 3143 3616 4092 4562 4714 4683 4311 3213 1993 1487 1382 1278 2223 3166 3470 3780 3840 3804 3705 3773 3857 3755 3636 3612 3666 3595 3515 3206 2834 2491 2238 2141 2146 2340 2522 2662 2921 3096 3115 3044 3056 3051 2925 2921 2817 2723 2646
0 0 0 0 0 0 115 237 374 509 685 801 728 975 1571 1964 2488 3026 3767 4142 4404 4612 4484 3407 2131 1864 2379 2199 2245 2888 3583 3932 3957 3947 3845 3850 4021 4014 3882 3780 3805 3714 3637 3545 3258 2874 2584 2388 2319 2288 2335 2470 2648 2969 3140 3161 3122 3314 3081 3011 3042 3024 2975
0 0 0 0 0 0 250 357 438 505 562 559 575 720 1232 1816 2505 3274 3706 4006 4046 4387 4655 3605 2115 2066 2514 3068 3045 3120 3622 3894 3930 3974 3932 3880 3975 4151 4162 3977 3911 3827 3727 3731 3600 3296 2973 2710 2541 2430 2364 2343 2429 2653 2986 3122 3173 3428 3283 3157 3128 3170 3206
0 0 0 0 84 267 412 467 515 547 613 669 638 980 1397 1831 2538 3068 3311 3433 3976 4258 4469 3638 2725 2384 2629 2940 3229 3377 3634 3860 3858 3921 3936 3882 3852 4059 4284 4307 4223 3928 3882 3834 3825 3613 3357 3088 2822 2656 2543 2423 2368 2435 2621 2862 3004 3272 3429 3270 3195 3172 3182
0 0 0 44 209 260 373 472 558 622 682 736 779 1058 1389 1646 1977 2327 2830 3371 3952 4189 4544 3787 3330 2950 3010 3194 3302 3443 3622 3836 3828 3851 3884 3861 3868 3946 4221 4302 4285 4211 4049 3927 3959 3955 3664 3344 3098 2872 2692 2563 2458 2383 2412 2581 2762 2938 3407 3473 3333 3229 3174
0 0 1 200 242 310 402 462 511 535 602 776 883 1003 1178 1356 1676 2131 2581 3243 3724 3856 4619 4390 3490 3276 3369 3455 3422 3435 3610 3840 3848 3812 3808 3846 3922 4004 4133 4208 4284 4331 4201 4051 3993 4067 3966 3704 3355 3051 2850 2754 2690 2535 2420 2435 2530 2756 3166 3463 3507 3430 3334
0 0 2 194 258 357 474 543 565 594 615 674 748 923 1184 1460 1648 1790 2292 3033 3463 3534 4256 4619 4003 3351 3511 3568 3457 3400 3509 3811 3900 3854 3846 3889 3986 4044 4021 4070 4216 4263 4276 4190 4111 4076 4033 3873 3552 3269 3121 3063 2927 2950 2804 2699 2746 2900 3027 3341 3531 3520 3426

ECMWFFLT1_con_mucape_072.txt.gz
CAPE
1304 1094 982 926 836 740 705 661 669 651 625 605 596 579 585 562 541 511 491 389 491 555 498 908 858 618 786 834 806 86 4 0 314 70 0 0 6 56 9 31 668 1185 1282 1495 1493 1226 1696 1652 1800 1998 2108 2097 2142 2214 2227 2223 2290 1913 2009 2040 2214 2543 2665
1421 1251 1004 933 930 859 783 723 696 651 638 634 609 604 586 537 499 498 496 423 485 578 584 685 889 568 532 574 717 54 4 0 167 327 2 0 0 0 4 32 353 994 1204 1297 1438 1256 1345 1692 1543 1914 2002 2046 1960 2022 2243 2190 2221 1913 1850 2231 2273 2423 2538
1372 1259 1039 833 822 836 824 755 732 687 650 634 618 581 535 504 502 512 539 551 568 580 691 681 854 559 407 427 347 81 4 1 38 298 31 0 0 0 0 1 228 653 1102 1224 1317 1390 1353 1433 1634 1697 1875 1920 1906 1885 2345 2223 2233 1992 1780 2039 2199 2361 2491
1260 1206 1032 769 727 725 785 771 703 675 647 623 605 585 567 561 554 588 616 616 637 640 630 807 858 657 379 331 330 168 10 4 2 160 105 0 0 0 0 0 43 319 828 1175 1239 1367 1449 1414 1441 1591 2168 1782 1838 1772 2047 2346 2268 2108 2070 2046 2010 1994 2126
1075 1006 902 721 778 772 812 825 723 677 691 654 664 646 624 623 638 677 662 661 680 694 689 876 972 810 491 288 309 266 70 8 4 16 107 20 0 0 0 0 0 149 762 1114 1171 1270 1412 1453 1418 1329 1521 1770 1815 1774 1751 2296 2234 2140 2120 2205 2096 2166 2055
878 818 729 742 869 864 859 863 808 679 653 673 705 718 703 700 815 885 944 781 731 766 771 820 1036 1050 742 381 294 288 165 18 9 7 13 21 8 0 0 0 0 0 205 459 1084 1195 1365 1414 1374 1317 1320 1642 1733 1751 1689 2037 2229 2158 2123 2265 2169 2156 2239
808 729 664 729 932 980 956 915 862 768 660 640 690 746 759 866 942 968 1042 1069 824 842 836 811 967 1082 917 631 326 306 240 88 9 7 0 0 0 15 1 0 0 0 0 295 516 820 796 959 1106 1169 1306 1600 1647 1679 1726 1869 2199 2218 2156 2232 2301 2210 2254
825 744 663 727 940 1064 1063 1011 933 830 724 587 584 776 814 941 1008 1049 1100 1221 1116 914 886 908 894 1096 1082 837 578 302 270 208 34 5 5 0 0 0 26 30 6 0 0 47 292 562 759 526 470 532 860 1592 1637 1648 1738 1823 2073 2270 2227 2180 2300 2386 2332
877 783 692 722 943 1118 1112 1076 1020 928 823 740 656 772 882 970 1015 1104 1174 1289 1301 1163 1040 965 973 970 1154 1051 804 545 310 266 169 28 1 0 0 0 0 69 169 121 48 40 121 300 602 707 573 581 625 1152 1570 1607 1694 1846 1956 2176 2318 2242 2219 2304 2364
907 810 749 780 930 1124 1170 1110 1052 987 904 838 768 694 901 971 1024 1086 1204 1343 1458 1392 1304 1220 1071 1045 1072 1132 993 792 536 366 295 155 21 0 0 0 0 0 66 353 268 184 170 200 247 333 697 696 696 706 1265 1537 1636 1755 1869 2018 2256 2328 2283 2241 2258
990 911 873 914 1026 1178 1201 1144 1100 1052 969 893 827 782 953 969 1034 1072 1173 1376 1554 1571 1531 1466 1325 1157 1114 1071 998 906 761 548 430 317 164 22 0 0 0 0 0 42 328 325 283 283 206 130 327 759 805 738 807 1250 1518 1657 1745 1818 2033 2252 2290 2257 2210
1241 1116 1072 1117 1135 1204 1287 1228 1154 1117 1072 960 910 1015 1065 1043 1062 1102 1158 1344 1565 1685 1690 1667 1628 1459 1250 1186 1120 1063 944 720 546 442 308 146 12 0 0 0 0 0 4 199 255 282 302 183 24 150 767 900 807 880 1206 1489 1658 1732 1800 1990 2181 2223 2200
1156 1191 1166 1183 1205 1209 1263 1289 1209 1135 1072 1027 955 922 1117 1184 1119 1152 1191 1292 1526 1707 1781 1809 1828 1765 1601 1520 1454 1317 1131 1036 807 535 406 282 132 5 0 0 0 0 0 0 44 111 244 314 156 25 182 800 952 880 918 1107 1403 1657 1742 1760 1874 2092 2154
938 924 1068 1121 1146 1172 1185 1224 1215 1149 1068 1010 1000 971 952 1137 1244 1236 1258 1323 1517 1735 1842 1917 1935 1935 1874 1811 1752 1663 1592 1245 1084 896 670 387 245 104 8 0 0 0 0 0 0 0 26 188 300 126 44 325 857 1008 984 968 1011 1222 1498 1636 1659 1782 2008
678 808 780 868 998 918 1065 1154 1178 1201 1113 1050 998 978 1025 1079 1125 1200 1258 1316 1534 1772 1938 2004 2031 2040 2030 1994 1972 1975 1902 1821 1542 1159 1104 996 724 278 112 16 0 0 0 0 0 0 0 5 137 278 150 73 459 969 1150 1142 1057 1052 1176 1368 1514 1581 1782
743 738 859 907 994 1034 1095 1226 1259 1252 1202 1145 1173 1045 1053 1192 1162 1134 1181 1268 1423 1806 2018 2114 2136 2143 2158 2141 2175 2162 2147 2103 1990 1783 1539 1317 1182 974 604 156 46 9 0 0 0 0 0 0 19 162 276 172 151 525 1045 1320 1348 1334 1203 1289 1417 1479 1630
759 814 799 893 937 1005 1149 1230 1317 1379 1440 1438 1422 1371 1314 1353 1480 1374 1350 1345 1412 1698 2067 2240 2274 2285 2298 2332 2310 2332 2360 2351 2296 2143 1968 1784 1597 1460 1219 856 363 154 76 33 7 0 4 11 16 74 233 326 234 201 523 1108 1479 1535 1413 1363 1410 1442 1522
797 814 854 902 961 1084 1223 1285 1339 1458 1526 1562 1678 1519 1478 1350 1470 1543 1564 1500 1472 1627 1885 2213 2365 2409 2488 2541 2535 2534 2495 2503 2473 2412 2298 2167 2035 1828 1582 1302 1000 649 251 179 143 110 56 45 34 57 168 336 389 322 327 541 1023 1525 1638 1546 1501 1501 1468
832 835 890 912 941 1028 1110 1185 1229 1328 1482 1654 1686 1707 1525 1590 1321 1464 1580 1647 1618 1600 1757 2021 2238 2417 2542 2665 2730 2708 2634 2533 2511 2484 2431 2364 2234 2072 1866 1627 1410 1104 721 403 283 233 189 115 76 74 132 298 449 513 503 481 341 1000 1543 1711 1666 1601 1522
580 800 760 778 862 834 868 1031 1093 1105 1156 1365 1562 1685 1568 1437 1554 1261 1414 1538 1670 1689 1692 1744 1993 2185 2346 2467 2563 2731 2786 2781 2704 2630 2544 2490 2404 2221 2080 1914 1722 1495 1134 720 514 359 305 215 148 102 109 228 381 609 732 734 699 715 994 1457 1714 1733 1686
518 460 473 59 259 554 747 850 862 968 1038 1068 1196 1225 1304 1201 1186 1606 1531 1475 1544 1554 1607 1673 1708 1979 2161 2301 2440 2606 2761 2851 2840 2798 2749 2675 2577 2454 2344 2194 1897 1648 1340 964 765 599 456 363 243 175 158 195 341 504 784 992 1031 953 917 1061 1415 1670 1745
269 272 325 0 31 147 317 416 656 648 853 964 926 940 1102 1282 1340 1642 1733 1724 1634 1762 1742 1661 1720 1882 2046 2178 2223 2330 2545 2663 2698 2684 2758 2774 2727 2689 2605 2477 2357 2113 1550 1224 961 824 708 586 504 361 262 201 346 481 676 984 1230 1304 1228 1164 1217 1433 1604
227 164 120 113 22 150 126 188 173 529 607 634 559 514 976 1432 1466 1565 1638 1647 1882 1821 1775 1816 1732 1745 1874 1991 2079 2211 2334 2426 2468 2494 2484 2596 2721 2720 2708 2647 2568 2501 2268 1592 1226 978 875 801 710 684 504 368 426 577 697 853 1152 1475 1537 1475 1413 1392 1410
88 131 137 18 0 0 0 0 208 266 309 440 123 0 944 1212 1447 1238 1300 1468 1645 1905 1914 1881 2010 2000 1894 1844 1858 1886 2043 2181 2264 2313 2353 2486 2614 2687 2687 2676 2689 2693 2538 2211 1611 1290 1058 912 801 866 820 688 541 700 882 948 1154 1443 1670 1706 1677 1598 1550
0 33 56 1 0 0 0 50 54 0 0 0 0 201 608 913 1147 1325 1514 1773 1827 1473 1384 1723 1774 2020 2064 2071 2031 2016 1992 1966 2046 2052 2114 2297 2466 2610 2662 2691 2705 2693 2565 2395 2070 1459 1202 1014 848 984 990 953 861 826 1044 1143 1274 1448 1718 1824 1810 1787 1755
3 0 5 60 11 0 0 0 24 4 0 0 0 37 398 889 1363 1446 1683 1846 1967 2003 1942 1792 1430 1496 1744 1918 2076 2072 2043 1997 1899 1917 2046 2293 2347 2434 2565 2638 2664 2624 2551 2427 2215 1851 1300 1077 908 1093 1128 1135 1106 1006 1038 1234 1391 1501 1735 1912 1938 1916 1874
0 0 0 0 38 0 0 0 0 0 42 0 0 124 473 604 933 1375 1599 1725 1878 2144 2244 2009 1900 1786 1647 1564 1628 1722 1992 2014 1939 1826 2036 2254 2385 2450 2519 2569 2586 2567 2524 2414 2250 2002 1673 1196 1036 1164 1249 1266 1267 1223 1136 1179 1434 1544 1709 1926 2034 2031 2022
0 0 0 0 0 0 0 0 0 0 0 0 0 0 481 687 779 1038 1413 1587 1802 2330 2855 3187 3150 2554 2146 2008 1587 1597 1654 1695 1769 1824 1951 2256 2380 2447 2473 2516 2547 2538 2508 2416 2265 2043 1836 1511 1157 1202 1310 1379 1396 1370 1340 1259 1324 1490 1698 1871 2031 2119 2139
0 0 0 0 0 0 0 0 0 0 0 0 0 0 0 655 779 962 1154 1408 1869 2517 3071 3491 3859 4046 3703 3407 2699 2006 1392 1605 1657 1656 1637 2240 2463 2460 2492 2541 2551 2528 2485 2420 2294 2102 1896 1772 1418 1282 1315 1397 1449 1484 1479 1440 1393 1314 1469 1798 2000 2132 2184
0 0 0 0 0 0 0 0 0 0 0 0 0 0 0 269 654 846 1097 1415 1733 2186 2868 3432 3809 3943 3983 3886 3721 3286 2601 2013 1516 1486 1522 2051 2473 2526 2515 2521 2537 2521 2487 2422 2313 2182 2017 1897 1634 1416 1381 1402 1454 1486 1527 1550 1529 1479 1419 1458 1867 2087 2182
0 0 0 0 0 0 0 0 0 0 0 0 0 0 0 15 166 548 807 1154 1490 1807 2347 2945 3456 3684 3693 3642 3631 3543 3177 2618 2128 1664 1579 1977 2386 2552 2582 2603 2596 2561 2504 2447 2376 2275 2102 1990 1884 1612 1480 1460 1491 1518 1568 1633 1636 1599 1508 1435 1339 1609 1913
0 0 0 0 0 0 0 0 0 0 0 0 0 0 0 0 3 104 593 902 1247 1610 2274 2948 3176 3057 2943 3041 3230 3667 3552 2885 2412 1950 1713 2091 2418 2549 2568 2575 2569 2563 2538 2488 2416 2322 2204 2010 2067 1904 1629 1543 1594 1619 1690 1756 1806 1858 1796 1727 1602 1452 1387
0 0 0 0 0 0 0 0 0 0 1 2 1 0 0 0 0 0 384 624 873 1485 1957 2174 2360 2425 2583 2882 3061 3476 3853 3347 2493 2105 1778 2294 2543 2673 2681 2623 2602 2572 2542 2494 2457 2363 2262 2130 2128 2092 1909 1656 1704 1765 1864 1942 1950 1978 2057 2034 1986 1883 1777
0 0 0 0 0 0 0 0 0 0 5 4 2 1 0 0 0 0 345 510 760 1064 1558 1985 2228 2222 2490 2932 3165 3439 3859 3596 2616 2042 1976 2395 2667 2805 2823 2770 2709 2648 2600 2552 2476 2419 2326 2260 2254 2261 2126 1922 1691 1846 1998 2165 2184 2142 2162 2181 2210 2217 2205
0 0 0 0 0 0 0 0 0 1 6 2 1 1 0 0 0 0 206 429 598 767 953 1120 1378 1976 2373 2936 3252 3420 3887 3721 2997 1962 2352 2672 2719 2832 2915 2926 2839 2771 2710 2626 2544 2466 2390 2336 2326 2325 2236 2079 1943 1843 2009 2182 2342 2394 2334 2339 2312 2316 2339
0 0 0 0 0 0 0 0 0 1 4 0 0 0 2 1 0 81 232 375 523 652 796 966 1137 1708 2198 2825 3263 3421 3976 3850 3132 2184 2226 2799 3012 2990 3055 3040 2984 2915 2855 2798 2689 2625 2539 2460 2466 2443 2356 2225 2116 1989 1844 2060 2272 2430 2569 2603 2582 2549 2500
0 0 0 0 0 0 0 0 0 0 4 0 0 1 18 178 164 194 234 297 405 518 674 833 1018 1399 2018 2739 3173 3476 4103 3995 3349 2530 2412 2646 2987 3199 3270 3254 3173 3131 3058 3077 2965 2960 2860 2663 2663 2613 2537 2437 2374 2189 2101 1928 2115 2300 2548 2729 2837 2832 2801
0 0 0 0 0 0 0 0 0 1 6 0 95 252 260 291 262 198 214 283 376 487 612 747 921 1226 1837 2613 3162 3463 4088 4079 3651 2878 2674 2886 3054 3232 3303 3345 3365 3356 3304 3264 3278 3248 3195 3034 2822 2781 2737 2703 2646 2573 2461 2299 2117 2158 2348 2623 2865 3032 3072

ECMWFFLT1_con_mucape_075.txt.gz
CAPE
1072 1059 940 862 776 736 703 640 528 533 469 446 433 443 448 441 72 175 462 448 428 426 453 451 526 668 643 462 387 328 197 78 40 4 0 0 0 0 837 1062 1156 1256 1412 1527 1607 1668 1741 1868 1961 1965 1915 2018 2098 2182 2201 2194 2275 2350 2395 2396 2330 2124 1969
1156 1147 1084 1005 916 832 756 718 626 557 461 470 477 500 478 473 484 495 342 280 370 464 477 501 584 658 687 593 442 348 199 69 74 187 21 0 3 0 0 759 999 1117 1268 1378 1506 1581 1627 1668 1785 1880 1831 1943 1978 1997 2043 2084 2158 2196 2190 2173 2004 1858 2057
1190 1205 1171 1082 981 884 836 768 690 615 572 536 538 515 510 510 518 516 505 340 334 486 524 555 606 582 634 582 593 383 207 62 32 99 64 0 0 0 0 0 216 907 1066 1187 1312 1446 1403 1318 1435 1754 1770 1868 1928 1908 1948 2026 2106 2116 2104 2022 1843 1812 2013
1211 1225 1199 1163 1099 1008 914 867 769 678 634 583 576 563 544 538 532 529 524 513 541 504 560 552 609 556 587 615 639 590 246 63 5 54 100 12 0 0 0 0 8 311 849 997 1130 1271 1287 1192 1259 1499 1974 1750 1840 1877 1885 1945 1988 2036 2072 2011 1860 1902 1952
1155 1265 1249 1208 1180 1137 1076 985 881 758 682 648 642 609 570 558 543 539 531 548 554 578 586 572 636 579 535 545 557 575 337 99 7 11 83 21 0 0 0 0 0 70 416 844 1007 1150 1229 1163 1088 1316 1520 1641 1706 1748 1797 1839 1864 1966 2037 2031 1922 1827 1966
1040 1248 1298 1250 1198 1175 1131 1076 975 823 731 690 688 661 620 578 538 558 576 575 587 606 602 592 612 703 536 481 497 478 357 139 18 3 39 28 0 0 0 0 0 10 140 416 820 994 1126 1136 1042 1128 1381 1562 1598 1651 1716 1760 1744 1900 1995 2000 1971 1843 1866
1011 1208 1276 1257 1209 1165 1135 1091 994 868 780 734 707 676 657 621 613 609 608 610 626 634 629 613 543 617 563 440 414 428 317 158 16 0 3 40 0 0 0 0 0 0 67 243 499 842 976 1080 1065 1034 1156 1371 1509 1590 1643 1654 1647 1763 1927 1969 1970 1926 1815
860 1167 1268 1261 1209 1129 1095 1064 973 868 788 757 754 743 723 680 630 623 629 641 651 648 644 614 543 524 548 542 357 324 296 184 13 0 0 9 0 0 0 0 0 0 10 134 320 543 837 952 1054 1069 1072 1135 1264 1449 1549 1592 1622 1638 1821 1911 1924 1961 1918
633 995 1196 1278 1230 1141 1073 1034 985 877 801 793 792 774 740 704 690 671 672 672 660 655 652 602 554 567 610 617 529 270 236 168 46 0 0 0 3 0 0 0 0 0 0 18 175 418 549 807 914 992 1033 1070 1131 1216 1334 1454 1536 1590 1688 1812 1864 1907 1938
512 754 982 1110 1139 1111 1071 1050 1017 931 839 796 782 771 761 746 709 701 698 692 683 664 636 591 563 615 653 668 672 628 417 153 78 2 0 0 0 0 0 0 0 0 0 0 0 163 416 748 791 861 926 995 1087 1154 1212 1287 1390 1475 1588 1720 1782 1808 1857
690 671 726 886 982 1016 1003 973 972 935 880 844 822 791 776 756 749 737 712 708 688 662 634 601 602 638 661 696 738 722 702 389 117 30 0 0 0 0 0 0 0 0 0 0 0 0 87 432 758 786 840 919 983 1022 1095 1216 1309 1407 1499 1644 1759 1791 1813
836 718 764 670 710 755 814 837 828 781 749 780 779 769 768 781 764 733 697 683 673 665 643 644 652 656 680 713 758 802 809 789 694 376 12 0 0 0 0 0 0 0 0 0 0 0 0 24 139 209 117 125 143 206 457 845 1091 1283 1416 1529 1696 1824 1871
889 837 778 828 878 976 1020 900 768 668 726 707 661 639 680 724 734 729 717 760 811 846 734 701 698 706 725 742 770 835 859 874 867 738 605 10 0 0 0 0 0 0 0 11 1 0 0 0 0 85 133 139 167 184 244 456 857 1109 1290 1417 1545 1741 1882
1009 953 870 813 908 1023 1135 1132 1068 1007 929 828 758 670 619 612 683 755 798 859 920 963 939 847 750 747 771 787 820 862 877 921 929 935 859 390 4 0 0 0 0 0 0 0 5 23 1 0 0 0 40 97 172 233 274 291 525 890 1141 1295 1396 1520 1734
1071 1069 1025 952 944 1042 1131 1208 1172 1142 1066 969 886 815 741 676 645 759 813 853 960 1057 1122 1055 956 878 859 851 875 892 922 947 988 1024 1030 1018 925 99 0 0 0 0 0 0 0 0 28 28 17 13 2 8 73 221 355 356 362 516 851 1132 1306 1386 1480
932 1036 1107 1115 1057 1066 1140 1212 1243 1223 1197 1127 1064 938 871 802 760 725 871 884 974 1150 1210 1210 1166 1105 1031 988 973 957 996 1001 1044 1072 1083 1067 1061 1048 992 586 0 0 0 0 0 0 0 0 15 40 42 16 1 39 217 402 467 594 275 821 1096 1256 1337
785 912 1013 1077 1128 1140 1186 1260 1291 1297 1262 1256 1176 1072 1024 991 920 862 843 805 1004 1168 1326 1396 1394 1351 1265 1176 1144 1110 1094 1088 1104 1135 1141 1128 1115 1119 1099 1081 986 326 0 0 0 0 0 0 0 0 25 47 33 4 16 142 341 302 0 669 796 1006 1167
733 806 866 941 1002 1076 1173 1225 1295 1333 1323 1297 1272 1243 1187 1127 1072 969 898 884 870 1116 1320 1495 1556 1547 1506 1484 1420 1332 1265 1222 1211 1201 1207 1180 1170 1173 1182 1188 1148 1109 1007 740 116 0 0 0 0 0 0 5 33 48 30 28 65 2 0 0 462 758 895
652 767 823 878 965 1019 1128 1216 1286 1338 1378 1363 1341 1322 1267 1228 1177 1394 1276 974 1126 1079 1270 1493 1637 1624 1650 1695 1662 1630 1511 1407 1349 1318 1289 1278 1274 1276 1288 1276 1264 1255 1270 1248 1137 914 625 32 0 0 0 0 0 10 47 44 0 0 0 0 0 684 742
551 530 771 884 938 1001 978 1098 1212 1307 1429 1450 1458 1404 1338 1282 1352 1395 1356 1398 1286 1198 1188 1368 1542 1412 1729 1773 1784 1744 1720 1679 1662 1658 1611 1474 1436 1432 1427 1412 1392 1416 1480 1500 1435 1321 1161 990 722 140 0 0 0 0 3 18 5 0 0 0 0 704 755
320 443 493 518 429 706 872 918 980 1209 1360 1470 1487 1536 1531 1367 1306 1416 1453 1506 1560 1461 1303 1220 1217 1332 1667 1706 1823 1831 1839 1857 1868 1874 1857 1837 1772 1677 1635 1600 1573 1593 1662 1723 1783 1683 1475 1271 1078 832 523 0 0 0 0 14 2 0 0 0 0 109 728
193 260 339 331 274 192 333 429 588 838 1117 1092 1235 1440 1525 1545 1490 1358 1488 1522 1552 1596 1572 1341 1250 1372 1515 1931 1947 1990 2007 2007 2030 2030 2054 2053 2007 1948 1889 1830 1788 1800 1869 1902 1978 1992 1791 1540 1314 1029 775 548 325 0 1 15 0 0 0 0 0 0 0
132 58 115 109 30 0 0 169 300 368 513 873 895 1001 1170 1227 1237 1396 1516 1532 1512 1445 1374 1328 1313 1280 1505 1826 2136 2253 2228 2234 2191 2165 2171 2171 2163 2154 2099 2051 2013 2034 2096 2131 2162 2213 2131 2003 1676 1353 1078 841 610 400 18 20 15 0 0 0 0 0 0
12 88 12 0 0 0 0 0 0 213 32 243 305 90 936 1164 1216 1332 1366 1366 1370 1502 1558 1307 1284 1366 1435 1563 1979 2266 2344 2368 2356 2354 2326 2295 2298 2281 2275 2255 2251 2278 2298 2299 2319 2360 2360 2274 2186 2005 1465 1052 802 600 392 50 28 0 0 0 0 0 0
0 1 3 10 0 0 0 0 0 0 0 194 145 92 378 746 731 1190 1345 1443 1636 1560 1822 1892 1780 1512 1489 1449 1582 1916 2160 2323 2434 2483 2473 2470 2452 2449 2462 2470 2488 2479 2480 2460 2449 2484 2499 2437 2331 2286 2141 1639 1043 771 623 518 216 0 0 0 0 0 0
0 0 0 0 0 0 0 0 0 0 0 62 164 169 156 323 469 931 1077 1380 1639 1758 1884 2311 2626 2732 1860 1668 1560 1601 1676 1986 2152 2279 2387 2476 2533 2591 2615 2617 2598 2602 2567 2528 2506 2509 2505 2485 2436 2426 2426 2318 1960 1335 881 725 634 448 0 0 0 0 1
0 0 0 0 0 0 0 0 0 0 0 0 0 162 226 230 269 267 332 732 1390 1682 1811 1862 2168 2680 2977 2862 2033 1652 1737 1804 1836 1859 1852 1854 2025 2242 2386 2480 2533 2528 2508 2510 2495 2477 2468 2465 2452 2436 2464 2460 2322 2044 1563 1096 829 736 698 652 324 0 0
0 0 0 0 0 0 0 0 0 0 0 0 0 73 166 204 210 226 226 250 447 1078 1514 1709 1795 1829 2193 2716 3102 3320 2963 2188 1604 1594 1625 1688 1771 1816 1832 2174 2278 2347 2395 2394 2410 2428 2435 2429 2403 2388 2426 2461 2431 2281 2009 1615 1155 916 820 760 700 506 0
0 0 0 0 0 0 0 0 0 0 0 0 0 0 99 123 179 202 189 205 197 44 568 989 1336 1549 1748 2228 2821 2999 3299 3232 3061 2658 2002 1542 1600 1680 1756 1924 2111 2205 2267 2322 2331 2346 2352 2354 2339 2340 2385 2403 2398 2352 2194 1942 1633 1166 927 809 757 705 644
0 0 0 0 0 0 0 0 0 0 0 0 0 0 1 3 69 158 226 206 152 0 25 200 464 1087 1587 2529 3120 3154 2946 2871 2985 3121 3240 3014 2439 1753 1731 1898 2018 2103 2160 2217 2258 2279 2277 2266 2293 2313 2340 2354 2348 2322 2272 2114 1931 1641 1175 891 864 817 776
0 0 0 0 0 0 0 0 0 0 0 0 0 0 0 3 2 1 0 34 0 0 0 34 409 962 1542 1946 2178 2382 2491 2504 2436 2542 2841 3161 3089 2724 2104 1812 2001 2092 2140 2164 2186 2188 2198 2218 2234 2262 2266 2274 2258 2250 2217 2158 2053 1903 1615 1187 998 974 939
0 0 0 0 0 0 0 0 0 0 0 0 0 0 0 0 2 2 0 0 0 0 0 0 292 786 1292 1604 1914 2110 2189 2245 2312 2352 2583 2918 3169 3077 2751 2262 1936 2045 2109 2141 2177 2182 2190 2189 2187 2176 2186 2185 2168 2165 2188 2155 2119 2028 1878 1637 1204 1113 1098
0 0 0 0 0 0 0 0 0 0 0 0 0 0 0 0 0 3 4 1 0 0 0 24 196 259 355 573 896 1222 1562 1859 2045 2190 2496 2812 3075 3147 2950 2591 2278 2006 2077 2126 2167 2179 2177 2150 2152 2148 2138 2121 2104 2112 2141 2138 2151 2114 1989 1888 1673 1320 1236
0 0 0 0 0 0 0 0 0 0 0 0 0 0 0 0 0 0 1 0 0 1 1 1 1 4 14 88 359 808 1337 1817 2084 2245 2446 2774 3199 3282 2998 2712 2407 2122 2080 2137 2191 2189 2183 2166 2164 2147 2128 2094 2106 2099 2096 2113 2176 2168 2081 1989 1906 1728 1368
0 0 0 0 0 0 0 0 0 0 0 0 0 0 0 0 0 0 0 1 1 0 0 1 1 2 2 26 271 811 1538 1932 2054 2212 2390 2768 3274 3460 3231 2806 2398 2161 2037 2094 2138 2161 2181 2159 2141 2135 2110 2127 2088 2047 2052 2100 2167 2210 2158 2110 2062 2007 1837
0 0 0 0 0 0 0 0 0 0 0 0 0 0 0 0 0 0 0 1 1 0 0 1 2 2 1 40 315 821 1553 1825 1832 1947 2194 2763 3242 3584 3454 2927 2418 2168 1950 2094 2138 2160 2172 2150 2151 2143 2113 2115 2063 2022 2058 2114 2137 2141 2169 2221 2209 2136 2006
0 0 0 0 0 0 0 0 0 0 0 0 0 0 0 1 0 0 0 0 0 0 0 0 1 2 1 46 260 648 1273 1386 1358 1676 2194 2825 3365 3647 3619 3242 2582 2192 1985 2079 2136 2230 2262 2261 2234 2173 2107 2039 2043 2070 2140 2154 2101 2138 2314 2371 2346 2243 2154
0 0 0 0 0 0 0 0 0 0 0 0 0 0 0 0 0 0 0 0 0 0 0 0 0 1 1 2 162 589 1005 1176 1290 1738 2224 2758 3309 3677 3757 3497 2865 2377 2159 2247 2242 2239 2286 2332 2335 2295 2208 2154 2124 2139 2160 2169 2216 2246 2401 2442 2430 2372 2287

ECMWFFLT1_con_mucape_078.txt.gz
CAPE
878 878 858 828 788 737 758 794 801 794 788 778 770 744 678 494 114 140 256 338 437 409 394 589 646 662 655 650 630 332 160 95 46 0 0 0 102 486 883 1134 1265 1337 1462 1638 1701 1785 1880 2012 2112 2123 2116 2086 2117 2209 2226 2236 2340 2419 2396 2509 2545 2540 2484
859 835 826 822 787 748 718 728 756 753 790 778 774 746 668 569 215 112 210 298 377 403 371 406 550 617 621 619 586 309 218 122 113 152 8 0 42 145 549 920 1109 1193 1266 1402 1515 1622 1693 1799 1898 1926 1900 1986 2089 2048 2122 2143 2138 2222 2277 2329 2394 2406 2359
956 918 861 826 804 782 773 774 802 781 750 766 766 711 680 606 505 234 178 260 334 376 357 381 525 505 525 491 571 513 265 159 130 140 35 0 0 1 100 567 914 1035 1096 1177 1306 1417 1522 1588 1628 1719 1792 1871 1938 1973 2013 2069 2093 2121 2177 2222 2254 2219 2150
945 969 962 907 870 847 840 842 829 810 774 746 704 723 677 635 572 114 139 231 296 359 358 359 433 490 519 509 508 545 298 211 147 128 93 6 0 0 0 60 336 860 947 1012 1123 1230 1309 1386 1442 1530 2045 1776 1856 1920 1930 1941 1991 2031 2063 2129 2172 2129 2041
851 966 1005 1018 1012 976 935 903 845 808 791 760 716 726 682 656 609 552 100 204 250 319 340 352 394 477 534 521 478 394 346 256 166 116 131 56 2 0 0 0 27 260 724 871 958 1136 1232 1246 1302 1375 1485 1609 1654 1742 1834 1849 1890 1946 1994 2064 2098 2082 2045
208 926 1055 1089 1052 1025 988 932 872 823 769 776 754 737 740 690 593 557 517 215 244 286 320 361 459 545 531 535 530 464 388 304 219 161 114 108 17 0 0 0 0 21 206 518 770 878 1003 1096 1145 1188 1234 1405 1568 1625 1700 1788 1842 1873 1942 1965 2001 2038 2042
87 553 1034 1112 1130 1090 1043 1005 947 873 835 794 758 748 772 754 674 567 520 476 242 282 479 437 509 505 494 539 556 572 444 351 215 127 86 84 37 0 0 0 3 0 16 206 473 691 796 922 1000 1050 1061 1170 1485 1552 1604 1689 1739 1770 1902 1868 1902 1954 1982
34 248 851 1074 1130 1131 1098 1066 1028 962 890 842 790 791 818 783 705 662 592 506 203 265 514 507 534 538 514 519 531 525 492 400 243 134 62 49 44 23 0 0 0 0 0 8 159 464 677 798 884 932 966 976 1155 1425 1507 1555 1610 1608 1795 1894 1854 1856 1887
357 344 616 987 1076 1117 1125 1112 1079 1033 968 918 870 828 800 812 768 700 652 604 550 529 543 539 560 555 529 536 562 580 494 440 326 162 50 36 36 26 0 0 0 0 0 0 9 228 488 636 749 843 868 895 952 1127 1327 1413 1502 1538 1660 1826 1873 1889 1872
468 577 815 1004 1060 1134 1157 1141 1112 1080 1033 967 930 886 833 847 807 719 683 670 644 614 597 582 583 573 573 584 591 615 553 432 350 184 72 27 33 38 13 0 0 0 0 0 1 58 329 481 566 696 728 801 864 897 1080 1234 1342 1428 1487 1676 1802 1847 1897
563 633 774 993 1144 1183 1188 1171 1171 1164 1120 1043 974 933 866 798 780 748 709 686 676 663 644 624 599 582 596 605 621 648 624 578 346 221 114 37 15 20 18 0 0 0 0 0 0 10 128 408 494 530 584 664 753 830 909 1046 1165 1266 1352 1494 1640 1740 1782
655 637 696 838 1047 1177 1222 1211 1185 1166 1143 1139 1095 1032 993 890 808 753 716 714 693 692 661 662 632 608 627 622 650 664 661 623 566 595 576 536 18 3 3 4 0 0 0 0 0 0 22 179 404 475 460 518 598 687 838 960 1032 1127 1254 1359 1504 1620 1704
772 737 719 785 881 1038 1133 1192 1178 1158 1185 1121 1088 1091 1042 983 898 804 758 726 701 702 694 680 660 644 638 652 664 670 674 631 588 618 636 612 586 480 2 0 0 0 0 0 0 0 0 6 160 423 424 385 401 453 583 747 926 1054 1134 1225 1350 1538 1696
832 815 813 778 816 881 953 1054 1109 1122 1107 1100 1081 1011 987 978 928 871 792 762 740 720 718 695 679 660 664 659 664 684 683 649 580 617 653 691 692 685 604 264 0 0 0 0 0 0 0 0 0 51 298 324 270 288 322 363 558 783 960 1085 1233 1380 1559
1020 971 911 845 828 851 873 891 918 957 964 1003 984 988 979 962 950 885 819 756 744 750 744 736 709 696 690 680 688 684 676 647 590 604 637 680 734 798 810 748 634 0 0 0 0 0 0 0 0 0 4 69 154 184 196 193 218 360 611 807 1011 1202 1353
945 1032 967 943 890 914 976 958 957 917 897 884 871 926 910 920 914 878 858 801 771 763 763 733 728 715 705 711 687 677 661 631 618 623 644 663 708 795 850 868 828 721 358 0 0 0 15 5 0 0 0 0 2 29 76 168 198 266 54 294 789 995 1144
607 820 988 991 933 950 995 1066 1073 1067 1017 924 871 830 836 854 845 844 822 820 800 776 771 741 738 710 705 694 680 662 654 646 657 662 654 686 707 733 786 868 894 916 821 654 0 0 1 14 8 2 0 0 0 0 1 36 108 30 0 0 17 647 991
488 613 780 958 1029 982 983 1056 1110 1180 1158 1101 1032 938 867 798 781 778 753 740 702 721 704 713 699 702 681 678 652 670 677 683 703 692 688 697 707 734 783 819 887 930 934 929 885 730 248 0 0 1 4 4 3 4 3 1 0 0 0 0 0 108 774
376 513 629 684 842 947 993 1085 1108 1123 1196 1210 1172 1140 1095 1025 986 944 860 765 920 805 659 815 768 742 715 707 717 742 750 742 747 731 732 738 743 768 785 777 867 924 961 964 962 964 948 844 620 41 0 0 3 9 24 24 0 0 0 0 0 0 122
210 362 512 598 642 768 927 974 1002 1118 1150 1196 1219 1182 1179 1161 1126 1082 1028 973 905 850 964 1135 1179 1150 1089 1068 1012 978 948 814 834 822 829 830 808 764 817 870 906 946 988 1000 1013 1006 1018 1036 1031 956 792 418 0 0 0 2 0 0 0 0 0 0 1
168 215 358 480 550 614 756 864 943 946 1052 1148 1272 1290 1227 1232 1172 1141 1097 1031 973 934 947 1242 1320 1286 1242 1208 1121 1004 877 868 851 901 904 874 869 930 969 968 980 1013 1034 1044 1058 1072 1084 1062 1144 1198 1210 1162 1064 915 770 128 106 0 0 0 0 0 0
108 173 216 306 429 494 609 701 785 788 876 965 1095 1280 1296 1289 1249 1188 1092 1037 1002 964 877 1025 1172 1106 917 1144 1089 1023 969 924 814 864 983 997 919 991 1066 1073 1078 1098 1102 1104 1132 1154 1169 1163 1227 1321 1431 1492 1475 1380 1223 1129 990 813 473 0 0 0 0
22 81 149 160 230 322 405 517 619 670 715 770 894 1029 1100 1141 1215 1196 1140 1057 895 1014 981 995 843 1138 1105 1054 836 1083 1051 1011 943 968 1126 1176 1139 1056 1118 1137 1162 1178 1174 1190 1216 1250 1257 1277 1364 1424 1472 1560 1708 1733 1636 1444 1239 1050 849 544 0 0 0
10 38 115 130 143 179 254 349 433 522 548 579 656 730 742 922 959 922 882 803 759 1237 1231 1159 1049 948 1013 1036 1121 1018 1242 1178 1260 1345 1424 1405 1381 1361 1244 1219 1242 1265 1256 1297 1309 1336 1360 1351 1430 1513 1591 1667 1737 1896 2009 1970 1753 1428 1130 885 648 131 0
25 0 0 7 84 119 101 124 209 303 395 385 507 547 586 616 425 774 807 1040 1082 1007 984 1053 1104 1051 1035 1087 765 1020 984 1550 1551 1552 1578 1621 1605 1568 1564 1562 1568 1250 1290 1320 1365 1408 1449 1507 1558 1638 1713 1771 1824 1886 2051 2155 2165 2015 1713 1280 937 657 204
59 22 0 0 0 26 16 0 2 86 189 292 282 287 365 408 427 222 350 433 768 952 1039 1192 1224 1266 1180 1396 1276 1076 1039 1506 1919 1868 1755 1778 1769 1768 1780 1818 1819 1819 1588 1560 1534 1583 1592 1689 1724 1767 1832 1893 1944 1973 2047 2166 2241 2233 2199 1898 1428 1011 690
0 0 0 0 0 0 17 0 0 0 0 34 52 72 167 234 221 196 266 305 253 584 668 875 1025 1008 1036 1388 1701 1347 1035 1057 1482 2022 1980 1795 1833 1823 1789 1714 1757 1868 1729 1826 1739 1734 1778 1844 1891 1917 1965 1996 2022 2044 2087 2165 2244 2257 2267 2306 2080 1598 1086
0 0 0 0 0 0 1 0 0 0 0 0 0 0 0 2 2 95 177 215 224 327 411 458 658 790 831 1235 1413 1713 1450 1205 1088 1084 1366 1694 1844 1873 1843 1907 2086 1941 1972 1968 1953 1972 1982 1999 2026 2044 2051 2076 2102 2090 2117 2180 2239 2258 2258 2310 2378 2223 1790
0 0 0 0 0 0 0 0 0 0 0 0 0 0 0 0 0 31 136 185 183 184 249 286 335 352 596 842 861 1539 1532 1707 1741 1440 1360 1389 1363 1577 1651 1704 1953 2062 2094 2156 2208 2185 2181 2191 2160 2154 2145 2138 2121 2095 2112 2164 2208 2232 2238 2263 2332 2399 2269
0 0 0 0 0 0 0 0 0 0 0 0 0 0 0 0 0 1 41 133 122 103 150 222 266 400 394 497 1247 1203 1393 1577 1863 1676 1950 1836 1606 1387 1314 1638 1850 2088 2275 2252 2291 2301 2303 2234 2233 2193 2158 2083 2092 2079 2106 2125 2155 2171 2176 2201 2247 2321 2371
0 0 0 0 0 0 0 0 0 0 0 0 0 0 0 0 0 0 0 0 2 3 1 2 99 203 141 276 334 628 1358 1512 1685 1778 1403 1539 1910 2016 2054 1607 1292 1668 1981 2111 2082 2178 2177 2200 2158 2136 2089 2065 2030 2026 2036 2066 2089 2098 2075 2090 2143 2239 2304
0 0 0 0 0 0 0 0 0 0 0 0 0 0 0 0 0 1 0 2 2 2 1 2 3 42 42 9 60 158 204 308 461 1162 1407 1335 1292 1509 1817 2138 2401 2084 1822 1916 2062 2040 2022 2036 2025 1998 1978 1944 1946 1934 1953 1995 2048 2064 2016 2018 2074 2163 2231
0 0 0 0 0 0 0 0 0 0 0 0 0 0 0 0 0 0 0 0 1 1 2 2 2 3 3 3 3 2 39 149 322 643 1006 1409 1560 1607 1658 1797 2141 2279 2087 1977 2387 1919 1908 1918 1899 1894 1881 1876 1882 1857 1888 1954 1986 1990 1965 1953 1981 2049 2119
0 0 0 0 0 0 0 0 0 0 0 0 0 0 0 0 0 0 0 0 0 0 2 2 2 2 1 1 1 1 1 50 234 543 878 1291 1593 1742 1762 1959 2199 2240 2290 2531 2622 2419 2153 1910 1830 1842 1837 1829 1814 1806 1835 1890 1912 1895 1880 1893 1941 1996 2010
0 0 0 0 0 0 0 0 0 0 0 0 0 0 0 0 0 0 0 0 0 1 1 1 1 1 1 1 0 1 2 63 256 582 1070 1457 1616 1656 1715 1829 2144 2724 2926 3013 2832 2602 2342 2107 1919 1870 1823 1796 1768 1736 1746 1759 1784 1792 1781 1801 1820 1810 1800
0 0 0 0 0 0 0 0 0 0 0 0 0 0 0 0 0 0 0 0 1 2 2 3 2 1 1 1 0 1 3 69 218 565 831 753 810 1043 1327 1555 2118 2614 2958 3127 3119 2865 2565 2256 2118 2013 1910 1827 1797 1718 1758 1766 1657 1614 1645 1709 1732 1738 1683
0 0 0 0 0 0 0 0 0 0 0 0 0 0 0 0 0 0 0 0 2 2 2 2 2 2 2 2 2 3 2 12 78 292 559 757 827 1031 1333 1692 2105 2547 2950 3144 3258 3140 2902 2558 2312 2114 1944 1814 1925 1770 1747 1720 1650 1603 1616 1648 1659 1587 1774
0 0 0 0 0 0 0 0 0 0 0 0 0 0 0 0 0 0 0 0 1 2 3 3 3 3 3 3 1 1 3 11 119 416 657 750 811 987 1248 1688 2051 2488 2908 3106 3204 3186 2969 2676 2390 2129 1907 1767 1687 1784 1776 1761 1751 1737 1746 1761 1751 1625 1798

ECMWFFLT1_con_mucape_081.txt.gz
CAPE
1383 1238 1174 1163 1105 935 875 1042 826 797 741 690 666 651 625 601 982 1193 1191 1432 1565 1776 1710 1684 1536 1498 1559 1526 1580 1584 1449 1460 1419 1267 1205 1347 1312 1731 2127 2069 2308 2809 2622 2887 3140 3426 3689 3686 3624 3543 3579 3686 3568 3824 4044 4058 4084 3895 4078 4232 4189 4129 4097
1337 1276 1222 979 1131 1174 1074 1170 1150 823 796 743 731 726 695 674 1020 1134 1190 1478 1560 1718 1716 1612 1613 1544 1529 1633 1541 1619 1474 1357 1356 1394 1230 1499 1635 1871 1915 2353 2481 2894 3054 2893 3230 3516 3630 3640 3498 3546 3546 3631 3409 3778 3722 3923 3950 3997 3510 4095 3837 4195 4089
955 1252 1242 1032 972 1059 1275 1224 1286 1114 851 812 790 747 728 827 1093 1086 1224 1289 1434 1584 1600 1567 1664 1570 1514 1643 1606 1602 1467 1294 1271 1214 1119 987 1050 839 1404 2084 2356 2449 2527 2760 3135 3177 3173 3262 3401 3522 3459 3315 3029 3612 3712 3662 3928 3823 3869 4108 3721 3311 4151
717 914 975 1244 1188 1224 1281 1309 1291 1230 894 867 844 796 780 999 995 1162 1182 1135 1300 1476 1532 1471 1539 1461 1503 1611 1570 1599 1518 1430 1251 1024 928 903 973 915 1358 1753 2076 2042 2474 2457 2493 2683 2534 2872 3106 3307 3316 3383 3369 3388 3403 3314 3252 3602 3763 4024 3630 3520 3877
17 660 871 926 1219 1190 1238 1258 1245 1313 1155 860 854 858 830 793 761 732 956 983 1075 1214 1298 1306 1282 1350 1461 1489 1398 1395 1413 1375 1303 1106 1059 1006 1062 1093 1023 947 1330 1615 1907 2140 2436 2715 2776 2842 2706 2996 3118 3311 3306 3376 3428 3538 3397 3682 3696 3800 3575 3445 3368
4 39 509 872 1096 1208 1192 1141 1196 1205 1212 961 862 882 858 833 775 752 747 881 960 1069 1233 1250 1217 1349 1440 1397 1333 1251 1385 1436 1396 1338 1193 1213 1227 959 874 931 1025 1278 1472 1862 2012 2227 2606 2574 2575 2736 2739 2871 2804 2725 2896 3147 3165 3296 3525 3633 3420 3166 2887
332 266 266 587 909 1211 1095 1156 939 882 1198 992 783 833 852 838 814 780 753 733 694 966 1064 1112 1112 1203 1450 1356 1355 1442 1454 1390 1415 1263 1130 1098 1049 993 908 938 976 914 1045 1633 1812 1966 2165 2452 2574 2666 2650 2516 2684 2576 2814 3199 3096 3202 3391 3589 3639 3665 3518
478 458 481 581 890 1114 1020 1202 894 913 1120 1039 798 771 763 772 762 763 727 683 659 680 977 989 1040 1195 1339 1306 1342 1366 1402 1265 1222 1224 1151 1013 992 994 908 892 954 936 1027 1136 1482 1757 1732 2218 2257 2485 2498 2415 2633 2805 2845 3221 3357 3074 3051 3359 3500 3457 3113
624 622 604 772 982 1057 1216 1092 1001 969 939 910 888 862 856 821 801 792 752 693 676 654 622 853 926 1029 1310 1372 1406 1446 1327 1261 1298 1241 1152 1011 941 889 783 800 821 866 857 636 714 1350 1454 1791 1830 2315 2528 2324 2513 2933 2838 3142 3027 2906 2989 3149 3337 3323 2956
684 799 788 806 991 1115 1130 1118 1355 1020 1018 1252 1042 938 928 882 829 762 726 707 682 699 679 594 850 973 1258 1305 1286 1324 1332 1370 1277 1125 1063 951 908 852 807 714 702 827 707 624 529 824 1255 1421 1604 2173 2440 2299 2477 2731 2708 2882 2792 2743 2806 3063 3130 3146 3299
746 814 906 957 923 1058 1105 1134 1143 1183 1257 1576 1383 975 926 941 934 863 785 730 699 729 735 684 588 918 1095 1134 1141 1152 1253 1254 1218 1137 1047 943 866 866 809 761 681 667 608 570 516 571 812 1254 1528 1884 2215 1858 2104 2374 2521 2541 2669 2739 2511 2660 2790 2984 2934
651 766 871 951 1026 1077 1140 1158 1182 1177 1186 1377 1359 1079 1026 1001 987 937 929 840 765 740 729 739 709 601 1012 1051 1014 1133 1172 1251 1178 1100 1076 975 894 836 803 787 717 624 598 537 541 578 595 951 1132 1327 1782 1822 1849 2081 2373 2477 2573 2693 2613 2407 2579 2782 2757
603 665 733 821 1004 1086 1133 1171 1179 1209 1230 1198 1165 1096 1079 1100 1063 1034 1004 930 902 828 740 758 773 700 760 995 980 1166 1178 1201 1187 1197 1100 1086 974 869 835 772 730 634 571 540 512 534 526 617 981 1212 1392 1739 1789 1797 2162 2415 2350 2609 2725 2562 2609 2808 2772
767 828 817 723 820 976 1076 1153 1175 1223 1236 1207 1210 1147 1138 1102 1140 1112 1080 1054 1006 944 875 820 780 759 1015 1045 1096 1195 1219 1174 1184 1232 1243 1179 1214 1090 921 808 737 728 611 550 504 456 422 446 666 1100 1154 1402 1575 1728 1961 2338 2341 2572 2684 2621 2544 2609 2648
534 727 782 794 791 801 928 1028 1090 1134 1186 1225 1216 1206 1181 1159 1115 1543 1030 1034 1058 1050 1024 962 890 834 801 964 1205 1338 1382 1312 1218 1280 1350 1362 1447 1322 1103 937 862 810 757 658 528 390 357 368 398 711 979 1106 1383 1504 1613 1637 1801 1933 2262 2392 2495 2464 2248
407 533 697 815 784 784 816 921 1014 1101 1139 1155 1203 1194 1186 1169 1151 1112 1074 1102 973 995 993 969 953 902 847 816 1160 1436 1486 1530 1416 1351 1442 1484 1604 1578 1356 1032 806 666 807 713 628 534 471 407 385 413 717 952 1301 1380 1384 1383 1474 1605 1199 1554 2140 2391 2023
180 332 487 846 797 746 791 855 874 968 1069 1114 1120 1135 1140 1121 1132 1068 1052 1040 1025 954 952 942 924 894 865 841 826 1315 1436 1708 1751 1614 1632 1681 1729 1626 1466 1164 838 761 766 782 747 726 648 554 397 276 304 478 756 1025 1050 1083 1036 557 4 3 695 1699 2312
0 284 416 548 756 741 701 834 888 915 937 985 1040 1068 1067 1074 1061 1050 1024 1018 1017 1068 1413 906 893 873 863 855 1134 1422 1593 1516 1645 1728 1748 1765 1674 1652 1544 1251 1057 753 812 847 878 884 864 805 695 558 296 228 317 427 634 820 553 3 0 0 0 326 1475
0 153 226 530 642 794 821 799 875 911 950 957 935 972 989 964 949 955 982 969 969 1465 1536 1624 893 842 820 800 871 1569 1706 1569 1727 1854 1727 1743 1684 1697 1622 1489 1208 1076 751 823 879 917 979 988 959 880 736 460 356 248 250 372 105 0 0 0 0 0 229
0 0 57 204 390 475 594 788 745 785 912 961 987 953 980 943 920 909 904 912 888 1273 1777 1970 2385 1607 1307 1361 1420 1745 1778 1895 1810 1754 1757 1844 1840 1747 1618 1468 1347 1074 804 816 796 879 954 1006 1036 1041 1026 946 799 595 396 325 82 0 0 0 0 0 41
0 0 0 0 186 288 357 502 669 687 728 792 876 953 996 1044 1047 963 936 866 829 889 1408 1697 2026 2421 2071 1804 1921 1882 1916 2047 1838 1958 2003 2058 1922 1811 1682 1573 1432 1179 816 817 832 867 922 1011 1040 1082 1088 1068 1069 1043 987 883 697 128 0 0 0 0 0
0 0 0 0 6 123 224 328 432 612 634 649 735 795 865 960 990 1048 1070 1070 1019 979 938 871 958 1150 1586 1836 2076 2215 2072 1793 1548 1858 1940 1429 1989 1831 1862 1743 1737 1623 1293 915 868 925 964 1034 1058 1088 1123 1128 1128 1120 1122 1130 1102 1074 959 618 483 0 0
0 0 0 0 0 26 115 197 299 351 494 595 650 703 748 828 951 1020 1013 1073 1126 1059 969 924 961 857 1068 1176 1287 1696 1654 1751 1635 1569 1643 1614 1382 1418 1488 1960 1920 1797 1628 1236 973 1025 1053 1071 1097 1127 1143 1154 1169 1159 1194 1253 1300 1305 1286 1252 1160 984 795
0 0 0 0 0 0 0 64 132 220 274 427 543 611 621 616 745 868 924 871 833 811 884 965 1005 950 1027 1088 1120 1350 1509 1604 1530 1473 1413 1520 1585 1587 1817 1617 1734 1861 1695 1516 1250 1089 1108 1119 1147 1180 1194 1204 1234 1225 1271 1336 1404 1455 1534 1553 1493 1369 1265
0 0 0 0 0 0 0 31 91 114 160 263 333 400 493 501 593 609 614 596 622 574 698 899 915 958 937 986 1026 1038 1073 1258 1644 1659 1477 1524 1404 1270 1433 1554 1707 1990 2087 1796 1521 1275 1246 1199 1250 1283 1299 1300 1324 1313 1375 1447 1505 1547 1614 1744 1828 1763 1625
0 0 0 0 0 0 0 0 0 46 64 94 174 207 261 301 391 440 434 426 421 553 553 820 1007 1152 1078 1023 1017 1072 1079 1062 1056 1631 1726 1720 1791 1594 1340 1462 1776 1509 1286 1446 1569 1113 1632 1336 1408 1444 1472 1466 1498 1522 1528 1568 1589 1629 1669 1694 1835 1970 1978
0 0 0 0 0 0 0 0 0 0 38 52 59 101 130 163 214 299 299 308 280 288 560 588 681 841 868 1004 1107 1142 1163 1278 1356 1295 1439 1662 1887 1608 1488 1363 1711 1561 1221 1326 1415 1033 1328 1515 1579 1652 1673 1681 1680 1681 1685 1711 1736 1749 1770 1789 1807 1843 1973
0 0 0 0 0 0 0 0 0 0 0 6 46 50 26 96 122 167 166 170 157 194 306 484 461 493 466 642 834 1004 1055 1212 1447 1479 1415 1398 1332 1601 1645 1972 1959 1526 1550 1872 1605 1546 1555 2322 1972 1850 1819 1821 1808 1807 1799 1809 1825 1837 1883 1899 1918 1898 1898
0 0 0 0 0 0 0 0 0 0 0 0 0 23 48 13 85 28 42 132 95 108 76 206 332 322 299 407 509 578 1217 1448 1271 1263 1308 1384 1387 1435 1740 1853 1754 1692 1724 1696 1644 1692 1627 1798 2146 2680 2679 2603 2327 2044 2016 1964 1962 1964 1976 1976 1990 1990 1966
0 0 0 0 0 0 0 0 0 0 0 0 0 0 0 26 6 0 0 0 1 1 1 1 2 0 210 229 173 252 383 595 919 1084 1306 1346 1564 1498 1319 1713 1690 1548 1571 1701 1890 1730 1732 1712 2113 2511 2526 2581 2396 2690 2443 2369 2592 2226 2090 2074 2047 2028 2008
0 0 0 0 0 0 0 0 0 0 0 0 0 0 0 0 0 0 0 0 0 2 2 1 1 8 161 231 220 182 223 332 508 619 1199 1333 1416 1409 1395 1328 1505 1592 1527 1709 2003 2052 2212 2215 2352 2869 3048 2832 2741 2838 2792 2509 2446 2806 2274 2101 2120 2108 2075
0 0 0 0 0 0 0 0 0 0 0 0 0 0 0 0 0 0 0 0 0 1 2 2 42 2 2 53 140 147 191 208 264 361 362 743 1539 1559 1595 1429 1450 1475 1684 1681 2006 2280 2130 2192 2711 3045 3207 3106 2875 2928 2981 2896 2878 2808 2826 2189 2136 2127 2078
0 0 0 0 0 0 0 0 0 0 0 0 0 0 0 0 0 0 0 0 0 0 2 5 2 2 2 1 0 1 34 164 130 29 110 202 926 1660 1879 1925 1825 1618 1506 1817 1964 1954 2348 2584 2736 3002 2967 2617 2821 3081 3092 3086 2794 2703 3010 2725 2127 2031 1987
0 0 0 0 0 0 0 0 0 0 0 0 0 0 0 0 0 0 0 0 0 0 1 3 4 3 2 2 3 1 2 2 2 14 92 294 638 1034 1709 2374 2310 2159 2052 2010 1926 2148 2231 2209 2419 2556 2666 2908 3185 3202 3222 3152 3099 2988 3049 2926 2527 1996 1945
0 0 0 0 0 0 0 0 0 0 0 0 0 0 0 0 0 0 0 0 0 0 1 1 2 4 4 3 3 2 4 5 4 26 93 244 543 827 1412 1731 2013 2083 2018 2074 2198 2087 2161 2231 2171 2627 2919 3134 3262 3252 3282 3291 3215 3139 2753 2688 2363 2105 1883
0 0 0 0 0 0 0 0 0 0 0 0 0 0 0 0 0 0 0 0 0 0 0 2 2 2 2 2 4 6 3 5 5 6 10 45 176 410 602 765 811 944 1245 1622 1646 1724 1874 2132 2197 2240 2464 2887 3120 3323 3322 3426 3418 2736 2414 2240 2095 1994 1875
0 0 0 0 0 0 0 0 0 0 0 0 0 0 0 0 0 2 2 1 0 0 0 0 2 2 2 3 3 4 6 5 3 1 7 59 128 357 554 716 730 784 859 904 1018 1265 1664 1961 2045 2311 2569 2696 2727 2633 2509 2438 2337 2364 2239 2082 1980 1906 1814
0 0 0 0 0 0 1 1 1 1 0 0 0 0 0 0 0 0 0 0 0 0 0 0 1 2 2 2 3 4 8 7 4 7 8 66 184 333 507 651 764 959 813 847 937 1092 1544 1951 2251 2490 2667 2845 2936 2986 2898 2742 2474 2283 2149 2029 1909 1781 1689

ECMWFFLT1_con_mucape_084.txt.gz
CAPE
965 1920 1939 1889 1768 1601 1505 1524 1447 1342 1322 1366 1487 1451 1456 1586 1673 1998 2376 3108 3348 3553 3502 3394 3187 3109 3054 2881 2590 2381 2241 2202 2291 2226 2213 1979 1568 1480 1667 1478 1554 1845 1614 1828 2033 1920 2518 2475 2677 2916 3000 2846 2774 3353 3829 3657 3651 3791 4072 4792 3913 3998 4099
1134 1604 1832 1756 1723 1247 1742 1672 1612 1470 1414 1414 1488 1597 1497 1614 1760 1963 2417 3028 3301 3532 3534 3466 3266 3151 2971 2936 2676 2621 2552 2208 2301 2263 2171 2049 1942 1842 1751 1855 1583 1766 1917 1685 1873 2292 2505 2774 2651 2680 2622 3065 2776 3141 3343 3396 3536 3593 3490 3799 3775 4026 3814
1123 1217 1086 1704 1788 1386 2033 1835 1726 1598 1516 1461 1476 1571 1586 1728 1810 2066 2422 2842 3205 3406 3505 3459 3453 3084 3116 3030 2782 2722 2614 2246 2248 2324 2139 1794 1971 1586 1646 1872 1855 1648 1757 1568 1738 2291 2469 2701 2629 2509 2452 2360 2004 2529 2972 2970 3124 3224 3366 3711 3591 3374 3724
878 1186 1053 1158 1180 1850 1869 1963 1881 1524 1505 1456 1502 1652 1662 1774 1755 2095 2394 2616 3009 3192 3396 3230 3197 3008 2961 3094 2970 2883 2684 2527 2181 1991 1843 1557 1675 1779 1586 1775 1912 1576 1464 1517 1434 1450 1406 1569 2209 2479 2585 2320 2200 2176 2527 2404 2382 2792 3007 3347 3263 3100 3418
614 575 993 1102 1069 1528 1823 1896 1902 1954 1601 1170 1521 1721 1766 1681 1714 1948 2252 2274 2369 2702 2939 2961 2771 2754 2836 2885 2757 2652 2678 2491 2236 1898 1786 1620 1615 1689 1594 1425 1619 1562 1177 1373 1570 1647 1856 2095 1957 2041 2636 2636 2443 2446 2514 2659 2393 2525 2814 3058 3066 2713 2916
573 600 601 968 1041 1188 1226 1342 1838 1856 1883 1521 1359 1410 1608 1600 1665 1755 2058 2108 2018 2227 2604 2689 2598 2737 2777 2732 2573 2376 2642 2612 2448 2192 1909 1836 1850 1655 1746 1623 1442 1523 980 1274 1282 1577 2384 2115 1644 1676 1895 1936 1760 1523 1915 2099 2158 2170 2598 2920 2903 2535 2358
416 579 653 823 1207 1109 1325 1725 1703 1548 1403 1402 1244 1300 1623 1419 1606 1608 1756 1838 1849 1958 2162 2356 2336 2488 2848 2687 2617 2681 2652 2599 2538 2259 2015 1904 1802 1785 1808 1730 1576 1180 1135 1143 1329 1343 1724 2078 1770 1869 1897 1501 1417 1329 1493 1969 1805 1888 2274 2759 3042 2984 2765
462 318 620 781 960 1125 1132 1270 1737 1332 1358 1379 1321 1269 1553 1506 1550 1654 1648 1595 1711 1670 1855 1945 2131 2322 2730 2763 2654 2553 2599 2480 2457 2448 2284 1890 1729 1868 1820 1706 1709 1510 1436 1129 1454 1446 1301 1704 1577 1724 1882 1445 1483 1673 1525 2080 2590 1940 1883 2389 2754 2947 2630
686 660 552 806 1066 1102 1162 1248 1300 1211 1271 1561 1356 1347 1226 1219 1172 1499 1522 1495 1566 1613 1686 1760 1868 2064 2552 2719 2731 2715 2605 2503 2494 2563 2330 1972 1636 1610 1524 1502 1626 1714 1657 1281 1040 1564 1372 1127 1278 1452 1993 1909 1645 2099 2036 2326 2286 1942 1952 2030 2538 2775 2359
756 750 722 942 1081 1224 1218 1146 1194 1201 1392 1703 1788 1708 1388 1645 1558 1261 1456 1458 1183 1483 1573 1655 1737 1884 2280 2631 2655 2615 2576 2596 2350 2269 2284 1920 1677 1419 1316 998 1308 1632 1665 1458 882 824 1492 1231 1043 1386 2059 2514 2036 2266 2456 2219 2369 1960 1904 2327 2570 2570 2760
689 766 908 938 1054 1180 1248 1171 1200 1215 1180 1309 1534 1476 1668 1597 1596 1238 1469 1359 1131 1135 1300 1587 1736 1758 2022 2387 2502 2402 2446 2422 2312 2177 2164 1880 1495 1434 1301 1011 787 1145 1472 1382 993 600 792 1494 1362 1324 1972 2450 2208 2139 2442 2209 2399 2468 1967 1883 2052 2385 2170
602 616 582 817 877 1092 1212 1164 1157 1185 1170 1160 1290 1263 1563 1245 1235 1530 1149 1430 1060 1082 1142 1170 1378 1682 1866 2173 2302 2320 2273 2342 2272 2069 2054 1930 1646 1424 1306 1154 848 778 1230 1385 1146 854 548 1069 1542 1286 1753 2365 2134 1826 2234 2397 2321 2514 2377 1713 1671 1927 1960
374 530 623 579 790 908 984 1048 1227 1210 1179 1107 1189 1281 1154 1358 1082 1048 1535 1478 1094 1251 1039 1438 1410 1697 1683 1926 2070 2254 2190 2208 2194 2158 1966 2065 1905 1570 1404 1213 997 855 858 1314 1238 883 637 632 1344 1578 1561 2197 2197 1578 1761 2323 2391 2498 2738 2315 1655 1815 2180
457 514 692 772 778 848 895 1037 1149 1149 1239 1206 1191 1162 1163 1124 1070 1473 1487 1004 1153 1032 986 978 982 1223 1694 1806 2018 2168 2166 2060 2116 2173 2153 2096 2243 2063 1661 1475 1301 1183 1103 1242 1446 1068 694 558 696 1383 1526 1644 1888 1735 1505 2038 2562 2777 2875 2778 1941 1771 2200
205 369 416 626 685 622 926 1017 937 1026 1082 1176 1204 1232 1171 1113 1078 1089 1511 1757 2151 1024 1040 1010 994 1287 1556 1728 1944 2232 2220 2182 2038 2153 2317 2339 2503 2422 2155 1829 1716 1606 1548 1484 1471 1223 983 788 490 741 1223 1326 1410 1507 1390 1201 1932 2221 2519 2791 2600 2015 1705
87 289 352 424 627 604 829 753 942 966 1004 1126 1172 1212 1192 1176 1144 1071 1046 1429 1650 1539 1014 960 992 1046 1071 1557 1868 2015 2103 2335 2286 2205 2466 2534 2672 2813 2632 2176 1977 1760 1806 1701 1702 1644 1492 1287 1078 754 823 1202 1432 1500 1355 1126 1022 1728 1728 2142 2344 2237 1414
18 99 303 307 481 628 591 681 793 942 935 944 1065 1168 1164 1148 1167 1150 1180 1148 1079 1808 1667 844 809 931 1066 1588 1776 2025 2038 2198 2483 2432 2503 2750 2862 2958 2975 2546 2152 1994 2091 2058 1974 1959 1893 1681 1445 1185 858 846 1135 1351 1343 1053 678 980 1488 1624 1808 1965 2152
0 0 154 284 235 370 468 540 646 731 821 986 1045 1072 1151 1160 1142 1158 1170 1180 1208 1395 1541 1720 824 992 1057 1572 1727 1977 2254 2350 2686 2661 2640 2725 2994 3162 3226 2799 2419 2310 2281 2204 2086 2262 1989 1834 1698 1628 1292 948 933 1021 1133 1179 751 154 1106 1231 1248 1418 1460
0 0 0 167 433 416 422 555 596 614 607 682 756 983 1144 1151 1201 1214 1239 1255 1264 1233 1523 1809 1920 1253 1327 1336 1566 1813 2078 2468 2738 2816 2628 2917 3083 3238 3262 2968 2698 2455 2295 2162 2217 2113 2305 2218 1911 1872 1708 1399 1262 1135 1069 1089 837 97 0 882 806 415 548
0 0 0 0 0 61 207 351 486 725 664 647 610 738 853 973 1093 1156 1198 1198 1199 1287 2016 1857 2118 2504 2750 1973 1688 1726 1936 2335 2610 2891 2856 2921 3087 3136 2888 2834 2780 2442 2040 1848 1934 2146 2201 2185 2166 2009 2066 1888 1614 1516 1366 1278 933 824 261 0 0 0 230
0 0 0 0 0 0 21 96 203 285 439 618 631 670 759 850 764 894 969 1065 1062 1068 1052 1923 2492 2170 2316 2458 1834 1289 1801 2173 1964 2528 2722 2911 2863 2896 2943 2818 2689 2510 2053 1633 1655 1861 2127 2105 2113 2081 2106 1979 1824 1740 1524 1312 974 898 780 130 0 0 20
0 0 0 0 0 0 0 0 0 0 189 259 540 617 691 719 668 720 763 858 973 975 898 1279 1884 1865 2202 2208 2542 2597 2316 1951 1857 2300 2461 2651 2738 2870 3026 2886 2699 2576 2460 2066 1649 1661 1795 2046 1981 1830 1898 1920 1935 1850 1776 1624 1113 1109 1092 1021 899 714 433
0 0 0 0 0 0 0 0 0 0 0 0 0 423 519 599 634 708 700 798 816 921 957 991 945 868 1157 1507 1657 2023 2181 2396 2449 2812 2505 2652 2541 2579 2797 2736 2620 2626 2562 2328 1989 1770 1590 1697 1952 1910 1823 1799 1881 1857 1854 1796 1389 1142 1140 1162 1130 1060 944
0 0 0 0 0 0 0 0 0 0 0 0 0 0 250 408 515 519 623 705 754 733 801 861 910 750 672 741 830 1368 1750 1934 1976 1938 1975 2333 2302 2225 2498 2668 2570 2723 2619 2375 2145 1901 1762 1738 1808 1915 1664 1494 1725 1642 1761 1821 1533 1181 1182 1198 1179 1167 1157
0 0 0 0 0 0 0 0 0 0 0 0 0 0 0 74 347 405 436 505 574 736 802 850 834 902 943 986 924 893 1440 1844 2026 1916 1896 1947 2022 2170 2110 2372 2548 2557 2507 2359 2319 2335 2334 1902 1744 1860 1840 1574 1381 1281 1248 1677 1577 1218 1237 1232 1234 1209 1248
0 0 0 0 0 0 0 0 0 0 0 0 0 0 0 0 0 224 358 386 493 542 580 677 743 825 917 1017 1007 982 990 1792 1867 2088 2099 2045 1950 1885 2256 2073 2109 2322 2399 2584 2320 2275 2352 2371 2170 2186 2019 1589 1426 1372 1281 1675 1744 2498 1348 1351 1328 1290 1351
0 0 0 0 0 0 0 0 0 0 0 0 0 0 0 0 0 0 96 236 336 362 387 478 607 684 790 849 1030 1081 1058 1150 1595 2000 2225 2045 2239 2296 2075 2102 2446 2447 2268 2184 2356 2450 2578 2249 2234 2040 1939 1934 1962 1614 1332 1465 1827 2006 1407 1495 1535 1491 1405
0 0 0 0 0 0 0 0 0 0 0 0 0 0 0 0 0 0 0 0 47 130 0 311 514 624 661 713 714 859 917 1361 1125 1440 1867 2065 2293 2311 2321 2141 2152 2137 2455 2240 2055 2306 2374 2247 1996 1924 1927 1895 1776 1732 1666 1562 1582 2080 1755 1622 1701 1730 1704
0 0 0 0 0 0 0 0 0 0 0 0 0 0 0 0 0 0 0 0 0 0 0 50 241 261 369 431 454 526 564 640 798 1197 1441 1550 1801 1816 1994 2108 2373 2438 2366 2396 2372 2172 2068 2276 2239 2066 1826 1824 1691 1848 1792 1933 2182 1723 2188 1869 1786 1777 1797
0 0 0 0 0 0 0 0 0 0 0 0 0 0 0 0 0 0 0 0 1 0 0 0 0 174 296 344 292 407 408 427 448 478 561 1126 1462 1602 1772 2034 2132 2510 2601 2453 2461 2127 2081 2228 2444 2265 1854 1908 2095 2064 2068 2374 2402 2331 2188 2204 2124 2007 1888
0 0 0 0 0 0 0 0 0 0 0 0 0 0 0 0 0 0 0 0 0 0 0 0 0 0 12 220 248 255 344 397 371 449 452 437 665 1161 1889 1868 1754 2024 2380 2101 2268 2234 2210 2237 2204 2282 2067 1848 2210 2406 2579 2478 2564 3154 3566 2574 2419 2335 2300
0 0 0 0 0 0 0 0 0 0 0 0 0 0 0 0 0 0 0 0 0 0 0 0 0 0 2 51 1 100 127 214 221 268 238 253 562 890 1127 1608 1920 2004 2006 2029 2184 2251 2204 2158 2249 2234 1979 2041 2127 2161 2555 2864 2959 3527 3807 2650 2682 2495 2448
0 0 0 0 0 0 0 0 0 0 0 0 0 0 0 0 0 0 0 0 0 0 0 0 0 1 0 1 46 0 3 1 212 265 156 172 399 566 1014 1246 1447 1635 1843 1948 1880 1973 2126 2178 2138 2283 2335 2347 2352 2355 2385 2796 3379 3054 2556 2552 2194 1924 2180
0 0 0 0 0 0 0 0 0 0 0 0 0 0 0 0 0 0 0 0 0 0 0 0 0 0 0 0 0 2 2 10 16 121 223 251 452 368 325 1054 1500 1730 1839 2020 1953 1923 1911 2043 2148 2184 2397 2457 2694 2736 3140 3184 3115 2515 2192 1836 1807 2014 2047
0 0 0 0 0 0 0 0 0 0 2 0 0 0 0 0 0 0 0 0 0 0 0 0 0 0 0 0 0 0 6 9 14 85 124 160 181 196 231 174 669 1358 2058 2097 2149 2162 2259 2346 2236 2431 2379 2098 2432 2511 2968 2983 2722 2588 2114 1891 1744 1570 1684
2 1 0 0 0 0 0 0 0 0 0 0 0 0 0 0 0 0 0 0 1 1 0 0 0 0 0 0 0 0 0 0 7 34 73 81 124 116 125 117 36 253 323 723 812 934 1184 1463 1754 2186 2345 2383 2501 2733 2710 2872 3416 2456 2283 2162 1950 1827 1828
1 0 0 0 0 0 0 0 0 0 0 0 0 0 0 0 0 0 0 0 0 0 0 1 0 0 0 0 0 0 0 0 0 0 60 111 130 212 353 334 385 28 0 370 470 512 539 569 681 1026 1193 1318 1604 1907 2030 2043 2142 2242 2244 2222 2058 2066 2054
1 1 1 2 0 0 0 0 0 0 0 0 0 0 3 7 2 1 0 0 0 2 2 2 7 2 0 0 0 0 0 0 0 0 1 13 26 70 76 177 252 271 189 0 0 0 290 458 489 533 578 634 720 799 818 1091 1547 1878 2039 2194 2341 2366 2264

ECMWFFLT1_con_mucape_087.txt.gz
CAPE
1133 944 1357 1397 1660 1258 1176 1045 1260 1445 1201 1229 1478 1286 607 1389 1343 1532 1710 2469 2809 2956 3052 2901 2884 2906 2699 2556 2217 2093 1767 1731 1543 1686 1731 1561 1008 990 1056 1107 1614 1866 2060 1958 1895 2256 2289 2719 2706 2588 2808 2792 2868 3646 4827 3522 3730 3670 4368 4503 3321 3692 2279
998 991 1183 1296 1394 1456 1536 1369 1522 1258 1349 1431 1115 1234 1215 1345 1259 1501 2082 3093 2992 3352 3244 3219 3117 3083 2994 2642 2265 2418 2171 1840 1714 1855 1782 1604 1475 1216 1137 1129 1075 1510 1972 1562 1860 1879 2524 2153 2678 3076 2988 2877 2596 3012 3498 3911 4045 3940 3076 3556 3809 4287 3485
872 852 1446 1388 1623 1239 1510 1388 1209 1106 1115 1345 1349 964 750 1298 1432 1848 2602 2869 3284 3550 3757 3397 3458 3112 3114 2722 2496 2639 2471 1977 1801 1816 1674 1369 1540 1096 1101 1214 1177 1162 1354 1619 1917 2031 1935 2614 2181 2424 2585 2751 2271 2554 3136 3213 3470 3558 3530 4286 3591 3136 3995
850 706 878 1103 1529 1510 1477 1208 1244 948 996 876 945 1199 1560 2046 1716 1990 2424 2872 3110 3719 3393 3345 3476 2794 3015 3042 2704 2772 2658 2276 1888 1731 1454 1042 1110 1017 934 1089 1325 974 1056 1210 1251 1501 1563 2094 2406 2419 2436 2286 2268 2161 2363 2292 2402 2837 3202 4061 3938 3121 3338
640 677 990 904 1574 1636 1739 1732 2135 2199 1677 1087 1320 1107 708 986 1801 2273 2109 1835 2434 3270 3576 3153 3410 2774 2751 2764 2420 2393 2617 2326 2038 1598 1523 1064 880 1015 863 732 1076 961 830 897 940 1154 1385 1733 1959 2341 2444 2420 2143 2143 2220 2361 2319 2420 2662 2980 3225 3059 3266
443 463 746 912 792 1056 1325 1050 1547 1770 1665 1645 1876 1753 1198 938 1652 1244 1670 2081 2642 1866 2574 2968 2593 2662 2681 2690 2184 1967 2546 2662 2329 1970 1647 1220 978 856 849 873 719 805 540 665 651 889 1409 1572 1791 1925 2023 2107 1866 1649 1720 2048 2006 2020 2268 2758 2850 2543 2161
368 458 422 667 765 736 919 1418 1470 1283 1462 1401 1512 1780 2051 1254 1222 1397 1616 1996 2062 1955 2405 2211 1877 2281 2904 2472 2258 2082 2562 2578 2610 2076 1630 1396 1186 1107 982 981 906 575 480 559 591 565 942 1610 1781 1893 1802 1677 1609 1319 1376 1708 1658 1661 1758 2435 2661 2763 2540
189 294 222 521 569 760 796 983 1139 1452 1754 1402 1510 1546 1618 1628 2109 2184 1878 1112 1161 1686 2752 2887 2690 2083 2567 2555 2222 1935 2337 2223 2189 2293 1807 1341 1128 1249 1020 1015 1014 723 471 333 594 564 565 1368 1524 1615 1651 1632 1617 1492 1226 1498 1839 1570 1530 1867 2354 2579 2280
120 116 244 439 571 758 975 1064 1102 1485 1537 1162 1503 1647 1930 1576 1770 1586 1590 1844 2104 1690 1949 1287 1298 1736 2581 2572 2500 2175 2070 1970 2167 2131 1752 1256 814 912 701 926 1010 1016 766 358 302 695 685 625 1013 1158 1584 1668 1680 1637 1516 1648 1871 2020 1708 1668 1958 2416 2314
509 373 490 730 811 814 1018 1102 1111 1269 1120 1173 1367 1419 1196 1363 2128 1944 1489 1695 2012 1969 1726 1731 1512 1825 2089 2350 2530 2270 2028 2080 1706 1769 1558 1070 827 747 471 265 574 1064 1070 675 200 195 707 646 673 832 1364 1693 1609 1692 1789 1781 1884 2182 1773 1706 1840 2073 2508
441 513 569 884 882 887 958 1026 1070 1161 1143 1124 1378 1694 1929 1864 1704 1624 1492 1779 1676 1599 1633 949 968 1907 2610 2358 2414 2206 2172 1959 1669 1569 1510 1294 934 670 412 108 57 357 704 644 214 19 228 626 715 900 1292 1444 1824 1766 1882 2122 2161 2156 1874 1672 1739 2060 2131
435 394 527 652 866 915 986 993 1033 1023 1097 1055 1049 1106 1965 1401 1485 1582 1422 1797 2071 1744 1772 2420 2452 1075 1818 1688 1980 2308 2020 1986 1689 1432 1485 1247 1046 656 528 294 12 16 366 544 380 88 3 224 533 536 1047 1473 1671 1852 1765 1998 2147 2200 2104 1608 1531 1615 1814
262 372 469 598 732 879 950 1001 987 971 949 1019 1147 1111 1029 983 1566 1254 1466 1826 1724 1475 1889 1845 1589 2151 1010 1767 1961 2006 2133 2001 1848 1542 1187 1294 1081 782 628 396 88 9 41 308 388 249 33 10 330 558 653 1158 1579 1578 1710 1792 1860 2218 2270 2137 1725 1369 1619
229 188 385 377 296 596 688 909 985 934 926 948 956 1083 1048 1047 1029 885 1424 1111 1393 935 1154 1666 1570 1633 1855 2489 1933 2237 2236 1976 1778 1744 1599 1403 1599 1176 635 476 352 142 54 155 267 199 58 8 9 333 656 820 1139 1353 1332 1573 1860 2143 2302 2396 2136 1530 1340
117 190 190 448 288 160 627 624 781 832 851 902 921 954 883 913 864 793 885 1005 1190 1415 1433 1536 1756 1100 1181 1860 2051 2791 2229 2008 1914 1656 1855 1712 2278 1748 1043 560 618 605 362 190 166 186 104 4 0 46 285 561 923 1187 952 687 1262 1695 2089 2239 2346 2055 1242
82 125 182 172 456 389 159 280 525 836 714 809 888 882 878 895 856 812 723 788 1487 1640 1800 2019 1315 1477 1317 1030 1889 1821 2381 2655 2793 2270 2422 2190 2588 2684 1948 1046 764 540 566 550 357 427 409 219 38 0 58 280 689 1016 852 468 281 1052 1140 1706 2069 2108 1314
0 17 125 115 188 360 373 579 260 336 471 509 728 803 824 872 872 835 769 703 863 1142 1300 1293 1204 1481 1122 1265 1472 1865 2294 2483 2706 2552 2983 2963 2611 2564 2888 2132 1289 1066 1543 1116 754 1109 1346 852 360 104 17 94 331 697 561 328 95 197 270 1159 1494 1822 1865
0 0 4 90 139 131 228 267 435 406 319 315 383 614 774 826 825 823 824 758 712 941 1080 1127 1598 1518 1418 1402 1334 1890 2194 2303 2577 2542 2772 3086 3072 3026 3063 2732 2177 1915 1770 1478 1124 1905 1003 923 1032 974 336 165 184 216 234 237 118 0 0 791 1242 1709 1729
0 0 0 0 50 132 223 189 242 450 435 288 292 476 634 615 747 870 890 839 806 750 1121 1524 1611 1648 2010 2046 1756 1304 1623 2381 2380 2493 2619 2876 3143 3210 3232 3328 2946 2299 1704 1200 1216 1385 1955 1992 1517 1507 1286 779 718 321 258 238 92 0 0 565 1077 1268 1372
0 0 0 0 0 43 116 113 126 254 453 485 393 305 322 393 463 675 888 918 897 858 884 1069 1090 1444 1479 1544 1764 1421 1285 1552 2517 2714 2825 2820 3127 3680 3592 2974 3300 2554 1935 1726 1897 1915 1927 1881 1949 1779 2142 1765 1420 1409 799 585 195 0 0 0 838 1064 1218
0 0 0 0 0 0 0 0 0 52 103 231 464 485 378 300 329 470 535 730 794 788 830 875 868 770 903 1138 1416 1504 1719 1539 1323 2172 2889 2786 1802 2632 3172 3562 3273 2699 2063 1621 1778 2070 2238 2123 2172 2122 2138 1978 1948 1836 1411 891 474 106 0 0 0 631 806
0 0 0 0 0 0 0 0 0 0 0 0 0 116 317 452 420 393 370 397 488 620 649 743 822 825 800 870 1014 1159 1414 1785 1618 1390 1482 2147 1588 1622 1675 2149 3286 2631 2345 2142 1836 1867 2023 2427 2206 2146 2136 2218 2197 2067 1963 1521 904 862 757 576 518 501 670
0 0 0 0 0 0 0 0 0 0 0 0 0 0 0 149 258 339 407 409 397 339 418 580 656 733 761 871 832 774 1051 1439 1916 1763 1502 1866 1806 1804 1907 1918 1729 2508 2452 1951 2040 1881 1796 1982 2020 2067 1962 2113 2272 2222 2113 1971 1663 1115 987 913 908 803 799
0 0 0 0 0 0 0 0 0 0 0 0 0 0 0 0 0 143 289 363 388 337 357 340 490 555 630 741 815 859 975 1076 1165 1780 1980 2037 1547 1584 1607 1798 2091 2072 2490 2002 2284 2260 1890 1810 1936 2122 2236 2117 2031 1848 2226 2114 1917 1552 1328 1091 929 792 1105
0 0 0 0 0 0 0 0 0 0 0 0 0 0 0 0 0 0 0 59 200 270 321 326 410 428 438 558 665 721 857 882 1108 1418 1478 1649 1725 1509 1412 1403 1412 1760 1551 1572 1828 2504 2416 2076 2089 2004 2028 1960 2016 1906 1928 2108 2030 1744 1629 1476 1271 1093 1241
0 0 0 0 0 0 0 0 0 0 0 0 0 0 0 0 0 0 0 0 0 0 71 233 335 400 385 485 378 456 532 490 890 1159 1132 1258 1324 1862 1775 1653 1928 2031 2250 2155 2132 2367 1977 2687 2462 2176 1666 1514 1627 1983 1804 1737 2101 1917 1653 1601 1509 1362 1278
0 0 0 0 0 0 0 0 0 0 0 0 0 0 0 0 0 0 0 0 0 0 0 0 42 167 360 471 520 666 612 619 585 627 853 1180 1314 1277 1297 1858 1645 1637 1843 1685 2026 1698 1663 2007 2799 2627 2568 2427 2445 2397 1926 1687 1750 2934 1619 1585 1553 1463 1344
0 0 0 0 0 0 0 0 0 0 0 0 0 0 0 0 0 0 0 0 0 0 0 0 0 0 0 250 459 643 621 684 732 750 864 1035 1042 957 862 1108 1474 1778 1581 1888 2120 1842 1822 1961 2008 2462 2504 2378 2195 2312 2272 2200 1726 2060 1855 1602 1508 1462 1394
0 0 0 0 0 0 0 0 0 0 0 0 0 0 0 0 0 0 0 0 0 0 0 0 0 0 0 0 57 414 536 656 710 872 851 1020 1040 1066 1084 990 1049 1288 1748 2119 1998 2183 2393 2095 1872 2474 2430 2453 2429 1695 1857 2181 2618 2141 2257 1535 1602 1620 1530
0 0 0 0 0 0 0 0 0 0 0 0 0 0 0 0 0 0 0 0 0 0 0 0 0 0 0 0 0 1 168 448 448 423 446 603 818 1024 1047 1197 1181 1070 1308 1485 1734 1913 2214 2097 2274 2321 2019 2217 2212 1944 1697 2165 2407 2127 1882 1821 1430 1346 1443
0 0 0 0 0 0 0 0 0 0 0 0 0 0 0 0 0 0 0 0 0 0 0 0 0 0 0 0 0 0 0 0 249 365 496 568 285 418 703 1031 1382 1616 1372 1681 1550 1559 1920 2177 2147 2229 2253 2146 2228 2149 1962 2085 2296 2248 2492 1738 1685 1452 1263
0 0 0 0 0 0 0 0 0 0 0 0 0 0 0 0 0 0 0 0 0 0 0 0 0 0 0 0 0 0 0 0 0 3 44 179 184 372 695 619 640 1501 1683 1359 1431 1493 1660 1822 1892 2103 2079 1920 2030 2192 2032 2094 2240 2186 2912 1932 1763 1792 1628
0 0 0 0 0 0 0 0 0 0 0 0 0 0 0 0 0 0 0 0 0 0 0 0 0 0 0 0 0 0 0 0 0 0 14 26 63 223 622 806 981 1104 1231 1504 1480 1394 1342 1366 1566 1747 1835 1968 2037 2083 2169 2171 2199 1990 2118 3559 2831 2139 2431
0 0 0 0 0 0 0 0 0 0 0 0 0 0 0 0 0 0 0 0 0 0 0 0 0 0 0 0 0 0 0 0 0 3 0 22 156 244 546 1402 841 551 957 1260 1149 1117 1228 905 1434 1528 1638 1829 2420 2395 2365 2218 2100 1714 2400 1824 2251 2572 2669
0 0 0 0 0 0 0 0 0 0 0 0 0 0 0 0 0 0 0 0 0 0 0 0 0 0 0 0 0 0 0 0 0 0 0 0 17 64 113 328 497 478 358 257 512 975 1569 986 894 1174 1036 1632 1787 1615 1640 1790 1892 1550 1820 2176 2102 1932 2128
0 0 0 0 0 0 0 0 0 0 1 0 0 0 0 0 0 0 0 0 0 0 0 0 0 0 0 0 0 0 0 0 0 0 0 0 0 0 28 99 28 496 313 284 188 148 0 317 408 781 813 801 941 1313 1522 1906 1800 1836 1773 1718 1882 2072 2028
1 0 0 0 0 0 0 0 0 0 0 0 0 0 0 0 0 0 0 0 0 0 1 1 4 2 0 0 0 0 0 0 0 0 0 0 0 0 6 36 33 0 0 0 0 101 97 0 0 0 0 0 236 383 110 643 926 1446 1693 1864 2007 2118 2087
2 0 0 0 0 0 0 0 0 0 0 0 0 2 3 0 0 0 0 0 0 3 4 4 7 3 0 0 0 0 0 1 2 0 0 0 0 0 8 26 46 78 146 0 0 0 0 107 35 0 0 0 0 7 90 62 4 0 0 174 747 1402 1746

ECMWFFLT1_con_mucape_090.txt.gz
CAPE
858 1019 1310 1733 1209 1189 1261 1254 1205 884 1301 1143 845 1293 563 428 837 1234 1625 2568 2537 2724 2678 2901 3158 3193 3018 2132 1967 2035 2190 2301 2388 2393 2198 2240 2139 2283 2256 1774 1966 2587 2160 2244 2515 2714 3079 2528 2572 2729 3109 3299 3988 4103 4374 4425 4154 3696 3916 3872 3885 3947 3816
1051 1195 1689 1880 1516 1326 1032 1332 1463 1642 1165 1126 1447 1452 643 699 1661 1138 1918 2732 2732 2818 2643 2671 3151 3356 3117 2584 1928 2056 2055 2154 2330 2470 2076 2600 2560 2541 2075 2230 2307 2570 3089 2262 2787 2580 3026 2773 2595 2854 2965 3129 3344 4253 3670 4039 4066 3782 3920 4107 3766 3743 3580
1336 1800 2116 2139 2031 1975 1747 1674 1564 1786 1813 1532 1230 1236 1192 1801 2143 2014 2252 2560 2828 3060 2646 2557 3164 3117 3004 3032 2345 2192 2177 1918 2040 1945 1866 1453 1578 876 1263 1896 2014 2035 1822 1896 2542 2464 2306 2585 3076 3107 2993 2565 2329 3576 3569 3603 3828 3838 4233 4177 4255 3742 3516
1110 1151 1195 1438 1806 1783 1801 1633 1179 1228 1053 1016 1206 1167 983 2348 2476 2276 2256 2570 2946 3140 3019 2536 2403 2730 2855 3121 2647 2525 2248 2007 1604 1262 1270 1477 1352 916 1258 1896 1752 1496 1898 1752 1232 1420 1253 2271 2419 3216 3046 3126 2807 2677 2812 2914 3128 3608 3796 3924 3715 3779 4111
1066 954 1011 1104 1262 1602 1572 1739 2001 2046 1838 1186 1466 1433 1345 2107 1341 1490 2124 2462 2083 2614 2894 2465 2329 2595 2752 2687 2272 2068 2084 1828 1753 1546 1500 1381 1480 1262 1099 903 1068 983 1349 1275 1810 2364 2212 2397 2164 2783 2946 3188 2672 2949 3020 3175 2912 3468 3871 3806 3070 3079 3852
964 700 907 886 944 1208 1480 1877 1750 1357 1481 1436 1611 1918 1819 1879 1651 1640 1774 2352 2614 2329 2858 2739 2443 2650 2648 2250 2383 2003 2462 2406 2215 2098 1682 1563 1774 1232 953 949 973 966 840 1170 1244 1299 1977 2225 2052 2274 2215 2173 1799 1702 2110 2468 2294 2639 3449 3354 2996 2809 2878
503 772 961 1003 1224 1348 1280 1714 1586 1792 2134 2362 2084 1926 1636 833 1106 1429 1501 1644 1977 1918 2054 2168 1934 2005 2509 2648 2532 2565 2614 2232 2257 1743 1572 1172 1264 1305 1020 918 1008 766 623 1077 1086 1025 1186 1818 2128 2389 2408 1945 2116 1654 2026 2603 2507 2348 2816 3094 3540 3409 3257
330 603 632 785 931 1101 1305 1378 1795 1932 2082 1606 1898 1962 1892 1578 1674 1186 790 950 1292 1329 1427 2108 2259 1661 1952 1513 2165 1877 2411 2406 1895 1799 1722 1276 928 1058 969 860 898 1108 919 678 1020 892 559 1486 1163 2032 2165 1988 1968 1870 2055 2653 2874 1877 2189 2845 3154 3009 2323
157 282 400 636 783 958 976 1130 1472 1693 1716 2135 2284 2261 2849 1861 1086 819 853 850 1210 1158 1482 1289 1573 1530 1961 1297 1319 1246 1635 2254 2173 2011 1676 1242 853 657 594 770 708 914 839 390 414 795 808 1366 1189 1890 2263 1946 2139 2180 2000 2699 2317 1931 1988 2262 3069 2841 2268
128 182 320 386 648 875 924 967 977 1144 1476 1610 1907 2266 2530 2266 1727 1663 1390 1422 974 1361 1550 1348 2060 2092 2122 1645 1248 990 1040 1721 2232 1835 1596 1040 790 662 482 597 619 798 687 427 314 421 707 914 1172 1834 2285 2243 2650 2531 1930 2554 1964 1870 1899 2625 2759 2656 2840
237 368 525 755 763 860 949 976 898 899 828 1012 1110 1405 1545 1320 2084 1639 1815 1510 1810 1772 1653 1865 1900 1818 1512 1354 2142 1777 1071 974 1108 1538 1609 1139 745 634 529 493 587 643 574 341 129 268 387 807 1425 1756 2011 1551 2144 2392 2204 2231 2146 2299 1789 1840 2031 2423 2291
346 478 691 745 926 1072 1172 1044 1015 714 878 929 956 868 870 1010 1387 1324 1565 1627 1722 1442 1608 1751 2250 2228 1791 1886 2087 2111 1795 1382 944 980 1178 1256 1029 549 495 457 426 631 667 392 236 222 368 658 675 1410 1703 1582 1734 2064 2221 2206 2255 2380 2378 1822 1585 1964 2014
234 395 565 686 752 944 1039 1072 975 998 773 782 822 843 797 901 909 922 1533 1578 2060 1923 1543 2376 2566 2056 1949 1907 1826 1326 1461 1213 729 812 640 899 1005 621 421 273 124 230 556 588 466 160 78 338 549 775 1443 1550 1652 1741 2196 2300 2304 2601 2761 2512 2200 2042 1943
164 262 338 598 733 738 791 867 888 920 684 715 657 686 684 793 849 1164 1483 1422 1467 1976 1992 2377 2646 2240 1638 1884 1998 1490 1300 1381 1688 1657 1148 754 1270 994 458 279 104 68 198 506 503 224 36 54 331 663 708 1335 1386 1700 2189 2465 2312 2850 3066 2678 2315 2117 2306
39 167 245 343 497 755 716 725 820 888 866 840 626 536 616 776 855 936 844 875 1110 1750 1895 2428 2068 1663 1602 1829 1937 1952 1701 1756 1723 1455 1241 1208 1732 1667 1207 599 436 211 205 453 241 132 115 7 33 386 419 688 1220 1519 1687 1819 1923 1943 2510 2626 2528 2226 1696
0 49 155 217 298 341 586 702 810 756 775 842 773 839 737 606 1023 1032 924 825 811 1025 1219 1615 1893 2003 1977 2621 2068 1828 1545 1693 1534 1395 1552 1184 1069 2068 2174 1565 789 294 244 399 364 356 426 228 109 151 466 511 977 1296 1175 1288 1400 1601 1428 1752 2171 2219 1525
0 25 0 148 204 243 341 417 497 602 666 670 670 661 704 775 654 828 932 801 736 801 897 1211 1694 1472 1606 1864 1799 2187 2153 1674 1669 1632 1436 1768 1683 1315 1158 1824 1309 870 1281 1278 846 624 946 710 349 82 120 430 491 806 660 809 697 997 1232 1440 1663 2182 2280
0 0 61 63 118 113 211 189 262 279 333 451 534 574 655 697 821 801 512 592 624 780 778 746 1210 1572 1925 1937 2124 2068 1832 2031 2066 2230 2072 1700 1805 1999 1341 1356 1273 1558 2330 2271 1212 2329 1921 841 641 506 126 159 356 485 613 698 456 9 834 1225 1475 1658 2150
0 0 0 0 0 6 83 142 217 307 253 177 216 366 509 597 663 719 679 582 552 618 671 800 859 901 1095 1633 1858 1980 1923 1874 1864 2036 2048 2207 2284 2006 1692 1996 1816 1472 1221 1417 1334 1531 1823 1895 1405 1117 922 364 298 235 412 615 403 0 0 635 1210 1392 1540
0 0 0 0 0 0 35 20 144 207 340 248 289 214 196 270 405 533 629 697 622 610 605 647 808 890 907 883 1188 1428 1724 2023 2066 1925 2082 2101 1896 1766 1610 1459 1849 1640 1424 1096 1147 1274 1936 1601 1441 1546 1582 1342 1233 1447 743 492 428 0 0 0 415 1058 1209
0 0 0 0 0 0 0 0 0 0 53 157 168 264 282 258 191 222 332 514 651 657 614 601 591 574 721 866 806 853 1039 1303 1723 2014 2012 2205 2064 1804 2080 1594 1579 1726 1748 1670 1435 1175 992 1218 1778 1691 1999 1773 1604 1612 1467 586 107 0 0 0 0 136 893
0 0 0 0 0 0 0 0 0 0 0 0 0 4 28 109 134 169 213 261 348 430 604 722 745 712 654 662 692 712 791 990 1086 1275 1577 1984 2084 2063 1825 1953 1757 1646 2472 2045 1899 1649 1704 1304 1127 1380 2024 2126 2153 1712 1586 1151 250 0 0 0 0 0 10
0 0 0 0 0 0 0 0 0 0 0 0 0 0 0 0 0 0 62 99 202 272 299 385 451 576 617 625 719 665 743 760 880 988 1193 1461 1959 2009 2051 2018 1919 2040 2286 2297 2305 1751 1429 1741 1248 1393 1356 1358 1703 1896 2163 1972 1618 1242 706 0 0 0 135
0 0 0 0 0 0 0 0 0 0 0 0 0 0 0 0 0 0 0 0 1 20 176 266 270 304 311 402 533 562 705 737 781 865 1059 1154 1133 1497 2097 2086 1971 1898 2376 2449 2279 2068 1594 1190 1164 1348 1305 1175 1185 1332 1538 1979 2237 2056 1695 1222 697 0 210
0 0 0 0 0 0 0 0 0 0 0 0 0 0 0 0 0 0 0 0 0 0 0 0 66 155 225 281 272 470 655 764 722 724 773 987 1188 1342 1383 1549 1441 1624 1727 2040 2146 2154 2090 1825 1307 1241 1236 1313 1248 980 1096 1452 1750 1918 1926 1707 1323 958 625
0 0 0 0 0 0 0 0 0 0 0 0 0 0 0 0 0 0 0 0 0 0 0 0 0 0 0 0 0 230 297 574 688 667 667 729 850 987 1170 1300 1296 1277 1265 1622 2159 1748 1651 2081 1996 1602 1370 1670 1618 1242 1042 1174 1593 2057 1820 1880 1720 1406 1070
0 0 0 0 0 0 0 0 0 0 0 0 0 0 0 0 0 0 0 0 0 0 0 0 0 0 0 2 2 4 176 272 326 444 639 653 736 872 1132 1256 1200 1061 1260 1546 1907 2114 2067 1956 1733 1566 1431 1436 1249 1347 1268 1336 1986 2332 1777 1909 1872 1722 1491
0 0 0 0 0 0 0 0 0 0 0 0 0 0 0 0 0 0 0 0 0 0 0 0 0 0 0 0 2 17 14 75 269 326 406 492 656 634 594 908 1336 1392 1440 1553 1534 1462 1358 1453 1485 1485 1507 1516 1730 1784 2145 2606 2743 2704 2226 1819 1776 1764 1704
0 0 0 0 0 0 0 0 0 0 0 0 0 0 0 0 0 0 0 0 0 0 0 0 0 0 0 0 0 0 0 16 15 0 0 374 448 517 602 624 780 1142 1207 1086 864 1043 1352 1533 1606 1797 1686 1706 1800 1926 2062 2466 2320 2094 1831 1648 1672 1532 1561
0 0 0 0 0 0 0 0 0 0 0 0 0 0 0 0 0 0 0 0 0 0 0 0 0 0 0 0 0 0 0 0 4 9 78 9 132 494 569 593 667 704 785 1271 996 838 994 1189 1331 1449 1638 1685 1621 1631 1701 1821 1954 1948 1676 1475 1396 1416 1587
0 0 0 0 0 0 0 0 0 0 0 0 0 0 0 0 0 0 0 0 0 0 0 0 0 0 0 0 0 0 0 0 0 1 134 452 691 983 1060 911 734 595 1002 898 1003 1084 957 1135 1192 1206 1310 1425 1533 1640 1675 1783 1874 1767 1394 1038 1164 1427 1662
0 0 0 0 0 0 0 0 0 0 0 0 0 0 0 0 0 0 0 0 0 0 0 0 0 0 0 0 0 0 0 0 0 0 0 27 215 210 373 342 1324 1202 590 664 808 1301 1389 1475 1032 943 1081 1268 1311 1357 1398 1402 1291 1259 1134 1208 1506 1410 1405
0 0 0 0 0 0 0 0 0 0 0 0 0 0 0 0 0 0 0 0 0 0 0 0 0 0 0 0 0 0 0 0 0 0 0 0 0 200 340 302 930 1630 1700 977 980 1355 1928 1504 1086 841 864 860 1021 1047 1084 1192 1357 1354 1288 1198 1557 1737 1606
0 0 0 0 0 0 0 0 0 0 0 0 0 0 0 0 0 0 0 0 0 0 0 0 0 0 0 0 0 0 0 0 0 0 0 0 0 2 17 1060 876 557 386 487 488 424 607 531 622 1259 1531 1338 1218 1352 1176 1062 1076 1212 1330 1466 1406 1305 1759
0 0 0 0 0 0 0 0 0 0 0 0 0 0 0 0 0 0 0 0 0 0 0 0 0 0 0 0 0 0 0 0 0 0 0 0 0 0 12 38 4 608 692 367 686 653 112 164 244 274 293 382 604 916 1217 1093 916 1180 1603 1773 1723 1541 1588
0 0 0 0 0 0 0 0 0 0 0 0 0 0 0 0 0 0 0 0 0 0 0 0 0 0 0 0 0 0 0 0 0 0 0 0 0 0 0 0 0 54 17 14 110 24 0 0 46 98 139 147 151 142 161 481 1190 894 789 891 1387 1384 1391
0 0 0 0 0 0 0 0 0 0 0 0 0 0 0 0 0 0 0 0 0 0 0 0 0 0 0 1 0 0 0 0 0 0 0 0 0 0 0 0 3 0 0 0 6 0 0 0 0 0 87 72 71 83 102 112 101 93 81 32 0 412 865
0 0 0 0 0 0 0 0 3 5 2 1 0 0 1 0 0 0 0 0 0 0 0 0 0 0 0 0 0 5 9 2 2 1 0 0 0 1 14 10 3 17 22 0 0 0 0 0 0 0 0 0 0 13 67 79 80 71 65 0 0 0 246

ECMWFFLT1_con_mucape_093.txt.gz
CAPE
1421 1244 1573 1551 1281 1393 1180 1173 1341 1481 1225 898 530 480 68 131 456 1182 1468 1440 1737 1808 1844 2183 1577 1998 1891 2176 2261 2114 1827 2351 2159 2100 2021 2264 2020 2276 2149 2613 2542 2520 2485 3313 2733 2660 2463 2301 2185 2652 3454 2871 3293 3595 3705 3572 3179 3471 3283 3265 3494 3788 3179
1551 1427 1492 1616 1103 1517 951 814 931 906 547 627 615 594 225 109 526 1132 1548 1484 1712 1921 1860 2324 1917 1974 1912 1955 2124 1995 1826 2237 2378 2459 2383 2223 2407 2228 2146 2240 2314 2260 2351 2692 2666 3038 2647 2440 2504 2586 3200 3283 3813 3710 4023 3706 3410 3614 3285 3474 3205 3092 2557
1319 1345 1347 1475 1380 1423 1331 1408 1145 989 505 531 860 739 1014 537 682 1109 1627 1670 1721 2080 1895 2372 2404 2085 2256 1869 1817 1784 1859 1988 2257 2351 2095 2306 2197 2279 2266 2061 2186 2335 2415 2204 2429 2325 2977 3014 2616 2597 2972 3321 3742 3906 4013 3879 3746 3703 3582 3360 3403 2866 2642
1947 2140 2288 1929 1413 1232 1029 1108 1305 1226 851 743 808 925 1410 1574 1356 1469 1769 1728 1802 2156 1944 2275 2679 2499 2618 2121 1707 1614 1768 1822 2062 2159 1952 2055 2067 2104 2022 2055 2083 2054 2259 2218 2634 2015 2455 2659 3089 2774 3500 2951 3490 3804 3677 3561 3691 3546 3967 3597 3613 3242 2863
1409 1742 2085 2077 1744 1814 1502 874 1095 1509 1369 2138 1641 953 962 2264 1348 2327 2136 1928 2033 2175 2050 2156 2552 2748 2789 2499 1796 1660 1608 1694 1792 1971 1921 1694 1849 1677 1507 1920 1799 1876 1717 2092 2199 2075 1898 2372 2500 3130 3060 2507 3115 3457 3346 3294 3330 3585 3745 3452 3545 3618 3340
862 901 1065 1787 2060 1597 1578 2218 1682 1613 1598 1002 1108 976 1383 1739 1508 1869 2280 2227 2258 2192 2071 2084 2186 2621 2734 2701 2143 1849 1678 1619 1601 1671 1760 1638 1536 1432 1142 1257 1578 1535 1612 1784 1514 1808 2199 2225 2153 3020 3042 2754 2882 2817 2994 2952 3147 3489 3512 3211 2914 3064 3413
956 997 1121 1134 1187 1450 1461 1407 1605 1800 1354 981 1067 1901 1689 1561 1062 1318 1881 2293 2118 2126 1676 1978 1998 1861 2029 2335 2455 2011 1813 1654 1604 1542 1422 1415 1548 1420 1164 1108 1211 1192 1380 1600 1549 1578 2494 2172 1998 2544 2653 2786 2641 2503 2549 2835 2990 3208 3540 3190 2777 2578 2788
712 806 809 852 882 986 1366 1621 2162 1898 1454 1144 1385 1328 1216 1212 1155 1058 1173 1776 1568 1742 1783 1934 1799 1510 1790 2130 2202 2179 2015 1695 1667 1612 1525 1392 1477 1423 1191 1108 1100 1026 868 1347 1383 1428 1556 2199 2121 2245 2355 2322 2299 2068 2320 2516 2608 2812 3160 3207 2822 2511 2824
587 658 652 642 698 752 1168 1455 1855 2202 2036 1278 1238 1391 1142 1044 823 968 1329 1199 1365 1440 1764 1797 1889 1504 1634 1689 1811 1854 1925 2005 1767 1744 1666 1505 1342 1447 1176 1055 970 1079 837 890 1172 1266 1266 1649 1966 2207 2220 2147 2118 2042 1957 2202 2258 2303 2552 2922 2857 2767 2846
527 517 558 493 638 706 851 1256 1434 1526 1694 1626 1211 1322 1268 1358 1193 1308 1328 1006 765 1102 1415 1293 1653 1605 1740 1776 1271 1586 1617 1989 2091 1973 1785 1585 1402 1184 1178 1042 889 843 932 686 906 1086 1130 1151 1315 1871 2174 2130 2093 1992 1861 2089 2217 2194 2178 2466 2493 2605 2588
523 518 505 538 653 914 852 906 1128 1267 1365 1473 1504 1253 1167 993 1090 1170 1224 1478 1594 1602 1829 1692 1924 1909 1842 1515 1102 1350 1550 1631 1930 2053 1950 1690 1463 1189 924 857 823 514 620 615 394 366 877 1061 1127 1169 1998 2069 2042 2001 1734 1917 2142 2086 1898 2060 2323 2388 2371
205 276 312 319 595 752 897 932 923 962 1095 1309 1369 1396 1309 1182 1271 1248 927 1355 1772 2014 1884 1567 1404 1441 1488 1537 1524 1338 1425 1366 1512 1564 1778 1779 1466 1142 847 794 358 353 510 507 406 181 303 514 1116 1117 1408 1926 1881 2233 1817 1601 2048 1895 1670 1567 1963 2408 2299
430 593 712 657 534 629 782 857 874 887 895 951 1025 1112 1056 1203 1234 1536 1846 1754 1430 1717 2038 1946 1745 1846 1716 1539 1456 1350 1390 958 717 996 1607 1746 1535 1045 660 387 355 174 470 488 403 221 78 214 590 1190 1283 1462 1596 1747 2074 1593 1871 1926 1700 1491 1391 1622 2182
576 728 814 956 876 824 868 896 984 904 910 903 904 895 877 824 982 1124 1284 1335 1252 1389 1976 2223 1977 1419 1324 1401 1246 1401 1248 1016 956 976 1012 1426 1484 1301 767 416 245 226 372 462 436 294 110 92 216 562 1340 1360 1329 1321 1657 1877 1705 1788 1951 1895 1844 1656 1533
399 556 694 968 1001 930 876 956 953 882 841 875 808 827 811 808 891 920 1092 1223 1334 1401 2120 2067 1896 1989 1821 1382 1256 1179 1198 1391 1386 1484 1891 1474 1028 1126 1079 601 508 471 335 425 577 474 271 47 146 216 959 1330 1274 1206 1339 1759 1781 1681 1904 2016 1888 1949 1968
244 297 555 698 824 841 847 863 893 886 800 621 664 683 728 756 814 868 905 959 1019 1138 1225 1957 1966 2014 2146 1847 1522 1683 1674 1800 1926 1842 1671 1296 1100 942 924 934 806 578 408 276 361 631 352 235 12 215 332 878 1178 1124 1172 1451 1795 1896 1726 2064 2095 1854 1822
230 316 314 416 490 598 697 776 726 753 737 739 624 587 552 806 775 772 799 795 854 1072 1257 1324 1346 1422 1950 2261 2280 1954 1587 1754 1707 1500 1528 1621 1357 1118 1073 1121 1202 717 502 468 465 549 704 248 144 35 270 332 796 1055 1014 1125 1466 1815 1757 1760 2136 2158 1913
165 221 254 280 368 450 473 510 568 546 572 549 548 562 562 491 762 921 870 818 764 816 1060 1219 1380 1462 1539 1628 1586 1554 2283 2190 1866 1888 1700 1775 1943 1826 1486 1410 1328 1008 739 570 539 536 868 1018 172 26 95 266 342 691 953 965 1082 1460 1735 1701 1777 2047 2078
109 111 186 235 251 278 346 399 344 400 409 372 412 469 556 641 690 669 779 903 891 745 760 862 913 1040 1286 1450 1482 1495 1656 2023 2303 2159 1951 1705 1788 1711 1670 1534 1426 1346 1054 754 642 636 661 709 1184 1072 62 70 181 306 615 868 968 1049 1176 1404 1539 1626 1824
0 0 0 127 137 178 208 241 335 301 308 253 270 352 442 537 603 663 702 688 660 727 717 717 780 831 885 999 1094 1245 1512 1622 1727 1976 2122 2206 2012 1793 1704 1711 1552 1544 1630 1602 1374 1016 858 819 857 1034 1273 1004 204 216 349 541 737 854 867 848 1015 1279 1449
0 0 0 0 0 54 97 117 168 326 295 306 243 230 221 235 339 416 527 579 619 603 573 590 657 758 822 829 903 935 987 1212 1364 1398 1529 2104 2088 1798 1641 1687 1759 1828 1616 1535 1425 1398 1156 1002 971 984 1121 1223 1470 1606 939 788 508 444 476 622 621 153 1062
0 0 0 0 0 0 0 0 0 35 66 159 127 172 130 227 231 206 213 309 476 595 626 653 624 642 669 710 725 790 877 890 984 1214 1384 1530 1720 1766 1866 1772 1662 1664 1850 1827 1635 1556 1524 1528 1392 1086 1009 1145 1197 1312 1431 1528 1503 860 724 616 542 455 0
0 0 0 0 0 0 0 0 0 0 0 0 0 0 0 0 0 28 197 266 301 308 416 538 627 651 676 677 704 712 715 792 855 836 1106 1211 1365 1419 1605 1974 1938 1872 1995 1922 1995 1941 1834 1646 1513 1428 1341 1266 1170 1112 1124 1377 1488 1490 1552 1525 1135 813 611
0 0 0 0 0 0 0 0 0 0 0 0 0 0 0 0 0 0 0 0 59 192 285 324 325 378 437 529 601 682 734 752 763 772 802 916 1137 1184 1261 1440 1863 2011 2236 2189 2098 2020 1939 1834 1677 1691 1628 1378 1193 1159 1083 1132 1319 1388 1411 1536 1738 1779 1749
0 0 0 0 0 0 0 0 0 0 0 0 0 0 0 0 0 0 0 0 0 0 0 0 96 208 276 287 306 363 466 592 662 696 702 750 802 973 1065 1171 1287 1338 1331 1374 1442 1667 1782 2018 1847 1789 1766 1662 1555 1314 1159 996 1114 1266 1353 1379 1396 1636 1815
0 0 0 0 0 0 0 0 0 0 0 0 0 0 0 0 0 0 0 0 0 0 0 0 0 0 0 1 83 260 312 382 480 574 643 740 788 783 739 935 1190 1390 1340 1311 1317 1599 1834 1813 1752 1835 1741 1637 1677 1595 1586 1491 1415 1331 1131 1185 1166 1371 1471
0 0 0 0 0 0 0 0 0 0 0 0 0 0 0 0 0 0 0 0 0 0 0 0 0 0 0 0 0 33 30 135 305 388 462 576 730 826 826 764 716 951 1145 1323 1351 1566 1636 1827 1966 1919 1809 1689 1672 1703 1606 1496 1416 1445 1637 1741 1753 1776 1715
0 0 0 0 0 0 0 0 0 0 0 0 0 0 0 0 0 0 0 0 0 0 0 0 0 0 0 0 0 0 0 0 1 8 265 360 429 499 636 736 734 746 992 1293 1306 1246 1249 1277 1320 1400 1487 1573 1656 1638 1591 1737 1742 1862 1826 1722 1738 1881 2047
0 0 0 0 0 0 0 0 0 0 0 0 0 0 0 0 0 0 0 0 0 0 0 0 0 0 0 5 5 0 0 0 25 193 5 6 22 160 372 430 469 597 696 714 755 961 920 957 1112 1215 1300 1472 1544 1552 1630 1540 1520 1575 1612 1678 1720 1737 1852
0 0 0 0 0 0 0 0 0 0 0 0 0 0 0 0 0 0 0 0 0 0 0 0 0 0 0 0 0 0 0 0 0 0 17 60 51 0 0 200 528 411 462 531 594 673 756 789 826 972 1060 1189 1262 1315 1377 1443 1550 1656 1599 1569 1500 1362 1162
0 0 0 0 0 0 0 0 0 0 0 0 0 0 0 0 0 0 0 0 0 0 0 0 0 0 0 0 0 0 0 0 0 0 0 0 134 150 330 464 747 736 310 436 522 568 627 659 760 833 834 866 898 994 1100 1243 1340 1375 1446 1446 1337 1184 1137
0 0 0 0 0 0 0 0 0 0 0 0 0 0 0 0 0 0 0 0 0 0 0 0 0 0 0 0 0 0 0 0 0 0 0 0 46 616 532 315 260 614 674 469 349 437 442 682 1118 1182 1091 891 753 761 1060 1272 1188 1166 1202 1348 1385 1284 1208
0 0 0 0 0 0 0 0 0 0 0 0 0 0 0 0 0 0 0 0 0 0 0 0 0 0 0 0 0 0 0 0 0 0 0 0 0 0 3 135 130 442 1063 735 590 435 906 1026 657 596 890 961 920 927 936 991 1003 1060 1110 990 1114 1274 1308
0 0 0 0 0 0 0 0 0 0 0 0 0 0 0 0 0 0 0 0 0 0 0 0 0 0 0 0 0 0 0 0 0 0 0 0 0 0 0 104 641 730 738 995 914 842 672 255 292 445 573 613 584 548 552 552 790 866 801 951 1138 1330 1455
0 0 0 0 0 0 0 0 0 0 0 0 0 1 2 3 2 2 0 0 0 2 0 4 8 2 0 0 0 0 0 0 0 0 0 0 0 0 0 0 0 0 0 0 288 293 102 124 35 63 250 299 296 368 393 396 390 440 802 849 666 659 1247
0 0 0 0 0 0 0 0 0 0 5 5 1 0 1 0 1 2 2 0 0 1 2 8 1 0 0 0 0 0 0 0 0 0 0 0 0 0 0 0 0 0 0 0 0 0 0 0 0 0 0 0 0 68 176 273 278 234 214 59 134 316 347
0 0 0 0 0 0 0 0 10 12 6 1 1 1 1 0 0 0 0 0 0 0 0 0 1 2 0 2 0 0 0 0 0 0 0 0 0 0 0 0 0 0 0 0 0 0 0 0 0 0 0 0 0 0 0 0 128 152 136 53 0 0 0
0 0 0 0 0 0 3 11 7 5 8 4 5 1 0 0 0 0 0 0 0 1 1 0 2 5 5 2 1 2 1 0 0 0 0 0 0 3 5 2 0 0 0 0 0 0 0 0 0 0 0 0 0 0 0 0 0 0 0 0 0 0 0

ECMWFFLT1_con_mucape_096.txt.gz
CAPE
1230 1180 1111 1077 888 705 574 471 770 611 414 113 73 25 53 464 713 714 572 753 840 875 1325 1162 1068 1744 1660 1441 1803 1885 2099 1843 1699 1542 1488 1656 1784 1618 1607 1641 1826 2116 2058 2070 2291 2304 2552 2729 2774 2870 2914 2749 2696 2728 3009 3234 2614 2959 2909 2963 3013 3397 2935
1267 1158 1159 1162 1032 790 614 529 837 658 489 81 313 269 143 553 758 769 712 847 835 740 1116 1338 967 1657 1826 1553 1682 1748 1829 1888 1524 1666 1323 1592 1868 1736 1796 1768 1736 1878 2091 2450 2260 2300 2276 2452 2675 2744 2777 2844 2661 2671 2990 3147 2589 2757 2796 2868 3008 3235 2967
1308 1259 1282 1320 1251 1052 818 856 804 782 560 58 243 606 573 404 804 823 781 959 1047 807 1077 1285 1065 1322 1843 1737 1736 1764 1663 1824 1554 1887 1279 1663 1712 1830 1884 2031 1867 1792 1799 2181 2575 2379 2334 2236 2272 2484 2632 2753 2687 2941 3037 3029 2747 2866 2773 2878 2798 2857 2758
1424 1406 1407 1439 1368 1187 920 850 795 732 727 514 465 627 1295 1070 823 930 837 1021 1257 1061 1206 1376 1152 1199 1539 1774 1751 1779 1702 1674 1699 1733 1550 1621 1636 1672 1654 1862 2124 1981 1896 1900 2296 2416 2612 2268 2114 2116 3106 2698 2760 3014 3244 3133 3002 3143 2996 2849 2777 2588 2421
1446 1411 1404 1372 1248 1233 907 745 853 891 756 587 472 807 978 1721 1077 998 938 1061 1305 1266 1332 1496 1274 1314 1340 1593 1696 1740 1741 1596 1729 1605 1743 1674 1706 1706 1641 1577 1764 1993 2014 1982 1952 2042 2265 2463 2342 2094 2582 2690 2804 3082 3298 3257 3100 3265 3287 2906 2812 2913 2600
1526 1521 1309 1366 1282 1208 1043 813 1012 933 1070 1077 998 996 822 858 1178 1610 1408 1292 1437 1319 1438 1682 1418 1546 1504 1456 1572 1642 1719 1614 1614 1694 1562 1708 1741 1748 1691 1635 1581 1748 1863 1911 1873 1924 1916 2234 2545 2364 2472 2589 2666 3042 3298 3283 3160 3209 3337 3365 3094 3063 3139
1384 1578 1686 1504 1358 1187 1087 1069 823 772 634 676 916 1037 1258 1195 993 1351 1211 1055 1055 1150 1522 1993 1938 1766 1822 1680 1516 1524 1638 1605 1484 1634 1612 1518 1623 1650 1694 1707 1657 1620 1688 1818 1961 1894 1831 1884 2390 2471 2476 2432 2522 2781 3046 3207 3153 3024 3206 3215 3164 3013 3014
1084 1183 1406 1450 1483 1316 1158 1077 1076 954 829 888 1157 1071 1122 1239 1094 1279 1310 1255 1261 1287 1457 1978 2234 2220 2190 2107 1709 1495 1491 1523 1387 1452 1577 1539 1416 1487 1508 1579 1660 1658 1582 1571 1584 1805 1911 1825 1818 2490 2486 2394 2377 2601 2726 2957 3037 2885 3055 3085 2979 2845 2645
946 1001 1071 1110 1301 1317 1337 1180 1068 901 827 941 1052 1078 1112 1089 986 1313 1711 1506 1388 1470 1400 1755 2133 2323 2254 2277 2133 1737 1475 1326 1284 1315 1436 1515 1464 1350 1350 1385 1332 1288 1401 1393 1345 1380 1489 1734 1761 1874 2456 2461 2322 2395 2502 2598 2749 2786 2850 3038 3020 2938 2759
707 722 749 766 1108 1125 1044 1209 1299 1185 1094 908 986 1015 1015 903 865 926 1466 1723 1592 1622 1620 1772 2025 2344 2386 2385 2418 2269 2080 1846 1372 1230 1254 1329 1425 1432 1323 1297 1281 1099 1012 1118 1174 1235 1304 1424 1756 1767 2057 2352 2404 2379 2414 2407 2388 2506 2652 2846 2959 2871 2682
695 592 599 740 846 1047 973 1028 945 1271 1182 1142 1074 1034 1142 1151 1010 820 983 1448 1772 1717 1622 1604 1870 2092 2351 2388 2470 2470 2240 2076 1913 1683 1384 1196 1194 1217 1222 1206 1254 1156 946 920 952 1008 1184 1232 1550 1784 1860 2014 2159 2288 2296 2207 2141 2250 2389 2532 2644 2657 2557
498 404 395 536 683 741 892 1054 1066 1057 837 768 898 1096 1157 1267 1179 1058 844 955 1247 1439 1599 1367 1545 1885 2037 2104 2162 2117 1990 1910 1964 1970 1852 1610 1280 1245 1140 1094 1166 1236 1045 866 898 828 866 1058 1138 1623 1806 1838 1882 1930 1972 1968 1954 1980 2112 2195 2257 2371 2410
303 388 390 497 646 701 787 786 812 921 944 927 1104 1085 1059 1045 971 1008 993 884 1223 1111 1450 1384 1244 1577 1860 1858 1752 1920 1951 1709 1862 1925 1952 1847 1597 1341 1272 1189 1134 1181 1167 912 825 808 746 823 1007 1117 1488 1797 1836 1847 1865 1877 1856 1836 1898 1970 1992 2086 2214
350 380 399 400 483 555 637 640 657 660 807 855 650 860 1077 1085 1035 905 771 957 979 1280 1254 1090 1417 1498 1537 1556 1564 1591 1580 1600 1672 1757 1944 1988 1876 1616 1416 1276 1211 1111 1062 1005 853 706 720 721 787 975 1024 1188 1574 1763 1829 1873 1842 1767 1729 1790 1816 1842 1939
447 484 536 601 483 570 651 741 678 711 661 732 867 886 775 978 1140 1153 1142 821 746 1115 1247 1304 1261 1194 1136 1264 1509 1674 1636 1468 1291 1419 1729 1757 1463 1632 1526 1322 1134 1118 1065 925 823 754 665 637 571 404 827 934 1018 1347 1631 1803 1844 1806 1760 1626 1663 1627 1588
458 380 601 614 581 699 743 858 594 693 514 501 533 674 723 785 866 964 1024 1121 1040 931 1344 1510 1410 1261 1346 1363 1298 1355 1440 1490 1390 1159 1171 1348 1363 1210 1294 1250 1140 1011 993 850 733 671 596 584 591 494 492 711 908 984 1184 1480 1699 1729 1656 1573 1536 1515 1423
408 425 410 672 340 807 708 726 702 652 569 542 529 536 434 458 668 772 889 999 1181 1214 1243 1159 1157 1228 1216 1160 1251 1307 1304 1227 1216 1249 1263 1203 1147 921 868 1020 1112 1129 1003 820 593 466 450 544 578 542 529 500 827 950 981 1049 1219 1434 1530 1516 1554 1540 1470
280 418 416 453 301 322 349 427 441 505 548 490 485 457 500 521 612 674 538 672 808 1181 1151 1185 1180 1291 1239 1214 1154 1242 1234 1481 1537 1342 1218 1144 1003 883 940 946 929 1043 1155 1062 798 551 327 416 540 568 556 527 463 750 909 945 994 1128 1322 1425 1436 1451 1484
229 270 335 390 382 292 215 278 334 376 340 390 382 445 472 501 574 558 723 677 660 594 899 1075 1156 1207 1087 1109 1117 1210 1214 1695 1676 1490 1313 1290 1334 1280 1162 1074 951 934 941 853 958 830 499 224 830 819 635 560 490 370 646 848 873 969 1081 1213 1289 1324 1352
252 272 309 310 280 254 221 194 214 253 267 270 294 309 377 445 548 545 534 528 536 568 675 932 708 1184 1261 1247 1236 1278 1295 1414 1597 1680 1806 1959 1731 1642 1490 1352 1178 1048 1117 1196 1329 959 692 434 500 675 903 962 622 15 137 510 742 810 885 1003 1119 1203 1249
195 249 281 247 237 256 238 254 207 232 219 214 234 244 282 318 318 382 468 507 464 375 472 553 656 653 779 1070 1102 1203 1328 1474 1402 1465 1547 1665 1871 1846 1630 1573 1552 1502 1506 1502 1427 1253 1196 1050 823 718 854 1034 1273 1290 545 218 239 517 713 781 928 1078 1163
143 37 187 118 177 190 157 182 258 268 247 193 186 209 204 226 181 178 232 326 357 408 394 442 438 431 424 572 593 848 1070 1217 1247 1238 1263 1298 1333 1562 1738 1750 1749 1601 1676 1702 1653 1480 1353 1378 1303 1256 1157 1035 1046 1053 1014 1211 1111 760 217 210 710 781 924
0 0 85 79 0 126 0 0 0 165 171 183 197 296 271 258 218 197 187 166 38 208 292 380 414 460 455 515 506 490 564 780 928 961 1051 1078 1177 1290 1298 1409 1513 1693 1987 1967 1900 1866 1751 1659 1563 1467 1360 1301 1253 1122 956 903 1087 1123 1121 1107 984 230 150
0 0 0 0 0 0 0 0 0 0 0 0 0 20 0 0 2 0 20 120 140 167 180 190 236 290 330 399 414 475 308 349 586 701 702 789 876 980 1087 1076 1184 1263 1385 1402 1671 1800 1944 1912 1812 1600 1459 1419 1442 1414 1356 1258 1036 922 1072 1140 1238 1282 1205
0 0 0 0 0 0 0 0 0 0 0 0 0 0 0 0 0 0 0 0 0 0 0 0 0 164 190 219 231 259 302 388 381 359 555 664 751 826 850 800 959 1016 1098 1187 1304 1380 1436 1693 1722 1725 1632 1498 1491 1472 1463 1476 1424 1228 1031 934 979 1075 1157
0 0 0 0 0 0 0 0 0 0 0 0 0 0 0 0 0 0 0 0 0 0 0 0 0 0 0 0 59 166 211 254 266 338 422 561 588 697 722 736 841 768 851 832 973 1188 1352 1673 1752 1713 1650 1609 1523 1542 1533 1515 1501 1480 1367 1181 1085 1017 971
0 0 0 0 0 0 0 0 0 0 0 0 0 0 0 0 0 0 0 0 0 0 0 0 0 0 0 0 0 0 0 58 169 244 273 315 411 575 587 728 731 770 764 783 828 855 1046 1172 1419 1661 1752 1733 1681 1617 1553 1508 1526 1545 1494 1375 1231 1172 1104
0 0 0 0 0 0 0 0 0 0 0 0 0 0 0 0 0 0 0 0 0 0 0 0 0 0 0 0 0 0 0 0 0 0 47 136 254 293 348 489 656 726 784 797 782 771 789 826 938 1097 1188 1252 1428 1570 1512 1700 1795 1553 1518 1490 1519 1492 1441
0 0 0 0 0 0 0 0 0 0 0 0 0 0 0 0 0 0 0 0 0 0 0 0 0 0 0 0 0 0 0 0 0 0 0 0 0 0 58 218 307 459 667 798 833 803 766 747 732 784 906 967 1073 1282 1444 1583 1614 1568 1563 1574 1604 1623 1597
0 0 0 0 0 0 0 0 0 0 0 0 0 0 0 0 0 0 0 0 0 0 0 0 0 0 0 0 0 0 0 0 0 0 0 0 0 0 0 0 0 53 264 418 536 682 761 752 734 722 715 818 847 922 1048 1176 1237 1276 1301 1334 1400 1459 1480
0 0 0 0 0 0 0 0 0 0 0 0 0 0 0 0 0 0 0 0 0 0 0 0 0 0 0 0 0 0 0 0 0 0 0 0 0 0 0 0 5 80 140 328 75 320 400 487 596 665 923 744 707 737 771 930 997 1062 1117 1181 1248 1333 1374
0 0 0 0 0 0 0 0 0 0 0 0 0 0 0 0 0 0 0 0 0 0 0 0 0 0 0 0 0 0 0 0 0 0 0 0 0 0 0 0 0 16 65 142 281 304 381 349 754 758 479 538 575 596 656 758 784 844 884 892 889 1023 1220
0 0 0 0 0 0 0 0 0 0 0 0 0 0 0 0 0 0 0 0 0 0 0 0 0 0 0 0 0 0 0 0 0 0 0 0 0 0 0 0 0 0 0 36 109 96 297 696 878 437 334 373 408 424 512 626 638 687 694 692 835 903 952
0 0 0 0 0 0 0 0 0 0 0 0 0 0 0 0 0 0 0 0 0 0 0 0 1 0 0 0 0 0 0 0 0 0 0 0 0 0 0 0 0 0 0 0 0 0 0 168 160 16 23 115 286 310 270 332 267 499 582 650 676 706 777
0 0 0 0 0 0 0 0 0 0 0 0 0 0 0 0 0 0 0 0 0 0 0 0 0 0 0 0 0 0 0 0 0 0 0 0 0 0 0 0 0 0 0 0 0 0 0 0 0 0 0 0 0 115 190 35 0 327 419 466 492 538 376
0 0 0 0 0 0 0 0 0 0 0 0 0 0 0 0 0 0 0 0 0 0 0 0 0 0 0 0 0 0 0 0 0 0 0 0 0 0 0 0 0 0 0 0 0 0 0 0 0 0 0 0 0 0 0 0 0 61 304 333 317 282 212
0 0 0 0 0 0 0 0 0 0 0 0 0 0 0 0 0 0 0 0 0 0 0 0 0 0 0 0 0 0 2 0 0 0 0 0 0 0 0 0 0 0 0 0 0 0 0 0 0 0 0 0 0 0 0 0 0 0 0 0 116 182 222
0 0 0 0 0 0 0 0 0 0 0 0 1 0 6 9 10 9 5 6 5 2 0 0 0 0 0 0 0 0 2 0 0 0 0 0 0 0 0 0 0 0 0 0 0 0 0 0 0 0 0 0 0 0 0 0 0 0 0 0 0 0 0

ECMWFFLT1_con_mucape_099.txt.gz
CAPE
507 356 446 794 798 626 384 188 1 14 0 0 0 2 9 104 146 211 522 566 593 682 827 829 764 930 1094 1318 1317 1357 1315 1354 1416 1370 1371 1328 1365 1383 1468 1628 1712 1757 1897 1938 1886 1996 2111 2198 2409 2592 2724 2766 2763 2782 2800 2847 2796 2666 2554 2455 2504 2682 2682
784 601 482 670 793 775 452 313 200 7 30 17 13 4 13 79 144 170 364 533 542 613 739 804 732 925 1010 1199 1382 1457 1520 1323 1430 1505 1363 1337 1431 1355 1361 1423 1478 1669 1836 1859 1842 1996 2074 2257 2402 2503 2675 2765 2752 2699 2678 2772 2796 2557 2535 2590 2600 2718 2856
813 711 638 657 751 734 661 240 375 41 40 44 29 11 4 94 186 180 230 485 476 505 657 731 712 919 1034 1082 1342 1444 1620 1641 1430 1484 1463 1379 1392 1429 1366 1349 1362 1592 1792 1827 1776 1935 2094 2236 2391 2464 2569 2675 2730 2648 2524 2689 2792 2448 2409 2503 2576 2711 2792
794 754 757 749 741 694 676 449 432 390 31 37 48 188 68 159 240 215 179 444 482 463 641 690 676 856 1069 1062 1192 1374 1471 1721 1773 1613 1488 1481 1484 1483 1458 1404 1367 1466 1698 1789 1880 1861 2039 2129 2246 2420 2861 2577 2643 2615 2481 2580 2690 2551 2366 2358 2343 2497 2646
885 885 874 870 764 642 644 584 401 496 421 542 643 668 502 324 394 367 253 295 471 478 624 738 637 781 1062 1090 1083 1206 1304 1472 1713 1775 1633 1424 1368 1525 1486 1469 1417 1395 1522 1690 1886 2015 2072 2096 2090 2153 2292 2459 2544 2555 2544 2570 2509 2507 2421 2370 2268 2301 2281
1095 1040 1044 979 835 782 837 788 759 542 417 488 608 643 895 939 542 474 440 535 500 506 550 783 680 772 1035 1172 1155 1162 1221 1256 1457 1644 1651 1400 1309 1492 1533 1494 1530 1455 1448 1492 1604 1918 2070 2175 2156 2102 2087 2115 2292 2395 2533 2612 2522 2536 2560 2514 2361 2306 2364
1136 1126 1111 1112 1083 997 998 845 592 842 553 511 537 735 935 1150 1281 876 789 803 979 801 622 712 846 767 938 1220 1275 1269 1276 1254 1286 1452 1531 1424 1269 1328 1444 1500 1558 1644 1644 1637 1626 1623 1811 2042 2178 2193 2102 2034 2143 2309 2510 2594 2588 2589 2638 2692 2614 2545 2485
1144 1104 1099 1177 1208 1168 972 920 752 479 611 453 518 513 795 1048 1138 974 1034 990 1045 1034 890 936 959 897 903 1073 1302 1340 1336 1317 1276 1337 1432 1449 1381 1306 1306 1318 1340 1386 1484 1626 1762 1753 1711 1708 1759 2026 2123 2127 2101 2224 2442 2555 2548 2582 2667 2702 2776 2788 2802
1037 1031 1153 1088 1087 1028 1139 1204 1121 782 709 700 498 372 638 925 1163 1090 1120 1183 1067 1089 1125 1206 1192 1099 1074 1058 1154 1284 1320 1316 1301 1283 1367 1428 1392 1384 1348 1324 1319 1300 1278 1305 1403 1537 1614 1635 1635 1664 2057 2142 2138 2142 2290 2463 2538 2585 2655 2725 2722 2698 2681
719 1020 998 994 1067 1019 1116 1080 1156 1042 780 696 727 585 639 712 986 1191 1282 1312 1108 1166 1262 1527 1612 1503 1327 1273 1182 1158 1212 1261 1256 1262 1288 1336 1367 1325 1331 1372 1396 1386 1370 1383 1368 1359 1388 1492 1568 1588 1765 2074 2149 2140 2162 2252 2395 2477 2540 2626 2674 2621 2555
492 806 774 829 908 915 882 956 1136 1129 945 836 693 713 606 625 756 1057 1256 1317 1205 1103 1299 1432 1586 1673 1601 1540 1496 1307 1192 1187 1216 1222 1206 1203 1237 1271 1250 1244 1258 1303 1349 1374 1398 1391 1356 1300 1266 1359 1502 1808 2047 2082 2056 2090 2157 2259 2382 2481 2530 2536 2510
539 556 522 603 654 586 719 705 1133 1232 1116 1062 956 852 782 724 652 762 1061 1336 1264 1179 1160 1266 1430 1621 1738 1662 1610 1573 1400 1278 1247 1236 1206 1156 1120 1129 1154 1150 1129 1135 1148 1171 1192 1158 1064 1016 1014 1073 1278 1432 1751 1948 2001 2005 1997 2043 2155 2291 2370 2419 2462
390 371 571 574 504 534 641 742 737 978 1083 1164 1105 935 800 738 726 668 544 957 1278 1378 1273 1038 1291 1434 1642 1781 1751 1708 1613 1508 1394 1316 1283 1245 1164 1093 1068 1072 1100 1085 1069 1074 1047 1084 1025 876 784 841 1040 1229 1405 1636 1837 1935 1967 2004 2061 2101 2104 2159 2282
210 300 440 507 481 541 608 732 899 914 683 569 701 859 956 904 864 973 911 804 1017 1311 1417 1415 1110 1143 1475 1722 1871 1879 1894 1862 1748 1718 1672 1564 1349 1176 1052 1057 1079 1085 1119 1060 1042 1020 1027 996 786 715 761 1032 1248 1411 1563 1736 1862 1923 1937 1903 1875 1892 1958
0 0 146 454 475 546 655 733 750 833 866 709 704 738 796 993 1062 1006 1085 1072 1003 940 1313 1418 1354 1258 1219 1499 1754 1667 1712 1939 2061 2061 1979 1826 1894 1710 1510 1355 1081 1023 999 999 943 933 981 1016 922 684 651 694 998 1265 1402 1500 1567 1615 1648 1663 1665 1657 1696
342 325 321 322 388 487 677 760 717 669 731 762 762 762 739 787 888 930 824 915 993 928 814 791 1078 927 1077 1254 1586 1489 1574 1727 1767 1674 1630 1447 1369 1665 1944 1830 1665 1391 1023 960 928 914 941 1000 1002 848 133 295 540 850 1159 1376 1451 1487 1493 1512 1534 1554 1547
326 360 446 452 396 510 656 769 700 655 680 688 687 754 696 770 822 814 907 852 864 835 756 839 722 724 797 993 1282 1369 1299 1285 1476 1421 1363 1319 1062 1378 1219 1881 1898 1822 1578 1197 993 904 839 808 783 767 738 79 274 452 686 919 1196 1372 1452 1470 1471 1471 1485
363 432 414 348 459 426 559 696 673 594 594 561 575 624 670 692 694 652 708 862 782 646 596 718 904 654 722 701 898 936 947 1038 1036 1052 1065 1128 1129 1007 1186 1408 1536 1758 1752 1560 1254 970 780 691 638 645 626 227 35 186 350 479 695 895 1154 1319 1383 1424 1439
296 328 334 266 400 286 468 512 562 549 539 491 500 514 548 521 514 565 88 71 976 956 775 776 894 806 778 810 844 897 952 818 908 859 998 1128 1073 976 921 785 773 1026 1282 1372 1390 1198 1001 811 705 596 535 444 0 2 125 348 366 568 726 923 1148 1298 1368
243 127 221 232 147 280 387 327 369 405 389 429 497 510 508 462 433 452 390 431 402 556 800 796 987 903 899 896 877 892 934 897 955 1009 1018 980 929 776 694 776 1006 930 1101 1041 1031 1020 1045 1042 964 825 684 524 263 0 2 24 178 4 0 676 782 950 1105
81 105 11 107 78 52 140 162 234 312 412 454 460 490 488 426 423 345 340 373 412 374 319 470 539 816 968 973 943 845 844 817 865 950 1098 1370 1599 1699 1547 1326 1163 1514 1569 1526 1475 1365 1250 1062 1038 980 930 873 745 867 923 601 118 0 0 0 506 679 746
93 97 68 94 134 143 145 147 234 339 339 318 297 296 281 277 287 281 298 323 312 290 282 317 432 690 678 683 792 892 915 922 984 932 981 1017 1107 1255 1222 1304 1418 1286 1407 1553 1602 1605 1575 1348 1150 1094 925 688 655 610 812 875 918 608 0 0 0 16 529
211 162 149 174 180 224 158 150 158 214 269 247 235 205 179 189 159 172 218 230 236 228 268 324 361 315 350 604 666 578 664 785 934 1046 1072 1080 1036 1061 1118 1191 1089 1104 1272 1378 1484 1567 1591 1660 1641 1543 1366 1166 1032 916 806 845 821 838 868 701 535 461 119
156 184 204 207 152 230 243 249 293 268 248 224 199 185 181 198 164 175 179 205 207 204 222 227 263 386 433 497 506 514 520 626 642 655 695 710 837 961 995 1002 954 1000 1012 1041 1206 1289 1393 1419 1442 1392 1439 1456 1372 1253 1124 1040 938 839 771 782 880 797 599
134 119 98 112 85 108 88 0 66 156 83 66 78 131 81 92 77 0 0 0 0 0 0 92 196 256 307 384 422 438 435 431 426 436 451 479 567 636 856 886 920 953 964 1003 970 1029 1026 1188 1260 1354 1391 1457 1454 1341 1299 1299 1268 1178 1081 978 855 811 865
50 93 57 0 2 3 64 0 0 0 0 0 0 0 0 0 0 0 0 0 0 0 0 0 0 1 82 185 240 264 286 269 321 388 349 344 357 437 556 703 790 825 817 802 825 866 972 1021 1111 1262 1316 1445 1568 1466 1337 1348 1378 1330 1338 1323 1226 1114 956
0 0 0 0 0 0 0 0 0 0 0 0 0 0 0 0 0 0 0 0 0 0 0 0 0 0 0 0 0 0 74 116 124 78 204 254 262 263 290 357 420 459 593 771 815 773 819 884 910 949 1055 1146 1186 1294 1362 1443 1414 1387 1403 1390 1382 1370 1313
0 0 0 0 0 0 0 0 0 0 0 0 0 0 0 0 0 0 0 0 0 0 0 0 0 0 0 0 0 0 0 0 0 0 0 118 165 204 270 301 290 258 312 493 651 724 765 800 820 865 853 836 930 1035 1132 1244 1275 1444 1529 1459 1451 1442 1409
0 0 0 0 0 0 0 0 0 0 0 0 0 0 0 0 0 0 0 0 0 0 0 0 0 0 0 0 0 0 0 0 0 0 0 0 0 0 0 75 133 202 217 230 328 477 601 652 662 720 732 872 767 712 842 945 998 1190 1290 1376 1413 1390 1397
1 0 0 0 0 0 0 0 0 0 0 0 0 0 0 0 0 0 0 0 0 0 0 0 0 0 0 0 0 0 0 0 0 0 0 0 0 0 0 0 0 1 47 112 180 264 374 440 564 631 614 587 601 622 641 702 819 962 1044 1070 1156 1226 1291
0 0 0 0 0 0 0 0 0 0 0 0 0 0 0 0 0 0 0 0 0 0 0 0 0 0 0 0 0 0 0 0 0 0 0 0 0 0 0 0 0 0 0 0 2 4 99 168 411 528 685 452 540 598 601 621 679 745 788 892 1007 1088 1162
0 0 0 0 0 0 0 0 0 0 0 0 0 0 0 0 0 0 0 0 0 0 0 0 0 0 0 0 0 0 0 0 0 0 0 0 0 0 0 0 0 0 0 0 0 0 0 17 217 374 275 200 358 432 538 521 495 553 573 554 481 688 818
0 0 0 0 0 0 0 0 0 0 0 0 0 0 0 0 0 0 0 0 0 0 0 0 0 0 0 0 0 0 0 0 0 0 0 0 0 0 0 0 0 0 0 0 0 0 0 0 0 0 0 5 122 226 312 346 373 387 389 404 343 352 494
0 0 0 0 0 0 0 0 0 0 0 0 0 0 0 0 0 0 0 0 0 0 0 0 0 0 0 0 0 0 0 0 0 0 0 0 0 0 0 0 0 0 0 0 0 0 0 0 0 0 0 0 0 0 116 237 276 253 222 231 311 371 215
0 0 0 0 0 0 0 0 0 0 0 0 0 0 0 0 0 0 0 0 0 0 0 0 0 0 0 0 0 0 0 0 0 0 0 0 0 0 0 0 0 0 0 0 0 0 0 0 0 0 0 0 0 0 0 0 30 76 0 56 58 0 12
0 0 0 0 0 0 0 0 0 0 0 0 0 0 0 0 0 0 0 0 0 0 0 0 0 0 0 0 0 0 1 2 0 0 0 0 0 0 0 0 0 0 0 0 0 0 0 0 0 0 0 0 0 0 0 0 0 0 0 0 0 0 0
0 0 0 0 0 0 0 0 0 0 0 0 0 0 0 0 0 0 0 0 0 0 0 0 0 0 0 0 0 1 8 1 0 0 0 0 0 0 0 0 0 0 0 0 0 0 0 0 0 0 0 0 0 0 0 0 0 0 0 0 0 0 0
0 0 0 0 0 0 0 0 0 0 0 0 0 0 0 0 0 0 0 0 0 0 0 0 0 0 0 1 4 9 6 0 0 0 0 0 0 0 0 0 0 0 0 0 0 0 0 0 0 0 0 0 0 0 0 0 0 0 0 0 0 0 0

ECMWFFLT1_con_mucape_102.txt.gz
CAPE
154 398 558 704 571 154 0 0 0 0 0 0 3 2 22 71 147 240 367 488 568 584 653 702 727 782 872 894 856 875 916 972 1002 1056 1122 1158 1173 1280 1513 1687 1777 1829 1878 1895 1971 2035 2050 2182 2394 2649 2707 2696 2697 2773 2793 2802 2750 2669 2504 2632 2573 2798 2653
156 190 322 704 706 440 37 22 0 0 0 0 1 0 8 69 130 236 339 439 516 546 628 704 716 750 852 955 976 976 996 1033 1136 1416 1165 1175 1453 1216 1300 1491 1650 1763 1845 1875 1917 1987 1980 2100 2371 2484 2632 2859 2812 2649 2683 2716 2739 2743 2643 2465 2518 2646 2695
234 136 180 658 751 701 256 38 27 25 4 0 2 0 2 56 126 219 334 389 463 513 585 680 720 726 775 907 1020 1063 1075 1079 1163 1342 1220 1217 1264 1256 1265 1314 1442 1584 1699 1777 1813 1881 2071 2071 2269 2372 2544 2674 2807 2648 2648 2664 2746 2697 2660 2521 2676 2678 2654
326 268 135 528 838 742 597 223 50 38 48 45 10 1 0 55 116 168 292 408 436 473 540 652 702 708 735 840 1015 1107 1156 1146 1142 1265 1294 1268 1264 1272 1282 1283 1312 1387 1541 1616 1690 1785 2113 2086 2180 2247 3085 2532 2643 2651 2672 2654 2694 2593 2569 2472 2480 2551 2549
577 326 560 518 640 722 744 572 464 79 114 103 0 5 0 23 105 130 198 380 366 436 488 590 668 688 705 761 929 1079 1188 1245 1187 1214 1303 1306 1285 1292 1295 1297 1281 1297 1435 1536 1714 1995 2085 2108 2045 2188 2393 2476 2506 2571 2620 2623 2602 2583 2491 2417 2372 2324 2415
791 624 456 682 652 653 706 690 686 433 137 154 113 66 66 26 89 129 148 373 422 385 377 501 594 681 706 757 829 979 1134 1259 1312 1290 1284 1288 1293 1337 1382 1409 1418 1328 1317 1426 1710 1890 1891 2024 2052 2022 2108 2271 2428 2504 2551 2633 2623 2575 2537 2389 2323 2300 2375
958 892 650 473 431 421 519 572 698 732 427 486 526 516 194 99 65 58 217 249 432 451 397 531 554 590 678 846 848 951 1033 1166 1309 1418 1463 1459 1441 1398 1374 1378 1422 1361 1326 1375 1442 1686 1850 1952 2058 2011 1972 1994 2336 2399 2523 2648 2732 2603 2618 2532 2457 2242 2303
1106 972 911 864 600 556 560 643 651 922 684 589 694 768 623 419 106 157 317 283 441 513 448 540 618 561 626 867 930 905 942 1042 1178 1327 1434 1514 1556 1556 1520 1394 1369 1397 1378 1366 1368 1416 1607 1764 1924 2110 2040 2021 2061 2276 2399 2573 2662 2567 2609 2638 2560 2472 2306
1155 1117 1142 1142 1108 1077 975 697 694 600 552 582 639 694 944 899 617 446 516 581 614 582 555 531 698 698 642 795 965 979 964 999 1075 1162 1298 1409 1486 1560 1584 1430 1348 1406 1429 1412 1395 1420 1470 1523 1629 1853 2070 2091 2124 2136 2284 2490 2602 2612 2685 2683 2622 2614 2596
1298 1284 1296 1255 1260 1258 1263 1178 1014 856 737 590 462 384 587 677 894 774 694 648 752 841 858 774 811 900 817 808 990 1076 1032 1060 1061 1078 1158 1253 1347 1453 1526 1486 1265 1325 1386 1472 1506 1543 1611 1643 1692 1723 1800 2039 2154 2104 2203 2330 2515 2615 2580 2692 2687 2666 2664
1111 1080 991 1036 1050 1123 1152 1165 1152 1023 929 797 617 403 308 458 685 955 1100 1035 1006 1003 1072 1083 1229 1162 1033 988 1030 1102 1113 1140 1142 1132 1141 1184 1244 1320 1405 1458 1411 1264 1263 1292 1329 1350 1349 1407 1498 1570 1609 1797 2047 2132 2120 2211 2378 2524 2531 2573 2655 2669 2633
796 788 678 670 783 840 864 878 953 1087 1147 1006 737 576 475 407 481 689 833 979 1132 1032 1195 1291 1082 1023 1321 1228 1151 1120 1109 1174 1208 1216 1215 1211 1220 1249 1285 1344 1386 1396 1334 1293 1303 1290 1300 1338 1394 1414 1413 1523 1855 2048 2094 2107 2175 2320 2460 2476 2509 2564 2588
629 564 514 532 475 462 401 608 709 809 868 953 716 613 674 510 594 568 339 759 935 890 974 930 1084 1007 1083 1357 1475 1272 1205 1163 1182 1218 1233 1241 1223 1198 1186 1210 1288 1342 1350 1343 1338 1359 1379 1391 1399 1386 1361 1326 1481 1798 1999 2006 1961 2046 2164 2260 2354 2404 2509
489 464 506 589 570 421 372 505 704 932 1025 956 834 810 764 630 461 516 466 563 467 844 1105 1127 1024 912 992 1268 1346 1219 1280 1243 1170 1154 1186 1208 1220 1209 1200 1162 1176 1210 1258 1254 1229 1189 1179 1190 1186 1174 1135 1121 1208 1443 1716 1873 1863 1831 1895 1988 2066 2118 2216
448 491 558 644 684 767 696 712 742 863 910 952 913 866 872 794 673 561 527 425 444 389 724 764 897 948 965 1107 1225 1295 1513 1410 1327 1261 1227 1224 1220 1242 1231 1207 1144 1102 1107 1105 1093 1073 1071 1076 1076 1059 1037 1031 1035 1169 1404 1552 1697 1729 1719 1745 1797 1862 1913
381 492 543 604 665 705 706 625 665 701 757 735 715 736 811 793 766 772 639 648 576 517 616 469 808 840 878 948 1072 1234 1279 1326 1507 1535 1456 1421 1431 1448 1437 1398 1327 1251 1186 1133 1074 1040 1077 1094 1094 1078 1012 969 966 984 1120 1349 1468 1541 1474 1545 1788 1722 1758
257 323 452 569 614 675 579 518 496 608 627 643 665 711 742 762 745 766 827 802 746 703 704 670 790 832 748 820 902 1047 1087 1124 1369 1542 1515 1465 1544 1662 1747 1722 1628 1511 1406 1325 1274 1265 1269 1234 1060 984 970 929 941 986 1009 1050 1229 1242 1288 1387 1485 1646 1636
284 280 372 492 613 707 687 639 612 650 674 604 660 704 712 726 624 570 694 619 695 706 673 787 815 779 746 730 767 918 1105 1212 1276 1296 1488 1619 1715 1788 1787 1794 1545 1263 1280 1392 1461 1450 1400 1282 1116 999 893 873 871 846 829 830 830 865 1070 1208 1304 1375 1491
399 427 389 493 604 654 790 695 515 519 628 560 604 637 663 646 598 552 556 643 586 590 614 660 682 708 613 626 641 666 702 879 1075 1173 1267 1391 1454 1442 1517 1545 1520 1397 1145 1066 1235 1435 1475 1404 1187 1019 879 844 726 680 671 639 602 550 502 780 1008 1191 1280
535 558 472 596 556 585 845 732 488 522 546 522 561 512 509 559 602 505 450 414 523 593 619 574 561 588 627 612 498 632 663 808 911 1072 1103 1061 1081 1135 1237 1271 1291 1297 1279 1188 1079 1047 1195 1221 1114 1022 994 952 865 732 640 562 557 499 414 391 489 660 839
536 509 506 561 621 686 751 695 523 516 536 556 560 546 514 521 475 449 410 406 398 482 495 533 498 650 746 741 699 605 666 685 762 892 908 926 943 974 985 1001 1018 1069 1114 1112 1101 1035 883 835 821 751 898 1082 1120 1041 927 827 746 711 685 635 466 445 433
320 301 355 362 434 569 652 548 434 393 368 373 436 539 503 527 487 426 402 402 378 409 406 414 479 466 474 643 666 661 689 746 768 752 765 824 878 953 1006 1055 1098 1058 1064 1158 1260 1324 1292 1286 1251 1227 1160 1009 1070 1078 1092 1069 994 942 901 825 672 674 603
168 129 78 79 108 140 342 450 453 351 292 267 306 546 502 556 504 442 396 368 364 348 371 358 317 439 404 518 731 733 788 813 837 874 853 878 958 1016 1063 999 966 983 1041 1166 1289 1436 1438 1324 1410 1507 1480 1447 1406 1281 1071 1073 1013 936 815 702 627 771 756
246 202 201 215 172 202 182 145 165 211 197 266 382 414 384 376 332 276 244 213 224 276 272 274 314 387 486 545 639 552 614 696 663 694 756 788 888 964 1026 978 938 980 1061 1104 1214 1266 1368 1490 1511 1510 1459 1412 1380 1391 1415 1421 1379 1258 1110 956 814 678 771
121 147 163 175 192 184 155 162 172 181 223 270 236 190 175 162 164 162 8 0 95 166 203 204 253 312 356 379 436 482 465 453 437 378 496 516 390 508 818 835 997 1066 1046 1112 1134 1192 1242 1344 1342 1351 1335 1323 1329 1432 1530 1509 1453 1361 1290 1235 1166 1052 940
68 72 59 76 88 89 63 71 95 126 140 130 51 4 87 114 132 71 7 130 120 116 151 160 196 227 276 283 293 275 308 390 365 361 302 294 310 295 292 436 710 885 868 869 920 989 1081 1173 1180 1174 1190 1214 1258 1308 1375 1386 1386 1391 1359 1345 1300 1269 1213
34 59 50 43 28 25 31 11 0 0 0 0 0 0 0 0 0 0 0 0 0 0 0 0 30 88 165 212 270 290 254 243 251 255 238 214 150 174 264 248 387 477 548 636 702 848 898 949 1009 1024 1001 1056 1132 1172 1214 1224 1244 1298 1383 1397 1418 1341 1301
0 0 2 16 22 14 0 0 0 0 0 0 0 0 0 0 0 0 0 0 0 0 0 0 0 0 0 0 0 148 185 186 180 175 162 167 161 208 228 232 194 200 242 337 444 527 708 830 788 846 924 906 913 928 946 977 1015 1089 1203 1353 1520 1476 1389
0 0 0 0 0 0 0 0 0 0 0 0 0 0 0 0 0 0 0 0 0 0 0 0 0 0 0 0 0 0 0 0 0 0 0 0 0 45 52 152 188 178 189 179 173 249 319 437 462 537 670 767 820 807 828 868 1029 859 927 1034 1126 1213 1339
0 0 0 0 0 0 0 0 0 0 0 0 0 0 0 0 0 0 0 0 0 0 0 0 0 0 0 0 0 0 0 0 0 0 0 0 0 0 0 0 0 83 94 142 159 184 205 292 204 201 289 246 305 392 467 548 821 686 717 764 838 847 1035
0 0 0 0 0 0 0 0 0 0 0 0 0 0 0 0 0 0 0 0 0 0 0 0 0 0 0 0 0 0 0 0 0 0 0 0 0 0 0 0 0 0 0 0 0 72 127 163 159 114 4 24 207 277 286 275 552 383 424 465 542 621 672
0 0 0 0 0 0 0 0 0 0 0 0 0 0 0 0 0 0 0 0 0 0 0 0 0 0 0 0 0 0 0 0 0 0 0 0 0 0 0 0 0 0 0 0 0 0 0 0 0 73 38 0 0 0 3 96 204 222 280 319 368 388 408
0 0 0 0 0 0 0 0 0 0 0 0 0 0 0 0 0 0 0 0 0 0 0 0 0 0 0 0 0 0 0 0 0 0 0 0 0 0 0 0 0 0 0 0 0 0 0 0 0 0 0 0 0 0 0 2 6 9 0 35 176 247 264
0 0 0 0 0 0 0 0 0 0 0 0 0 0 0 0 0 0 0 0 0 0 0 0 0 0 0 0 0 0 0 0 0 0 0 0 0 0 0 0 0 0 0 0 0 0 0 0 0 0 0 0 0 0 0 0 0 0 0 0 1 0 1
0 0 0 0 0 0 0 0 0 0 0 0 0 0 0 0 0 0 0 0 0 0 0 0 0 0 0 0 0 0 0 0 0 0 0 0 0 0 0 0 0 0 0 0 0 0 0 0 0 0 0 0 0 0 0 0 0 0 0 0 0 0 0
9 0 0 0 0 0 0 0 0 0 0 0 0 0 0 0 0 0 0 0 0 0 0 0 0 0 0 0 0 1 0 0 0 0 0 0 0 0 0 0 0 0 0 0 0 0 0 0 0 0 0 0 0 0 0 0 0 0 0 0 0 0 0
0 0 0 0 0 0 0 0 0 0 0 0 0 0 0 0 0 0 0 0 0 0 0 0 0 0 0 3 4 10 1 0 0 0 0 0 0 0 0 0 0 0 0 0 0 0 0 0 0 0 0 0 0 0 0 0 0 0 0 0 0 0 0
0 0 0 0 0 0 0 0 0 0 0 0 0 0 0 0 0 0 0 0 0 0 0 0 0 0 0 3 8 6 7 0 0 0 0 0 0 0 0 0 0 0 0 0 0 0 0 0 0 0 0 0 0 0 0 0 0 0 0 0 0 0 0

ECMWFFLT1_con_mucape_105.txt.gz
CAPE
830 1144 1244 1160 400 210 208 226 395 539 655 562 513 471 496 565 920 1313 1321 1807 1921 2139 2174 2277 2264 2170 2030 2004 2151 2194 2149 2471 2517 2538 2552 2722 2688 3049 3201 2984 3038 3275 3029 3000 2987 3158 3401 3335 3372 3362 3675 3797 3847 4025 4126 4184 4105 3739 3872 4091 3864 3663 3566
912 1050 1129 1277 681 260 235 214 408 429 521 501 450 545 485 598 1021 1029 1354 1747 1877 2077 2071 2081 2213 2244 2081 2062 2020 2221 2303 2346 2497 2672 2431 2891 3122 3322 3156 3275 3141 3478 3549 3144 3201 3442 3282 3383 3274 3356 3582 3797 3676 3973 3878 3968 3917 3908 3731 4009 3666 3737 3522
934 1090 1132 1148 1249 323 232 198 195 311 354 342 392 460 476 764 968 1031 1405 1561 1755 1956 2000 1958 2138 2171 2108 2208 2122 2162 2092 2059 2349 2394 2266 2115 2372 2072 2588 3055 3150 3060 3052 3154 3541 3392 3309 3276 3541 3436 3419 3414 3324 3899 3994 3886 3937 3659 3877 4114 3737 3395 3632
980 1044 1349 1339 1050 1086 285 207 171 181 235 263 400 394 474 969 896 1219 1376 1397 1616 1824 1901 1845 1872 1855 2065 2204 2141 2221 2116 2152 2097 1886 1810 1887 2192 2229 2524 2784 2966 2821 3103 3064 2899 3020 2742 3188 3461 3668 3732 3626 3674 3681 3700 3591 3502 3688 3755 4120 3819 3625 3714
875 1045 1091 1247 1504 1515 796 209 14 184 203 346 583 556 534 782 876 1096 1163 1272 1251 1477 1562 1650 1566 1671 1846 2017 1927 1949 2003 1980 2121 2099 2058 2099 2434 2549 2464 2216 2440 2528 2679 2709 3051 3373 3440 3415 3111 3392 3596 3946 3638 3830 3881 3886 3589 4005 3943 4014 3814 3685 3501
758 978 1273 1491 1508 1422 1244 756 280 73 249 484 593 668 494 562 676 705 963 1157 1292 1474 1586 1579 1567 1718 1796 1754 1776 1818 2121 2273 2332 2548 2454 2593 2670 2398 2392 2432 2335 2408 2427 2707 2812 2848 3253 3177 2993 3110 2920 2975 2896 2992 3193 3499 3435 3429 3755 3958 3662 3198 2981
820 1098 1342 1713 1684 1800 1876 1694 1159 730 478 499 565 597 485 450 630 796 1195 1277 1539 1826 1865 1795 1699 1717 1797 1640 1773 2021 2142 2028 2150 2074 2203 2252 2316 2412 2412 2536 2557 2276 2288 2701 2813 2786 2960 3093 3222 3310 3098 2691 2987 2755 3216 3812 3640 3664 3854 4003 4079 4045 3859
987 1118 1253 1432 1632 1621 1781 1993 1887 1643 1402 1403 995 563 674 914 1042 1153 1218 1234 1639 1716 1701 1639 1618 1764 1895 1818 1815 1778 1885 1816 2030 2083 2186 2031 2145 2252 2247 2418 2667 2702 2764 2632 2760 2887 2784 3112 2902 3120 3091 2853 3073 3298 3237 3843 4194 3680 3621 3828 3920 3854 3308
1533 1374 1250 1189 1254 1210 700 707 1587 1839 1673 1350 1410 1618 1457 1219 1046 1077 1150 1338 1522 1578 1677 1526 1573 1789 1969 1972 1862 1870 1788 1822 2042 2158 2193 1922 1871 1862 1804 2179 2393 2704 2662 2326 2326 2765 2715 2917 2678 3282 3441 3048 3263 3657 3487 3973 3706 3606 3778 3841 3952 3911 3386
1582 1532 1551 1486 1390 1003 821 914 1458 1069 1356 1284 1167 1293 1319 667 308 1062 1575 1422 1436 1388 1620 1452 1533 1686 1815 1946 2000 1918 1752 1880 1876 1729 1813 1731 1802 1811 1784 1774 2078 2530 2406 2292 2041 2297 2714 2724 2742 3256 3664 3324 3481 3703 3538 3698 3541 3594 3697 4016 4030 3954 4052
1355 1336 1401 1327 1284 1337 1167 1128 880 727 1017 1332 1100 1293 1416 1482 1334 1262 1784 1304 1528 1882 2023 1966 1916 1882 1751 1731 1780 1916 1773 1644 1615 1664 1715 1634 1567 1688 1726 1789 1813 2150 2165 2145 2005 2084 2341 2830 2941 3161 3331 2866 3050 3306 3475 3436 3547 3771 3447 3624 3717 3972 3703
1222 1197 1174 1367 1413 1269 1122 1133 1109 1033 887 796 858 912 958 1005 1140 1308 1391 1130 1516 1278 1144 1272 1894 2061 1782 1877 1860 2084 2202 1835 1608 1624 1710 1658 1575 1579 1627 1684 1706 1854 2122 2075 2076 2182 1994 2385 2544 2594 3025 2933 2883 2927 3189 3452 3611 3716 3652 3338 3453 3748 3706
1270 1262 1282 1288 1308 1314 1275 1104 1021 939 794 828 872 875 848 784 890 895 917 1134 1081 1215 1478 1435 1318 1460 1999 2314 2137 2168 2164 2123 2036 1927 1686 1862 1746 1660 1712 1698 1637 1648 1777 2011 2033 2026 1841 1865 2169 2421 2509 2870 2789 2653 2924 3251 3092 3594 3775 3591 3626 3753 3774
957 881 826 876 1034 1070 1108 1018 1094 1134 1201 1128 1051 990 929 838 1189 1107 977 1004 1163 1265 1486 1629 1704 1625 1553 2000 2270 2236 1998 1830 2100 2049 2180 2313 2420 2194 1884 1734 1672 1760 1739 1883 1933 1874 1800 1706 1760 2089 2062 2278 2393 2565 2701 2974 2939 3337 3602 3467 3323 3366 3521
808 693 734 608 556 681 498 533 650 844 924 944 1045 1068 1026 922 835 778 756 737 1134 1247 1195 1340 1399 1460 1129 1204 1087 1177 1210 1481 2074 2282 2500 2612 2556 2512 2252 1959 1852 1849 1840 1783 1692 1556 1608 1610 1519 1501 1604 1614 1876 2002 2086 1876 2171 2348 2840 3037 3392 3194 2906
616 644 588 486 494 527 478 509 590 682 830 707 717 740 851 842 764 703 670 1041 1051 1222 1015 1275 1537 1134 974 855 940 941 927 939 1104 1490 1780 2052 2280 2461 2259 1916 1630 1407 1399 1542 1616 1675 1726 1709 1644 1419 1358 1407 1669 1808 1662 1740 1805 2140 1897 2001 2325 2784 2585
613 637 614 640 693 688 656 662 689 829 851 861 841 776 804 796 752 730 702 653 754 1050 1217 999 855 970 899 744 1028 933 997 1044 1034 983 1101 1297 1351 1364 1432 1442 1404 1498 1581 1470 1229 1300 1503 1434 1434 1392 1362 1351 1375 1447 1380 1357 1379 1502 1268 1194 1176 1800 2451
579 641 673 679 666 633 591 632 624 688 750 718 747 768 791 820 758 684 690 672 654 670 678 638 607 629 902 917 919 937 884 969 1003 1068 1128 1090 1128 1210 1275 1260 1248 1287 1404 1384 1406 1432 1219 1138 1271 1420 1245 1164 1126 1137 1124 1184 1014 914 862 834 880 958 1804
571 578 656 656 701 659 624 632 648 731 743 742 765 779 747 765 710 631 529 604 653 603 642 687 668 648 616 688 674 945 750 845 959 981 1022 1099 1104 1264 1326 1173 1258 1354 1453 1573 1600 1512 1388 1334 1267 1384 1227 1208 1143 1027 795 906 676 707 711 695 639 643 861
557 552 571 547 663 676 647 607 636 697 769 758 743 720 754 746 651 593 481 509 534 564 628 656 663 679 688 688 685 710 725 755 775 790 856 923 1010 1171 1284 1053 1059 1386 1696 1695 1759 1491 1318 1139 1156 1331 1641 1478 1515 1528 1364 1143 736 626 592 572 515 455 423
481 425 526 520 512 588 593 515 467 542 567 566 533 486 510 568 523 451 446 462 478 548 546 547 529 518 530 533 589 639 673 716 733 744 767 790 788 842 1096 1208 1262 1167 1237 1302 1321 1366 1347 1234 1090 1064 1392 1234 1225 1202 1155 960 839 785 732 713 655 546 472
512 509 615 556 415 426 522 502 443 488 450 411 501 500 444 439 376 353 406 419 461 511 507 515 470 453 476 545 565 576 590 630 624 635 629 637 634 725 873 1027 1060 1118 1140 1166 1264 1228 1219 1285 1297 1462 1666 1717 1648 1478 1455 1273 983 984 990 984 958 881 809
667 512 508 448 400 423 530 418 532 300 234 274 363 414 468 473 364 309 317 299 324 417 457 435 446 442 440 495 536 480 512 525 556 661 680 658 661 727 855 863 920 911 958 979 1316 1474 1793 1641 1604 1731 1694 1632 1733 1642 1690 1905 1776 1006 976 1007 1028 1025 1002
356 407 398 382 375 389 423 435 497 356 217 146 0 118 299 375 374 283 270 318 324 338 378 380 395 421 363 377 442 355 334 412 369 371 42 354 571 734 771 809 908 919 979 944 992 1079 1136 1215 1220 1226 1272 1406 1484 1704 1628 1888 1988 1333 1209 1100 920 951 1122
153 128 123 155 162 199 265 357 422 361 276 194 124 126 193 274 299 231 240 236 219 266 282 309 253 345 382 401 400 451 0 314 340 307 308 193 309 298 786 899 963 925 892 907 936 1028 1110 1192 1241 1214 1273 1277 1365 1394 1525 1655 1576 1344 1240 1257 1219 1157 1168
186 134 126 125 127 127 139 164 182 169 171 141 123 158 153 223 226 210 186 127 14 7 70 188 203 215 228 252 292 287 362 322 307 348 337 316 349 337 593 744 852 948 812 623 886 992 1067 1059 1065 1072 1067 1108 1148 1165 1254 1311 1204 1252 1272 1248 1295 1298 1254
55 88 127 106 114 99 89 103 107 88 130 137 150 162 182 158 132 122 78 39 103 0 0 8 55 155 184 212 202 211 240 243 290 318 319 264 286 324 248 499 526 759 788 831 849 940 1020 983 946 938 989 1023 997 947 900 955 1130 1146 1111 1153 1239 1320 1363
8 16 26 59 54 45 26 26 6 10 0 0 112 145 139 137 108 0 0 0 0 0 0 0 0 54 154 162 143 185 209 186 126 0 54 41 169 110 131 161 264 321 327 470 481 437 528 812 884 955 887 776 779 755 724 730 824 874 766 789 946 975 1276
10 23 30 36 33 28 6 0 0 0 0 1 0 0 0 0 0 0 0 0 0 0 0 0 0 0 0 92 196 211 164 160 154 111 98 101 128 100 114 107 103 32 146 235 273 264 218 327 489 460 562 523 546 532 539 552 617 627 629 644 592 596 768
1 0 18 23 33 32 8 0 0 0 0 0 0 0 0 0 0 0 0 0 0 0 0 0 0 0 0 0 0 0 0 122 117 0 0 0 0 0 0 124 147 161 196 177 166 174 177 155 137 61 22 123 94 144 288 451 263 324 386 434 440 502 610
0 0 0 0 0 0 0 0 0 0 0 0 0 0 0 0 0 0 0 0 0 0 0 0 0 0 0 0 0 0 0 0 0 0 0 0 0 0 0 0 22 62 114 123 119 122 111 78 70 74 9 16 43 121 146 262 323 192 213 244 310 361 432
0 0 0 0 0 0 0 0 0 0 0 0 0 0 0 0 0 0 0 0 0 0 0 0 0 0 0 0 0 0 0 0 0 0 0 0 0 0 0 0 0 0 0 0 0 0 0 0 0 0 0 65 4 9 10 16 25 1 0 15 109 132 216
0 0 0 0 0 0 0 0 0 0 0 0 0 0 0 0 0 0 0 0 0 0 0 0 0 0 0 0 0 0 0 0 0 0 0 0 0 0 0 0 0 0 0 0 0 0 0 0 0 0 0 0 0 0 0 0 0 0 0 0 0 0 0
0 0 0 0 0 0 0 0 0 0 0 0 0 0 0 0 0 0 1 0 0 2 2 0 0 0 0 0 0 0 0 0 0 0 0 0 0 0 0 0 0 0 0 0 0 0 0 0 0 0 0 0 0 0 0 0 0 0 0 0 0 0 0
0 0 0 0 0 0 0 0 0 0 0 0 0 0 0 0 0 3 8 12 13 12 5 4 7 3 1 0 0 0 0 0 0 0 0 0 0 0 0 0 0 0 0 0 0 0 0 0 0 0 0 0 0 0 0 0 0 0 0 0 0 0 0
0 0 12 3 0 0 0 0 0 0 0 0 0 0 0 0 0 2 0 4 10 11 5 4 3 1 1 2 2 0 0 0 0 0 0 0 0 0 0 0 0 0 0 0 0 0 0 0 0 0 0 0 0 0 0 0 0 0 0 0 0 0 0
1 1 0 4 0 0 0 0 0 0 0 0 0 0 0 0 0 0 0 0 0 0 0 1 0 0 0 0 1 1 0 0 0 0 0 0 0 0 0 0 1 0 0 0 0 0 0 0 0 0 0 0 0 0 0 0 0 0 0 0 0 0 0
0 0 0 1 0 0 0 0 0 0 0 0 0 0 0 0 0 0 0 0 0 0 0 0 0 0 0 0 0 1 2 0 0 0 0 1 0 0 0 0 0 0 2 0 0 0 0 0 0 0 0 0 0 0 0 0 0 0 0 0 0 0 0

ECMWFFLT1_con_mucape_108.txt.gz
CAPE
1193 860 834 1206 1334 877 544 518 640 782 937 1144 1284 1106 1004 730 839 1242 1437 2219 2131 2351 2519 2487 2219 2378 2514 2577 2396 2175 2138 1993 2248 2350 2194 2381 2232 2330 2543 2414 2552 2892 2726 2766 2890 2828 3218 3054 3152 3155 3358 3687 3549 4178 4741 4869 4394 3908 3797 4585 3946 3914 4087
1429 1154 941 1312 1490 999 736 722 940 892 1076 1467 1523 1422 1080 910 1214 1659 2048 2836 2700 2418 2504 2411 2467 2150 2349 2520 2552 2598 2357 2072 2070 2074 2075 2215 2460 2753 2904 2629 2544 2900 3460 3089 3087 3163 3246 3299 3022 3286 3400 3795 3474 4420 4319 4069 4277 4259 3307 4158 3632 4065 3874
1461 1013 1137 1408 1648 1099 887 804 981 979 1258 1379 1306 1207 1169 1346 1718 2136 2529 2853 2945 2544 2493 2202 2572 2223 2128 2384 2467 2565 2551 2169 2062 2006 2001 1951 2284 2049 2334 2540 2849 2570 2707 2838 3280 3126 2626 3088 2988 3297 3339 3364 3073 3631 4189 4404 4394 3802 3831 4554 3791 3498 3649
1289 1150 1505 1635 1182 1044 1046 907 1012 1101 1175 1112 1161 1027 1259 1656 1800 2320 2560 2609 2760 2679 2336 2047 2234 1849 1965 2033 2208 2407 2511 2332 2139 1800 1571 1388 1831 1927 2174 2658 2986 2796 2585 2741 2717 2832 2789 2713 3206 3299 3158 3444 3305 3208 3459 3412 3328 3675 3942 4669 3730 3754 3990
1326 1405 1706 1846 1570 1366 1118 983 1007 1217 1095 1161 1461 1416 1350 1662 1840 2161 2282 2204 1845 1931 1819 1736 1357 1350 1660 1797 1783 1918 2216 2212 2128 1802 1605 1634 1678 2054 2118 2352 2530 2639 2744 2852 3171 3178 3156 3254 3120 3227 3276 3542 3653 3650 3522 3855 3325 3931 4239 4338 3827 3571 3621
1072 1779 1867 1689 1810 1814 1145 1159 1278 1123 1227 1448 1624 1605 1506 1707 1766 1791 1983 1955 1860 1833 1950 1681 1117 1142 1422 1464 1420 1168 1687 2027 2164 2069 1682 1572 2020 2085 2233 2398 2313 2526 2427 2790 2881 2836 3177 3152 3016 2982 3053 3062 2870 2855 2957 3357 3143 3350 3925 3971 3545 2947 2766
1208 1033 1647 1595 1563 1467 1248 1032 821 681 833 1112 1447 1489 1452 1643 1908 1878 2113 2021 2110 2140 2322 2347 1614 1257 1602 1427 1386 1314 1550 1646 1996 1912 1670 1552 1810 2182 2193 2296 2351 2192 2155 2473 2872 2556 2684 2835 2887 2950 2871 2694 2691 2522 2815 3496 3261 2986 3562 3987 4045 3845 3542
1327 1500 1488 1750 1788 1825 1431 1082 754 544 676 1059 1176 1116 1165 1398 1490 1656 1993 2040 2333 2450 2468 2574 2166 1821 1981 1894 1365 1276 1461 1429 1599 1769 1652 1525 1598 1898 1959 2053 2319 2382 2447 2274 2672 2603 2422 2726 2665 2736 2820 2680 2846 2714 3050 3397 3697 3412 3018 3415 3799 3725 3541
1489 1573 1707 1944 1828 1584 1433 1388 1392 937 890 904 1114 1165 1326 1444 1527 1497 1706 1899 2387 2592 2700 2441 2317 2383 2489 2552 1923 1735 1456 1419 1307 1487 1484 1255 1209 1292 1556 1739 2009 2229 2315 2196 2231 2534 2478 2541 2410 2613 2805 2674 2863 3241 3190 3737 3470 3068 3179 3358 3934 3892 3313
1820 1741 1824 1932 1880 2037 1651 2228 2505 1843 1294 1405 1364 1459 1412 1727 1812 1783 2059 2034 2210 2433 2641 2428 2301 2351 2684 2778 2481 2182 1929 1559 1215 1072 1246 1074 985 932 1274 1366 1563 1941 2091 2095 1957 2099 2453 2448 2455 2798 2981 2884 3082 3472 3222 3413 3275 3217 3305 3707 3895 3925 4098
1974 1857 1808 1831 2256 2278 2102 1964 1459 1288 1083 892 1122 1537 1932 1611 1384 1910 2083 2048 2101 2246 2419 2510 2348 2418 2540 2730 2688 2461 1822 1590 1414 1137 1060 1079 911 838 856 1063 1164 1590 1916 1888 1794 1862 2126 2312 2590 2701 3074 2577 2895 3230 3389 3319 3342 3460 3255 3280 3294 3444 3414
1886 1652 1649 1822 1961 1789 1821 1730 1466 1425 1346 1226 1478 1602 1496 1309 1369 1743 1996 1997 1896 1901 2469 2634 2441 2501 2357 2484 2379 2421 2287 1740 1596 1512 1386 1234 1032 892 877 887 977 1321 1774 1783 1823 1911 1937 2229 2268 2304 2794 2672 2682 2953 3154 3093 3261 3390 3405 2996 2979 3055 3073
1657 1692 1592 2056 1964 1800 1579 1500 1466 1632 1709 1604 1550 1566 1748 1526 1365 1178 1090 1202 1377 1873 2046 2089 2364 2513 2483 2646 2349 2431 2250 2047 1680 1819 1660 1697 1424 1191 1051 908 896 1116 1400 1726 1788 2023 1997 1898 2196 2202 2170 2355 2171 2224 2800 3104 3058 3175 3333 3184 3074 3147 3159
1155 1240 1320 1308 1504 1436 1632 1500 1336 1537 1420 1310 1217 1341 1237 1468 1587 1476 1617 1506 1905 1926 1873 2004 2289 2518 2450 2178 2408 2249 2234 1916 1969 1871 2048 2087 2074 2052 1745 1359 1030 1120 1139 1424 1746 1877 1953 1744 1728 1967 1756 1699 1781 1894 2132 2550 2724 2883 2993 3058 2821 2686 2733
1312 1255 1200 1249 1214 1365 1250 1159 1106 1357 1398 1292 1164 1132 1142 1090 1359 1548 1570 1579 1486 1497 1398 1800 1588 1450 1662 1917 2046 2157 2074 1884 2153 2459 2461 2349 2559 3012 2639 2094 1756 1373 1176 1175 1344 1610 1740 1704 1551 1710 1788 1560 1495 1600 1602 1569 1837 1854 2244 2427 2244 2308 2248
1204 1156 1161 1104 1116 1160 1171 1088 1047 1300 1058 1338 1346 1262 1251 1209 1202 1218 1206 1369 1632 1634 1652 1820 1782 1823 1809 1690 1805 2003 2335 2718 2753 2198 2391 2857 3210 3369 3216 2801 2390 1774 1614 1431 1449 1389 1432 1673 1763 1510 1445 1499 1528 1602 1251 758 767 1365 1790 2154 2010 2263 2050
988 914 954 1029 1039 1054 1028 994 984 967 1003 1339 1331 1051 1065 1044 978 1068 1225 1339 1502 1512 1642 1855 1885 1955 1943 1721 1726 1802 1780 1781 1951 2223 2489 2468 2114 2611 3331 2730 2527 2102 1953 1922 1811 1738 1552 1525 1487 1351 1041 960 1015 1122 959 313 240 1800 1460 1245 1008 1630 1752
870 750 593 610 632 645 642 630 636 759 763 814 828 880 886 776 799 926 1066 1029 1070 1207 1293 1177 1465 1503 1441 1637 1630 1542 1474 1488 1267 1407 1542 1829 2132 2244 2295 2270 1902 2116 2410 2281 1978 2137 1796 1893 1652 1513 1085 530 462 483 532 474 807 1282 1260 1203 1105 1531 1846
792 677 697 701 750 774 740 732 735 783 761 659 632 536 667 724 767 721 820 878 916 1297 1546 1538 1149 1171 1123 1214 1178 1201 1365 1342 1228 1383 1428 1640 1745 1864 2133 2024 1913 1839 2083 2417 2348 2144 2335 2262 2025 1938 1827 1191 993 924 734 742 1258 1065 998 972 783 720 993
704 746 741 693 731 680 636 698 680 756 744 708 693 679 580 521 597 562 627 687 735 779 848 833 883 891 821 828 926 1160 1581 1827 1816 2003 1923 1786 1852 1590 1431 1635 1638 1831 2071 2341 2423 2230 2348 2203 2137 2131 2193 2020 1804 1752 1608 1390 1064 744 697 592 480 486 695
561 678 594 657 714 613 604 706 712 660 685 636 606 563 488 612 653 588 510 528 625 720 744 742 811 789 753 722 665 733 818 791 1221 1509 1619 1652 1673 1338 910 1004 1306 1501 1937 1963 1907 1958 2155 1997 2018 1988 1965 1987 2088 2118 1814 1676 1152 1076 966 717 471 442 430
566 503 413 566 696 663 404 680 589 402 325 312 385 348 373 430 438 460 364 416 500 566 638 728 738 760 744 737 709 683 652 687 713 815 921 1023 1233 1128 849 933 817 1002 1201 1450 1785 1771 1712 1893 1764 1863 1988 2146 2310 2264 2087 1337 1007 1052 1006 880 680 645 619
467 569 357 361 438 593 546 600 410 407 296 271 294 314 234 419 378 341 285 421 451 515 541 621 618 606 611 646 650 638 632 627 623 614 612 619 664 741 680 616 696 746 968 1021 1258 1632 1698 1828 1923 2061 2095 2199 2361 2289 2424 1751 1346 1183 1076 979 841 767 1252
380 389 421 280 209 337 470 505 394 265 197 188 0 205 230 283 358 320 70 289 375 432 454 452 519 464 517 546 572 536 498 487 476 464 481 448 522 477 450 379 500 543 766 1044 1240 1238 1416 1882 1734 1977 2134 2279 2283 2034 2202 1772 1573 1586 1387 1160 887 857 1640
389 373 425 412 273 278 366 390 393 332 232 184 152 143 214 251 246 245 261 278 307 406 391 480 439 406 462 499 438 340 328 322 328 301 309 155 56 380 418 400 362 121 504 671 909 974 1066 1541 1816 1671 1833 1752 1763 1905 1667 1597 1323 1350 1367 1280 1198 1172 2048
302 242 292 355 348 279 309 309 308 330 341 314 126 0 6 164 201 0 204 248 260 290 313 377 392 399 332 326 323 283 268 282 322 320 322 310 4 82 223 237 329 388 399 427 559 647 804 927 978 1430 1492 1515 1432 1164 1405 1375 1381 1276 1290 1295 1227 1185 1450
15 80 262 289 282 273 278 285 326 325 294 271 180 0 0 0 132 176 204 220 220 249 271 297 330 322 320 304 370 334 250 252 314 341 336 218 4 116 216 13 260 352 386 529 634 542 624 604 588 820 896 960 964 1012 985 1132 796 764 1034 1100 1136 1184 1227
275 218 220 76 37 190 240 274 273 264 242 238 206 62 0 67 142 170 168 105 201 222 208 236 288 303 282 252 238 291 312 259 189 213 252 258 17 12 16 110 230 162 286 314 410 281 383 365 387 417 563 547 337 340 417 647 620 814 872 949 964 893 856
156 53 166 170 121 33 48 153 189 159 172 184 68 28 0 0 53 129 150 144 168 140 41 43 161 196 212 211 205 192 213 232 234 192 64 2 7 6 4 4 54 126 222 180 235 226 221 269 268 269 340 388 300 378 379 387 475 612 681 706 718 726 680
0 5 91 52 11 9 12 25 24 27 43 97 2 3 3 48 10 48 111 14 15 14 0 9 122 164 227 232 214 194 136 127 161 154 127 0 0 0 0 1 4 39 31 102 67 39 31 131 113 163 171 184 189 192 259 188 185 221 314 420 457 479 483
0 0 0 1 0 2 15 35 46 45 45 19 9 0 0 0 4 0 0 44 43 1 1 21 0 0 12 168 215 234 189 125 127 154 136 102 21 0 0 0 0 0 0 0 5 8 11 21 61 120 166 185 166 170 168 31 26 43 55 84 129 181 223
0 0 1 0 0 0 0 0 17 23 21 4 0 0 0 0 1 9 3 0 0 0 0 0 0 0 0 0 0 74 92 119 68 106 77 12 0 0 0 0 0 0 0 0 0 0 0 0 11 14 16 47 85 70 10 9 7 5 5 10 7 2 0
0 1 0 0 0 0 0 16 33 31 12 2 0 0 0 0 0 0 0 0 0 0 0 0 0 0 0 0 0 0 0 0 0 0 0 0 0 0 0 0 0 0 0 0 0 0 0 0 0 0 2 5 5 17 5 3 9 0 0 0 0 0 1
0 0 0 0 0 0 0 0 0 0 0 0 0 0 0 0 0 0 0 0 0 0 0 0 0 0 0 0 0 0 0 0 0 0 0 0 0 0 0 0 0 0 0 0 0 0 0 0 0 0 0 0 0 9 10 0 1 0 0 0 0 0 0
0 0 0 0 0 0 0 0 0 0 0 0 0 0 0 0 0 0 1 0 0 1 0 0 0 1 1 0 0 0 0 0 0 0 0 0 0 0 0 0 0 0 0 0 0 0 0 0 0 0 0 0 0 0 0 0 0 0 0 0 0 0 0
0 0 0 0 0 0 0 0 0 0 0 0 0 0 0 0 0 0 1 0 0 0 1 0 1 1 0 0 0 0 0 0 0 0 0 0 0 0 0 0 0 0 0 0 0 0 0 0 0 0 0 0 0 0 0 0 0 0 0 0 0 0 0
0 1 1 3 0 0 0 0 0 0 0 0 0 0 0 0 0 0 0 0 1 2 0 2 0 0 0 0 0 0 0 0 0 0 0 0 0 0 0 0 0 0 0 0 0 0 0 0 0 0 0 0 0 0 0 0 0 0 0 0 0 0 0
0 0 0 0 0 10 4 2 0 0 0 0 0 0 0 0 0 0 0 0 0 0 0 0 0 0 0 0 0 0 0 0 0 0 0 0 0 0 0 0 1 2 0 0 0 0 0 0 0 0 0 0 0 0 0 0 0 0 0 0 0 0 0

ECMWFFLT1_con_mucape_111.txt.gz
CAPE
1357 1437 1966 2742 1081 639 561 353 540 431 353 475 425 629 742 684 972 869 905 1431 1794 2212 2505 2817 2638 2588 2632 2446 2341 2168 2003 2039 1895 2349 2126 2287 2179 2237 2469 2376 2542 2534 1513 1826 2098 1872 2420 2396 2517 2424 2924 3536 3581 4274 4876 4336 3757 3514 3450 5111 3485 3945 4596
1199 1050 1584 2041 1606 809 570 662 660 396 447 489 576 758 824 860 951 891 1080 1298 1565 1901 2208 2482 2700 2765 2850 2929 2474 2494 2150 1875 2072 2471 2059 2442 2713 2863 2376 2336 1875 2126 2880 2217 2649 2313 2601 2932 2949 2794 3114 3504 3076 4048 4370 3788 3642 4110 3180 3202 3269 4299 4153
1134 1094 1204 1603 2252 928 922 286 628 550 407 563 782 961 1014 1195 942 906 1346 1395 1431 1603 1851 2118 2677 2634 2839 2794 2790 2463 2312 2053 1959 2195 2315 2246 2437 2331 2318 2265 2366 2027 2053 2013 2201 2012 2542 2890 2864 3118 3294 2905 2582 3718 4202 3784 4129 2915 3784 4630 3327 3074 2967
1203 912 1216 1320 1802 1994 1061 672 491 588 618 756 1023 1078 1083 962 1037 1080 1195 1548 1404 1372 1637 1524 1876 2012 2151 2776 2845 2853 2485 2216 1902 1743 1661 1957 1825 1844 2120 2526 2625 1909 1854 2047 1928 2004 1707 1982 2722 3310 3050 3194 2982 2868 3151 3285 2835 3240 3792 3894 2939 3410 4462
1193 1446 1187 1193 1359 1423 828 571 552 571 800 1082 1329 1271 1117 1199 1201 1217 1291 1405 976 998 1023 1063 1116 1155 1576 2145 2150 2307 2320 2049 1958 1623 1465 1398 1807 1893 1902 2072 1806 2071 2138 1852 1552 2116 2853 1980 2452 2750 2772 3406 3236 3359 3525 3192 3358 3664 3909 3870 2784 3012 3189
1625 1129 1036 1043 1319 1600 898 429 521 306 915 1004 1273 1297 1274 1292 1159 1344 1719 1431 1041 792 864 724 585 777 1156 1270 1469 1374 1883 2053 1963 1852 1592 1371 1730 1795 1813 1868 942 1560 2044 1877 1402 1902 2646 3003 2539 2452 2758 2600 2864 2723 2969 3210 2788 3335 3312 3872 2857 2454 2164
1774 1412 1179 1490 1703 1682 1568 1363 868 944 1108 1298 1438 1413 1344 1288 1473 1872 2114 1395 1116 1102 908 785 746 587 809 1000 1123 1151 1448 1965 1881 1662 1513 1494 1385 1784 1752 1793 2013 1445 1801 2015 1891 2094 2357 2656 2720 2822 2679 2579 2372 2383 2219 2633 2434 2554 3136 3314 3197 3471 3297
1400 1509 1770 1743 1805 1399 948 1281 1252 1406 1667 1776 1638 1585 1625 1532 2650 2023 986 1454 1492 1410 1134 1083 952 1020 1210 819 1026 990 1076 1183 1501 1596 1400 1172 1098 1375 1644 1877 2019 1967 2124 1813 1857 2320 1720 2479 2546 2598 2772 1950 1770 2308 2246 2958 3135 2736 2710 3245 2916 2689 1632
1759 1648 1896 2011 2126 1787 1710 1656 1918 1939 1739 1792 2012 2217 2123 2280 2601 2669 2548 2594 2433 1838 1879 1122 1106 1302 1291 1038 1155 1223 938 1015 1234 1314 1039 930 746 702 1176 1646 1717 1901 1884 1806 1636 2173 1909 1677 1902 2070 2190 1934 2341 2173 2372 3149 3136 2892 2720 2859 3426 3029 2830
1679 2142 1933 1862 2040 1785 1934 1825 1903 1844 1700 1982 2134 1941 1920 2107 2364 2453 2676 2674 2963 2908 2818 2521 1937 1566 1910 2186 1897 1511 1148 1109 981 984 1100 745 692 374 746 1059 1367 1480 1778 1599 1091 1490 1674 1791 2101 2070 2709 2692 1992 2229 2606 3271 3324 2759 2672 3030 3526 3485 3032
1643 1429 1683 1598 1975 2229 1923 1847 2275 2516 2677 2829 2609 2217 2182 2360 2042 2022 2309 2693 2924 3074 3102 3027 2532 2227 1878 2295 2399 2203 1507 1259 1137 1072 1015 799 602 510 305 696 968 1214 1534 1266 1265 863 1542 1847 1630 1616 2970 2512 2638 3290 2945 3082 3192 2908 2508 2607 3000 3290 3227
1596 1996 1746 1598 1665 1778 1718 2120 1854 2024 2088 2506 3251 2978 2600 2499 2332 2296 2511 2812 2875 3206 3512 3281 3009 2642 2633 2858 2874 2555 2108 1771 1386 1213 1014 880 797 532 484 488 532 1070 1200 1265 1603 758 1190 1458 1232 1622 2541 2727 2508 2719 2780 2870 3088 3091 3091 2843 2901 2772 2866
1442 1511 1755 1484 1336 1469 1375 1640 1533 1194 819 1064 2352 2648 2312 2302 2782 2692 2675 2681 2833 3075 3424 3386 3281 3024 2968 2977 2921 2829 2510 1951 1505 1512 1232 973 914 654 584 517 460 597 843 780 883 1096 774 894 1288 1353 1937 2777 2266 2254 2594 3022 3026 3318 3222 3046 2881 2734 2833
1613 1440 1413 1620 1634 1574 1614 1559 1631 1531 894 997 1106 1655 1303 1036 959 1519 1628 2423 2479 2254 2533 3346 3468 3427 3291 3198 2977 2772 2330 1771 1399 1318 1651 1510 1493 1119 813 700 582 593 705 899 730 1099 915 546 996 1299 1705 2080 1867 2313 2611 2938 3068 3083 3656 2836 2799 2667 2910
1456 1570 1562 1735 1393 1287 1405 1671 1558 1831 1666 1562 1432 1454 1585 1557 1341 1163 1081 1039 1138 1314 1848 2138 2387 3270 3312 3506 3348 2885 2834 2264 1908 1566 1639 2106 2245 2117 1494 1282 912 736 834 932 1205 1172 1071 955 978 721 1370 1550 1608 1429 1537 1995 2050 2420 2527 2679 2816 2753 2336
1206 1312 1412 1479 1572 1365 1493 1438 1277 1765 1460 1315 1432 1488 1574 1542 1555 1746 1579 1587 1729 1870 1893 1800 1835 1735 2050 2332 2534 3012 3314 3320 3281 2928 2757 2202 2377 2938 2866 2310 1965 1360 1148 1156 1191 1220 1097 1044 1019 790 941 1302 1706 1448 858 1196 1401 1503 1337 1918 2158 1759 1955
1331 1188 1195 1214 1250 1275 1357 1655 1989 2160 2262 2128 1737 1515 1563 1467 1401 1464 1669 1800 2002 2179 2142 1941 1984 1765 1764 1653 1907 2361 2598 2429 2492 2551 2450 2711 3434 3614 3568 2814 2489 2135 1937 1495 1321 1377 1682 1803 1579 1370 1042 583 739 1421 977 496 692 885 989 1322 1575 1975 2030
1128 1093 1071 1031 1059 1105 1109 1125 1202 1121 1060 1299 1611 1817 1799 1667 1624 1615 1601 1561 1605 1878 2038 1984 1757 1720 1650 1566 1682 1729 1536 1710 1631 1621 1587 1741 1816 2118 2506 3023 3402 2854 2660 2170 1714 1726 1094 1066 1051 1512 977 949 1007 1261 986 790 282 545 921 1194 1293 1735 1434
1038 1096 1039 1050 1037 1054 1083 1038 984 959 831 923 1068 1148 1240 1275 1248 1240 1274 1478 1626 1708 1666 1716 1754 1406 1389 1448 1455 1544 1656 1708 1613 1492 1328 1275 1316 1343 1378 1524 2261 2921 2356 2263 2230 1978 2019 1845 1294 1235 920 685 793 375 293 388 114 358 714 980 1126 1128 1326
1036 982 892 839 897 929 910 824 793 762 698 743 794 836 950 998 998 1008 1110 1133 1133 1206 1508 1430 1166 1150 1173 1557 1644 1806 1321 1271 1175 1336 1528 1604 1676 1684 1842 1671 1731 2081 2400 2361 2135 1354 1055 1128 1374 1371 1782 1103 902 1260 434 407 430 516 655 919 801 753 736
960 925 849 734 769 665 757 646 691 685 729 720 705 661 638 679 808 891 836 982 953 912 996 1002 1023 973 893 1045 1263 1339 1547 826 826 857 972 1034 864 996 1116 1050 1889 2530 2472 2828 1720 1632 1187 816 1257 994 1488 1355 1032 1061 686 340 940 874 580 850 626 585 454
775 864 821 667 666 478 644 781 730 745 754 674 598 567 591 561 530 565 595 630 704 714 766 755 837 903 802 810 839 828 794 714 765 947 887 799 840 843 975 1178 2351 2960 2927 2016 1640 1494 1805 1619 1188 836 835 1246 1574 965 999 1062 1018 928 893 811 773 695 845
636 690 664 551 507 399 433 592 688 780 769 658 664 598 493 544 596 579 542 567 592 637 672 635 634 618 625 515 636 540 470 517 578 577 617 786 867 916 1001 1142 2079 2121 2146 1597 1040 1019 1010 1324 1524 953 644 755 764 1418 1410 950 893 786 893 1054 1040 976 1089
572 518 440 578 666 719 456 399 631 582 588 630 588 551 519 542 553 474 441 423 445 491 556 621 635 596 582 538 525 490 455 406 452 455 462 402 361 477 581 743 732 898 1494 1410 967 1013 944 1071 1154 854 716 504 795 697 986 934 1047 1194 915 936 872 915 1305
487 415 347 328 359 416 446 573 440 369 381 388 481 431 539 561 527 446 369 311 309 386 412 385 560 575 500 466 455 494 482 541 590 532 484 457 454 406 420 422 437 516 1181 1568 1252 1208 1348 1092 954 1203 1142 991 817 978 580 1017 1074 1309 1444 1455 1456 1306 1701
383 345 364 281 54 167 390 478 476 404 342 319 286 328 363 399 450 383 286 330 350 326 329 330 390 438 482 440 381 418 442 467 530 544 500 392 346 307 289 300 338 347 546 283 305 475 619 708 901 1174 886 923 1112 1108 969 797 887 1254 1285 1347 1328 1218 1273
334 198 273 122 175 93 257 255 350 348 311 206 0 118 280 337 322 358 296 282 292 311 300 319 298 276 475 387 326 307 279 296 306 352 313 275 275 255 178 275 388 366 196 215 205 290 438 492 705 700 887 910 854 721 742 739 742 802 871 888 973 1033 1063
287 256 212 191 212 192 0 219 258 0 92 280 0 199 200 17 0 214 298 287 311 287 298 296 257 259 316 346 279 215 182 217 256 258 304 296 260 250 120 206 212 362 204 200 206 186 200 440 511 577 592 429 643 529 711 758 617 750 614 597 650 744 820
85 107 0 234 0 0 173 262 232 206 0 0 0 143 246 255 243 61 0 87 199 33 85 241 238 257 277 305 254 252 235 182 163 188 234 264 258 26 64 217 253 272 342 281 260 247 251 292 319 249 307 454 580 621 516 485 498 379 402 446 515 599 676
1 0 0 0 0 2 2 0 0 0 0 0 0 0 0 242 262 212 0 0 158 39 0 23 0 200 207 250 228 225 232 232 189 145 153 165 158 10 8 51 106 128 215 242 221 208 153 167 216 171 172 251 157 151 206 240 251 276 290 344 424 499 499
0 0 0 0 0 0 0 14 18 0 0 0 0 0 0 0 0 0 140 101 0 0 0 153 65 10 161 167 109 206 223 196 195 182 160 154 113 4 5 7 11 8 13 30 22 60 78 111 142 204 207 194 253 197 142 131 120 124 189 246 294 314 278
0 0 0 0 0 0 0 0 0 0 0 0 0 0 0 0 0 0 0 48 0 1 0 0 54 31 152 134 0 0 0 116 202 193 167 164 132 0 1 3 4 8 8 11 12 44 24 29 22 62 107 131 148 71 51 34 27 58 47 79 99 126 106
0 0 0 0 0 0 0 0 0 0 0 0 0 1 2 0 0 1 1 1 78 0 0 2 0 48 90 95 122 105 140 160 122 113 101 118 108 96 87 0 2 4 6 6 5 4 3 7 4 3 10 54 49 20 22 16 26 3 0 0 0 0 0
0 0 0 0 0 0 0 0 0 0 0 0 0 0 0 0 1 0 0 0 0 0 0 0 0 0 0 28 3 70 34 63 77 92 89 77 94 51 0 0 0 0 0 0 0 0 0 0 5 0 5 3 2 11 29 15 0 0 0 0 0 0 0
0 0 2 0 0 0 0 0 0 0 0 0 0 0 0 0 1 2 0 0 0 0 0 1 0 0 0 0 0 0 0 0 64 81 77 65 56 0 0 0 0 0 0 0 0 0 0 0 0 0 0 3 5 3 5 2 0 0 0 0 0 0 0
0 5 1 3 2 1 4 3 1 0 0 0 0 0 0 0 0 0 2 1 0 0 0 0 0 0 0 0 0 0 0 0 0 0 0 0 0 0 0 0 0 0 0 0 0 0 0 0 0 0 0 0 0 0 0 0 0 0 0 0 0 0 0
168 22 1 0 3 4 3 5 5 0 0 0 0 0 0 0 0 0 0 0 1 3 2 0 1 0 0 0 0 0 0 0 0 0 0 0 0 0 0 0 0 0 0 0 0 0 0 0 0 0 0 0 0 0 0 0 0 0 0 0 0 0 0
39 24 7 13 28 0 1 2 0 0 1 0 0 0 0 0 0 0 0 0 0 0 0 4 4 1 0 0 0 0 0 0 0 0 0 0 0 0 0 0 0 0 0 0 0 0 0 0 0 0 0 0 0 0 1 0 0 0 0 0 0 0 0

ECMWFFLT1_con_mucape_114.txt.gz
CAPE
1740 1874 2304 2960 481 404 410 539 554 659 955 560 333 228 316 224 1074 1569 1820 2514 2794 2704 2904 3042 2808 2901 2624 2477 2518 2726 2472 2669 2263 2152 2851 2992 2952 3000 2524 1888 2777 3310 2750 2448 2387 2458 3567 3400 2704 2873 3668 4304 3984 4486 4964 4825 4686 4338 4746 5194 5096 5494 4934
1277 1543 2077 2439 1818 472 528 688 742 678 783 504 320 683 420 378 1068 974 1866 2490 2574 2630 2690 2790 2955 2763 2689 2427 2346 2751 2681 2618 2527 2763 2236 3050 3386 3451 2926 2806 2862 3311 3570 2670 5054 3385 3035 2871 2789 3051 3258 3841 3396 4585 3932 4405 4040 3775 3776 4268 3876 4911 4714
524 1157 1670 2506 2612 1269 758 248 685 682 551 163 170 233 562 1089 949 1298 1832 1940 2523 2692 2493 2503 2923 2499 2489 2620 2554 2602 2307 2202 2450 2050 1837 1632 1850 2075 2515 2676 2391 2551 2436 2418 3634 2853 2454 2514 3718 3282 3516 3558 2652 4336 4203 3928 3917 3534 4248 4357 3733 4085 4503
532 769 1672 2204 2515 3077 1035 694 686 700 362 399 408 179 640 1610 768 1634 1370 1735 2042 2472 2541 2312 2450 2097 2374 2604 2408 2602 2320 2297 2070 1599 1404 1344 1724 1599 1903 2404 2900 2118 2457 2457 2149 1953 1988 2372 2656 3183 3531 3526 3343 3893 3982 3624 3222 3496 3948 4896 4228 3625 4128
1374 1226 1522 2170 2276 2113 2252 844 656 892 638 732 884 1008 880 950 903 836 1088 1380 1336 1810 2030 1764 2033 2122 2180 2207 1760 1913 1898 1810 1885 1658 1600 1513 2394 2111 1991 1700 1911 2011 2192 2121 2494 2753 3316 3136 2554 3010 3306 3600 3108 3647 3365 3487 3419 3754 3759 4102 4039 3600 4200
1388 1212 1185 2158 2126 2354 2221 2480 930 863 891 1217 1241 1346 1102 1130 670 485 826 1034 1066 1590 1730 1694 1426 1730 1614 1895 1666 1586 1922 2232 2119 2258 1890 1861 2122 1857 1965 2099 1796 1842 2232 2236 2040 2154 2338 2638 2012 2325 2657 2578 2348 2198 2651 3054 2994 3072 3776 3950 3648 3065 2910
1329 1224 1334 2007 2118 2260 1895 1596 1709 1872 1032 1662 1576 1468 1437 1207 1296 1418 1498 1350 1474 1898 1863 1476 850 1200 1560 1596 1588 1683 1894 1598 1814 1349 1226 995 2005 1716 1870 1876 2226 1376 1512 2382 2148 1889 2602 2710 2611 2479 2469 2030 2494 1703 2964 3524 3045 3072 3776 3974 4048 3978 3607
1170 1317 1000 1631 1940 1714 1414 1298 1092 1066 1906 1826 1715 1466 1362 1644 2946 2623 3297 1390 1559 2183 1910 1393 544 1212 1512 1508 1286 836 1097 1545 1426 1279 1208 1095 851 1335 1335 1485 2040 1571 1686 1459 1929 1781 1786 2174 2058 2474 2531 2285 2036 2465 2847 3200 3465 2433 2970 3536 3708 3438 2685
1075 1759 1413 1376 1521 1561 1481 1171 1107 970 1375 1753 1646 1498 1930 2729 3038 2727 2468 2594 2790 2076 1821 1088 720 1507 1496 1313 1072 1176 919 1116 1318 1219 1190 930 738 783 846 1054 1348 1832 1648 1391 1476 1736 1707 1859 1870 2703 2986 2916 2690 3024 2828 3066 2727 2671 2778 3218 3564 3222 2483
1944 1942 1716 1234 1587 1701 1454 1346 1548 1510 1746 1832 2213 2582 3590 3745 3538 3304 3583 3647 2845 2420 1875 993 1055 1144 1445 1594 1387 515 674 898 768 916 868 670 618 584 588 668 944 1675 1772 1673 1393 1427 2162 1845 2325 3423 3557 3078 3014 2835 2870 2822 3002 2712 2699 3234 3379 3226 3260
2368 2204 2238 2029 1842 1905 2003 2332 2825 3008 2968 3246 3046 3106 3326 2727 2970 2552 2138 2296 2610 3062 2848 2122 1817 1917 1890 1530 1254 1315 582 402 496 566 724 600 446 354 351 401 551 1161 1378 1477 1333 1387 1714 2170 2156 3114 3071 2480 2478 2814 3109 2770 3260 3277 2338 2366 2644 3030 2838
2399 2236 1956 1478 1528 1576 1329 2786 3283 2632 2908 3495 2759 2004 2245 2242 2288 2231 1676 1880 2242 2114 2562 2652 2714 3120 1472 2148 1983 2192 2095 780 446 368 442 559 450 314 277 294 298 485 1148 1400 1776 1695 1538 1609 1686 2292 2532 2493 2769 2751 3064 3442 3362 3492 3262 2247 2164 2924 2823
1923 1898 1698 1579 1763 1732 1780 1826 1997 1677 2266 3428 3211 3228 3165 3214 2686 2138 1569 1806 1946 2144 2059 1724 2875 3277 2604 3071 2158 1951 1966 1408 1416 1007 388 701 523 404 264 248 240 253 582 1119 1625 1434 1421 1473 1826 1945 1876 2538 2891 2697 3166 3271 2812 3340 3596 3149 2823 2882 2864
1510 1708 1718 1757 1500 1554 1504 1624 1751 1552 2091 3059 3283 3495 3859 3996 3489 2405 2074 1960 1956 1957 1869 2175 3355 3548 3367 3117 2984 2237 1546 1270 727 912 1558 1904 1761 1478 528 226 170 173 500 1484 1409 1264 1392 1344 1179 1260 1739 2040 2408 2664 2763 3144 2928 3360 3369 3035 2882 2812 2734
1435 1352 1400 1446 1556 1474 1412 1427 1478 1333 1419 2006 2419 2240 2377 2601 2829 3119 2812 2560 2135 2293 2893 3511 4104 3778 3724 3927 3642 3372 3367 2966 2639 2320 2683 2617 3039 3278 2265 1393 710 891 941 1068 1215 1133 889 925 964 1115 1483 1544 2171 2550 2463 2041 2501 2785 2613 2719 2897 2320 2716
1376 1188 1284 1398 1356 1224 1210 1217 1156 1164 1053 1407 1540 1361 1298 1583 1885 2169 2505 2288 2237 2114 2156 2973 3433 3444 3664 3929 4166 3996 3556 3707 3450 4292 4390 3987 2946 2671 2960 2179 1992 1306 742 935 1243 1331 1609 1430 1260 927 1095 1365 2033 2286 1898 1709 1757 2509 2149 2048 2880 2697 2061
1167 1218 1326 1419 1126 1204 1121 1136 1167 1144 1252 1250 731 623 402 739 1278 1412 1565 1793 1778 1678 1733 1948 2132 2286 2381 2949 3224 3424 3290 3220 3658 3663 3497 3014 3043 3988 3970 3787 3422 2877 1978 1726 2002 2418 1714 1544 1484 565 1157 1190 1437 1786 1735 1387 1148 1691 1795 1504 1809 2265 2647
996 996 1034 885 852 956 1106 1089 930 1016 782 1027 1229 1565 1343 1174 1274 1166 1438 1499 1555 1739 1931 2180 2106 1814 1774 1805 2024 2500 2777 2992 2776 2710 2333 1922 2481 2220 2507 2814 2946 3335 2936 2674 2466 1971 1284 1378 1126 1386 1020 881 832 1052 1064 1340 1124 880 711 1212 1612 2113 2367
812 1032 912 965 985 860 843 925 1008 931 889 832 786 758 964 1600 1744 1778 1994 1871 1713 1753 1913 1958 1906 1781 1752 1900 1903 1811 1974 2097 2022 1947 1921 1948 1997 2131 2431 2459 2473 2274 2673 2728 2452 1864 1724 1745 1781 1653 1654 1565 973 776 665 1325 1216 832 488 719 1232 1195 1899
768 860 780 692 737 757 574 668 868 991 1048 1124 992 924 1146 1128 1142 1075 1258 1170 1308 1468 1671 1791 1753 1742 1608 1576 1617 1825 1866 1717 1670 1625 1324 1339 1443 2004 2044 2031 2029 1840 3067 2900 2207 1522 1474 1470 1720 1850 1849 1702 1602 2002 1311 616 559 442 397 276 453 712 1183
598 712 722 690 540 488 169 398 510 463 595 805 940 1067 928 878 836 917 1042 1084 1174 1272 1283 1247 1230 1099 1012 1074 1084 1122 1454 1330 1546 1512 1355 1500 1724 1968 2076 2333 2470 1916 2651 2390 1928 2180 2229 2173 2350 1957 1319 1030 882 978 813 508 262 476 491 333 270 555 1052
566 667 715 646 579 542 425 266 392 406 450 419 429 618 491 613 664 682 897 967 1000 1042 1048 1087 1117 1186 1189 1118 969 1053 1039 990 1008 864 812 882 1138 1254 1361 1412 1312 1267 1316 2067 2344 2275 2316 2254 1943 1476 1328 1314 1087 555 570 421 349 441 429 367 500 834 1320
385 473 613 605 544 489 424 382 283 332 468 504 490 607 591 667 745 840 799 751 760 588 715 826 801 870 1002 987 930 854 846 783 727 734 759 737 768 813 802 760 762 912 1126 1136 1485 1612 1952 2104 1543 1342 1212 1037 1127 1089 673 412 418 506 702 676 734 528 1482
451 386 455 590 463 483 466 422 344 282 349 465 454 474 516 559 530 598 656 650 632 598 595 582 465 565 591 488 638 681 679 623 617 662 624 655 734 770 778 794 745 736 826 1157 1281 1270 1453 1466 1326 1103 1062 1016 1032 983 583 426 624 901 742 824 832 901 1478
565 490 470 464 558 468 383 376 362 312 225 285 489 413 325 236 394 471 562 534 510 514 519 480 380 382 449 478 443 448 474 450 470 436 453 444 525 585 641 683 683 742 866 919 893 997 936 1034 902 810 914 947 1156 938 664 594 651 950 1048 1037 1040 1031 1613
440 465 450 301 210 285 364 392 373 348 266 190 184 214 259 226 249 289 380 492 490 481 510 474 383 330 361 448 491 499 435 430 435 404 352 362 364 480 509 456 671 742 834 876 894 590 584 612 634 657 685 828 951 1017 710 508 568 686 1152 1311 1320 1368 1437
244 200 221 214 214 209 155 217 228 302 315 267 256 279 332 378 346 350 368 414 422 390 412 396 365 314 298 382 428 439 412 345 328 417 405 359 434 434 441 566 384 504 379 386 412 418 401 372 353 534 595 594 762 734 768 608 642 763 1092 1274 1281 1367 1366
93 0 108 170 263 284 295 246 227 234 266 269 304 258 330 351 354 409 374 367 359 329 292 314 306 312 356 302 374 380 334 283 259 236 290 278 304 356 403 379 683 544 234 239 264 274 236 152 313 255 392 462 596 604 980 907 758 830 868 998 1038 1011 1000
0 0 0 0 48 178 253 272 251 242 238 288 357 297 330 359 375 386 363 334 303 257 251 276 260 252 308 300 248 268 330 29 33 25 276 294 318 326 339 536 598 608 691 636 482 426 304 180 157 266 211 251 544 583 682 836 728 623 602 620 662 606 630
0 0 0 0 0 0 0 93 146 190 182 16 244 307 320 257 255 302 327 325 278 255 233 212 234 182 174 197 272 282 111 18 22 43 264 242 196 128 295 298 278 496 862 666 427 498 412 320 152 16 150 5 264 485 571 556 424 536 554 573 532 435 383
4 0 0 0 0 0 0 0 0 0 0 0 0 0 261 300 256 224 275 271 174 201 228 248 232 200 194 182 178 204 232 198 222 245 26 199 64 112 80 62 151 172 309 308 284 340 471 480 249 269 249 134 74 79 386 357 289 401 384 332 298 252 243
6 4 1 0 0 0 0 0 0 0 0 0 0 0 0 152 198 234 198 49 109 0 0 137 212 167 107 101 0 147 147 202 244 215 0 10 60 38 20 17 4 106 142 110 176 105 262 164 206 228 291 302 238 178 214 267 292 310 304 309 278 253 262
0 0 0 0 0 0 0 0 0 0 0 0 0 0 0 0 28 1 1 0 0 23 0 0 2 1 37 1 0 0 0 0 0 0 0 0 1 1 169 16 26 24 0 0 0 0 6 10 70 166 27 98 60 121 122 221 234 219 216 186 171 182 202
0 0 0 0 0 0 0 0 0 0 0 0 0 0 0 0 0 0 0 0 0 0 0 0 0 0 0 56 5 63 93 0 0 0 0 0 0 10 0 0 0 0 0 0 0 0 0 0 6 3 3 9 38 26 13 1 0 0 0 44 0 53 59
0 0 0 0 0 0 0 0 0 0 0 0 0 0 0 0 0 0 0 0 0 0 9 8 12 2 0 0 1 12 6 8 0 0 0 0 0 0 0 0 0 0 0 0 0 0 0 0 0 0 0 0 0 0 0 0 0 0 0 0 0 0 0
0 0 0 0 0 0 0 0 0 0 0 0 0 0 0 0 0 0 0 0 0 0 0 0 10 8 0 0 0 0 0 2 0 0 0 0 12 0 0 0 0 0 0 0 0 0 0 0 0 0 0 0 0 0 0 0 0 0 0 0 0 0 0
92 112 88 9 4 16 2 0 0 0 0 0 0 0 0 0 0 0 0 0 0 0 0 0 0 7 0 0 0 0 0 0 0 0 0 0 0 0 7 0 0 0 0 0 0 0 0 0 0 0 0 0 0 0 0 0 0 0 0 0 0 0 0
222 460 510 257 8 2 0 0 0 0 0 0 0 0 2 0 0 0 0 0 0 0 0 0 0 2 1 1 0 0 0 0 0 0 0 0 0 0 4 7 0 0 0 0 0 0 0 0 0 0 0 0 0 0 0 0 0 0 0 0 0 0 0

ECMWFFLT1_con_mucape_117.txt.gz
CAPE
1987 1426 1300 1404 219 152 154 243 344 352 442 429 355 327 696 1276 1527 1768 2032 2429 2656 2947 3017 2544 2434 2258 2303 2116 2183 2278 1272 2210 2013 1804 1845 2482 2542 2456 2577 2927 2571 2805 2810 2237 2377 2220 2444 2785 2447 3003 3507 3647 3278 4206 4108 4073 4252 4522 4205 3958 4715 4040 3373
1758 1951 1595 1720 941 120 158 321 448 454 448 490 412 399 774 1261 1440 1759 1927 2172 2496 2759 2928 2740 2394 2332 2247 2103 2032 2353 1617 1974 2140 2720 1964 2361 2694 2100 2599 2722 2758 2790 2563 2253 2375 2179 2834 3205 2659 2985 3380 3873 3670 3438 4340 4383 4312 4318 4237 4188 4532 4671 4579
1311 1584 1662 1520 1984 542 110 113 314 496 519 505 478 324 621 1070 1342 1747 1855 2171 2325 2587 2772 2787 2441 2366 2070 2154 1869 2283 1866 2114 2024 2432 2237 2540 2534 2660 2312 2594 2525 2632 2694 2760 3280 2679 2807 2571 2506 2483 3049 3663 3572 3642 3944 4228 3799 3511 3615 3913 3675 4238 3973
1146 1252 1344 1332 1553 2167 806 200 195 525 414 398 310 278 618 1031 1419 1822 1810 2230 2114 2505 2441 2575 2426 2320 2043 1993 1999 2074 1924 2055 1938 2247 1940 2194 2438 2141 2452 2321 2375 2237 2430 2504 2760 2505 2486 2084 2375 2712 3646 3109 3082 3440 3729 3660 3555 3299 3922 3438 3510 3610 3648
1124 1143 1226 1223 1741 1876 2042 285 241 504 423 188 191 450 724 1079 1440 1828 1907 2219 2025 2358 2300 2295 2184 2268 2019 1890 2091 1875 1957 1910 1850 1920 1700 1730 1999 1964 2191 2226 2181 1987 2313 1762 1999 2209 3104 2372 2696 2935 2850 2930 3125 3444 3564 3482 3249 3024 3568 3436 3754 3483 3504
1025 1097 1173 1268 1829 1998 1955 1077 234 430 354 149 166 236 893 1059 1539 1770 1900 2257 2031 2171 2328 2294 1943 2025 1998 1900 1967 1829 1783 1797 1660 1692 1451 1361 1537 1896 1497 1986 2124 1745 2179 1838 2315 1940 2572 2344 2415 2821 2894 3140 3006 3640 3524 3449 3352 3298 3416 3634 3603 3336 3602
1054 915 941 1210 1726 1932 1682 1484 174 234 102 173 157 621 924 1109 1330 1583 1782 2029 2124 2034 2246 2179 1997 1953 2030 1817 1716 1867 1678 1698 1584 1816 1703 2215 1833 1767 1703 1770 1814 1682 1820 2028 2018 1906 1979 1966 2016 2216 2670 2552 2626 2452 2812 2873 2962 3004 2931 3430 3375 2969 3241
1098 860 676 996 1777 2024 1488 1181 1275 348 613 378 213 1036 807 1056 1176 1323 1532 1757 2016 2001 2086 2059 2030 2020 1969 1855 1656 1744 1662 1771 1515 1628 1478 1696 1801 1532 1828 1816 1888 1771 1618 1846 1886 1913 1754 2562 2185 2222 2181 2254 2250 2264 2170 2638 2804 2810 2886 3240 3214 3181 3320
958 990 1127 1407 1807 1601 1105 888 755 715 965 902 897 958 957 1514 1166 1084 1321 1498 1721 1979 1939 1799 1650 1980 1902 1860 1813 1985 1796 1761 1546 1439 1331 1228 1785 1494 1517 1643 1699 1656 1575 1482 1962 1894 1995 2116 2326 2161 2077 2134 2171 1933 2554 2546 2730 2831 2663 3061 3203 3210 2975
1322 1081 1194 1581 1686 1529 1099 581 751 307 556 886 1355 1611 1707 1786 2017 1345 1098 1292 1622 1597 1652 1592 1356 1529 1596 1656 1666 1576 1778 1711 1614 1333 1360 1263 1245 1397 1343 1343 1406 1502 1244 1564 1814 1606 1719 1952 1879 2228 2069 2266 2323 2771 2624 2516 2519 2499 2356 2511 2870 3041 2935
1303 1161 1183 1220 1594 1564 1278 765 432 291 634 1304 2016 2396 2378 2203 2536 2568 1742 2062 1541 1301 1248 1226 1088 1206 1298 1283 1297 1148 1388 1496 1606 1537 1384 1210 1170 932 1050 1166 1314 1484 1229 1172 1203 1488 1374 1866 2056 2931 2826 2676 2620 2488 2484 2586 2461 2420 2450 2384 2639 2832 2821
1502 1931 1497 1242 1423 1472 1249 845 494 836 1602 2125 2379 2342 2117 2047 2174 2219 2131 2375 2748 2360 2150 1254 1994 1069 1165 1056 1200 1007 1040 1189 1312 1426 1368 1243 1105 914 749 676 1134 1570 1520 1371 1322 1371 1407 1839 1856 2923 2523 2414 2430 2463 2228 2301 2538 2561 2729 2583 2331 2657 2718
1590 1575 1406 1352 1310 1154 1076 1952 1475 2264 2119 1833 2056 1921 1844 1878 1758 1703 1754 2263 2246 2198 1747 1682 2690 2071 1023 1080 950 1066 1059 970 1064 1101 1148 1124 977 708 607 582 491 1232 1682 1645 1532 1459 1580 1760 1698 2302 2386 2146 2215 2420 2526 2424 2654 2768 2828 2868 2647 2268 2646
1470 1520 1690 1500 1310 1042 1202 1514 1660 2076 1954 1514 1532 1618 1884 1972 1610 1279 1643 1822 1851 1482 1580 2027 2090 2731 2770 2012 1833 1753 1839 1525 1466 1313 778 988 860 685 504 379 306 401 1501 1610 1455 1496 1424 1480 1539 1763 2115 2096 2030 2190 2462 2826 2867 2790 2980 3070 2825 2624 2468
1352 1390 1474 1534 1404 1132 1143 1446 1302 1589 1805 2347 1988 2029 1914 1525 1206 1076 913 918 1274 1108 1430 1885 2065 2100 2672 2551 2015 2006 1838 1903 1955 2785 3674 2823 2102 1914 2131 2557 1259 905 974 1333 1514 1412 1371 1284 1329 1478 1661 1764 1929 2222 2444 2574 2708 2740 2941 3053 2925 2746 2580
1169 1172 1244 1266 1329 1232 1041 1121 1199 1439 2031 1848 1735 1759 1617 1587 1768 1784 1585 1305 1054 1288 1461 1781 2027 1878 2223 2362 2110 1179 889 1889 3199 3251 2596 2714 3164 3318 3200 2911 2651 1891 1491 1694 1505 1322 1270 1314 1316 1317 1388 1432 1661 1987 2415 2202 2019 1990 2120 2800 2633 2394 2105
1090 1104 931 1135 1241 1301 1214 1037 1204 1190 1419 1592 1560 1623 1482 1431 1582 1660 1516 1542 1546 1570 1638 1548 1728 1941 1938 1934 1759 1319 1073 1422 2374 2836 2201 2187 2281 2301 2588 2923 3025 2720 2173 1614 1410 1348 1229 1270 1272 1205 1063 997 1308 1560 1816 1843 1734 1583 1259 1907 2473 2542 1854
837 921 872 819 845 916 933 907 1031 1128 1174 1269 1062 1436 1591 1628 1710 1464 1374 1452 1808 1634 1726 1504 1723 1726 1722 1693 1428 1622 1315 1479 1895 2677 2270 1836 1860 1917 1920 2145 2389 2692 2414 2294 1673 1306 1560 1149 928 910 878 1095 1070 1179 1341 1449 1516 1271 1161 1372 1744 1901 1817
552 677 848 733 621 528 647 612 1018 1052 980 831 991 966 995 1023 1335 1459 1390 1498 1917 1845 1598 1466 1615 1675 1554 1485 1490 1570 1887 1876 1989 2280 2334 2041 1955 1697 1747 1880 1918 2039 2258 2329 1811 1504 1421 1696 1582 1367 1034 733 740 841 930 918 764 808 986 1134 1074 1093 1354
415 494 522 571 578 470 532 734 743 789 827 815 899 850 735 685 686 624 956 1059 1051 1003 813 1208 1734 1538 1249 962 948 884 1408 1666 1779 1973 2058 2159 2072 1899 1655 1732 1919 1882 1839 2631 1842 1595 1453 1541 1417 1082 1184 1515 1336 984 607 573 623 726 783 823 897 618 650
534 441 541 322 505 694 632 743 577 696 841 812 642 624 705 661 624 739 656 736 862 1028 1056 1009 1328 1378 1304 1230 998 1101 1517 1822 1645 1519 1418 1561 1627 1914 1857 1719 1684 1808 2265 2141 1666 1674 1628 1668 1918 1509 1119 930 882 863 834 686 676 679 603 771 887 752 461
437 502 530 387 343 363 435 624 741 768 909 773 679 637 552 616 590 616 632 582 461 543 705 905 1121 1008 1118 929 902 1147 1286 1312 1445 1527 1397 1286 1267 1258 1498 1655 1845 1796 1752 1721 1670 2036 2428 2248 2065 1712 1405 1178 943 882 878 842 854 821 785 498 321 379 393
418 364 338 380 355 372 406 492 500 503 620 723 753 764 719 691 697 688 691 681 633 568 468 675 915 958 889 917 960 920 973 990 990 1063 1109 1078 985 936 939 1020 1043 1137 1470 1487 1474 1629 1877 1978 1707 1469 1330 1223 1148 1120 1070 952 854 878 955 929 438 504 1506
253 396 335 210 23 0 255 288 372 377 386 420 457 586 600 609 586 555 596 576 523 464 534 592 615 572 650 696 805 835 898 958 952 901 878 846 857 807 821 787 772 746 922 1057 1018 1214 1205 1582 1526 1403 1248 1224 1149 988 927 1026 983 827 626 526 450 633 1701
308 290 234 210 11 0 148 254 240 147 263 283 357 349 381 377 360 357 342 346 362 381 425 522 564 497 483 586 606 630 728 813 800 839 848 853 848 802 756 716 750 751 764 752 748 882 1092 1334 1354 1242 1176 1153 1052 1229 815 824 841 825 651 444 546 951 1725
90 194 198 179 126 5 0 0 0 0 190 317 305 241 306 359 391 412 396 412 426 454 499 542 550 480 483 498 568 591 570 138 433 447 575 682 715 698 735 729 753 799 807 761 789 814 776 832 926 1002 974 926 890 839 778 780 786 724 600 567 673 939 1608
59 0 101 118 149 1 0 0 0 0 0 88 235 310 303 256 243 243 219 247 316 366 375 456 428 375 418 459 445 407 379 389 322 343 451 490 500 504 456 479 516 605 665 665 632 669 637 614 684 676 698 724 701 679 664 681 718 720 612 576 778 954 1142
0 0 4 53 119 132 106 103 24 41 93 207 190 42 190 202 184 180 174 180 225 307 353 386 390 357 331 328 285 284 299 361 468 472 429 362 338 332 366 475 646 441 504 506 439 398 413 402 389 378 360 312 391 412 442 426 570 471 483 588 785 934 1044
0 0 0 0 22 0 0 0 0 0 0 90 150 146 89 97 187 221 248 240 247 258 322 358 376 359 327 272 276 281 298 341 400 429 337 259 177 169 106 264 536 389 513 367 377 329 285 232 228 268 277 246 170 48 181 332 430 460 436 530 692 810 927
0 0 0 0 0 0 0 0 0 0 0 0 0 0 0 116 153 156 153 217 219 272 297 326 344 340 318 299 302 302 280 286 336 323 107 114 59 42 65 12 247 261 276 448 340 165 96 59 0 0 0 0 2 0 0 89 353 456 494 390 582 664 691
0 0 0 0 0 0 0 0 0 0 0 0 0 0 0 0 0 18 120 142 173 229 249 263 251 81 276 283 285 286 287 226 210 51 42 235 210 8 98 118 155 228 229 17 197 211 147 74 142 183 161 109 14 19 2 57 264 452 427 383 462 422 391
0 0 0 0 0 0 0 0 0 0 0 0 0 0 0 0 0 0 0 0 0 0 113 201 247 247 256 254 217 201 202 241 96 0 0 0 0 0 157 236 195 224 190 162 113 112 157 153 123 91 117 168 24 6 48 255 269 372 144 270 348 341 302
0 0 0 0 0 0 0 0 0 0 0 0 0 0 0 0 0 0 0 0 0 0 0 0 0 25 0 220 213 170 108 204 200 187 100 0 0 0 18 101 156 164 194 189 165 166 76 136 93 148 169 181 34 17 48 226 278 300 298 335 336 280 245
0 0 0 0 0 0 0 0 0 0 0 0 0 0 0 0 0 0 0 0 0 0 0 0 0 0 0 0 0 94 1 2 58 95 145 143 0 0 0 0 0 0 0 0 0 150 85 18 111 93 63 31 3 1 9 106 255 269 256 219 204 195 210
0 0 0 0 0 0 0 0 0 0 0 0 0 0 0 0 0 0 0 0 0 0 0 0 0 0 0 0 0 0 0 1 0 61 45 4 0 0 0 0 0 0 0 0 0 128 88 0 0 0 0 0 0 0 0 0 106 196 179 186 185 188 177
0 0 0 0 0 0 0 0 0 0 0 0 0 0 0 0 0 0 0 0 0 0 0 0 0 0 0 0 0 0 0 0 0 0 0 0 23 0 0 0 0 0 0 0 0 0 0 0 0 0 0 0 0 0 0 0 0 0 0 0 0 0 0
0 0 0 0 0 0 0 0 0 0 0 0 0 0 0 0 0 0 0 0 0 0 0 0 0 0 0 0 0 0 0 0 0 0 0 0 0 0 5 0 0 0 0 0 0 0 0 0 0 0 0 0 0 0 0 0 0 0 0 0 0 0 0
123 74 185 62 49 0 0 0 0 0 0 0 0 0 0 0 0 0 0 0 0 0 0 0 0 0 0 0 0 0 1 0 0 0 0 1 0 0 27 32 0 0 0 0 0 0 0 0 0 0 0 0 0 0 0 0 0 0 0 0 0 0 0

ECMWFFLT1_con_mucape_120.txt.gz
CAPE
858 881 1059 265 27 33 34 7 8 4 2 10 77 535 1187 1466 1642 1786 1832 1845 1854 2129 1920 1920 2090 1926 1947 2036 1995 1876 1608 1563 2014 2016 1694 1651 1413 1611 1725 2369 2258 2336 2150 1991 2233 2465 2003 1858 2106 2475 2560 2581 2580 2918 3011 3214 3133 3231 3084 3285 3916 3976 2896
852 785 997 914 208 65 60 31 47 73 1 24 72 680 1292 1545 1762 1920 1976 1982 2075 2262 2031 2013 2160 1990 1916 1938 1894 1748 1697 1282 1701 1973 1743 2013 2230 1882 1766 2346 2360 2295 2500 2103 2200 2266 2263 2334 2043 2458 2702 3130 2715 3172 3287 3089 3319 3409 3480 3332 3805 4050 3466
880 822 1135 1249 803 99 103 86 70 73 121 154 113 794 1342 1574 1810 1960 2099 2086 2278 2474 2127 2120 2209 2114 1922 1914 1812 1678 1713 1501 1586 1691 1666 1916 2127 1911 1976 2302 2323 2350 2368 2261 2099 2095 2199 2530 2285 2473 2807 3169 3054 3059 3628 3495 3580 3630 3768 3553 3774 4154 3694
928 991 1349 1357 1411 596 184 117 95 138 175 236 188 790 1253 1558 1783 1946 2166 2116 2358 2659 2286 2132 2234 2144 1987 1915 1789 1760 1523 1606 1578 1560 1494 1847 2100 1855 2112 2248 2312 2387 2413 2316 2107 1933 2327 2315 2389 2447 3800 2987 3218 3122 3342 3828 3764 3740 3768 3571 3495 3787 3665
943 1020 1279 1463 1409 1531 761 328 261 248 230 263 344 884 1198 1468 1655 1866 2130 2160 2305 2662 2482 2152 2187 2149 2018 1939 1755 1809 1525 1678 1688 1616 1420 1701 2096 1941 2078 2250 2385 2300 2310 2316 2371 2339 2330 2184 2246 2328 2950 3002 3042 3245 3237 3430 3639 3524 3249 3294 3324 3165 3213
942 975 1069 1294 1344 1346 1633 534 358 323 250 307 420 880 1216 1384 1526 1716 1978 2242 2256 2529 2609 2305 2128 2160 2001 1992 1721 1775 1692 1449 1751 1776 1491 1680 1878 1979 2014 2121 2326 2278 2220 2201 2350 2380 2276 2163 2077 2100 2245 2639 2905 3051 3195 3254 3292 3209 3031 3121 3062 3010 3078
954 932 929 1024 1170 1177 1429 1630 349 480 381 417 492 856 1239 1389 1566 1692 1851 2108 2232 2360 2516 2465 2135 2138 1989 1951 1755 1673 1701 1419 1568 1806 1542 1743 1771 1842 1930 2006 2038 2152 2208 2212 2056 2004 2275 2159 2029 2069 2202 2236 2467 2840 2979 3072 3184 3188 3059 2962 2928 2967 2990
822 868 838 866 1052 1112 1429 1591 1087 270 467 515 473 574 1137 1338 1597 1669 1830 1945 2103 2192 2300 2420 2190 2111 1991 1898 1747 1562 1636 1431 1576 1634 1601 1519 1595 1752 1778 1877 1963 1973 1922 1768 1702 1614 1760 2085 2100 2208 2426 2304 2379 2505 2939 3001 3034 3110 3014 3007 2977 2904 2843
588 802 1007 845 1166 993 1000 1330 1463 658 506 458 562 665 981 1298 1561 1624 1810 1886 1979 2074 2114 2227 2225 2131 2007 1876 1768 1590 1540 1497 1495 1522 1621 1553 1475 1505 1622 1688 1914 1899 1711 1704 1665 1689 1500 1685 1931 2100 2413 2452 2347 2424 2658 2892 2934 2925 2875 2825 2878 2901 2886
1030 776 791 1296 1475 1019 899 1024 1282 867 469 350 411 745 905 1291 1494 1622 1824 1878 1893 2062 2049 2058 2083 2069 2031 1866 1720 1626 1578 1512 1485 1459 1443 1490 1603 1444 1384 1579 1695 1714 1665 1665 1687 1751 1662 1475 1626 1663 1842 2131 2315 2341 2274 2260 2448 2577 2657 2683 2695 2732 2735
1235 1171 930 1334 1506 1453 1311 1148 1220 1061 471 169 320 683 839 1246 1425 1590 1788 1898 1836 1991 2081 2047 1965 1899 1970 1875 1696 1718 1695 1554 1489 1430 1374 1418 1514 1680 1625 1486 1492 1736 1683 1771 1705 1697 1671 1582 1642 1728 1715 1767 1921 2054 2041 2055 2146 2325 2481 2514 2567 2683 2728
1049 1019 894 1214 1327 1505 1498 1397 1222 1004 625 378 336 596 770 1114 1366 1517 1709 1861 1830 1851 2046 2075 2012 1926 1848 1859 1740 1722 1802 1755 1675 1441 1340 1374 1466 1481 1664 1641 1511 1671 1789 1783 1695 1568 1631 1661 1609 1770 1840 1789 1776 1834 2091 2184 2152 2171 2265 2314 2300 2406 2537
1225 851 821 1115 1344 1403 1230 1172 1121 937 777 436 1215 1477 1519 1046 1247 1400 1545 1740 1829 1864 1935 2027 2074 2081 1966 1937 1902 1758 1870 1916 1819 1608 1396 1290 1331 1302 1358 1509 1298 1256 1446 1601 1574 1467 1570 1642 1643 2147 2061 1987 1976 2024 2046 2150 2218 2149 2039 2068 2107 2164 2267
1219 1282 1180 798 873 1169 1192 863 680 910 674 752 1025 1175 1327 1306 1130 1228 1320 1479 1752 1710 1739 1918 2015 2056 2140 2153 2022 1856 1848 1902 1791 1987 1653 1352 1257 1218 1147 1143 1233 1141 1142 1222 1280 1357 1544 1568 1510 1931 2270 2224 2131 2143 2137 2062 1974 2074 2139 2167 2295 2301 2314
1222 1107 1154 1225 1188 875 813 776 817 706 710 541 791 858 1173 1359 1150 928 1212 1524 1651 1645 1662 1860 1932 1869 1876 1939 1911 1842 1758 1364 1670 1956 1982 2192 1289 1253 1206 1175 1089 982 1081 1194 1154 1162 1192 1214 1367 1485 2064 2152 2145 2111 2130 2160 2103 2215 2296 2491 2553 2432 2354
902 1021 1037 1115 894 690 583 560 622 706 736 755 858 1015 1136 1302 1203 1098 1177 1260 1227 1192 1621 1651 1704 1535 1376 1395 1602 1496 1499 1374 1674 1805 2386 2119 2089 2066 2013 1775 1432 780 813 1303 1323 1260 1266 1307 1364 1452 1713 1883 1886 1852 1909 2234 2334 2358 2330 2337 2511 2626 2555
583 634 856 920 865 408 514 716 891 821 703 782 967 1095 981 1007 1089 1094 1292 1168 1096 1185 1202 1268 1443 1511 1258 1069 984 1144 1305 1656 2012 2128 2148 2263 2266 2370 2450 2214 1759 1121 891 1176 1397 1387 1450 1458 1441 1508 1589 1690 1771 1820 1866 1981 2058 2229 2237 2096 1914 2134 2190
564 720 731 707 723 589 544 540 705 614 651 756 881 974 892 798 806 921 750 749 975 1061 1005 1036 1276 1770 1688 1418 1102 927 1195 1422 1906 2126 2032 2055 2193 2242 2352 2173 1838 1364 1140 1281 1418 1513 1544 1527 1413 1411 1394 1410 1538 1613 1781 1888 1911 1956 1969 1794 1648 1738 1878
371 441 559 524 494 571 464 535 537 390 565 776 889 920 975 1001 894 839 879 844 889 791 766 896 1214 1451 1770 1790 1713 1346 1124 1041 1033 1409 2076 2029 1862 1951 2018 2177 2137 2071 1631 1152 1295 1397 1460 1434 1380 1350 1302 1320 1315 1413 1568 1776 1915 1956 1881 1665 1504 1419 1557
429 388 382 348 514 583 488 560 602 806 550 634 938 914 889 988 914 786 1049 1147 1112 875 852 684 772 1204 1467 1643 1676 1555 1488 1260 1070 1200 1384 1887 2013 1822 1728 1688 1832 2077 2031 1819 1440 1208 1315 1271 1299 1306 1340 1334 1287 1192 1309 1442 1542 1552 1540 1491 1309 1154 1221
364 414 394 317 363 504 688 584 508 544 608 614 854 966 1030 1045 1080 1004 1094 1139 1152 1279 1220 1047 1144 1189 1210 1279 1388 1451 1430 1554 1616 1570 1592 1728 1991 2099 2016 1717 1477 1576 1740 2066 1843 1396 970 1057 1064 1043 1180 1159 1151 1040 924 914 988 1061 1099 1114 1009 935 1004
255 211 259 261 283 292 397 456 555 548 618 601 627 848 1120 1175 1195 1059 1073 1176 1087 914 765 983 1048 1099 995 1006 808 870 1064 1303 1518 1542 1542 1610 1613 1659 1771 1924 1664 1463 1758 1742 1617 1352 1170 890 693 910 1097 1016 849 899 791 608 659 738 749 636 623 754 924
0 0 0 0 3 160 208 301 358 404 496 600 633 618 796 913 944 920 862 834 832 730 593 556 823 854 814 834 774 762 770 961 1215 1380 1464 1383 1298 1164 1147 1143 1335 1452 1355 1477 1482 1429 1370 1205 1128 1015 946 963 1174 1034 893 873 850 813 755 671 578 524 631
206 214 0 0 0 0 91 175 213 228 212 280 347 395 508 558 517 612 594 546 527 518 514 466 609 717 728 667 650 577 636 692 762 907 1085 1105 953 931 877 847 821 791 747 891 1156 1352 1399 1321 1207 1159 994 1149 1269 1231 1205 1105 1014 957 914 875 840 807 787
196 177 150 0 0 0 0 0 162 155 121 101 60 10 0 0 0 326 397 385 381 387 422 509 591 777 857 850 753 635 586 516 479 483 543 590 615 623 636 660 684 656 649 689 713 619 693 900 1177 1256 1159 1123 1254 1161 1180 1094 1051 1029 1016 972 967 938 1044
81 0 23 2 0 0 0 0 0 0 5 0 0 0 0 0 116 249 290 310 330 342 381 442 482 520 575 692 712 676 641 549 511 498 545 570 637 664 690 675 662 662 633 650 662 664 718 838 822 738 756 848 928 952 842 838 792 789 782 817 808 883 1039
0 0 0 0 0 0 0 0 0 0 0 0 0 0 0 0 72 87 80 242 290 361 427 476 452 435 354 353 408 429 447 428 428 548 566 541 572 615 665 680 618 626 652 671 662 652 622 645 772 860 848 770 639 709 763 754 760 723 714 708 727 722 723
0 0 0 0 0 0 0 0 0 0 0 0 0 0 0 0 0 0 0 0 93 264 315 370 381 356 348 356 351 352 355 379 390 271 262 324 365 404 361 400 437 404 397 375 362 443 543 518 636 742 782 663 652 558 550 599 577 595 652 698 700 668 625
0 0 0 0 0 0 0 0 0 0 0 0 0 45 0 0 0 0 0 0 0 0 160 291 286 262 248 250 247 224 202 233 315 330 274 274 280 383 447 446 411 350 338 303 340 335 428 393 349 549 533 536 519 461 436 428 392 344 385 444 542 590 616
0 0 0 0 0 0 0 0 0 0 0 0 0 0 0 0 0 0 0 0 0 0 15 138 195 185 86 220 213 205 203 191 161 199 234 270 279 312 346 337 339 336 298 252 232 308 330 351 343 356 420 426 384 355 334 305 286 234 254 311 403 466 560
0 0 0 0 0 0 0 0 0 0 0 0 0 0 0 0 0 0 0 0 0 0 0 0 0 28 94 118 0 0 258 268 212 202 220 229 233 236 244 305 345 358 326 316 304 272 177 250 287 284 234 89 161 178 163 137 0 0 15 83 223 355 524
0 0 0 0 0 0 0 0 0 0 0 0 0 0 0 0 0 0 0 0 0 0 0 0 0 0 0 0 0 0 32 77 142 192 217 164 202 218 240 269 311 328 318 269 274 262 14 2 192 162 126 29 28 15 5 8 0 0 0 10 0 222 426
0 0 0 0 0 0 0 0 0 0 0 0 0 0 0 0 0 0 0 0 0 0 0 0 0 0 0 0 0 0 0 0 0 0 0 0 179 224 214 226 245 262 136 200 270 217 136 51 21 15 11 15 19 0 9 24 54 56 163 147 66 0 139
0 0 0 0 0 0 0 0 0 0 0 0 0 0 0 0 0 0 0 0 0 0 0 0 0 0 0 0 0 0 0 0 0 0 0 0 14 0 127 189 0 0 0 99 0 96 139 88 21 44 47 15 1 0 0 15 108 143 144 144 140 97 131
0 0 0 0 0 0 0 0 0 0 0 0 0 0 0 0 0 0 0 0 0 0 0 0 0 0 0 0 0 0 0 0 0 0 0 0 0 0 0 0 0 0 0 8 58 0 12 47 37 13 2 3 6 6 3 4 4 6 49 176 209 194 193
0 0 0 0 0 0 0 0 0 0 0 0 0 0 0 0 0 0 0 0 0 0 0 0 0 0 0 0 0 0 0 0 0 0 0 0 0 0 0 0 0 41 0 33 1 7 3 0 0 0 1 3 6 5 6 3 0 11 76 120 153 174 173
0 0 0 0 0 0 0 0 0 0 0 0 0 0 0 0 0 0 0 0 0 0 0 0 0 0 0 0 0 0 0 0 0 0 0 0 0 0 0 0 0 0 0 0 0 0 0 0 0 0 0 0 0 0 0 0 0 0 0 0 100 148 193
0 0 0 0 0 0 0 0 0 0 0 0 0 0 0 0 0 0 0 0 0 0 0 0 0 0 0 0 0 0 0 0 0 0 0 0 0 0 0 0 0 0 0 0 0 0 0 0 0 0 0 0 0 0 0 0 0 0 0 0 0 0 0